<?xml version="1.0" encoding="UTF-8" standalone="no" ?>
<gpx xmlns="http://www.topografix.com/GPX/1/1" xmlns:xsi="http://www.w3.org/2001/XMLSchema-instance" xsi:schemaLocation="http://www.topografix.com/GPX/1/1 http://www.topografix.com/GPX/1/1/gpx.xsd" version="1.1" creator="VisuGPX - https://www.visugpx.com">
  <metadata>
    <name>Pornichet 20/01/2022</name>
    <desc><![CDATA[Sortie vtt jeudi 20 janvier 2022]]></desc>
  </metadata>
  <trk>
    <name><![CDATA[Pornichet Cyclisme]]></name>
    <trkseg>
      <trkpt lat="47.26408" lon="-2.31571">
        <ele>14</ele>
        <time>2022-01-20T08:19:45.000Z</time>
      </trkpt>
      <trkpt lat="47.2641" lon="-2.31584">
        <ele>14</ele>
        <time>2022-01-20T08:19:48.000Z</time>
      </trkpt>
      <trkpt lat="47.2641" lon="-2.31589">
        <ele>14</ele>
        <time>2022-01-20T08:19:49.000Z</time>
      </trkpt>
      <trkpt lat="47.2641" lon="-2.31599">
        <ele>14</ele>
        <time>2022-01-20T08:19:51.000Z</time>
      </trkpt>
      <trkpt lat="47.2641" lon="-2.31638">
        <ele>14</ele>
        <time>2022-01-20T08:19:58.000Z</time>
      </trkpt>
      <trkpt lat="47.26409" lon="-2.31664">
        <ele>14</ele>
        <time>2022-01-20T08:20:03.000Z</time>
      </trkpt>
      <trkpt lat="47.26406" lon="-2.31666">
        <ele>14</ele>
        <time>2022-01-20T08:20:04.000Z</time>
      </trkpt>
      <trkpt lat="47.26395" lon="-2.31672">
        <ele>14</ele>
        <time>2022-01-20T08:20:07.000Z</time>
      </trkpt>
      <trkpt lat="47.26386" lon="-2.31678">
        <ele>14</ele>
        <time>2022-01-20T08:20:09.000Z</time>
      </trkpt>
      <trkpt lat="47.26364" lon="-2.3169">
        <ele>14</ele>
        <time>2022-01-20T08:20:14.000Z</time>
      </trkpt>
      <trkpt lat="47.26354" lon="-2.31696">
        <ele>13.60000038147</ele>
        <time>2022-01-20T08:20:16.000Z</time>
      </trkpt>
      <trkpt lat="47.2635" lon="-2.31698">
        <ele>13.199999809265</ele>
        <time>2022-01-20T08:20:17.000Z</time>
      </trkpt>
      <trkpt lat="47.26345" lon="-2.31701">
        <ele>12.60000038147</ele>
        <time>2022-01-20T08:20:18.000Z</time>
      </trkpt>
      <trkpt lat="47.2634" lon="-2.31703">
        <ele>12.199999809265</ele>
        <time>2022-01-20T08:20:19.000Z</time>
      </trkpt>
      <trkpt lat="47.26335" lon="-2.31705">
        <ele>11.800000190735</ele>
        <time>2022-01-20T08:20:20.000Z</time>
      </trkpt>
      <trkpt lat="47.2632" lon="-2.31713">
        <ele>11.800000190735</ele>
        <time>2022-01-20T08:20:23.000Z</time>
      </trkpt>
      <trkpt lat="47.26307" lon="-2.3172">
        <ele>11.800000190735</ele>
        <time>2022-01-20T08:20:26.000Z</time>
      </trkpt>
      <trkpt lat="47.26304" lon="-2.31725">
        <ele>11.39999961853</ele>
        <time>2022-01-20T08:20:27.000Z</time>
      </trkpt>
      <trkpt lat="47.26302" lon="-2.3173">
        <ele>11</ele>
        <time>2022-01-20T08:20:28.000Z</time>
      </trkpt>
      <trkpt lat="47.26302" lon="-2.31734">
        <ele>10.39999961853</ele>
        <time>2022-01-20T08:20:29.000Z</time>
      </trkpt>
      <trkpt lat="47.26302" lon="-2.31738">
        <ele>10</ele>
        <time>2022-01-20T08:20:30.000Z</time>
      </trkpt>
      <trkpt lat="47.26303" lon="-2.31743">
        <ele>9.6000003814697</ele>
        <time>2022-01-20T08:20:31.000Z</time>
      </trkpt>
      <trkpt lat="47.26303" lon="-2.31748">
        <ele>9.6000003814697</ele>
        <time>2022-01-20T08:20:32.000Z</time>
      </trkpt>
      <trkpt lat="47.26305" lon="-2.31774">
        <ele>9.6000003814697</ele>
        <time>2022-01-20T08:20:37.000Z</time>
      </trkpt>
      <trkpt lat="47.26305" lon="-2.31779">
        <ele>9.6000003814697</ele>
        <time>2022-01-20T08:20:38.000Z</time>
      </trkpt>
      <trkpt lat="47.26304" lon="-2.31815">
        <ele>9.6000003814697</ele>
        <time>2022-01-20T08:20:44.000Z</time>
      </trkpt>
      <trkpt lat="47.263" lon="-2.31852">
        <ele>9.6000003814697</ele>
        <time>2022-01-20T08:20:50.000Z</time>
      </trkpt>
      <trkpt lat="47.263" lon="-2.31877">
        <ele>9.6000003814697</ele>
        <time>2022-01-20T08:20:55.000Z</time>
      </trkpt>
      <trkpt lat="47.26298" lon="-2.31882">
        <ele>9.6000003814697</ele>
        <time>2022-01-20T08:20:56.000Z</time>
      </trkpt>
      <trkpt lat="47.26294" lon="-2.31888">
        <ele>9.6000003814697</ele>
        <time>2022-01-20T08:20:58.000Z</time>
      </trkpt>
      <trkpt lat="47.26288" lon="-2.31894">
        <ele>9.6000003814697</ele>
        <time>2022-01-20T08:21:00.000Z</time>
      </trkpt>
      <trkpt lat="47.2628" lon="-2.31907">
        <ele>9.6000003814697</ele>
        <time>2022-01-20T08:21:03.000Z</time>
      </trkpt>
      <trkpt lat="47.26271" lon="-2.31921">
        <ele>9.6000003814697</ele>
        <time>2022-01-20T08:21:07.000Z</time>
      </trkpt>
      <trkpt lat="47.26252" lon="-2.31953">
        <ele>9.6000003814697</ele>
        <time>2022-01-20T08:21:15.000Z</time>
      </trkpt>
      <trkpt lat="47.26239" lon="-2.31967">
        <ele>9.6000003814697</ele>
        <time>2022-01-20T08:21:20.000Z</time>
      </trkpt>
      <trkpt lat="47.26237" lon="-2.31969">
        <ele>9.6000003814697</ele>
        <time>2022-01-20T08:21:21.000Z</time>
      </trkpt>
      <trkpt lat="47.26229" lon="-2.31979">
        <ele>9.6000003814697</ele>
        <time>2022-01-20T08:21:26.000Z</time>
      </trkpt>
      <trkpt lat="47.26214" lon="-2.31994">
        <ele>9.6000003814697</ele>
        <time>2022-01-20T08:21:32.000Z</time>
      </trkpt>
      <trkpt lat="47.26211" lon="-2.32">
        <ele>9.6000003814697</ele>
        <time>2022-01-20T08:21:34.000Z</time>
      </trkpt>
      <trkpt lat="47.26211" lon="-2.32006">
        <ele>9.6000003814697</ele>
        <time>2022-01-20T08:21:36.000Z</time>
      </trkpt>
      <trkpt lat="47.26208" lon="-2.32015">
        <ele>9.6000003814697</ele>
        <time>2022-01-20T08:21:40.000Z</time>
      </trkpt>
      <trkpt lat="47.26207" lon="-2.32016">
        <ele>9.6000003814697</ele>
        <time>2022-01-20T08:21:41.000Z</time>
      </trkpt>
      <trkpt lat="47.26201" lon="-2.32016">
        <ele>9.6000003814697</ele>
        <time>2022-01-20T08:21:46.000Z</time>
      </trkpt>
      <trkpt lat="47.26196" lon="-2.32018">
        <ele>9.6000003814697</ele>
        <time>2022-01-20T08:21:48.000Z</time>
      </trkpt>
      <trkpt lat="47.2619" lon="-2.32023">
        <ele>9.6000003814697</ele>
        <time>2022-01-20T08:21:50.000Z</time>
      </trkpt>
      <trkpt lat="47.26176" lon="-2.32029">
        <ele>9.6000003814697</ele>
        <time>2022-01-20T08:21:53.000Z</time>
      </trkpt>
      <trkpt lat="47.26166" lon="-2.32043">
        <ele>9.6000003814697</ele>
        <time>2022-01-20T08:21:56.000Z</time>
      </trkpt>
      <trkpt lat="47.26161" lon="-2.32056">
        <ele>9.6000003814697</ele>
        <time>2022-01-20T08:21:58.000Z</time>
      </trkpt>
      <trkpt lat="47.26154" lon="-2.3208">
        <ele>9.6000003814697</ele>
        <time>2022-01-20T08:22:02.000Z</time>
      </trkpt>
      <trkpt lat="47.26143" lon="-2.32117">
        <ele>9.6000003814697</ele>
        <time>2022-01-20T08:22:08.000Z</time>
      </trkpt>
      <trkpt lat="47.26139" lon="-2.32129">
        <ele>9.6000003814697</ele>
        <time>2022-01-20T08:22:10.000Z</time>
      </trkpt>
      <trkpt lat="47.26124" lon="-2.32177">
        <ele>9.6000003814697</ele>
        <time>2022-01-20T08:22:18.000Z</time>
      </trkpt>
      <trkpt lat="47.26121" lon="-2.32182">
        <ele>9.6000003814697</ele>
        <time>2022-01-20T08:22:19.000Z</time>
      </trkpt>
      <trkpt lat="47.26111" lon="-2.32203">
        <ele>9.6000003814697</ele>
        <time>2022-01-20T08:22:23.000Z</time>
      </trkpt>
      <trkpt lat="47.26098" lon="-2.32223">
        <ele>9.6000003814697</ele>
        <time>2022-01-20T08:22:27.000Z</time>
      </trkpt>
      <trkpt lat="47.26088" lon="-2.32237">
        <ele>9.6000003814697</ele>
        <time>2022-01-20T08:22:30.000Z</time>
      </trkpt>
      <trkpt lat="47.26064" lon="-2.32262">
        <ele>9.6000003814697</ele>
        <time>2022-01-20T08:22:36.000Z</time>
      </trkpt>
      <trkpt lat="47.26053" lon="-2.32275">
        <ele>9.6000003814697</ele>
        <time>2022-01-20T08:22:39.000Z</time>
      </trkpt>
      <trkpt lat="47.26041" lon="-2.32287">
        <ele>9.6000003814697</ele>
        <time>2022-01-20T08:22:42.000Z</time>
      </trkpt>
      <trkpt lat="47.26012" lon="-2.3232">
        <ele>9.6000003814697</ele>
        <time>2022-01-20T08:22:50.000Z</time>
      </trkpt>
      <trkpt lat="47.25986" lon="-2.32353">
        <ele>9.6000003814697</ele>
        <time>2022-01-20T08:22:57.000Z</time>
      </trkpt>
      <trkpt lat="47.25978" lon="-2.32362">
        <ele>9.6000003814697</ele>
        <time>2022-01-20T08:22:59.000Z</time>
      </trkpt>
      <trkpt lat="47.25956" lon="-2.32389">
        <ele>9.6000003814697</ele>
        <time>2022-01-20T08:23:05.000Z</time>
      </trkpt>
      <trkpt lat="47.25929" lon="-2.32424">
        <ele>9.6000003814697</ele>
        <time>2022-01-20T08:23:12.000Z</time>
      </trkpt>
      <trkpt lat="47.25904" lon="-2.32456">
        <ele>9.6000003814697</ele>
        <time>2022-01-20T08:23:19.000Z</time>
      </trkpt>
      <trkpt lat="47.25905" lon="-2.32468">
        <ele>9.6000003814697</ele>
        <time>2022-01-20T08:23:22.000Z</time>
      </trkpt>
      <trkpt lat="47.25914" lon="-2.32475">
        <ele>9.6000003814697</ele>
        <time>2022-01-20T08:23:25.000Z</time>
      </trkpt>
      <trkpt lat="47.25918" lon="-2.32478">
        <ele>9.6000003814697</ele>
        <time>2022-01-20T08:23:26.000Z</time>
      </trkpt>
      <trkpt lat="47.25929" lon="-2.32501">
        <ele>9.6000003814697</ele>
        <time>2022-01-20T08:23:30.000Z</time>
      </trkpt>
      <trkpt lat="47.25938" lon="-2.32528">
        <ele>9.6000003814697</ele>
        <time>2022-01-20T08:23:34.000Z</time>
      </trkpt>
      <trkpt lat="47.25941" lon="-2.32542">
        <ele>9.6000003814697</ele>
        <time>2022-01-20T08:23:36.000Z</time>
      </trkpt>
      <trkpt lat="47.25954" lon="-2.32608">
        <ele>9.6000003814697</ele>
        <time>2022-01-20T08:23:45.000Z</time>
      </trkpt>
      <trkpt lat="47.25959" lon="-2.32635">
        <ele>9.6000003814697</ele>
        <time>2022-01-20T08:23:49.000Z</time>
      </trkpt>
      <trkpt lat="47.25959" lon="-2.32648">
        <ele>9.6000003814697</ele>
        <time>2022-01-20T08:23:51.000Z</time>
      </trkpt>
      <trkpt lat="47.25962" lon="-2.32657">
        <ele>9.6000003814697</ele>
        <time>2022-01-20T08:23:53.000Z</time>
      </trkpt>
      <trkpt lat="47.25965" lon="-2.32657">
        <ele>9.6000003814697</ele>
        <time>2022-01-20T08:23:54.000Z</time>
      </trkpt>
      <trkpt lat="47.25981" lon="-2.32656">
        <ele>9.6000003814697</ele>
        <time>2022-01-20T08:23:58.000Z</time>
      </trkpt>
      <trkpt lat="47.25993" lon="-2.32656">
        <ele>9.6000003814697</ele>
        <time>2022-01-20T08:24:01.000Z</time>
      </trkpt>
      <trkpt lat="47.26005" lon="-2.32654">
        <ele>9.6000003814697</ele>
        <time>2022-01-20T08:24:04.000Z</time>
      </trkpt>
      <trkpt lat="47.26035" lon="-2.3265">
        <ele>9.6000003814697</ele>
        <time>2022-01-20T08:24:11.000Z</time>
      </trkpt>
      <trkpt lat="47.26073" lon="-2.32642">
        <ele>9.6000003814697</ele>
        <time>2022-01-20T08:24:20.000Z</time>
      </trkpt>
      <trkpt lat="47.26107" lon="-2.32638">
        <ele>9.6000003814697</ele>
        <time>2022-01-20T08:24:28.000Z</time>
      </trkpt>
      <trkpt lat="47.26115" lon="-2.32637">
        <ele>9.6000003814697</ele>
        <time>2022-01-20T08:24:30.000Z</time>
      </trkpt>
      <trkpt lat="47.26136" lon="-2.3264">
        <ele>9.6000003814697</ele>
        <time>2022-01-20T08:24:35.000Z</time>
      </trkpt>
      <trkpt lat="47.26141" lon="-2.32642">
        <ele>9.6000003814697</ele>
        <time>2022-01-20T08:24:36.000Z</time>
      </trkpt>
      <trkpt lat="47.26166" lon="-2.32652">
        <ele>9.6000003814697</ele>
        <time>2022-01-20T08:24:42.000Z</time>
      </trkpt>
      <trkpt lat="47.2617" lon="-2.32655">
        <ele>9.6000003814697</ele>
        <time>2022-01-20T08:24:43.000Z</time>
      </trkpt>
      <trkpt lat="47.26182" lon="-2.32664">
        <ele>9.6000003814697</ele>
        <time>2022-01-20T08:24:47.000Z</time>
      </trkpt>
      <trkpt lat="47.26182" lon="-2.32664">
        <ele>9.6000003814697</ele>
        <time>2022-01-20T08:24:50.000Z</time>
      </trkpt>
      <trkpt lat="47.26183" lon="-2.32665">
        <ele>9.6000003814697</ele>
        <time>2022-01-20T08:25:13.000Z</time>
      </trkpt>
      <trkpt lat="47.26193" lon="-2.32675">
        <ele>9.6000003814697</ele>
        <time>2022-01-20T08:25:17.000Z</time>
      </trkpt>
      <trkpt lat="47.26215" lon="-2.327">
        <ele>9.6000003814697</ele>
        <time>2022-01-20T08:25:23.000Z</time>
      </trkpt>
      <trkpt lat="47.26222" lon="-2.3271">
        <ele>9.6000003814697</ele>
        <time>2022-01-20T08:25:25.000Z</time>
      </trkpt>
      <trkpt lat="47.26242" lon="-2.32738">
        <ele>9.6000003814697</ele>
        <time>2022-01-20T08:25:30.000Z</time>
      </trkpt>
      <trkpt lat="47.2627" lon="-2.32782">
        <ele>9.6000003814697</ele>
        <time>2022-01-20T08:25:37.000Z</time>
      </trkpt>
      <trkpt lat="47.26285" lon="-2.32825">
        <ele>9.6000003814697</ele>
        <time>2022-01-20T08:25:43.000Z</time>
      </trkpt>
      <trkpt lat="47.26286" lon="-2.32834">
        <ele>9.6000003814697</ele>
        <time>2022-01-20T08:25:44.000Z</time>
      </trkpt>
      <trkpt lat="47.26289" lon="-2.32849">
        <ele>9.6000003814697</ele>
        <time>2022-01-20T08:25:46.000Z</time>
      </trkpt>
      <trkpt lat="47.26292" lon="-2.32856">
        <ele>9.6000003814697</ele>
        <time>2022-01-20T08:25:47.000Z</time>
      </trkpt>
      <trkpt lat="47.26307" lon="-2.32863">
        <ele>9.6000003814697</ele>
        <time>2022-01-20T08:25:50.000Z</time>
      </trkpt>
      <trkpt lat="47.26312" lon="-2.32864">
        <ele>9.6000003814697</ele>
        <time>2022-01-20T08:25:51.000Z</time>
      </trkpt>
      <trkpt lat="47.26317" lon="-2.32869">
        <ele>9.6000003814697</ele>
        <time>2022-01-20T08:25:52.000Z</time>
      </trkpt>
      <trkpt lat="47.26322" lon="-2.32882">
        <ele>9.6000003814697</ele>
        <time>2022-01-20T08:25:54.000Z</time>
      </trkpt>
      <trkpt lat="47.26326" lon="-2.32896">
        <ele>9.6000003814697</ele>
        <time>2022-01-20T08:25:56.000Z</time>
      </trkpt>
      <trkpt lat="47.26333" lon="-2.32916">
        <ele>9.6000003814697</ele>
        <time>2022-01-20T08:25:59.000Z</time>
      </trkpt>
      <trkpt lat="47.26335" lon="-2.32923">
        <ele>9.6000003814697</ele>
        <time>2022-01-20T08:26:00.000Z</time>
      </trkpt>
      <trkpt lat="47.26348" lon="-2.32964">
        <ele>9.6000003814697</ele>
        <time>2022-01-20T08:26:06.000Z</time>
      </trkpt>
      <trkpt lat="47.26355" lon="-2.32977">
        <ele>9.6000003814697</ele>
        <time>2022-01-20T08:26:08.000Z</time>
      </trkpt>
      <trkpt lat="47.26365" lon="-2.32992">
        <ele>9.6000003814697</ele>
        <time>2022-01-20T08:26:11.000Z</time>
      </trkpt>
      <trkpt lat="47.26368" lon="-2.33014">
        <ele>9.6000003814697</ele>
        <time>2022-01-20T08:26:14.000Z</time>
      </trkpt>
      <trkpt lat="47.26368" lon="-2.3303">
        <ele>9.6000003814697</ele>
        <time>2022-01-20T08:26:16.000Z</time>
      </trkpt>
      <trkpt lat="47.2637" lon="-2.33077">
        <ele>9.6000003814697</ele>
        <time>2022-01-20T08:26:22.000Z</time>
      </trkpt>
      <trkpt lat="47.26374" lon="-2.33146">
        <ele>9.6000003814697</ele>
        <time>2022-01-20T08:26:31.000Z</time>
      </trkpt>
      <trkpt lat="47.26378" lon="-2.3322">
        <ele>9.6000003814697</ele>
        <time>2022-01-20T08:26:41.000Z</time>
      </trkpt>
      <trkpt lat="47.2638" lon="-2.33241">
        <ele>9.6000003814697</ele>
        <time>2022-01-20T08:26:44.000Z</time>
      </trkpt>
      <trkpt lat="47.26387" lon="-2.33259">
        <ele>9.6000003814697</ele>
        <time>2022-01-20T08:26:47.000Z</time>
      </trkpt>
      <trkpt lat="47.26402" lon="-2.33266">
        <ele>9.6000003814697</ele>
        <time>2022-01-20T08:26:50.000Z</time>
      </trkpt>
      <trkpt lat="47.26412" lon="-2.33267">
        <ele>9.6000003814697</ele>
        <time>2022-01-20T08:26:52.000Z</time>
      </trkpt>
      <trkpt lat="47.26431" lon="-2.33269">
        <ele>9.6000003814697</ele>
        <time>2022-01-20T08:26:56.000Z</time>
      </trkpt>
      <trkpt lat="47.2646" lon="-2.33274">
        <ele>9.6000003814697</ele>
        <time>2022-01-20T08:27:02.000Z</time>
      </trkpt>
      <trkpt lat="47.26469" lon="-2.33277">
        <ele>9.6000003814697</ele>
        <time>2022-01-20T08:27:04.000Z</time>
      </trkpt>
      <trkpt lat="47.26473" lon="-2.33278">
        <ele>9.6000003814697</ele>
        <time>2022-01-20T08:27:05.000Z</time>
      </trkpt>
      <trkpt lat="47.26496" lon="-2.33279">
        <ele>9.6000003814697</ele>
        <time>2022-01-20T08:27:10.000Z</time>
      </trkpt>
      <trkpt lat="47.26504" lon="-2.33282">
        <ele>9.6000003814697</ele>
        <time>2022-01-20T08:27:12.000Z</time>
      </trkpt>
      <trkpt lat="47.26511" lon="-2.33289">
        <ele>9.6000003814697</ele>
        <time>2022-01-20T08:27:14.000Z</time>
      </trkpt>
      <trkpt lat="47.26523" lon="-2.33302">
        <ele>9.6000003814697</ele>
        <time>2022-01-20T08:27:17.000Z</time>
      </trkpt>
      <trkpt lat="47.26528" lon="-2.33314">
        <ele>9.6000003814697</ele>
        <time>2022-01-20T08:27:19.000Z</time>
      </trkpt>
      <trkpt lat="47.26527" lon="-2.33338">
        <ele>9.6000003814697</ele>
        <time>2022-01-20T08:27:22.000Z</time>
      </trkpt>
      <trkpt lat="47.26529" lon="-2.33354">
        <ele>9.6000003814697</ele>
        <time>2022-01-20T08:27:24.000Z</time>
      </trkpt>
      <trkpt lat="47.26534" lon="-2.33377">
        <ele>9.6000003814697</ele>
        <time>2022-01-20T08:27:27.000Z</time>
      </trkpt>
      <trkpt lat="47.26545" lon="-2.33428">
        <ele>9.6000003814697</ele>
        <time>2022-01-20T08:27:34.000Z</time>
      </trkpt>
      <trkpt lat="47.2655" lon="-2.33459">
        <ele>9.6000003814697</ele>
        <time>2022-01-20T08:27:38.000Z</time>
      </trkpt>
      <trkpt lat="47.26552" lon="-2.33474">
        <ele>9.6000003814697</ele>
        <time>2022-01-20T08:27:40.000Z</time>
      </trkpt>
      <trkpt lat="47.26558" lon="-2.33502">
        <ele>9.6000003814697</ele>
        <time>2022-01-20T08:27:44.000Z</time>
      </trkpt>
      <trkpt lat="47.26562" lon="-2.33515">
        <ele>9.6000003814697</ele>
        <time>2022-01-20T08:27:46.000Z</time>
      </trkpt>
      <trkpt lat="47.26568" lon="-2.33557">
        <ele>9.6000003814697</ele>
        <time>2022-01-20T08:27:52.000Z</time>
      </trkpt>
      <trkpt lat="47.26574" lon="-2.33603">
        <ele>9.6000003814697</ele>
        <time>2022-01-20T08:27:59.000Z</time>
      </trkpt>
      <trkpt lat="47.26577" lon="-2.33621">
        <ele>9.6000003814697</ele>
        <time>2022-01-20T08:28:02.000Z</time>
      </trkpt>
      <trkpt lat="47.26576" lon="-2.33639">
        <ele>9.6000003814697</ele>
        <time>2022-01-20T08:28:05.000Z</time>
      </trkpt>
      <trkpt lat="47.26577" lon="-2.33645">
        <ele>9.6000003814697</ele>
        <time>2022-01-20T08:28:06.000Z</time>
      </trkpt>
      <trkpt lat="47.26581" lon="-2.33666">
        <ele>9.6000003814697</ele>
        <time>2022-01-20T08:28:10.000Z</time>
      </trkpt>
      <trkpt lat="47.26597" lon="-2.33691">
        <ele>10</ele>
        <time>2022-01-20T08:28:16.000Z</time>
      </trkpt>
      <trkpt lat="47.26599" lon="-2.33694">
        <ele>10.39999961853</ele>
        <time>2022-01-20T08:28:17.000Z</time>
      </trkpt>
      <trkpt lat="47.26602" lon="-2.33696">
        <ele>10.800000190735</ele>
        <time>2022-01-20T08:28:18.000Z</time>
      </trkpt>
      <trkpt lat="47.26605" lon="-2.33698">
        <ele>11.199999809265</ele>
        <time>2022-01-20T08:28:19.000Z</time>
      </trkpt>
      <trkpt lat="47.26607" lon="-2.337">
        <ele>11.60000038147</ele>
        <time>2022-01-20T08:28:20.000Z</time>
      </trkpt>
      <trkpt lat="47.2661" lon="-2.3371">
        <ele>11.60000038147</ele>
        <time>2022-01-20T08:28:23.000Z</time>
      </trkpt>
      <trkpt lat="47.26608" lon="-2.33734">
        <ele>11.60000038147</ele>
        <time>2022-01-20T08:28:27.000Z</time>
      </trkpt>
      <trkpt lat="47.26603" lon="-2.33784">
        <ele>12</ele>
        <time>2022-01-20T08:28:35.000Z</time>
      </trkpt>
      <trkpt lat="47.26602" lon="-2.3379">
        <ele>12.60000038147</ele>
        <time>2022-01-20T08:28:36.000Z</time>
      </trkpt>
      <trkpt lat="47.26602" lon="-2.33796">
        <ele>13</ele>
        <time>2022-01-20T08:28:37.000Z</time>
      </trkpt>
      <trkpt lat="47.26601" lon="-2.33803">
        <ele>13.39999961853</ele>
        <time>2022-01-20T08:28:38.000Z</time>
      </trkpt>
      <trkpt lat="47.266" lon="-2.3381">
        <ele>13.800000190735</ele>
        <time>2022-01-20T08:28:39.000Z</time>
      </trkpt>
      <trkpt lat="47.26596" lon="-2.33842">
        <ele>13.800000190735</ele>
        <time>2022-01-20T08:28:44.000Z</time>
      </trkpt>
      <trkpt lat="47.2659" lon="-2.33888">
        <ele>13.800000190735</ele>
        <time>2022-01-20T08:28:51.000Z</time>
      </trkpt>
      <trkpt lat="47.26585" lon="-2.33935">
        <ele>13.800000190735</ele>
        <time>2022-01-20T08:28:58.000Z</time>
      </trkpt>
      <trkpt lat="47.26583" lon="-2.33959">
        <ele>13.800000190735</ele>
        <time>2022-01-20T08:29:02.000Z</time>
      </trkpt>
      <trkpt lat="47.26583" lon="-2.33972">
        <ele>13.800000190735</ele>
        <time>2022-01-20T08:29:04.000Z</time>
      </trkpt>
      <trkpt lat="47.26576" lon="-2.34012">
        <ele>13.800000190735</ele>
        <time>2022-01-20T08:29:10.000Z</time>
      </trkpt>
      <trkpt lat="47.26575" lon="-2.34019">
        <ele>13.800000190735</ele>
        <time>2022-01-20T08:29:11.000Z</time>
      </trkpt>
      <trkpt lat="47.26572" lon="-2.3404">
        <ele>13.800000190735</ele>
        <time>2022-01-20T08:29:14.000Z</time>
      </trkpt>
      <trkpt lat="47.26573" lon="-2.34052">
        <ele>13.800000190735</ele>
        <time>2022-01-20T08:29:16.000Z</time>
      </trkpt>
      <trkpt lat="47.26584" lon="-2.34059">
        <ele>13.800000190735</ele>
        <time>2022-01-20T08:29:19.000Z</time>
      </trkpt>
      <trkpt lat="47.26592" lon="-2.34064">
        <ele>13.800000190735</ele>
        <time>2022-01-20T08:29:21.000Z</time>
      </trkpt>
      <trkpt lat="47.26601" lon="-2.34069">
        <ele>13.800000190735</ele>
        <time>2022-01-20T08:29:23.000Z</time>
      </trkpt>
      <trkpt lat="47.26605" lon="-2.34072">
        <ele>13.800000190735</ele>
        <time>2022-01-20T08:29:24.000Z</time>
      </trkpt>
      <trkpt lat="47.26638" lon="-2.34098">
        <ele>13.800000190735</ele>
        <time>2022-01-20T08:29:32.000Z</time>
      </trkpt>
      <trkpt lat="47.26667" lon="-2.34118">
        <ele>13.800000190735</ele>
        <time>2022-01-20T08:29:39.000Z</time>
      </trkpt>
      <trkpt lat="47.26699" lon="-2.3414">
        <ele>13.800000190735</ele>
        <time>2022-01-20T08:29:46.000Z</time>
      </trkpt>
      <trkpt lat="47.26717" lon="-2.34152">
        <ele>13.800000190735</ele>
        <time>2022-01-20T08:29:50.000Z</time>
      </trkpt>
      <trkpt lat="47.26726" lon="-2.34158">
        <ele>13.800000190735</ele>
        <time>2022-01-20T08:29:52.000Z</time>
      </trkpt>
      <trkpt lat="47.26757" lon="-2.34179">
        <ele>13.800000190735</ele>
        <time>2022-01-20T08:29:59.000Z</time>
      </trkpt>
      <trkpt lat="47.26761" lon="-2.34181">
        <ele>13.800000190735</ele>
        <time>2022-01-20T08:30:00.000Z</time>
      </trkpt>
      <trkpt lat="47.26775" lon="-2.3419">
        <ele>13.800000190735</ele>
        <time>2022-01-20T08:30:03.000Z</time>
      </trkpt>
      <trkpt lat="47.26784" lon="-2.34195">
        <ele>13.800000190735</ele>
        <time>2022-01-20T08:30:05.000Z</time>
      </trkpt>
      <trkpt lat="47.26789" lon="-2.34198">
        <ele>13.800000190735</ele>
        <time>2022-01-20T08:30:06.000Z</time>
      </trkpt>
      <trkpt lat="47.26824" lon="-2.34224">
        <ele>13.800000190735</ele>
        <time>2022-01-20T08:30:14.000Z</time>
      </trkpt>
      <trkpt lat="47.26842" lon="-2.34235">
        <ele>13.800000190735</ele>
        <time>2022-01-20T08:30:18.000Z</time>
      </trkpt>
      <trkpt lat="47.26851" lon="-2.3424">
        <ele>13.800000190735</ele>
        <time>2022-01-20T08:30:20.000Z</time>
      </trkpt>
      <trkpt lat="47.26886" lon="-2.34263">
        <ele>13.800000190735</ele>
        <time>2022-01-20T08:30:28.000Z</time>
      </trkpt>
      <trkpt lat="47.26903" lon="-2.34274">
        <ele>13.800000190735</ele>
        <time>2022-01-20T08:30:33.000Z</time>
      </trkpt>
      <trkpt lat="47.26922" lon="-2.34286">
        <ele>13.800000190735</ele>
        <time>2022-01-20T08:30:39.000Z</time>
      </trkpt>
      <trkpt lat="47.26937" lon="-2.34303">
        <ele>13.800000190735</ele>
        <time>2022-01-20T08:30:43.000Z</time>
      </trkpt>
      <trkpt lat="47.26948" lon="-2.34309">
        <ele>13.800000190735</ele>
        <time>2022-01-20T08:30:46.000Z</time>
      </trkpt>
      <trkpt lat="47.26953" lon="-2.3431">
        <ele>13.800000190735</ele>
        <time>2022-01-20T08:30:47.000Z</time>
      </trkpt>
      <trkpt lat="47.26975" lon="-2.34315">
        <ele>13.800000190735</ele>
        <time>2022-01-20T08:30:52.000Z</time>
      </trkpt>
      <trkpt lat="47.27009" lon="-2.34319">
        <ele>13.800000190735</ele>
        <time>2022-01-20T08:30:59.000Z</time>
      </trkpt>
      <trkpt lat="47.2703" lon="-2.34322">
        <ele>13.800000190735</ele>
        <time>2022-01-20T08:31:04.000Z</time>
      </trkpt>
      <trkpt lat="47.27038" lon="-2.34327">
        <ele>13.800000190735</ele>
        <time>2022-01-20T08:31:06.000Z</time>
      </trkpt>
      <trkpt lat="47.27044" lon="-2.34344">
        <ele>13.800000190735</ele>
        <time>2022-01-20T08:31:09.000Z</time>
      </trkpt>
      <trkpt lat="47.27045" lon="-2.34351">
        <ele>13.800000190735</ele>
        <time>2022-01-20T08:31:10.000Z</time>
      </trkpt>
      <trkpt lat="47.27048" lon="-2.34366">
        <ele>13.800000190735</ele>
        <time>2022-01-20T08:31:12.000Z</time>
      </trkpt>
      <trkpt lat="47.27052" lon="-2.34385">
        <ele>13.800000190735</ele>
        <time>2022-01-20T08:31:15.000Z</time>
      </trkpt>
      <trkpt lat="47.27062" lon="-2.34433">
        <ele>13.800000190735</ele>
        <time>2022-01-20T08:31:22.000Z</time>
      </trkpt>
      <trkpt lat="47.27064" lon="-2.3444">
        <ele>13.800000190735</ele>
        <time>2022-01-20T08:31:23.000Z</time>
      </trkpt>
      <trkpt lat="47.27075" lon="-2.34487">
        <ele>13.800000190735</ele>
        <time>2022-01-20T08:31:30.000Z</time>
      </trkpt>
      <trkpt lat="47.27087" lon="-2.34542">
        <ele>13.800000190735</ele>
        <time>2022-01-20T08:31:38.000Z</time>
      </trkpt>
      <trkpt lat="47.27093" lon="-2.34568">
        <ele>14.199999809265</ele>
        <time>2022-01-20T08:31:42.000Z</time>
      </trkpt>
      <trkpt lat="47.27095" lon="-2.34575">
        <ele>15</ele>
        <time>2022-01-20T08:31:43.000Z</time>
      </trkpt>
      <trkpt lat="47.27096" lon="-2.34582">
        <ele>15.39999961853</ele>
        <time>2022-01-20T08:31:44.000Z</time>
      </trkpt>
      <trkpt lat="47.27098" lon="-2.34589">
        <ele>15.800000190735</ele>
        <time>2022-01-20T08:31:45.000Z</time>
      </trkpt>
      <trkpt lat="47.27099" lon="-2.34596">
        <ele>15.800000190735</ele>
        <time>2022-01-20T08:31:46.000Z</time>
      </trkpt>
      <trkpt lat="47.27111" lon="-2.3465">
        <ele>15.800000190735</ele>
        <time>2022-01-20T08:31:53.000Z</time>
      </trkpt>
      <trkpt lat="47.27122" lon="-2.34701">
        <ele>15.800000190735</ele>
        <time>2022-01-20T08:32:00.000Z</time>
      </trkpt>
      <trkpt lat="47.27133" lon="-2.34753">
        <ele>15.800000190735</ele>
        <time>2022-01-20T08:32:07.000Z</time>
      </trkpt>
      <trkpt lat="47.27147" lon="-2.34822">
        <ele>15.800000190735</ele>
        <time>2022-01-20T08:32:16.000Z</time>
      </trkpt>
      <trkpt lat="47.27151" lon="-2.34837">
        <ele>15.800000190735</ele>
        <time>2022-01-20T08:32:18.000Z</time>
      </trkpt>
      <trkpt lat="47.27155" lon="-2.34859">
        <ele>15.800000190735</ele>
        <time>2022-01-20T08:32:21.000Z</time>
      </trkpt>
      <trkpt lat="47.27169" lon="-2.34908">
        <ele>15.800000190735</ele>
        <time>2022-01-20T08:32:28.000Z</time>
      </trkpt>
      <trkpt lat="47.2719" lon="-2.34972">
        <ele>15.800000190735</ele>
        <time>2022-01-20T08:32:37.000Z</time>
      </trkpt>
      <trkpt lat="47.27205" lon="-2.35016">
        <ele>15.800000190735</ele>
        <time>2022-01-20T08:32:44.000Z</time>
      </trkpt>
      <trkpt lat="47.27222" lon="-2.35062">
        <ele>15.800000190735</ele>
        <time>2022-01-20T08:32:51.000Z</time>
      </trkpt>
      <trkpt lat="47.27245" lon="-2.35113">
        <ele>15.800000190735</ele>
        <time>2022-01-20T08:32:59.000Z</time>
      </trkpt>
      <trkpt lat="47.27248" lon="-2.35119">
        <ele>15.800000190735</ele>
        <time>2022-01-20T08:33:00.000Z</time>
      </trkpt>
      <trkpt lat="47.27259" lon="-2.35123">
        <ele>15.800000190735</ele>
        <time>2022-01-20T08:33:03.000Z</time>
      </trkpt>
      <trkpt lat="47.27267" lon="-2.35118">
        <ele>15.800000190735</ele>
        <time>2022-01-20T08:33:05.000Z</time>
      </trkpt>
      <trkpt lat="47.27285" lon="-2.35108">
        <ele>15.800000190735</ele>
        <time>2022-01-20T08:33:10.000Z</time>
      </trkpt>
      <trkpt lat="47.27289" lon="-2.35106">
        <ele>16.200000762939</ele>
        <time>2022-01-20T08:33:11.000Z</time>
      </trkpt>
      <trkpt lat="47.27291" lon="-2.35104">
        <ele>16.60000038147</ele>
        <time>2022-01-20T08:33:12.000Z</time>
      </trkpt>
      <trkpt lat="47.27293" lon="-2.35103">
        <ele>17</ele>
        <time>2022-01-20T08:33:13.000Z</time>
      </trkpt>
      <trkpt lat="47.27295" lon="-2.35103">
        <ele>17.60000038147</ele>
        <time>2022-01-20T08:33:14.000Z</time>
      </trkpt>
      <trkpt lat="47.27297" lon="-2.35103">
        <ele>18</ele>
        <time>2022-01-20T08:33:15.000Z</time>
      </trkpt>
      <trkpt lat="47.27302" lon="-2.35106">
        <ele>18</ele>
        <time>2022-01-20T08:33:18.000Z</time>
      </trkpt>
      <trkpt lat="47.27308" lon="-2.35099">
        <ele>18</ele>
        <time>2022-01-20T08:33:21.000Z</time>
      </trkpt>
      <trkpt lat="47.27312" lon="-2.35094">
        <ele>18</ele>
        <time>2022-01-20T08:33:23.000Z</time>
      </trkpt>
      <trkpt lat="47.27319" lon="-2.35092">
        <ele>18</ele>
        <time>2022-01-20T08:33:25.000Z</time>
      </trkpt>
      <trkpt lat="47.27322" lon="-2.35091">
        <ele>18.39999961853</ele>
        <time>2022-01-20T08:33:26.000Z</time>
      </trkpt>
      <trkpt lat="47.27325" lon="-2.3509">
        <ele>18.799999237061</ele>
        <time>2022-01-20T08:33:27.000Z</time>
      </trkpt>
      <trkpt lat="47.27328" lon="-2.35088">
        <ele>19.200000762939</ele>
        <time>2022-01-20T08:33:28.000Z</time>
      </trkpt>
      <trkpt lat="47.27332" lon="-2.35087">
        <ele>19.799999237061</ele>
        <time>2022-01-20T08:33:29.000Z</time>
      </trkpt>
      <trkpt lat="47.27336" lon="-2.35085">
        <ele>20.200000762939</ele>
        <time>2022-01-20T08:33:30.000Z</time>
      </trkpt>
      <trkpt lat="47.27351" lon="-2.35078">
        <ele>20.60000038147</ele>
        <time>2022-01-20T08:33:34.000Z</time>
      </trkpt>
      <trkpt lat="47.27355" lon="-2.35076">
        <ele>21</ele>
        <time>2022-01-20T08:33:35.000Z</time>
      </trkpt>
      <trkpt lat="47.27358" lon="-2.35074">
        <ele>21.39999961853</ele>
        <time>2022-01-20T08:33:36.000Z</time>
      </trkpt>
      <trkpt lat="47.27362" lon="-2.35071">
        <ele>21.799999237061</ele>
        <time>2022-01-20T08:33:37.000Z</time>
      </trkpt>
      <trkpt lat="47.27366" lon="-2.35069">
        <ele>22.200000762939</ele>
        <time>2022-01-20T08:33:38.000Z</time>
      </trkpt>
      <trkpt lat="47.2738" lon="-2.35063">
        <ele>22.200000762939</ele>
        <time>2022-01-20T08:33:42.000Z</time>
      </trkpt>
      <trkpt lat="47.27394" lon="-2.3506">
        <ele>22.60000038147</ele>
        <time>2022-01-20T08:33:46.000Z</time>
      </trkpt>
      <trkpt lat="47.27397" lon="-2.35061">
        <ele>23.39999961853</ele>
        <time>2022-01-20T08:33:47.000Z</time>
      </trkpt>
      <trkpt lat="47.27399" lon="-2.35064">
        <ele>23.799999237061</ele>
        <time>2022-01-20T08:33:48.000Z</time>
      </trkpt>
      <trkpt lat="47.27401" lon="-2.35068">
        <ele>24.200000762939</ele>
        <time>2022-01-20T08:33:49.000Z</time>
      </trkpt>
      <trkpt lat="47.27407" lon="-2.35086">
        <ele>24.200000762939</ele>
        <time>2022-01-20T08:33:53.000Z</time>
      </trkpt>
      <trkpt lat="47.27412" lon="-2.35107">
        <ele>24.200000762939</ele>
        <time>2022-01-20T08:33:57.000Z</time>
      </trkpt>
      <trkpt lat="47.27415" lon="-2.35117">
        <ele>24.200000762939</ele>
        <time>2022-01-20T08:33:59.000Z</time>
      </trkpt>
      <trkpt lat="47.2742" lon="-2.35146">
        <ele>24.200000762939</ele>
        <time>2022-01-20T08:34:04.000Z</time>
      </trkpt>
      <trkpt lat="47.27423" lon="-2.35164">
        <ele>24.200000762939</ele>
        <time>2022-01-20T08:34:07.000Z</time>
      </trkpt>
      <trkpt lat="47.27434" lon="-2.35172">
        <ele>24.200000762939</ele>
        <time>2022-01-20T08:34:10.000Z</time>
      </trkpt>
      <trkpt lat="47.2745" lon="-2.35164">
        <ele>24.200000762939</ele>
        <time>2022-01-20T08:34:14.000Z</time>
      </trkpt>
      <trkpt lat="47.27464" lon="-2.35155">
        <ele>24.60000038147</ele>
        <time>2022-01-20T08:34:18.000Z</time>
      </trkpt>
      <trkpt lat="47.27467" lon="-2.35153">
        <ele>25</ele>
        <time>2022-01-20T08:34:19.000Z</time>
      </trkpt>
      <trkpt lat="47.2747" lon="-2.35151">
        <ele>25.39999961853</ele>
        <time>2022-01-20T08:34:20.000Z</time>
      </trkpt>
      <trkpt lat="47.27474" lon="-2.3515">
        <ele>26</ele>
        <time>2022-01-20T08:34:21.000Z</time>
      </trkpt>
      <trkpt lat="47.27477" lon="-2.35148">
        <ele>26.39999961853</ele>
        <time>2022-01-20T08:34:22.000Z</time>
      </trkpt>
      <trkpt lat="47.27498" lon="-2.35136">
        <ele>26.39999961853</ele>
        <time>2022-01-20T08:34:28.000Z</time>
      </trkpt>
      <trkpt lat="47.2751" lon="-2.35127">
        <ele>26.39999961853</ele>
        <time>2022-01-20T08:34:32.000Z</time>
      </trkpt>
      <trkpt lat="47.27518" lon="-2.3513">
        <ele>26.799999237061</ele>
        <time>2022-01-20T08:34:34.000Z</time>
      </trkpt>
      <trkpt lat="47.27522" lon="-2.35132">
        <ele>27.200000762939</ele>
        <time>2022-01-20T08:34:35.000Z</time>
      </trkpt>
      <trkpt lat="47.27526" lon="-2.35134">
        <ele>28</ele>
        <time>2022-01-20T08:34:36.000Z</time>
      </trkpt>
      <trkpt lat="47.2753" lon="-2.35135">
        <ele>28.39999961853</ele>
        <time>2022-01-20T08:34:37.000Z</time>
      </trkpt>
      <trkpt lat="47.27538" lon="-2.35136">
        <ele>28.39999961853</ele>
        <time>2022-01-20T08:34:39.000Z</time>
      </trkpt>
      <trkpt lat="47.27551" lon="-2.35135">
        <ele>28.39999961853</ele>
        <time>2022-01-20T08:34:42.000Z</time>
      </trkpt>
      <trkpt lat="47.27575" lon="-2.35131">
        <ele>28.39999961853</ele>
        <time>2022-01-20T08:34:48.000Z</time>
      </trkpt>
      <trkpt lat="47.27598" lon="-2.3513">
        <ele>28.39999961853</ele>
        <time>2022-01-20T08:34:53.000Z</time>
      </trkpt>
      <trkpt lat="47.27603" lon="-2.35134">
        <ele>28.39999961853</ele>
        <time>2022-01-20T08:34:54.000Z</time>
      </trkpt>
      <trkpt lat="47.2761" lon="-2.35153">
        <ele>28.39999961853</ele>
        <time>2022-01-20T08:34:57.000Z</time>
      </trkpt>
      <trkpt lat="47.27612" lon="-2.3516">
        <ele>28.39999961853</ele>
        <time>2022-01-20T08:34:58.000Z</time>
      </trkpt>
      <trkpt lat="47.27614" lon="-2.35167">
        <ele>28.39999961853</ele>
        <time>2022-01-20T08:34:59.000Z</time>
      </trkpt>
      <trkpt lat="47.27622" lon="-2.35174">
        <ele>28.39999961853</ele>
        <time>2022-01-20T08:35:01.000Z</time>
      </trkpt>
      <trkpt lat="47.27641" lon="-2.35171">
        <ele>28.39999961853</ele>
        <time>2022-01-20T08:35:05.000Z</time>
      </trkpt>
      <trkpt lat="47.27647" lon="-2.3517">
        <ele>28.39999961853</ele>
        <time>2022-01-20T08:35:06.000Z</time>
      </trkpt>
      <trkpt lat="47.27661" lon="-2.3517">
        <ele>28</ele>
        <time>2022-01-20T08:35:09.000Z</time>
      </trkpt>
      <trkpt lat="47.27666" lon="-2.35173">
        <ele>27.60000038147</ele>
        <time>2022-01-20T08:35:10.000Z</time>
      </trkpt>
      <trkpt lat="47.2767" lon="-2.35178">
        <ele>27.200000762939</ele>
        <time>2022-01-20T08:35:11.000Z</time>
      </trkpt>
      <trkpt lat="47.27673" lon="-2.35185">
        <ele>26.799999237061</ele>
        <time>2022-01-20T08:35:12.000Z</time>
      </trkpt>
      <trkpt lat="47.27675" lon="-2.35193">
        <ele>26.39999961853</ele>
        <time>2022-01-20T08:35:13.000Z</time>
      </trkpt>
      <trkpt lat="47.27677" lon="-2.35217">
        <ele>26</ele>
        <time>2022-01-20T08:35:17.000Z</time>
      </trkpt>
      <trkpt lat="47.2768" lon="-2.35219">
        <ele>25.60000038147</ele>
        <time>2022-01-20T08:35:18.000Z</time>
      </trkpt>
      <trkpt lat="47.27684" lon="-2.35219">
        <ele>25</ele>
        <time>2022-01-20T08:35:19.000Z</time>
      </trkpt>
      <trkpt lat="47.27689" lon="-2.35218">
        <ele>24.60000038147</ele>
        <time>2022-01-20T08:35:20.000Z</time>
      </trkpt>
      <trkpt lat="47.27693" lon="-2.35216">
        <ele>24.200000762939</ele>
        <time>2022-01-20T08:35:21.000Z</time>
      </trkpt>
      <trkpt lat="47.27718" lon="-2.35208">
        <ele>24.200000762939</ele>
        <time>2022-01-20T08:35:26.000Z</time>
      </trkpt>
      <trkpt lat="47.27749" lon="-2.35199">
        <ele>23.799999237061</ele>
        <time>2022-01-20T08:35:32.000Z</time>
      </trkpt>
      <trkpt lat="47.27754" lon="-2.35199">
        <ele>23.39999961853</ele>
        <time>2022-01-20T08:35:33.000Z</time>
      </trkpt>
      <trkpt lat="47.27759" lon="-2.35198">
        <ele>23</ele>
        <time>2022-01-20T08:35:34.000Z</time>
      </trkpt>
      <trkpt lat="47.27763" lon="-2.35199">
        <ele>22.60000038147</ele>
        <time>2022-01-20T08:35:35.000Z</time>
      </trkpt>
      <trkpt lat="47.27767" lon="-2.352">
        <ele>22.200000762939</ele>
        <time>2022-01-20T08:35:36.000Z</time>
      </trkpt>
      <trkpt lat="47.27769" lon="-2.35204">
        <ele>22.200000762939</ele>
        <time>2022-01-20T08:35:37.000Z</time>
      </trkpt>
      <trkpt lat="47.27777" lon="-2.35227">
        <ele>22.200000762939</ele>
        <time>2022-01-20T08:35:41.000Z</time>
      </trkpt>
      <trkpt lat="47.27778" lon="-2.35234">
        <ele>22.200000762939</ele>
        <time>2022-01-20T08:35:42.000Z</time>
      </trkpt>
      <trkpt lat="47.27785" lon="-2.35271">
        <ele>22.200000762939</ele>
        <time>2022-01-20T08:35:47.000Z</time>
      </trkpt>
      <trkpt lat="47.2779" lon="-2.35293">
        <ele>22.200000762939</ele>
        <time>2022-01-20T08:35:50.000Z</time>
      </trkpt>
      <trkpt lat="47.27794" lon="-2.35316">
        <ele>22.200000762939</ele>
        <time>2022-01-20T08:35:53.000Z</time>
      </trkpt>
      <trkpt lat="47.27804" lon="-2.35352">
        <ele>22.200000762939</ele>
        <time>2022-01-20T08:35:58.000Z</time>
      </trkpt>
      <trkpt lat="47.27808" lon="-2.35357">
        <ele>22.200000762939</ele>
        <time>2022-01-20T08:35:59.000Z</time>
      </trkpt>
      <trkpt lat="47.27822" lon="-2.35362">
        <ele>22.200000762939</ele>
        <time>2022-01-20T08:36:02.000Z</time>
      </trkpt>
      <trkpt lat="47.27831" lon="-2.35361">
        <ele>22.200000762939</ele>
        <time>2022-01-20T08:36:04.000Z</time>
      </trkpt>
      <trkpt lat="47.27855" lon="-2.3536">
        <ele>22.200000762939</ele>
        <time>2022-01-20T08:36:09.000Z</time>
      </trkpt>
      <trkpt lat="47.27864" lon="-2.35359">
        <ele>22.200000762939</ele>
        <time>2022-01-20T08:36:11.000Z</time>
      </trkpt>
      <trkpt lat="47.27877" lon="-2.35365">
        <ele>22.200000762939</ele>
        <time>2022-01-20T08:36:14.000Z</time>
      </trkpt>
      <trkpt lat="47.27881" lon="-2.35368">
        <ele>22.200000762939</ele>
        <time>2022-01-20T08:36:15.000Z</time>
      </trkpt>
      <trkpt lat="47.27884" lon="-2.35372">
        <ele>22.200000762939</ele>
        <time>2022-01-20T08:36:16.000Z</time>
      </trkpt>
      <trkpt lat="47.27898" lon="-2.35389">
        <ele>22.200000762939</ele>
        <time>2022-01-20T08:36:20.000Z</time>
      </trkpt>
      <trkpt lat="47.27926" lon="-2.35427">
        <ele>22.200000762939</ele>
        <time>2022-01-20T08:36:28.000Z</time>
      </trkpt>
      <trkpt lat="47.27948" lon="-2.35453">
        <ele>22.200000762939</ele>
        <time>2022-01-20T08:36:34.000Z</time>
      </trkpt>
      <trkpt lat="47.27952" lon="-2.35456">
        <ele>22.200000762939</ele>
        <time>2022-01-20T08:36:35.000Z</time>
      </trkpt>
      <trkpt lat="47.2797" lon="-2.35467">
        <ele>22.200000762939</ele>
        <time>2022-01-20T08:36:39.000Z</time>
      </trkpt>
      <trkpt lat="47.27983" lon="-2.35481">
        <ele>22.200000762939</ele>
        <time>2022-01-20T08:36:42.000Z</time>
      </trkpt>
      <trkpt lat="47.28001" lon="-2.35511">
        <ele>22.200000762939</ele>
        <time>2022-01-20T08:36:48.000Z</time>
      </trkpt>
      <trkpt lat="47.28007" lon="-2.35541">
        <ele>22.200000762939</ele>
        <time>2022-01-20T08:36:54.000Z</time>
      </trkpt>
      <trkpt lat="47.28014" lon="-2.35559">
        <ele>22.60000038147</ele>
        <time>2022-01-20T08:36:59.000Z</time>
      </trkpt>
      <trkpt lat="47.28017" lon="-2.35562">
        <ele>23</ele>
        <time>2022-01-20T08:37:00.000Z</time>
      </trkpt>
      <trkpt lat="47.28019" lon="-2.35562">
        <ele>23.39999961853</ele>
        <time>2022-01-20T08:37:01.000Z</time>
      </trkpt>
      <trkpt lat="47.28022" lon="-2.35562">
        <ele>23.799999237061</ele>
        <time>2022-01-20T08:37:02.000Z</time>
      </trkpt>
      <trkpt lat="47.28025" lon="-2.35563">
        <ele>24.200000762939</ele>
        <time>2022-01-20T08:37:03.000Z</time>
      </trkpt>
      <trkpt lat="47.28039" lon="-2.3557">
        <ele>24.200000762939</ele>
        <time>2022-01-20T08:37:07.000Z</time>
      </trkpt>
      <trkpt lat="47.28049" lon="-2.35574">
        <ele>24.200000762939</ele>
        <time>2022-01-20T08:37:10.000Z</time>
      </trkpt>
      <trkpt lat="47.28058" lon="-2.35577">
        <ele>24.200000762939</ele>
        <time>2022-01-20T08:37:13.000Z</time>
      </trkpt>
      <trkpt lat="47.28061" lon="-2.35579">
        <ele>24.60000038147</ele>
        <time>2022-01-20T08:37:14.000Z</time>
      </trkpt>
      <trkpt lat="47.28063" lon="-2.35581">
        <ele>25</ele>
        <time>2022-01-20T08:37:15.000Z</time>
      </trkpt>
      <trkpt lat="47.28066" lon="-2.35583">
        <ele>25.39999961853</ele>
        <time>2022-01-20T08:37:16.000Z</time>
      </trkpt>
      <trkpt lat="47.28068" lon="-2.35585">
        <ele>25.799999237061</ele>
        <time>2022-01-20T08:37:17.000Z</time>
      </trkpt>
      <trkpt lat="47.2807" lon="-2.35588">
        <ele>26.200000762939</ele>
        <time>2022-01-20T08:37:18.000Z</time>
      </trkpt>
      <trkpt lat="47.28072" lon="-2.35592">
        <ele>26.200000762939</ele>
        <time>2022-01-20T08:37:19.000Z</time>
      </trkpt>
      <trkpt lat="47.28086" lon="-2.35613">
        <ele>26.200000762939</ele>
        <time>2022-01-20T08:37:26.000Z</time>
      </trkpt>
      <trkpt lat="47.28088" lon="-2.35618">
        <ele>26.200000762939</ele>
        <time>2022-01-20T08:37:30.000Z</time>
      </trkpt>
      <trkpt lat="47.28086" lon="-2.35614">
        <ele>26.200000762939</ele>
        <time>2022-01-20T08:41:04.000Z</time>
      </trkpt>
      <trkpt lat="47.28082" lon="-2.3561">
        <ele>26.200000762939</ele>
        <time>2022-01-20T08:41:06.000Z</time>
      </trkpt>
      <trkpt lat="47.28071" lon="-2.3559">
        <ele>26.200000762939</ele>
        <time>2022-01-20T08:41:12.000Z</time>
      </trkpt>
      <trkpt lat="47.2807" lon="-2.35586">
        <ele>26.200000762939</ele>
        <time>2022-01-20T08:41:13.000Z</time>
      </trkpt>
      <trkpt lat="47.28073" lon="-2.35573">
        <ele>26.200000762939</ele>
        <time>2022-01-20T08:41:16.000Z</time>
      </trkpt>
      <trkpt lat="47.28085" lon="-2.3556">
        <ele>26.200000762939</ele>
        <time>2022-01-20T08:41:21.000Z</time>
      </trkpt>
      <trkpt lat="47.28095" lon="-2.35559">
        <ele>26.200000762939</ele>
        <time>2022-01-20T08:41:25.000Z</time>
      </trkpt>
      <trkpt lat="47.281" lon="-2.35558">
        <ele>26.200000762939</ele>
        <time>2022-01-20T08:41:27.000Z</time>
      </trkpt>
      <trkpt lat="47.28123" lon="-2.3556">
        <ele>26.200000762939</ele>
        <time>2022-01-20T08:41:35.000Z</time>
      </trkpt>
      <trkpt lat="47.28131" lon="-2.35561">
        <ele>26.200000762939</ele>
        <time>2022-01-20T08:41:40.000Z</time>
      </trkpt>
      <trkpt lat="47.28132" lon="-2.35561">
        <ele>26.200000762939</ele>
        <time>2022-01-20T08:41:41.000Z</time>
      </trkpt>
      <trkpt lat="47.28133" lon="-2.35559">
        <ele>26.200000762939</ele>
        <time>2022-01-20T08:41:44.000Z</time>
      </trkpt>
      <trkpt lat="47.28136" lon="-2.35554">
        <ele>26.200000762939</ele>
        <time>2022-01-20T08:41:46.000Z</time>
      </trkpt>
      <trkpt lat="47.28138" lon="-2.35551">
        <ele>26.60000038147</ele>
        <time>2022-01-20T08:41:47.000Z</time>
      </trkpt>
      <trkpt lat="47.28141" lon="-2.35547">
        <ele>27</ele>
        <time>2022-01-20T08:41:48.000Z</time>
      </trkpt>
      <trkpt lat="47.28143" lon="-2.35544">
        <ele>27.39999961853</ele>
        <time>2022-01-20T08:41:49.000Z</time>
      </trkpt>
      <trkpt lat="47.28145" lon="-2.35541">
        <ele>27.799999237061</ele>
        <time>2022-01-20T08:41:50.000Z</time>
      </trkpt>
      <trkpt lat="47.28147" lon="-2.35538">
        <ele>28.200000762939</ele>
        <time>2022-01-20T08:41:51.000Z</time>
      </trkpt>
      <trkpt lat="47.28149" lon="-2.35535">
        <ele>28.200000762939</ele>
        <time>2022-01-20T08:41:52.000Z</time>
      </trkpt>
      <trkpt lat="47.28158" lon="-2.3552">
        <ele>28.200000762939</ele>
        <time>2022-01-20T08:41:58.000Z</time>
      </trkpt>
      <trkpt lat="47.28158" lon="-2.35519">
        <ele>28.200000762939</ele>
        <time>2022-01-20T08:41:59.000Z</time>
      </trkpt>
      <trkpt lat="47.2816" lon="-2.35515">
        <ele>28.200000762939</ele>
        <time>2022-01-20T08:42:09.000Z</time>
      </trkpt>
      <trkpt lat="47.28162" lon="-2.35513">
        <ele>28.200000762939</ele>
        <time>2022-01-20T08:42:10.000Z</time>
      </trkpt>
      <trkpt lat="47.28175" lon="-2.35497">
        <ele>28.200000762939</ele>
        <time>2022-01-20T08:42:17.000Z</time>
      </trkpt>
      <trkpt lat="47.28181" lon="-2.35481">
        <ele>28.200000762939</ele>
        <time>2022-01-20T08:42:23.000Z</time>
      </trkpt>
      <trkpt lat="47.28183" lon="-2.35475">
        <ele>28.200000762939</ele>
        <time>2022-01-20T08:42:27.000Z</time>
      </trkpt>
      <trkpt lat="47.28184" lon="-2.35474">
        <ele>28.200000762939</ele>
        <time>2022-01-20T08:42:32.000Z</time>
      </trkpt>
      <trkpt lat="47.28188" lon="-2.35468">
        <ele>28.200000762939</ele>
        <time>2022-01-20T08:42:34.000Z</time>
      </trkpt>
      <trkpt lat="47.28194" lon="-2.35459">
        <ele>28.200000762939</ele>
        <time>2022-01-20T08:42:36.000Z</time>
      </trkpt>
      <trkpt lat="47.28202" lon="-2.35448">
        <ele>28.200000762939</ele>
        <time>2022-01-20T08:42:38.000Z</time>
      </trkpt>
      <trkpt lat="47.28227" lon="-2.35419">
        <ele>28.200000762939</ele>
        <time>2022-01-20T08:42:44.000Z</time>
      </trkpt>
      <trkpt lat="47.2824" lon="-2.35405">
        <ele>28.200000762939</ele>
        <time>2022-01-20T08:42:47.000Z</time>
      </trkpt>
      <trkpt lat="47.28248" lon="-2.35403">
        <ele>28.200000762939</ele>
        <time>2022-01-20T08:42:49.000Z</time>
      </trkpt>
      <trkpt lat="47.28258" lon="-2.35409">
        <ele>28.200000762939</ele>
        <time>2022-01-20T08:42:52.000Z</time>
      </trkpt>
      <trkpt lat="47.28261" lon="-2.35409">
        <ele>28.200000762939</ele>
        <time>2022-01-20T08:42:53.000Z</time>
      </trkpt>
      <trkpt lat="47.28269" lon="-2.35407">
        <ele>28.200000762939</ele>
        <time>2022-01-20T08:42:58.000Z</time>
      </trkpt>
      <trkpt lat="47.2827" lon="-2.35406">
        <ele>28.200000762939</ele>
        <time>2022-01-20T08:43:00.000Z</time>
      </trkpt>
      <trkpt lat="47.28272" lon="-2.35405">
        <ele>28.200000762939</ele>
        <time>2022-01-20T08:43:24.000Z</time>
      </trkpt>
      <trkpt lat="47.28275" lon="-2.35402">
        <ele>28.200000762939</ele>
        <time>2022-01-20T08:43:26.000Z</time>
      </trkpt>
      <trkpt lat="47.28281" lon="-2.35391">
        <ele>28.200000762939</ele>
        <time>2022-01-20T08:43:30.000Z</time>
      </trkpt>
      <trkpt lat="47.28284" lon="-2.35385">
        <ele>28.200000762939</ele>
        <time>2022-01-20T08:43:32.000Z</time>
      </trkpt>
      <trkpt lat="47.28301" lon="-2.35369">
        <ele>28.200000762939</ele>
        <time>2022-01-20T08:43:37.000Z</time>
      </trkpt>
      <trkpt lat="47.28325" lon="-2.35355">
        <ele>28.200000762939</ele>
        <time>2022-01-20T08:43:43.000Z</time>
      </trkpt>
      <trkpt lat="47.28345" lon="-2.3534">
        <ele>28.200000762939</ele>
        <time>2022-01-20T08:43:49.000Z</time>
      </trkpt>
      <trkpt lat="47.28355" lon="-2.35335">
        <ele>28.200000762939</ele>
        <time>2022-01-20T08:43:53.000Z</time>
      </trkpt>
      <trkpt lat="47.28356" lon="-2.35339">
        <ele>28.200000762939</ele>
        <time>2022-01-20T08:43:54.000Z</time>
      </trkpt>
      <trkpt lat="47.28364" lon="-2.35357">
        <ele>28.200000762939</ele>
        <time>2022-01-20T08:43:59.000Z</time>
      </trkpt>
      <trkpt lat="47.28369" lon="-2.35364">
        <ele>28.60000038147</ele>
        <time>2022-01-20T08:44:02.000Z</time>
      </trkpt>
      <trkpt lat="47.28371" lon="-2.35368">
        <ele>29</ele>
        <time>2022-01-20T08:44:03.000Z</time>
      </trkpt>
      <trkpt lat="47.28373" lon="-2.35371">
        <ele>29.799999237061</ele>
        <time>2022-01-20T08:44:04.000Z</time>
      </trkpt>
      <trkpt lat="47.28374" lon="-2.35374">
        <ele>30.39999961853</ele>
        <time>2022-01-20T08:44:05.000Z</time>
      </trkpt>
      <trkpt lat="47.28376" lon="-2.3538">
        <ele>30.799999237061</ele>
        <time>2022-01-20T08:44:07.000Z</time>
      </trkpt>
      <trkpt lat="47.28378" lon="-2.35382">
        <ele>31.200000762939</ele>
        <time>2022-01-20T08:44:08.000Z</time>
      </trkpt>
      <trkpt lat="47.28378" lon="-2.35385">
        <ele>31.60000038147</ele>
        <time>2022-01-20T08:44:09.000Z</time>
      </trkpt>
      <trkpt lat="47.28379" lon="-2.35388">
        <ele>32.200000762939</ele>
        <time>2022-01-20T08:44:10.000Z</time>
      </trkpt>
      <trkpt lat="47.28379" lon="-2.35391">
        <ele>32.599998474121</ele>
        <time>2022-01-20T08:44:11.000Z</time>
      </trkpt>
      <trkpt lat="47.2838" lon="-2.35392">
        <ele>33.200000762939</ele>
        <time>2022-01-20T08:44:12.000Z</time>
      </trkpt>
      <trkpt lat="47.28381" lon="-2.35395">
        <ele>33.599998474121</ele>
        <time>2022-01-20T08:44:13.000Z</time>
      </trkpt>
      <trkpt lat="47.28382" lon="-2.35397">
        <ele>34.200000762939</ele>
        <time>2022-01-20T08:44:14.000Z</time>
      </trkpt>
      <trkpt lat="47.28382" lon="-2.35399">
        <ele>34.599998474121</ele>
        <time>2022-01-20T08:44:15.000Z</time>
      </trkpt>
      <trkpt lat="47.28383" lon="-2.35401">
        <ele>35.200000762939</ele>
        <time>2022-01-20T08:44:16.000Z</time>
      </trkpt>
      <trkpt lat="47.28384" lon="-2.35403">
        <ele>35.599998474121</ele>
        <time>2022-01-20T08:44:17.000Z</time>
      </trkpt>
      <trkpt lat="47.28385" lon="-2.35404">
        <ele>36</ele>
        <time>2022-01-20T08:44:18.000Z</time>
      </trkpt>
      <trkpt lat="47.28386" lon="-2.35406">
        <ele>36.400001525879</ele>
        <time>2022-01-20T08:44:19.000Z</time>
      </trkpt>
      <trkpt lat="47.28387" lon="-2.35408">
        <ele>36.799999237061</ele>
        <time>2022-01-20T08:44:20.000Z</time>
      </trkpt>
      <trkpt lat="47.2839" lon="-2.35413">
        <ele>36.799999237061</ele>
        <time>2022-01-20T08:44:24.000Z</time>
      </trkpt>
      <trkpt lat="47.28396" lon="-2.35421">
        <ele>36.799999237061</ele>
        <time>2022-01-20T08:44:30.000Z</time>
      </trkpt>
      <trkpt lat="47.28404" lon="-2.35426">
        <ele>36.799999237061</ele>
        <time>2022-01-20T08:44:35.000Z</time>
      </trkpt>
      <trkpt lat="47.28406" lon="-2.35424">
        <ele>36.799999237061</ele>
        <time>2022-01-20T08:44:36.000Z</time>
      </trkpt>
      <trkpt lat="47.28413" lon="-2.35415">
        <ele>36.799999237061</ele>
        <time>2022-01-20T08:44:39.000Z</time>
      </trkpt>
      <trkpt lat="47.28417" lon="-2.3541">
        <ele>36.799999237061</ele>
        <time>2022-01-20T08:44:41.000Z</time>
      </trkpt>
      <trkpt lat="47.28419" lon="-2.35408">
        <ele>37.200000762939</ele>
        <time>2022-01-20T08:44:43.000Z</time>
      </trkpt>
      <trkpt lat="47.28421" lon="-2.35406">
        <ele>37.599998474121</ele>
        <time>2022-01-20T08:44:44.000Z</time>
      </trkpt>
      <trkpt lat="47.28423" lon="-2.35406">
        <ele>38.200000762939</ele>
        <time>2022-01-20T08:44:45.000Z</time>
      </trkpt>
      <trkpt lat="47.28424" lon="-2.35405">
        <ele>38.599998474121</ele>
        <time>2022-01-20T08:44:46.000Z</time>
      </trkpt>
      <trkpt lat="47.28426" lon="-2.35405">
        <ele>39</ele>
        <time>2022-01-20T08:44:47.000Z</time>
      </trkpt>
      <trkpt lat="47.28436" lon="-2.35406">
        <ele>39</ele>
        <time>2022-01-20T08:44:52.000Z</time>
      </trkpt>
      <trkpt lat="47.28439" lon="-2.35403">
        <ele>39</ele>
        <time>2022-01-20T08:44:54.000Z</time>
      </trkpt>
      <trkpt lat="47.28443" lon="-2.35396">
        <ele>38.400001525879</ele>
        <time>2022-01-20T08:44:57.000Z</time>
      </trkpt>
      <trkpt lat="47.28444" lon="-2.35393">
        <ele>38</ele>
        <time>2022-01-20T08:44:58.000Z</time>
      </trkpt>
      <trkpt lat="47.28444" lon="-2.35389">
        <ele>37.599998474121</ele>
        <time>2022-01-20T08:44:59.000Z</time>
      </trkpt>
      <trkpt lat="47.28445" lon="-2.35385">
        <ele>37.200000762939</ele>
        <time>2022-01-20T08:45:00.000Z</time>
      </trkpt>
      <trkpt lat="47.28446" lon="-2.35381">
        <ele>36.599998474121</ele>
        <time>2022-01-20T08:45:01.000Z</time>
      </trkpt>
      <trkpt lat="47.28447" lon="-2.35376">
        <ele>36.599998474121</ele>
        <time>2022-01-20T08:45:02.000Z</time>
      </trkpt>
      <trkpt lat="47.28448" lon="-2.35372">
        <ele>36.200000762939</ele>
        <time>2022-01-20T08:45:03.000Z</time>
      </trkpt>
      <trkpt lat="47.28449" lon="-2.35368">
        <ele>35.599998474121</ele>
        <time>2022-01-20T08:45:04.000Z</time>
      </trkpt>
      <trkpt lat="47.28449" lon="-2.35364">
        <ele>35.200000762939</ele>
        <time>2022-01-20T08:45:05.000Z</time>
      </trkpt>
      <trkpt lat="47.28449" lon="-2.35361">
        <ele>34.599998474121</ele>
        <time>2022-01-20T08:45:06.000Z</time>
      </trkpt>
      <trkpt lat="47.2845" lon="-2.35357">
        <ele>34.200000762939</ele>
        <time>2022-01-20T08:45:07.000Z</time>
      </trkpt>
      <trkpt lat="47.28451" lon="-2.35353">
        <ele>33.599998474121</ele>
        <time>2022-01-20T08:45:08.000Z</time>
      </trkpt>
      <trkpt lat="47.28452" lon="-2.3535">
        <ele>33.200000762939</ele>
        <time>2022-01-20T08:45:09.000Z</time>
      </trkpt>
      <trkpt lat="47.28455" lon="-2.35347">
        <ele>32.599998474121</ele>
        <time>2022-01-20T08:45:10.000Z</time>
      </trkpt>
      <trkpt lat="47.28457" lon="-2.35346">
        <ele>32.200000762939</ele>
        <time>2022-01-20T08:45:11.000Z</time>
      </trkpt>
      <trkpt lat="47.2846" lon="-2.35347">
        <ele>31.60000038147</ele>
        <time>2022-01-20T08:45:12.000Z</time>
      </trkpt>
      <trkpt lat="47.28466" lon="-2.35353">
        <ele>31.200000762939</ele>
        <time>2022-01-20T08:45:14.000Z</time>
      </trkpt>
      <trkpt lat="47.28469" lon="-2.35357">
        <ele>30.799999237061</ele>
        <time>2022-01-20T08:45:15.000Z</time>
      </trkpt>
      <trkpt lat="47.28471" lon="-2.35362">
        <ele>30.39999961853</ele>
        <time>2022-01-20T08:45:16.000Z</time>
      </trkpt>
      <trkpt lat="47.28473" lon="-2.35367">
        <ele>30</ele>
        <time>2022-01-20T08:45:17.000Z</time>
      </trkpt>
      <trkpt lat="47.28476" lon="-2.35371">
        <ele>29.60000038147</ele>
        <time>2022-01-20T08:45:18.000Z</time>
      </trkpt>
      <trkpt lat="47.28477" lon="-2.35376">
        <ele>29.60000038147</ele>
        <time>2022-01-20T08:45:19.000Z</time>
      </trkpt>
      <trkpt lat="47.28479" lon="-2.35397">
        <ele>29.60000038147</ele>
        <time>2022-01-20T08:45:23.000Z</time>
      </trkpt>
      <trkpt lat="47.28485" lon="-2.35412">
        <ele>29.60000038147</ele>
        <time>2022-01-20T08:45:27.000Z</time>
      </trkpt>
      <trkpt lat="47.28487" lon="-2.35423">
        <ele>30</ele>
        <time>2022-01-20T08:45:30.000Z</time>
      </trkpt>
      <trkpt lat="47.28487" lon="-2.35425">
        <ele>30.39999961853</ele>
        <time>2022-01-20T08:45:31.000Z</time>
      </trkpt>
      <trkpt lat="47.28487" lon="-2.35427">
        <ele>30.799999237061</ele>
        <time>2022-01-20T08:45:32.000Z</time>
      </trkpt>
      <trkpt lat="47.28486" lon="-2.35428">
        <ele>31.39999961853</ele>
        <time>2022-01-20T08:45:33.000Z</time>
      </trkpt>
      <trkpt lat="47.28485" lon="-2.35431">
        <ele>31.799999237061</ele>
        <time>2022-01-20T08:45:34.000Z</time>
      </trkpt>
      <trkpt lat="47.28482" lon="-2.35437">
        <ele>32.200000762939</ele>
        <time>2022-01-20T08:45:37.000Z</time>
      </trkpt>
      <trkpt lat="47.2848" lon="-2.35439">
        <ele>32.599998474121</ele>
        <time>2022-01-20T08:45:38.000Z</time>
      </trkpt>
      <trkpt lat="47.28479" lon="-2.35441">
        <ele>33</ele>
        <time>2022-01-20T08:45:39.000Z</time>
      </trkpt>
      <trkpt lat="47.28478" lon="-2.35442">
        <ele>33.400001525879</ele>
        <time>2022-01-20T08:45:40.000Z</time>
      </trkpt>
      <trkpt lat="47.28477" lon="-2.35442">
        <ele>33.799999237061</ele>
        <time>2022-01-20T08:45:41.000Z</time>
      </trkpt>
      <trkpt lat="47.28474" lon="-2.35442">
        <ele>33.799999237061</ele>
        <time>2022-01-20T08:45:43.000Z</time>
      </trkpt>
      <trkpt lat="47.28472" lon="-2.35442">
        <ele>34.599998474121</ele>
        <time>2022-01-20T08:45:44.000Z</time>
      </trkpt>
      <trkpt lat="47.2847" lon="-2.35441">
        <ele>35</ele>
        <time>2022-01-20T08:45:45.000Z</time>
      </trkpt>
      <trkpt lat="47.28469" lon="-2.3544">
        <ele>35.400001525879</ele>
        <time>2022-01-20T08:45:46.000Z</time>
      </trkpt>
      <trkpt lat="47.28467" lon="-2.35439">
        <ele>35.799999237061</ele>
        <time>2022-01-20T08:45:47.000Z</time>
      </trkpt>
      <trkpt lat="47.28466" lon="-2.35437">
        <ele>35.799999237061</ele>
        <time>2022-01-20T08:45:49.000Z</time>
      </trkpt>
      <trkpt lat="47.28464" lon="-2.35434">
        <ele>36.400001525879</ele>
        <time>2022-01-20T08:45:50.000Z</time>
      </trkpt>
      <trkpt lat="47.28463" lon="-2.35432">
        <ele>36.799999237061</ele>
        <time>2022-01-20T08:45:51.000Z</time>
      </trkpt>
      <trkpt lat="47.28461" lon="-2.35432">
        <ele>37.200000762939</ele>
        <time>2022-01-20T08:45:52.000Z</time>
      </trkpt>
      <trkpt lat="47.28459" lon="-2.35431">
        <ele>37.599998474121</ele>
        <time>2022-01-20T08:45:53.000Z</time>
      </trkpt>
      <trkpt lat="47.28457" lon="-2.35431">
        <ele>38</ele>
        <time>2022-01-20T08:45:54.000Z</time>
      </trkpt>
      <trkpt lat="47.2844" lon="-2.35435">
        <ele>38</ele>
        <time>2022-01-20T08:46:00.000Z</time>
      </trkpt>
      <trkpt lat="47.28422" lon="-2.35435">
        <ele>38</ele>
        <time>2022-01-20T08:46:05.000Z</time>
      </trkpt>
      <trkpt lat="47.28409" lon="-2.35435">
        <ele>38</ele>
        <time>2022-01-20T08:46:10.000Z</time>
      </trkpt>
      <trkpt lat="47.28409" lon="-2.35439">
        <ele>38</ele>
        <time>2022-01-20T08:46:12.000Z</time>
      </trkpt>
      <trkpt lat="47.2841" lon="-2.35448">
        <ele>38</ele>
        <time>2022-01-20T08:46:14.000Z</time>
      </trkpt>
      <trkpt lat="47.28412" lon="-2.35458">
        <ele>37.599998474121</ele>
        <time>2022-01-20T08:46:16.000Z</time>
      </trkpt>
      <trkpt lat="47.28412" lon="-2.35464">
        <ele>37.200000762939</ele>
        <time>2022-01-20T08:46:17.000Z</time>
      </trkpt>
      <trkpt lat="47.28413" lon="-2.35469">
        <ele>36.599998474121</ele>
        <time>2022-01-20T08:46:18.000Z</time>
      </trkpt>
      <trkpt lat="47.28413" lon="-2.35475">
        <ele>36.200000762939</ele>
        <time>2022-01-20T08:46:19.000Z</time>
      </trkpt>
      <trkpt lat="47.28414" lon="-2.35482">
        <ele>35.799999237061</ele>
        <time>2022-01-20T08:46:20.000Z</time>
      </trkpt>
      <trkpt lat="47.28412" lon="-2.35495">
        <ele>35.799999237061</ele>
        <time>2022-01-20T08:46:22.000Z</time>
      </trkpt>
      <trkpt lat="47.2841" lon="-2.35502">
        <ele>35.400001525879</ele>
        <time>2022-01-20T08:46:23.000Z</time>
      </trkpt>
      <trkpt lat="47.28408" lon="-2.35509">
        <ele>35</ele>
        <time>2022-01-20T08:46:24.000Z</time>
      </trkpt>
      <trkpt lat="47.28406" lon="-2.35516">
        <ele>34.599998474121</ele>
        <time>2022-01-20T08:46:25.000Z</time>
      </trkpt>
      <trkpt lat="47.28403" lon="-2.35523">
        <ele>34.200000762939</ele>
        <time>2022-01-20T08:46:26.000Z</time>
      </trkpt>
      <trkpt lat="47.284" lon="-2.35529">
        <ele>33.799999237061</ele>
        <time>2022-01-20T08:46:27.000Z</time>
      </trkpt>
      <trkpt lat="47.28398" lon="-2.35536">
        <ele>33.799999237061</ele>
        <time>2022-01-20T08:46:28.000Z</time>
      </trkpt>
      <trkpt lat="47.28392" lon="-2.35562">
        <ele>33.799999237061</ele>
        <time>2022-01-20T08:46:32.000Z</time>
      </trkpt>
      <trkpt lat="47.28391" lon="-2.35591">
        <ele>33.799999237061</ele>
        <time>2022-01-20T08:46:37.000Z</time>
      </trkpt>
      <trkpt lat="47.28398" lon="-2.3561">
        <ele>33.799999237061</ele>
        <time>2022-01-20T08:46:41.000Z</time>
      </trkpt>
      <trkpt lat="47.28407" lon="-2.35629">
        <ele>33.799999237061</ele>
        <time>2022-01-20T08:46:46.000Z</time>
      </trkpt>
      <trkpt lat="47.28406" lon="-2.35657">
        <ele>33.799999237061</ele>
        <time>2022-01-20T08:46:52.000Z</time>
      </trkpt>
      <trkpt lat="47.28407" lon="-2.35678">
        <ele>33.799999237061</ele>
        <time>2022-01-20T08:46:56.000Z</time>
      </trkpt>
      <trkpt lat="47.28406" lon="-2.35689">
        <ele>33.799999237061</ele>
        <time>2022-01-20T08:46:58.000Z</time>
      </trkpt>
      <trkpt lat="47.28407" lon="-2.35698">
        <ele>33.799999237061</ele>
        <time>2022-01-20T08:47:00.000Z</time>
      </trkpt>
      <trkpt lat="47.2841" lon="-2.35721">
        <ele>33.799999237061</ele>
        <time>2022-01-20T08:47:05.000Z</time>
      </trkpt>
      <trkpt lat="47.28412" lon="-2.35746">
        <ele>33.799999237061</ele>
        <time>2022-01-20T08:47:11.000Z</time>
      </trkpt>
      <trkpt lat="47.28414" lon="-2.35765">
        <ele>33.799999237061</ele>
        <time>2022-01-20T08:47:17.000Z</time>
      </trkpt>
      <trkpt lat="47.28414" lon="-2.35769">
        <ele>33.799999237061</ele>
        <time>2022-01-20T08:47:18.000Z</time>
      </trkpt>
      <trkpt lat="47.28416" lon="-2.35777">
        <ele>33.799999237061</ele>
        <time>2022-01-20T08:47:21.000Z</time>
      </trkpt>
      <trkpt lat="47.2842" lon="-2.35781">
        <ele>33.799999237061</ele>
        <time>2022-01-20T08:47:23.000Z</time>
      </trkpt>
      <trkpt lat="47.28434" lon="-2.35789">
        <ele>33.799999237061</ele>
        <time>2022-01-20T08:47:28.000Z</time>
      </trkpt>
      <trkpt lat="47.28456" lon="-2.35803">
        <ele>33.799999237061</ele>
        <time>2022-01-20T08:47:34.000Z</time>
      </trkpt>
      <trkpt lat="47.28466" lon="-2.35813">
        <ele>33.799999237061</ele>
        <time>2022-01-20T08:47:38.000Z</time>
      </trkpt>
      <trkpt lat="47.28466" lon="-2.35816">
        <ele>33.799999237061</ele>
        <time>2022-01-20T08:47:39.000Z</time>
      </trkpt>
      <trkpt lat="47.28471" lon="-2.35831">
        <ele>33.799999237061</ele>
        <time>2022-01-20T08:47:44.000Z</time>
      </trkpt>
      <trkpt lat="47.2848" lon="-2.35846">
        <ele>33.799999237061</ele>
        <time>2022-01-20T08:47:48.000Z</time>
      </trkpt>
      <trkpt lat="47.28489" lon="-2.35853">
        <ele>33.799999237061</ele>
        <time>2022-01-20T08:47:51.000Z</time>
      </trkpt>
      <trkpt lat="47.28494" lon="-2.35859">
        <ele>34.200000762939</ele>
        <time>2022-01-20T08:47:53.000Z</time>
      </trkpt>
      <trkpt lat="47.28497" lon="-2.35862">
        <ele>34.599998474121</ele>
        <time>2022-01-20T08:47:54.000Z</time>
      </trkpt>
      <trkpt lat="47.28501" lon="-2.35864">
        <ele>35</ele>
        <time>2022-01-20T08:47:55.000Z</time>
      </trkpt>
      <trkpt lat="47.28504" lon="-2.35865">
        <ele>35.400001525879</ele>
        <time>2022-01-20T08:47:56.000Z</time>
      </trkpt>
      <trkpt lat="47.28506" lon="-2.35867">
        <ele>35.799999237061</ele>
        <time>2022-01-20T08:47:57.000Z</time>
      </trkpt>
      <trkpt lat="47.28512" lon="-2.35872">
        <ele>35.799999237061</ele>
        <time>2022-01-20T08:48:00.000Z</time>
      </trkpt>
      <trkpt lat="47.28514" lon="-2.35874">
        <ele>36.200000762939</ele>
        <time>2022-01-20T08:48:01.000Z</time>
      </trkpt>
      <trkpt lat="47.28516" lon="-2.35876">
        <ele>36.599998474121</ele>
        <time>2022-01-20T08:48:02.000Z</time>
      </trkpt>
      <trkpt lat="47.28517" lon="-2.35878">
        <ele>37.200000762939</ele>
        <time>2022-01-20T08:48:03.000Z</time>
      </trkpt>
      <trkpt lat="47.28519" lon="-2.3588">
        <ele>37.599998474121</ele>
        <time>2022-01-20T08:48:04.000Z</time>
      </trkpt>
      <trkpt lat="47.2852" lon="-2.35882">
        <ele>38</ele>
        <time>2022-01-20T08:48:05.000Z</time>
      </trkpt>
      <trkpt lat="47.28522" lon="-2.35884">
        <ele>38.400001525879</ele>
        <time>2022-01-20T08:48:06.000Z</time>
      </trkpt>
      <trkpt lat="47.28523" lon="-2.35885">
        <ele>38.799999237061</ele>
        <time>2022-01-20T08:48:07.000Z</time>
      </trkpt>
      <trkpt lat="47.28524" lon="-2.35886">
        <ele>39.400001525879</ele>
        <time>2022-01-20T08:48:08.000Z</time>
      </trkpt>
      <trkpt lat="47.28526" lon="-2.35886">
        <ele>39.799999237061</ele>
        <time>2022-01-20T08:48:09.000Z</time>
      </trkpt>
      <trkpt lat="47.28527" lon="-2.35886">
        <ele>40.200000762939</ele>
        <time>2022-01-20T08:48:10.000Z</time>
      </trkpt>
      <trkpt lat="47.28529" lon="-2.35886">
        <ele>40.599998474121</ele>
        <time>2022-01-20T08:48:11.000Z</time>
      </trkpt>
      <trkpt lat="47.2853" lon="-2.35886">
        <ele>41</ele>
        <time>2022-01-20T08:48:12.000Z</time>
      </trkpt>
      <trkpt lat="47.28531" lon="-2.35887">
        <ele>42</ele>
        <time>2022-01-20T08:48:13.000Z</time>
      </trkpt>
      <trkpt lat="47.28532" lon="-2.35887">
        <ele>42.400001525879</ele>
        <time>2022-01-20T08:48:14.000Z</time>
      </trkpt>
      <trkpt lat="47.28532" lon="-2.35887">
        <ele>42.400001525879</ele>
        <time>2022-01-20T08:48:15.000Z</time>
      </trkpt>
      <trkpt lat="47.28549" lon="-2.3591">
        <ele>42.400001525879</ele>
        <time>2022-01-20T08:48:57.000Z</time>
      </trkpt>
      <trkpt lat="47.28549" lon="-2.35911">
        <ele>42.400001525879</ele>
        <time>2022-01-20T08:48:58.000Z</time>
      </trkpt>
      <trkpt lat="47.28547" lon="-2.35917">
        <ele>42.799999237061</ele>
        <time>2022-01-20T08:49:01.000Z</time>
      </trkpt>
      <trkpt lat="47.28545" lon="-2.35919">
        <ele>43.599998474121</ele>
        <time>2022-01-20T08:49:02.000Z</time>
      </trkpt>
      <trkpt lat="47.28544" lon="-2.3592">
        <ele>44</ele>
        <time>2022-01-20T08:49:03.000Z</time>
      </trkpt>
      <trkpt lat="47.28542" lon="-2.35922">
        <ele>44.400001525879</ele>
        <time>2022-01-20T08:49:04.000Z</time>
      </trkpt>
      <trkpt lat="47.2854" lon="-2.35928">
        <ele>45</ele>
        <time>2022-01-20T08:49:06.000Z</time>
      </trkpt>
      <trkpt lat="47.28539" lon="-2.3593">
        <ele>45.400001525879</ele>
        <time>2022-01-20T08:49:07.000Z</time>
      </trkpt>
      <trkpt lat="47.28537" lon="-2.35932">
        <ele>45.799999237061</ele>
        <time>2022-01-20T08:49:08.000Z</time>
      </trkpt>
      <trkpt lat="47.28535" lon="-2.35933">
        <ele>46.200000762939</ele>
        <time>2022-01-20T08:49:09.000Z</time>
      </trkpt>
      <trkpt lat="47.28533" lon="-2.35934">
        <ele>46.599998474121</ele>
        <time>2022-01-20T08:49:10.000Z</time>
      </trkpt>
      <trkpt lat="47.28531" lon="-2.35934">
        <ele>46.599998474121</ele>
        <time>2022-01-20T08:49:11.000Z</time>
      </trkpt>
      <trkpt lat="47.28525" lon="-2.35935">
        <ele>46.599998474121</ele>
        <time>2022-01-20T08:49:13.000Z</time>
      </trkpt>
      <trkpt lat="47.285" lon="-2.35938">
        <ele>46.599998474121</ele>
        <time>2022-01-20T08:49:20.000Z</time>
      </trkpt>
      <trkpt lat="47.28496" lon="-2.3594">
        <ele>46.599998474121</ele>
        <time>2022-01-20T08:49:21.000Z</time>
      </trkpt>
      <trkpt lat="47.28482" lon="-2.35951">
        <ele>46.599998474121</ele>
        <time>2022-01-20T08:49:24.000Z</time>
      </trkpt>
      <trkpt lat="47.28471" lon="-2.35965">
        <ele>46.599998474121</ele>
        <time>2022-01-20T08:49:28.000Z</time>
      </trkpt>
      <trkpt lat="47.28464" lon="-2.35976">
        <ele>46.599998474121</ele>
        <time>2022-01-20T08:49:34.000Z</time>
      </trkpt>
      <trkpt lat="47.28458" lon="-2.35978">
        <ele>46.599998474121</ele>
        <time>2022-01-20T08:49:39.000Z</time>
      </trkpt>
      <trkpt lat="47.28458" lon="-2.35974">
        <ele>46.599998474121</ele>
        <time>2022-01-20T08:49:41.000Z</time>
      </trkpt>
      <trkpt lat="47.2846" lon="-2.35966">
        <ele>46.599998474121</ele>
        <time>2022-01-20T08:49:43.000Z</time>
      </trkpt>
      <trkpt lat="47.28465" lon="-2.35952">
        <ele>46.200000762939</ele>
        <time>2022-01-20T08:49:46.000Z</time>
      </trkpt>
      <trkpt lat="47.28467" lon="-2.35947">
        <ele>45.599998474121</ele>
        <time>2022-01-20T08:49:47.000Z</time>
      </trkpt>
      <trkpt lat="47.28469" lon="-2.35941">
        <ele>45.200000762939</ele>
        <time>2022-01-20T08:49:48.000Z</time>
      </trkpt>
      <trkpt lat="47.2847" lon="-2.35936">
        <ele>44.599998474121</ele>
        <time>2022-01-20T08:49:49.000Z</time>
      </trkpt>
      <trkpt lat="47.28473" lon="-2.35931">
        <ele>44.200000762939</ele>
        <time>2022-01-20T08:49:50.000Z</time>
      </trkpt>
      <trkpt lat="47.28474" lon="-2.35925">
        <ele>43.200000762939</ele>
        <time>2022-01-20T08:49:51.000Z</time>
      </trkpt>
      <trkpt lat="47.28475" lon="-2.35919">
        <ele>42.799999237061</ele>
        <time>2022-01-20T08:49:52.000Z</time>
      </trkpt>
      <trkpt lat="47.28475" lon="-2.35914">
        <ele>42.400001525879</ele>
        <time>2022-01-20T08:49:53.000Z</time>
      </trkpt>
      <trkpt lat="47.28474" lon="-2.35909">
        <ele>41.799999237061</ele>
        <time>2022-01-20T08:49:54.000Z</time>
      </trkpt>
      <trkpt lat="47.28472" lon="-2.35904">
        <ele>41.200000762939</ele>
        <time>2022-01-20T08:49:55.000Z</time>
      </trkpt>
      <trkpt lat="47.28469" lon="-2.359">
        <ele>40.599998474121</ele>
        <time>2022-01-20T08:49:56.000Z</time>
      </trkpt>
      <trkpt lat="47.28464" lon="-2.35897">
        <ele>40.200000762939</ele>
        <time>2022-01-20T08:49:57.000Z</time>
      </trkpt>
      <trkpt lat="47.28462" lon="-2.35893">
        <ele>39.599998474121</ele>
        <time>2022-01-20T08:49:58.000Z</time>
      </trkpt>
      <trkpt lat="47.28458" lon="-2.35892">
        <ele>39</ele>
        <time>2022-01-20T08:49:59.000Z</time>
      </trkpt>
      <trkpt lat="47.28454" lon="-2.3589">
        <ele>38.599998474121</ele>
        <time>2022-01-20T08:50:00.000Z</time>
      </trkpt>
      <trkpt lat="47.28449" lon="-2.35887">
        <ele>38</ele>
        <time>2022-01-20T08:50:01.000Z</time>
      </trkpt>
      <trkpt lat="47.28445" lon="-2.35884">
        <ele>37.400001525879</ele>
        <time>2022-01-20T08:50:02.000Z</time>
      </trkpt>
      <trkpt lat="47.28441" lon="-2.35879">
        <ele>37.400001525879</ele>
        <time>2022-01-20T08:50:03.000Z</time>
      </trkpt>
      <trkpt lat="47.28435" lon="-2.3587">
        <ele>37.400001525879</ele>
        <time>2022-01-20T08:50:05.000Z</time>
      </trkpt>
      <trkpt lat="47.28421" lon="-2.35862">
        <ele>37.400001525879</ele>
        <time>2022-01-20T08:50:09.000Z</time>
      </trkpt>
      <trkpt lat="47.28415" lon="-2.35865">
        <ele>37</ele>
        <time>2022-01-20T08:50:11.000Z</time>
      </trkpt>
      <trkpt lat="47.28412" lon="-2.35867">
        <ele>36.599998474121</ele>
        <time>2022-01-20T08:50:12.000Z</time>
      </trkpt>
      <trkpt lat="47.28408" lon="-2.3587">
        <ele>36.200000762939</ele>
        <time>2022-01-20T08:50:13.000Z</time>
      </trkpt>
      <trkpt lat="47.28405" lon="-2.35872">
        <ele>35.799999237061</ele>
        <time>2022-01-20T08:50:14.000Z</time>
      </trkpt>
      <trkpt lat="47.28401" lon="-2.35874">
        <ele>35.400001525879</ele>
        <time>2022-01-20T08:50:15.000Z</time>
      </trkpt>
      <trkpt lat="47.28387" lon="-2.35884">
        <ele>35.400001525879</ele>
        <time>2022-01-20T08:50:18.000Z</time>
      </trkpt>
      <trkpt lat="47.28363" lon="-2.35905">
        <ele>35.400001525879</ele>
        <time>2022-01-20T08:50:24.000Z</time>
      </trkpt>
      <trkpt lat="47.28344" lon="-2.35917">
        <ele>35.400001525879</ele>
        <time>2022-01-20T08:50:28.000Z</time>
      </trkpt>
      <trkpt lat="47.2834" lon="-2.3592">
        <ele>35</ele>
        <time>2022-01-20T08:50:29.000Z</time>
      </trkpt>
      <trkpt lat="47.28335" lon="-2.35925">
        <ele>34.599998474121</ele>
        <time>2022-01-20T08:50:30.000Z</time>
      </trkpt>
      <trkpt lat="47.28331" lon="-2.3593">
        <ele>34.200000762939</ele>
        <time>2022-01-20T08:50:31.000Z</time>
      </trkpt>
      <trkpt lat="47.28326" lon="-2.35936">
        <ele>33.799999237061</ele>
        <time>2022-01-20T08:50:32.000Z</time>
      </trkpt>
      <trkpt lat="47.28322" lon="-2.35942">
        <ele>33.200000762939</ele>
        <time>2022-01-20T08:50:33.000Z</time>
      </trkpt>
      <trkpt lat="47.28316" lon="-2.35953">
        <ele>33.200000762939</ele>
        <time>2022-01-20T08:50:35.000Z</time>
      </trkpt>
      <trkpt lat="47.28313" lon="-2.35958">
        <ele>32.799999237061</ele>
        <time>2022-01-20T08:50:36.000Z</time>
      </trkpt>
      <trkpt lat="47.28309" lon="-2.35964">
        <ele>32.400001525879</ele>
        <time>2022-01-20T08:50:37.000Z</time>
      </trkpt>
      <trkpt lat="47.28306" lon="-2.35969">
        <ele>32</ele>
        <time>2022-01-20T08:50:38.000Z</time>
      </trkpt>
      <trkpt lat="47.28302" lon="-2.35974">
        <ele>31.60000038147</ele>
        <time>2022-01-20T08:50:39.000Z</time>
      </trkpt>
      <trkpt lat="47.28298" lon="-2.35978">
        <ele>31</ele>
        <time>2022-01-20T08:50:40.000Z</time>
      </trkpt>
      <trkpt lat="47.28294" lon="-2.35982">
        <ele>31</ele>
        <time>2022-01-20T08:50:41.000Z</time>
      </trkpt>
      <trkpt lat="47.28281" lon="-2.35993">
        <ele>30.60000038147</ele>
        <time>2022-01-20T08:50:44.000Z</time>
      </trkpt>
      <trkpt lat="47.28277" lon="-2.35997">
        <ele>30.200000762939</ele>
        <time>2022-01-20T08:50:45.000Z</time>
      </trkpt>
      <trkpt lat="47.28274" lon="-2.36001">
        <ele>29.799999237061</ele>
        <time>2022-01-20T08:50:46.000Z</time>
      </trkpt>
      <trkpt lat="47.28272" lon="-2.36006">
        <ele>29.39999961853</ele>
        <time>2022-01-20T08:50:47.000Z</time>
      </trkpt>
      <trkpt lat="47.2827" lon="-2.36012">
        <ele>29</ele>
        <time>2022-01-20T08:50:48.000Z</time>
      </trkpt>
      <trkpt lat="47.28262" lon="-2.36036">
        <ele>29</ele>
        <time>2022-01-20T08:50:51.000Z</time>
      </trkpt>
      <trkpt lat="47.28255" lon="-2.36065">
        <ele>29</ele>
        <time>2022-01-20T08:50:56.000Z</time>
      </trkpt>
      <trkpt lat="47.2825" lon="-2.36075">
        <ele>29</ele>
        <time>2022-01-20T08:50:58.000Z</time>
      </trkpt>
      <trkpt lat="47.28248" lon="-2.36085">
        <ele>29</ele>
        <time>2022-01-20T08:51:00.000Z</time>
      </trkpt>
      <trkpt lat="47.28248" lon="-2.36097">
        <ele>29</ele>
        <time>2022-01-20T08:51:02.000Z</time>
      </trkpt>
      <trkpt lat="47.28253" lon="-2.36109">
        <ele>29</ele>
        <time>2022-01-20T08:51:04.000Z</time>
      </trkpt>
      <trkpt lat="47.28259" lon="-2.36122">
        <ele>29</ele>
        <time>2022-01-20T08:51:06.000Z</time>
      </trkpt>
      <trkpt lat="47.28266" lon="-2.36142">
        <ele>29</ele>
        <time>2022-01-20T08:51:09.000Z</time>
      </trkpt>
      <trkpt lat="47.28271" lon="-2.36154">
        <ele>29</ele>
        <time>2022-01-20T08:51:11.000Z</time>
      </trkpt>
      <trkpt lat="47.28273" lon="-2.36176">
        <ele>29</ele>
        <time>2022-01-20T08:51:14.000Z</time>
      </trkpt>
      <trkpt lat="47.2828" lon="-2.3621">
        <ele>29</ele>
        <time>2022-01-20T08:51:19.000Z</time>
      </trkpt>
      <trkpt lat="47.28284" lon="-2.36223">
        <ele>29</ele>
        <time>2022-01-20T08:51:21.000Z</time>
      </trkpt>
      <trkpt lat="47.28293" lon="-2.36233">
        <ele>28.60000038147</ele>
        <time>2022-01-20T08:51:23.000Z</time>
      </trkpt>
      <trkpt lat="47.28298" lon="-2.36236">
        <ele>28.200000762939</ele>
        <time>2022-01-20T08:51:24.000Z</time>
      </trkpt>
      <trkpt lat="47.28302" lon="-2.36237">
        <ele>27.799999237061</ele>
        <time>2022-01-20T08:51:25.000Z</time>
      </trkpt>
      <trkpt lat="47.28307" lon="-2.36238">
        <ele>27.39999961853</ele>
        <time>2022-01-20T08:51:26.000Z</time>
      </trkpt>
      <trkpt lat="47.28311" lon="-2.3624">
        <ele>27</ele>
        <time>2022-01-20T08:51:27.000Z</time>
      </trkpt>
      <trkpt lat="47.28315" lon="-2.36242">
        <ele>27</ele>
        <time>2022-01-20T08:51:28.000Z</time>
      </trkpt>
      <trkpt lat="47.28336" lon="-2.36252">
        <ele>27</ele>
        <time>2022-01-20T08:51:33.000Z</time>
      </trkpt>
      <trkpt lat="47.2835" lon="-2.36259">
        <ele>27</ele>
        <time>2022-01-20T08:51:37.000Z</time>
      </trkpt>
      <trkpt lat="47.28355" lon="-2.36264">
        <ele>27.39999961853</ele>
        <time>2022-01-20T08:51:39.000Z</time>
      </trkpt>
      <trkpt lat="47.28356" lon="-2.36266">
        <ele>27.799999237061</ele>
        <time>2022-01-20T08:51:40.000Z</time>
      </trkpt>
      <trkpt lat="47.28357" lon="-2.36268">
        <ele>28.200000762939</ele>
        <time>2022-01-20T08:51:41.000Z</time>
      </trkpt>
      <trkpt lat="47.28357" lon="-2.36271">
        <ele>28.60000038147</ele>
        <time>2022-01-20T08:51:42.000Z</time>
      </trkpt>
      <trkpt lat="47.28356" lon="-2.36275">
        <ele>29</ele>
        <time>2022-01-20T08:51:43.000Z</time>
      </trkpt>
      <trkpt lat="47.28354" lon="-2.36284">
        <ele>29</ele>
        <time>2022-01-20T08:51:45.000Z</time>
      </trkpt>
      <trkpt lat="47.28359" lon="-2.36298">
        <ele>29</ele>
        <time>2022-01-20T08:51:49.000Z</time>
      </trkpt>
      <trkpt lat="47.28368" lon="-2.36302">
        <ele>29.60000038147</ele>
        <time>2022-01-20T08:51:53.000Z</time>
      </trkpt>
      <trkpt lat="47.2837" lon="-2.36303">
        <ele>30</ele>
        <time>2022-01-20T08:51:54.000Z</time>
      </trkpt>
      <trkpt lat="47.28371" lon="-2.36305">
        <ele>30.799999237061</ele>
        <time>2022-01-20T08:51:55.000Z</time>
      </trkpt>
      <trkpt lat="47.28374" lon="-2.36308">
        <ele>31.200000762939</ele>
        <time>2022-01-20T08:51:56.000Z</time>
      </trkpt>
      <trkpt lat="47.28376" lon="-2.36311">
        <ele>31.200000762939</ele>
        <time>2022-01-20T08:51:57.000Z</time>
      </trkpt>
      <trkpt lat="47.28381" lon="-2.36317">
        <ele>31.200000762939</ele>
        <time>2022-01-20T08:51:59.000Z</time>
      </trkpt>
      <trkpt lat="47.28389" lon="-2.36328">
        <ele>31.200000762939</ele>
        <time>2022-01-20T08:52:03.000Z</time>
      </trkpt>
      <trkpt lat="47.28404" lon="-2.3635">
        <ele>31.200000762939</ele>
        <time>2022-01-20T08:52:08.000Z</time>
      </trkpt>
      <trkpt lat="47.28422" lon="-2.36364">
        <ele>31.200000762939</ele>
        <time>2022-01-20T08:52:13.000Z</time>
      </trkpt>
      <trkpt lat="47.28428" lon="-2.36368">
        <ele>31.60000038147</ele>
        <time>2022-01-20T08:52:15.000Z</time>
      </trkpt>
      <trkpt lat="47.28431" lon="-2.36369">
        <ele>32</ele>
        <time>2022-01-20T08:52:16.000Z</time>
      </trkpt>
      <trkpt lat="47.28435" lon="-2.36372">
        <ele>32.400001525879</ele>
        <time>2022-01-20T08:52:17.000Z</time>
      </trkpt>
      <trkpt lat="47.28438" lon="-2.36377">
        <ele>32.799999237061</ele>
        <time>2022-01-20T08:52:18.000Z</time>
      </trkpt>
      <trkpt lat="47.28441" lon="-2.36381">
        <ele>33.200000762939</ele>
        <time>2022-01-20T08:52:19.000Z</time>
      </trkpt>
      <trkpt lat="47.28457" lon="-2.36395">
        <ele>33.200000762939</ele>
        <time>2022-01-20T08:52:24.000Z</time>
      </trkpt>
      <trkpt lat="47.28461" lon="-2.36387">
        <ele>33.200000762939</ele>
        <time>2022-01-20T08:52:27.000Z</time>
      </trkpt>
      <trkpt lat="47.28463" lon="-2.36377">
        <ele>33.200000762939</ele>
        <time>2022-01-20T08:52:29.000Z</time>
      </trkpt>
      <trkpt lat="47.28465" lon="-2.3635">
        <ele>33.200000762939</ele>
        <time>2022-01-20T08:52:34.000Z</time>
      </trkpt>
      <trkpt lat="47.28466" lon="-2.36317">
        <ele>33.200000762939</ele>
        <time>2022-01-20T08:52:40.000Z</time>
      </trkpt>
      <trkpt lat="47.28463" lon="-2.36288">
        <ele>33.200000762939</ele>
        <time>2022-01-20T08:52:45.000Z</time>
      </trkpt>
      <trkpt lat="47.2846" lon="-2.36252">
        <ele>33.200000762939</ele>
        <time>2022-01-20T08:52:52.000Z</time>
      </trkpt>
      <trkpt lat="47.28455" lon="-2.36224">
        <ele>33.799999237061</ele>
        <time>2022-01-20T08:52:57.000Z</time>
      </trkpt>
      <trkpt lat="47.28455" lon="-2.36219">
        <ele>34.200000762939</ele>
        <time>2022-01-20T08:52:58.000Z</time>
      </trkpt>
      <trkpt lat="47.28454" lon="-2.36214">
        <ele>34.599998474121</ele>
        <time>2022-01-20T08:52:59.000Z</time>
      </trkpt>
      <trkpt lat="47.28454" lon="-2.3621">
        <ele>35</ele>
        <time>2022-01-20T08:53:00.000Z</time>
      </trkpt>
      <trkpt lat="47.28455" lon="-2.36205">
        <ele>35.400001525879</ele>
        <time>2022-01-20T08:53:01.000Z</time>
      </trkpt>
      <trkpt lat="47.28461" lon="-2.36193">
        <ele>35.400001525879</ele>
        <time>2022-01-20T08:53:04.000Z</time>
      </trkpt>
      <trkpt lat="47.28476" lon="-2.36176">
        <ele>35.799999237061</ele>
        <time>2022-01-20T08:53:10.000Z</time>
      </trkpt>
      <trkpt lat="47.28478" lon="-2.36175">
        <ele>36.200000762939</ele>
        <time>2022-01-20T08:53:11.000Z</time>
      </trkpt>
      <trkpt lat="47.2848" lon="-2.36176">
        <ele>36.599998474121</ele>
        <time>2022-01-20T08:53:12.000Z</time>
      </trkpt>
      <trkpt lat="47.28482" lon="-2.36178">
        <ele>37</ele>
        <time>2022-01-20T08:53:13.000Z</time>
      </trkpt>
      <trkpt lat="47.28484" lon="-2.3618">
        <ele>37.400001525879</ele>
        <time>2022-01-20T08:53:14.000Z</time>
      </trkpt>
      <trkpt lat="47.28486" lon="-2.36182">
        <ele>37.400001525879</ele>
        <time>2022-01-20T08:53:15.000Z</time>
      </trkpt>
      <trkpt lat="47.28496" lon="-2.36197">
        <ele>37.400001525879</ele>
        <time>2022-01-20T08:53:21.000Z</time>
      </trkpt>
      <trkpt lat="47.28504" lon="-2.36213">
        <ele>37.400001525879</ele>
        <time>2022-01-20T08:53:27.000Z</time>
      </trkpt>
      <trkpt lat="47.2851" lon="-2.36228">
        <ele>37.400001525879</ele>
        <time>2022-01-20T08:53:33.000Z</time>
      </trkpt>
      <trkpt lat="47.28521" lon="-2.36243">
        <ele>37.400001525879</ele>
        <time>2022-01-20T08:53:38.000Z</time>
      </trkpt>
      <trkpt lat="47.28525" lon="-2.36256">
        <ele>38</ele>
        <time>2022-01-20T08:53:41.000Z</time>
      </trkpt>
      <trkpt lat="47.28526" lon="-2.36258">
        <ele>38.400001525879</ele>
        <time>2022-01-20T08:53:42.000Z</time>
      </trkpt>
      <trkpt lat="47.28526" lon="-2.36261">
        <ele>38.799999237061</ele>
        <time>2022-01-20T08:53:43.000Z</time>
      </trkpt>
      <trkpt lat="47.28525" lon="-2.36263">
        <ele>39.200000762939</ele>
        <time>2022-01-20T08:53:44.000Z</time>
      </trkpt>
      <trkpt lat="47.28525" lon="-2.36267">
        <ele>39.599998474121</ele>
        <time>2022-01-20T08:53:45.000Z</time>
      </trkpt>
      <trkpt lat="47.28526" lon="-2.3628">
        <ele>39.599998474121</ele>
        <time>2022-01-20T08:53:47.000Z</time>
      </trkpt>
      <trkpt lat="47.28528" lon="-2.36306">
        <ele>39.599998474121</ele>
        <time>2022-01-20T08:53:52.000Z</time>
      </trkpt>
      <trkpt lat="47.28523" lon="-2.36317">
        <ele>39.599998474121</ele>
        <time>2022-01-20T08:53:56.000Z</time>
      </trkpt>
      <trkpt lat="47.2851" lon="-2.36319">
        <ele>39.599998474121</ele>
        <time>2022-01-20T08:53:59.000Z</time>
      </trkpt>
      <trkpt lat="47.28505" lon="-2.36319">
        <ele>39.200000762939</ele>
        <time>2022-01-20T08:54:00.000Z</time>
      </trkpt>
      <trkpt lat="47.285" lon="-2.36318">
        <ele>38.599998474121</ele>
        <time>2022-01-20T08:54:01.000Z</time>
      </trkpt>
      <trkpt lat="47.28495" lon="-2.36317">
        <ele>38.200000762939</ele>
        <time>2022-01-20T08:54:02.000Z</time>
      </trkpt>
      <trkpt lat="47.2849" lon="-2.36315">
        <ele>37.799999237061</ele>
        <time>2022-01-20T08:54:03.000Z</time>
      </trkpt>
      <trkpt lat="47.28486" lon="-2.36314">
        <ele>37.200000762939</ele>
        <time>2022-01-20T08:54:04.000Z</time>
      </trkpt>
      <trkpt lat="47.28483" lon="-2.36312">
        <ele>36.799999237061</ele>
        <time>2022-01-20T08:54:05.000Z</time>
      </trkpt>
      <trkpt lat="47.28479" lon="-2.36312">
        <ele>36.200000762939</ele>
        <time>2022-01-20T08:54:06.000Z</time>
      </trkpt>
      <trkpt lat="47.28476" lon="-2.36311">
        <ele>35.799999237061</ele>
        <time>2022-01-20T08:54:07.000Z</time>
      </trkpt>
      <trkpt lat="47.28472" lon="-2.36311">
        <ele>35.200000762939</ele>
        <time>2022-01-20T08:54:08.000Z</time>
      </trkpt>
      <trkpt lat="47.28471" lon="-2.36315">
        <ele>35.200000762939</ele>
        <time>2022-01-20T08:54:09.000Z</time>
      </trkpt>
      <trkpt lat="47.28468" lon="-2.36327">
        <ele>35.200000762939</ele>
        <time>2022-01-20T08:54:13.000Z</time>
      </trkpt>
      <trkpt lat="47.28468" lon="-2.36331">
        <ele>35.200000762939</ele>
        <time>2022-01-20T08:54:14.000Z</time>
      </trkpt>
      <trkpt lat="47.28471" lon="-2.36356">
        <ele>35.200000762939</ele>
        <time>2022-01-20T08:54:20.000Z</time>
      </trkpt>
      <trkpt lat="47.28473" lon="-2.36382">
        <ele>35.200000762939</ele>
        <time>2022-01-20T08:54:26.000Z</time>
      </trkpt>
      <trkpt lat="47.28477" lon="-2.36402">
        <ele>35.200000762939</ele>
        <time>2022-01-20T08:54:31.000Z</time>
      </trkpt>
      <trkpt lat="47.28481" lon="-2.36407">
        <ele>35.200000762939</ele>
        <time>2022-01-20T08:54:35.000Z</time>
      </trkpt>
      <trkpt lat="47.28482" lon="-2.36406">
        <ele>35.200000762939</ele>
        <time>2022-01-20T08:54:36.000Z</time>
      </trkpt>
      <trkpt lat="47.2849" lon="-2.36399">
        <ele>35.599998474121</ele>
        <time>2022-01-20T08:54:41.000Z</time>
      </trkpt>
      <trkpt lat="47.28492" lon="-2.36398">
        <ele>36</ele>
        <time>2022-01-20T08:54:42.000Z</time>
      </trkpt>
      <trkpt lat="47.28495" lon="-2.36397">
        <ele>36.400001525879</ele>
        <time>2022-01-20T08:54:43.000Z</time>
      </trkpt>
      <trkpt lat="47.28498" lon="-2.36396">
        <ele>37</ele>
        <time>2022-01-20T08:54:44.000Z</time>
      </trkpt>
      <trkpt lat="47.28501" lon="-2.36395">
        <ele>37.400001525879</ele>
        <time>2022-01-20T08:54:45.000Z</time>
      </trkpt>
      <trkpt lat="47.28503" lon="-2.36394">
        <ele>37.400001525879</ele>
        <time>2022-01-20T08:54:46.000Z</time>
      </trkpt>
      <trkpt lat="47.28506" lon="-2.36392">
        <ele>37.799999237061</ele>
        <time>2022-01-20T08:54:47.000Z</time>
      </trkpt>
      <trkpt lat="47.28508" lon="-2.36391">
        <ele>38.200000762939</ele>
        <time>2022-01-20T08:54:48.000Z</time>
      </trkpt>
      <trkpt lat="47.28509" lon="-2.36389">
        <ele>39.200000762939</ele>
        <time>2022-01-20T08:54:49.000Z</time>
      </trkpt>
      <trkpt lat="47.28511" lon="-2.36387">
        <ele>39.599998474121</ele>
        <time>2022-01-20T08:54:50.000Z</time>
      </trkpt>
      <trkpt lat="47.28512" lon="-2.36385">
        <ele>40</ele>
        <time>2022-01-20T08:54:51.000Z</time>
      </trkpt>
      <trkpt lat="47.28513" lon="-2.36384">
        <ele>40.400001525879</ele>
        <time>2022-01-20T08:54:52.000Z</time>
      </trkpt>
      <trkpt lat="47.28514" lon="-2.36383">
        <ele>41</ele>
        <time>2022-01-20T08:54:53.000Z</time>
      </trkpt>
      <trkpt lat="47.28516" lon="-2.36382">
        <ele>41.400001525879</ele>
        <time>2022-01-20T08:54:54.000Z</time>
      </trkpt>
      <trkpt lat="47.28518" lon="-2.36381">
        <ele>41.799999237061</ele>
        <time>2022-01-20T08:54:55.000Z</time>
      </trkpt>
      <trkpt lat="47.2852" lon="-2.36379">
        <ele>42.200000762939</ele>
        <time>2022-01-20T08:54:56.000Z</time>
      </trkpt>
      <trkpt lat="47.28522" lon="-2.36377">
        <ele>42.599998474121</ele>
        <time>2022-01-20T08:54:57.000Z</time>
      </trkpt>
      <trkpt lat="47.28524" lon="-2.36375">
        <ele>43.200000762939</ele>
        <time>2022-01-20T08:54:58.000Z</time>
      </trkpt>
      <trkpt lat="47.28525" lon="-2.36373">
        <ele>43.599998474121</ele>
        <time>2022-01-20T08:54:59.000Z</time>
      </trkpt>
      <trkpt lat="47.28526" lon="-2.36373">
        <ele>44</ele>
        <time>2022-01-20T08:55:00.000Z</time>
      </trkpt>
      <trkpt lat="47.28528" lon="-2.36374">
        <ele>44.400001525879</ele>
        <time>2022-01-20T08:55:02.000Z</time>
      </trkpt>
      <trkpt lat="47.28529" lon="-2.36375">
        <ele>45</ele>
        <time>2022-01-20T08:55:03.000Z</time>
      </trkpt>
      <trkpt lat="47.2853" lon="-2.36377">
        <ele>45.400001525879</ele>
        <time>2022-01-20T08:55:04.000Z</time>
      </trkpt>
      <trkpt lat="47.28532" lon="-2.36378">
        <ele>45.799999237061</ele>
        <time>2022-01-20T08:55:05.000Z</time>
      </trkpt>
      <trkpt lat="47.28533" lon="-2.36379">
        <ele>46.200000762939</ele>
        <time>2022-01-20T08:55:06.000Z</time>
      </trkpt>
      <trkpt lat="47.28536" lon="-2.36381">
        <ele>46.200000762939</ele>
        <time>2022-01-20T08:55:10.000Z</time>
      </trkpt>
      <trkpt lat="47.28547" lon="-2.36368">
        <ele>48.200000762939</ele>
        <time>2022-01-20T08:55:32.000Z</time>
      </trkpt>
      <trkpt lat="47.28557" lon="-2.36355">
        <ele>48.200000762939</ele>
        <time>2022-01-20T08:55:38.000Z</time>
      </trkpt>
      <trkpt lat="47.28576" lon="-2.36334">
        <ele>48.200000762939</ele>
        <time>2022-01-20T08:55:45.000Z</time>
      </trkpt>
      <trkpt lat="47.28586" lon="-2.36319">
        <ele>47.799999237061</ele>
        <time>2022-01-20T08:55:48.000Z</time>
      </trkpt>
      <trkpt lat="47.28589" lon="-2.36314">
        <ele>47.400001525879</ele>
        <time>2022-01-20T08:55:49.000Z</time>
      </trkpt>
      <trkpt lat="47.28593" lon="-2.36309">
        <ele>47</ele>
        <time>2022-01-20T08:55:50.000Z</time>
      </trkpt>
      <trkpt lat="47.28597" lon="-2.36304">
        <ele>46.599998474121</ele>
        <time>2022-01-20T08:55:51.000Z</time>
      </trkpt>
      <trkpt lat="47.28602" lon="-2.363">
        <ele>46.200000762939</ele>
        <time>2022-01-20T08:55:52.000Z</time>
      </trkpt>
      <trkpt lat="47.28618" lon="-2.36289">
        <ele>45.799999237061</ele>
        <time>2022-01-20T08:55:55.000Z</time>
      </trkpt>
      <trkpt lat="47.28625" lon="-2.36286">
        <ele>45.400001525879</ele>
        <time>2022-01-20T08:55:56.000Z</time>
      </trkpt>
      <trkpt lat="47.28629" lon="-2.36284">
        <ele>45</ele>
        <time>2022-01-20T08:55:57.000Z</time>
      </trkpt>
      <trkpt lat="47.28634" lon="-2.36281">
        <ele>44.599998474121</ele>
        <time>2022-01-20T08:55:58.000Z</time>
      </trkpt>
      <trkpt lat="47.28638" lon="-2.3628">
        <ele>44.200000762939</ele>
        <time>2022-01-20T08:55:59.000Z</time>
      </trkpt>
      <trkpt lat="47.28651" lon="-2.36281">
        <ele>44.200000762939</ele>
        <time>2022-01-20T08:56:03.000Z</time>
      </trkpt>
      <trkpt lat="47.28661" lon="-2.36282">
        <ele>44.200000762939</ele>
        <time>2022-01-20T08:56:08.000Z</time>
      </trkpt>
      <trkpt lat="47.28663" lon="-2.36282">
        <ele>44.200000762939</ele>
        <time>2022-01-20T08:56:09.000Z</time>
      </trkpt>
      <trkpt lat="47.28671" lon="-2.36282">
        <ele>44.200000762939</ele>
        <time>2022-01-20T08:56:13.000Z</time>
      </trkpt>
      <trkpt lat="47.28672" lon="-2.36283">
        <ele>44.200000762939</ele>
        <time>2022-01-20T08:56:14.000Z</time>
      </trkpt>
      <trkpt lat="47.28672" lon="-2.36288">
        <ele>44.200000762939</ele>
        <time>2022-01-20T08:56:18.000Z</time>
      </trkpt>
      <trkpt lat="47.28672" lon="-2.3629">
        <ele>44.200000762939</ele>
        <time>2022-01-20T08:56:19.000Z</time>
      </trkpt>
      <trkpt lat="47.28671" lon="-2.36293">
        <ele>44.200000762939</ele>
        <time>2022-01-20T08:56:21.000Z</time>
      </trkpt>
      <trkpt lat="47.28667" lon="-2.36297">
        <ele>44.200000762939</ele>
        <time>2022-01-20T08:56:23.000Z</time>
      </trkpt>
      <trkpt lat="47.2866" lon="-2.36305">
        <ele>44.599998474121</ele>
        <time>2022-01-20T08:56:28.000Z</time>
      </trkpt>
      <trkpt lat="47.28659" lon="-2.36306">
        <ele>45</ele>
        <time>2022-01-20T08:56:29.000Z</time>
      </trkpt>
      <trkpt lat="47.28658" lon="-2.36307">
        <ele>45.400001525879</ele>
        <time>2022-01-20T08:56:30.000Z</time>
      </trkpt>
      <trkpt lat="47.28658" lon="-2.36309">
        <ele>45.799999237061</ele>
        <time>2022-01-20T08:56:31.000Z</time>
      </trkpt>
      <trkpt lat="47.28657" lon="-2.3631">
        <ele>46.400001525879</ele>
        <time>2022-01-20T08:56:32.000Z</time>
      </trkpt>
      <trkpt lat="47.28655" lon="-2.36315">
        <ele>46.799999237061</ele>
        <time>2022-01-20T08:56:35.000Z</time>
      </trkpt>
      <trkpt lat="47.28655" lon="-2.36317">
        <ele>47.200000762939</ele>
        <time>2022-01-20T08:56:36.000Z</time>
      </trkpt>
      <trkpt lat="47.28655" lon="-2.36319">
        <ele>47.599998474121</ele>
        <time>2022-01-20T08:56:37.000Z</time>
      </trkpt>
      <trkpt lat="47.28655" lon="-2.36321">
        <ele>48</ele>
        <time>2022-01-20T08:56:38.000Z</time>
      </trkpt>
      <trkpt lat="47.28656" lon="-2.36324">
        <ele>48.400001525879</ele>
        <time>2022-01-20T08:56:39.000Z</time>
      </trkpt>
      <trkpt lat="47.28657" lon="-2.3633">
        <ele>48.799999237061</ele>
        <time>2022-01-20T08:56:42.000Z</time>
      </trkpt>
      <trkpt lat="47.28657" lon="-2.36332">
        <ele>49.400001525879</ele>
        <time>2022-01-20T08:56:43.000Z</time>
      </trkpt>
      <trkpt lat="47.28658" lon="-2.36334">
        <ele>49.799999237061</ele>
        <time>2022-01-20T08:56:44.000Z</time>
      </trkpt>
      <trkpt lat="47.28658" lon="-2.36336">
        <ele>50.200000762939</ele>
        <time>2022-01-20T08:56:45.000Z</time>
      </trkpt>
      <trkpt lat="47.28659" lon="-2.36338">
        <ele>50.599998474121</ele>
        <time>2022-01-20T08:56:46.000Z</time>
      </trkpt>
      <trkpt lat="47.28661" lon="-2.36348">
        <ele>50.599998474121</ele>
        <time>2022-01-20T08:56:50.000Z</time>
      </trkpt>
      <trkpt lat="47.28661" lon="-2.3635">
        <ele>51</ele>
        <time>2022-01-20T08:56:51.000Z</time>
      </trkpt>
      <trkpt lat="47.28661" lon="-2.36352">
        <ele>51.799999237061</ele>
        <time>2022-01-20T08:56:52.000Z</time>
      </trkpt>
      <trkpt lat="47.28661" lon="-2.36354">
        <ele>52.400001525879</ele>
        <time>2022-01-20T08:56:53.000Z</time>
      </trkpt>
      <trkpt lat="47.2866" lon="-2.36355">
        <ele>52.799999237061</ele>
        <time>2022-01-20T08:56:54.000Z</time>
      </trkpt>
      <trkpt lat="47.2866" lon="-2.36359">
        <ele>52.799999237061</ele>
        <time>2022-01-20T08:56:56.000Z</time>
      </trkpt>
      <trkpt lat="47.28658" lon="-2.36372">
        <ele>53.200000762939</ele>
        <time>2022-01-20T08:57:00.000Z</time>
      </trkpt>
      <trkpt lat="47.28657" lon="-2.36375">
        <ele>53.599998474121</ele>
        <time>2022-01-20T08:57:01.000Z</time>
      </trkpt>
      <trkpt lat="47.28655" lon="-2.36378">
        <ele>54</ele>
        <time>2022-01-20T08:57:02.000Z</time>
      </trkpt>
      <trkpt lat="47.28654" lon="-2.3638">
        <ele>54.400001525879</ele>
        <time>2022-01-20T08:57:03.000Z</time>
      </trkpt>
      <trkpt lat="47.28653" lon="-2.36383">
        <ele>54.799999237061</ele>
        <time>2022-01-20T08:57:04.000Z</time>
      </trkpt>
      <trkpt lat="47.28648" lon="-2.36396">
        <ele>55.200000762939</ele>
        <time>2022-01-20T08:57:10.000Z</time>
      </trkpt>
      <trkpt lat="47.28648" lon="-2.36399">
        <ele>55.599998474121</ele>
        <time>2022-01-20T08:57:11.000Z</time>
      </trkpt>
      <trkpt lat="47.28648" lon="-2.36399">
        <ele>56</ele>
        <time>2022-01-20T08:57:12.000Z</time>
      </trkpt>
      <trkpt lat="47.28648" lon="-2.364">
        <ele>56.400001525879</ele>
        <time>2022-01-20T08:57:13.000Z</time>
      </trkpt>
      <trkpt lat="47.2865" lon="-2.36433">
        <ele>56.799999237061</ele>
        <time>2022-01-20T08:59:02.000Z</time>
      </trkpt>
      <trkpt lat="47.28651" lon="-2.36435">
        <ele>56.799999237061</ele>
        <time>2022-01-20T08:59:03.000Z</time>
      </trkpt>
      <trkpt lat="47.28655" lon="-2.3645">
        <ele>56.799999237061</ele>
        <time>2022-01-20T08:59:09.000Z</time>
      </trkpt>
      <trkpt lat="47.28657" lon="-2.36467">
        <ele>56.799999237061</ele>
        <time>2022-01-20T08:59:16.000Z</time>
      </trkpt>
      <trkpt lat="47.28662" lon="-2.36487">
        <ele>56.799999237061</ele>
        <time>2022-01-20T08:59:21.000Z</time>
      </trkpt>
      <trkpt lat="47.28664" lon="-2.36509">
        <ele>56.799999237061</ele>
        <time>2022-01-20T08:59:26.000Z</time>
      </trkpt>
      <trkpt lat="47.28667" lon="-2.36518">
        <ele>56.400001525879</ele>
        <time>2022-01-20T08:59:30.000Z</time>
      </trkpt>
      <trkpt lat="47.28667" lon="-2.3652">
        <ele>56</ele>
        <time>2022-01-20T08:59:31.000Z</time>
      </trkpt>
      <trkpt lat="47.28667" lon="-2.36521">
        <ele>55.599998474121</ele>
        <time>2022-01-20T08:59:32.000Z</time>
      </trkpt>
      <trkpt lat="47.28672" lon="-2.36521">
        <ele>54.599998474121</ele>
        <time>2022-01-20T08:59:41.000Z</time>
      </trkpt>
      <trkpt lat="47.28675" lon="-2.3652">
        <ele>54.599998474121</ele>
        <time>2022-01-20T08:59:43.000Z</time>
      </trkpt>
      <trkpt lat="47.28677" lon="-2.36517">
        <ele>54.200000762939</ele>
        <time>2022-01-20T08:59:45.000Z</time>
      </trkpt>
      <trkpt lat="47.28678" lon="-2.36516">
        <ele>53.200000762939</ele>
        <time>2022-01-20T08:59:46.000Z</time>
      </trkpt>
      <trkpt lat="47.2868" lon="-2.36515">
        <ele>52.799999237061</ele>
        <time>2022-01-20T08:59:47.000Z</time>
      </trkpt>
      <trkpt lat="47.28682" lon="-2.36514">
        <ele>52.400001525879</ele>
        <time>2022-01-20T08:59:48.000Z</time>
      </trkpt>
      <trkpt lat="47.28684" lon="-2.36515">
        <ele>51.799999237061</ele>
        <time>2022-01-20T08:59:49.000Z</time>
      </trkpt>
      <trkpt lat="47.28686" lon="-2.36517">
        <ele>51.400001525879</ele>
        <time>2022-01-20T08:59:50.000Z</time>
      </trkpt>
      <trkpt lat="47.28688" lon="-2.36519">
        <ele>51</ele>
        <time>2022-01-20T08:59:51.000Z</time>
      </trkpt>
      <trkpt lat="47.28689" lon="-2.36523">
        <ele>50.599998474121</ele>
        <time>2022-01-20T08:59:52.000Z</time>
      </trkpt>
      <trkpt lat="47.28691" lon="-2.36527">
        <ele>50</ele>
        <time>2022-01-20T08:59:53.000Z</time>
      </trkpt>
      <trkpt lat="47.28692" lon="-2.36536">
        <ele>49.599998474121</ele>
        <time>2022-01-20T08:59:55.000Z</time>
      </trkpt>
      <trkpt lat="47.28693" lon="-2.3654">
        <ele>49.200000762939</ele>
        <time>2022-01-20T08:59:56.000Z</time>
      </trkpt>
      <trkpt lat="47.28693" lon="-2.36545">
        <ele>48.599998474121</ele>
        <time>2022-01-20T08:59:57.000Z</time>
      </trkpt>
      <trkpt lat="47.28694" lon="-2.36547">
        <ele>48.200000762939</ele>
        <time>2022-01-20T08:59:58.000Z</time>
      </trkpt>
      <trkpt lat="47.28695" lon="-2.3655">
        <ele>47.599998474121</ele>
        <time>2022-01-20T08:59:59.000Z</time>
      </trkpt>
      <trkpt lat="47.28694" lon="-2.36552">
        <ele>47.599998474121</ele>
        <time>2022-01-20T09:00:01.000Z</time>
      </trkpt>
      <trkpt lat="47.28695" lon="-2.3656">
        <ele>46.799999237061</ele>
        <time>2022-01-20T09:00:25.000Z</time>
      </trkpt>
      <trkpt lat="47.28695" lon="-2.36565">
        <ele>46.400001525879</ele>
        <time>2022-01-20T09:00:26.000Z</time>
      </trkpt>
      <trkpt lat="47.28694" lon="-2.3657">
        <ele>46</ele>
        <time>2022-01-20T09:00:27.000Z</time>
      </trkpt>
      <trkpt lat="47.28692" lon="-2.36573">
        <ele>45.599998474121</ele>
        <time>2022-01-20T09:00:28.000Z</time>
      </trkpt>
      <trkpt lat="47.2869" lon="-2.36578">
        <ele>45.200000762939</ele>
        <time>2022-01-20T09:00:29.000Z</time>
      </trkpt>
      <trkpt lat="47.28689" lon="-2.36583">
        <ele>44.799999237061</ele>
        <time>2022-01-20T09:00:30.000Z</time>
      </trkpt>
      <trkpt lat="47.28688" lon="-2.3659">
        <ele>44.200000762939</ele>
        <time>2022-01-20T09:00:31.000Z</time>
      </trkpt>
      <trkpt lat="47.28687" lon="-2.36594">
        <ele>43.799999237061</ele>
        <time>2022-01-20T09:00:32.000Z</time>
      </trkpt>
      <trkpt lat="47.28685" lon="-2.36599">
        <ele>43.400001525879</ele>
        <time>2022-01-20T09:00:33.000Z</time>
      </trkpt>
      <trkpt lat="47.28682" lon="-2.36602">
        <ele>43</ele>
        <time>2022-01-20T09:00:34.000Z</time>
      </trkpt>
      <trkpt lat="47.28679" lon="-2.36604">
        <ele>42</ele>
        <time>2022-01-20T09:00:35.000Z</time>
      </trkpt>
      <trkpt lat="47.28676" lon="-2.36606">
        <ele>41.599998474121</ele>
        <time>2022-01-20T09:00:36.000Z</time>
      </trkpt>
      <trkpt lat="47.28671" lon="-2.36607">
        <ele>41</ele>
        <time>2022-01-20T09:00:37.000Z</time>
      </trkpt>
      <trkpt lat="47.28659" lon="-2.36611">
        <ele>41</ele>
        <time>2022-01-20T09:00:39.000Z</time>
      </trkpt>
      <trkpt lat="47.28653" lon="-2.36614">
        <ele>41</ele>
        <time>2022-01-20T09:00:40.000Z</time>
      </trkpt>
      <trkpt lat="47.28638" lon="-2.36623">
        <ele>41</ele>
        <time>2022-01-20T09:00:43.000Z</time>
      </trkpt>
      <trkpt lat="47.28633" lon="-2.36625">
        <ele>40.599998474121</ele>
        <time>2022-01-20T09:00:44.000Z</time>
      </trkpt>
      <trkpt lat="47.28629" lon="-2.36627">
        <ele>40.200000762939</ele>
        <time>2022-01-20T09:00:45.000Z</time>
      </trkpt>
      <trkpt lat="47.28627" lon="-2.36628">
        <ele>39.799999237061</ele>
        <time>2022-01-20T09:00:46.000Z</time>
      </trkpt>
      <trkpt lat="47.28626" lon="-2.3663">
        <ele>39.400001525879</ele>
        <time>2022-01-20T09:00:47.000Z</time>
      </trkpt>
      <trkpt lat="47.28624" lon="-2.36632">
        <ele>39</ele>
        <time>2022-01-20T09:00:48.000Z</time>
      </trkpt>
      <trkpt lat="47.28621" lon="-2.36633">
        <ele>38.599998474121</ele>
        <time>2022-01-20T09:00:50.000Z</time>
      </trkpt>
      <trkpt lat="47.28618" lon="-2.36634">
        <ele>38.200000762939</ele>
        <time>2022-01-20T09:00:51.000Z</time>
      </trkpt>
      <trkpt lat="47.28617" lon="-2.36634">
        <ele>37.599998474121</ele>
        <time>2022-01-20T09:00:52.000Z</time>
      </trkpt>
      <trkpt lat="47.28615" lon="-2.36634">
        <ele>37.200000762939</ele>
        <time>2022-01-20T09:00:53.000Z</time>
      </trkpt>
      <trkpt lat="47.28613" lon="-2.36635">
        <ele>36.799999237061</ele>
        <time>2022-01-20T09:00:54.000Z</time>
      </trkpt>
      <trkpt lat="47.28607" lon="-2.36638">
        <ele>36.799999237061</ele>
        <time>2022-01-20T09:00:57.000Z</time>
      </trkpt>
      <trkpt lat="47.28604" lon="-2.36639">
        <ele>36.400001525879</ele>
        <time>2022-01-20T09:00:59.000Z</time>
      </trkpt>
      <trkpt lat="47.28603" lon="-2.36639">
        <ele>35.400001525879</ele>
        <time>2022-01-20T09:01:00.000Z</time>
      </trkpt>
      <trkpt lat="47.28602" lon="-2.36639">
        <ele>35</ele>
        <time>2022-01-20T09:01:01.000Z</time>
      </trkpt>
      <trkpt lat="47.28598" lon="-2.36642">
        <ele>34.599998474121</ele>
        <time>2022-01-20T09:01:15.000Z</time>
      </trkpt>
      <trkpt lat="47.28592" lon="-2.36646">
        <ele>34.200000762939</ele>
        <time>2022-01-20T09:01:17.000Z</time>
      </trkpt>
      <trkpt lat="47.28589" lon="-2.3665">
        <ele>33.799999237061</ele>
        <time>2022-01-20T09:01:18.000Z</time>
      </trkpt>
      <trkpt lat="47.28585" lon="-2.36654">
        <ele>33.400001525879</ele>
        <time>2022-01-20T09:01:19.000Z</time>
      </trkpt>
      <trkpt lat="47.28581" lon="-2.36659">
        <ele>33</ele>
        <time>2022-01-20T09:01:20.000Z</time>
      </trkpt>
      <trkpt lat="47.28576" lon="-2.36665">
        <ele>32.599998474121</ele>
        <time>2022-01-20T09:01:21.000Z</time>
      </trkpt>
      <trkpt lat="47.28565" lon="-2.36672">
        <ele>32.599998474121</ele>
        <time>2022-01-20T09:01:23.000Z</time>
      </trkpt>
      <trkpt lat="47.2856" lon="-2.36674">
        <ele>31.799999237061</ele>
        <time>2022-01-20T09:01:24.000Z</time>
      </trkpt>
      <trkpt lat="47.28554" lon="-2.36675">
        <ele>31.200000762939</ele>
        <time>2022-01-20T09:01:25.000Z</time>
      </trkpt>
      <trkpt lat="47.28549" lon="-2.36675">
        <ele>30.799999237061</ele>
        <time>2022-01-20T09:01:26.000Z</time>
      </trkpt>
      <trkpt lat="47.28544" lon="-2.36677">
        <ele>30.39999961853</ele>
        <time>2022-01-20T09:01:27.000Z</time>
      </trkpt>
      <trkpt lat="47.28538" lon="-2.36677">
        <ele>30.39999961853</ele>
        <time>2022-01-20T09:01:28.000Z</time>
      </trkpt>
      <trkpt lat="47.28527" lon="-2.36676">
        <ele>30.39999961853</ele>
        <time>2022-01-20T09:01:30.000Z</time>
      </trkpt>
      <trkpt lat="47.28519" lon="-2.3668">
        <ele>30.39999961853</ele>
        <time>2022-01-20T09:01:32.000Z</time>
      </trkpt>
      <trkpt lat="47.28518" lon="-2.3669">
        <ele>30.39999961853</ele>
        <time>2022-01-20T09:01:34.000Z</time>
      </trkpt>
      <trkpt lat="47.2852" lon="-2.36697">
        <ele>30.39999961853</ele>
        <time>2022-01-20T09:01:35.000Z</time>
      </trkpt>
      <trkpt lat="47.28533" lon="-2.36723">
        <ele>30</ele>
        <time>2022-01-20T09:01:39.000Z</time>
      </trkpt>
      <trkpt lat="47.28537" lon="-2.3673">
        <ele>29.39999961853</ele>
        <time>2022-01-20T09:01:40.000Z</time>
      </trkpt>
      <trkpt lat="47.28541" lon="-2.36738">
        <ele>29</ele>
        <time>2022-01-20T09:01:41.000Z</time>
      </trkpt>
      <trkpt lat="47.28546" lon="-2.36746">
        <ele>28.60000038147</ele>
        <time>2022-01-20T09:01:42.000Z</time>
      </trkpt>
      <trkpt lat="47.2855" lon="-2.36754">
        <ele>28</ele>
        <time>2022-01-20T09:01:43.000Z</time>
      </trkpt>
      <trkpt lat="47.28559" lon="-2.36771">
        <ele>27.60000038147</ele>
        <time>2022-01-20T09:01:45.000Z</time>
      </trkpt>
      <trkpt lat="47.28564" lon="-2.36779">
        <ele>27.200000762939</ele>
        <time>2022-01-20T09:01:46.000Z</time>
      </trkpt>
      <trkpt lat="47.28568" lon="-2.36787">
        <ele>26.799999237061</ele>
        <time>2022-01-20T09:01:47.000Z</time>
      </trkpt>
      <trkpt lat="47.28572" lon="-2.36795">
        <ele>26.200000762939</ele>
        <time>2022-01-20T09:01:48.000Z</time>
      </trkpt>
      <trkpt lat="47.28577" lon="-2.36803">
        <ele>25.799999237061</ele>
        <time>2022-01-20T09:01:49.000Z</time>
      </trkpt>
      <trkpt lat="47.28585" lon="-2.36817">
        <ele>25.39999961853</ele>
        <time>2022-01-20T09:01:51.000Z</time>
      </trkpt>
      <trkpt lat="47.2859" lon="-2.36825">
        <ele>25</ele>
        <time>2022-01-20T09:01:52.000Z</time>
      </trkpt>
      <trkpt lat="47.28594" lon="-2.36832">
        <ele>24.60000038147</ele>
        <time>2022-01-20T09:01:53.000Z</time>
      </trkpt>
      <trkpt lat="47.28598" lon="-2.36838">
        <ele>24.200000762939</ele>
        <time>2022-01-20T09:01:54.000Z</time>
      </trkpt>
      <trkpt lat="47.28603" lon="-2.36843">
        <ele>23.799999237061</ele>
        <time>2022-01-20T09:01:55.000Z</time>
      </trkpt>
      <trkpt lat="47.28613" lon="-2.36843">
        <ele>23.799999237061</ele>
        <time>2022-01-20T09:01:57.000Z</time>
      </trkpt>
      <trkpt lat="47.28622" lon="-2.36837">
        <ele>23.799999237061</ele>
        <time>2022-01-20T09:01:59.000Z</time>
      </trkpt>
      <trkpt lat="47.28627" lon="-2.36832">
        <ele>23.799999237061</ele>
        <time>2022-01-20T09:02:00.000Z</time>
      </trkpt>
      <trkpt lat="47.28634" lon="-2.36823">
        <ele>23.799999237061</ele>
        <time>2022-01-20T09:02:02.000Z</time>
      </trkpt>
      <trkpt lat="47.28649" lon="-2.36806">
        <ele>23.799999237061</ele>
        <time>2022-01-20T09:02:06.000Z</time>
      </trkpt>
      <trkpt lat="47.28655" lon="-2.36798">
        <ele>23.799999237061</ele>
        <time>2022-01-20T09:02:08.000Z</time>
      </trkpt>
      <trkpt lat="47.28664" lon="-2.36791">
        <ele>23.799999237061</ele>
        <time>2022-01-20T09:02:11.000Z</time>
      </trkpt>
      <trkpt lat="47.28666" lon="-2.36792">
        <ele>23.799999237061</ele>
        <time>2022-01-20T09:02:12.000Z</time>
      </trkpt>
      <trkpt lat="47.28676" lon="-2.36807">
        <ele>23.799999237061</ele>
        <time>2022-01-20T09:02:17.000Z</time>
      </trkpt>
      <trkpt lat="47.2869" lon="-2.36838">
        <ele>23.799999237061</ele>
        <time>2022-01-20T09:02:23.000Z</time>
      </trkpt>
      <trkpt lat="47.28703" lon="-2.36864">
        <ele>23.799999237061</ele>
        <time>2022-01-20T09:02:28.000Z</time>
      </trkpt>
      <trkpt lat="47.28714" lon="-2.36889">
        <ele>23.799999237061</ele>
        <time>2022-01-20T09:02:33.000Z</time>
      </trkpt>
      <trkpt lat="47.28718" lon="-2.36894">
        <ele>23.799999237061</ele>
        <time>2022-01-20T09:02:34.000Z</time>
      </trkpt>
      <trkpt lat="47.28722" lon="-2.36898">
        <ele>23.39999961853</ele>
        <time>2022-01-20T09:02:35.000Z</time>
      </trkpt>
      <trkpt lat="47.28727" lon="-2.36902">
        <ele>23</ele>
        <time>2022-01-20T09:02:36.000Z</time>
      </trkpt>
      <trkpt lat="47.28731" lon="-2.36906">
        <ele>22.60000038147</ele>
        <time>2022-01-20T09:02:37.000Z</time>
      </trkpt>
      <trkpt lat="47.28735" lon="-2.3691">
        <ele>22.200000762939</ele>
        <time>2022-01-20T09:02:38.000Z</time>
      </trkpt>
      <trkpt lat="47.28738" lon="-2.36915">
        <ele>21.60000038147</ele>
        <time>2022-01-20T09:02:39.000Z</time>
      </trkpt>
      <trkpt lat="47.28747" lon="-2.36929">
        <ele>21.60000038147</ele>
        <time>2022-01-20T09:02:42.000Z</time>
      </trkpt>
      <trkpt lat="47.28751" lon="-2.36944">
        <ele>21.60000038147</ele>
        <time>2022-01-20T09:02:46.000Z</time>
      </trkpt>
      <trkpt lat="47.28751" lon="-2.36947">
        <ele>21.60000038147</ele>
        <time>2022-01-20T09:02:47.000Z</time>
      </trkpt>
      <trkpt lat="47.2875" lon="-2.36952">
        <ele>22</ele>
        <time>2022-01-20T09:02:49.000Z</time>
      </trkpt>
      <trkpt lat="47.2875" lon="-2.36954">
        <ele>22.60000038147</ele>
        <time>2022-01-20T09:02:50.000Z</time>
      </trkpt>
      <trkpt lat="47.2875" lon="-2.36956">
        <ele>23</ele>
        <time>2022-01-20T09:02:51.000Z</time>
      </trkpt>
      <trkpt lat="47.2875" lon="-2.36958">
        <ele>23.39999961853</ele>
        <time>2022-01-20T09:02:52.000Z</time>
      </trkpt>
      <trkpt lat="47.28751" lon="-2.3696">
        <ele>23.799999237061</ele>
        <time>2022-01-20T09:02:53.000Z</time>
      </trkpt>
      <trkpt lat="47.28752" lon="-2.36962">
        <ele>23.799999237061</ele>
        <time>2022-01-20T09:02:54.000Z</time>
      </trkpt>
      <trkpt lat="47.28754" lon="-2.36966">
        <ele>24.200000762939</ele>
        <time>2022-01-20T09:02:55.000Z</time>
      </trkpt>
      <trkpt lat="47.28756" lon="-2.3697">
        <ele>24.60000038147</ele>
        <time>2022-01-20T09:02:56.000Z</time>
      </trkpt>
      <trkpt lat="47.28759" lon="-2.36974">
        <ele>25</ele>
        <time>2022-01-20T09:02:57.000Z</time>
      </trkpt>
      <trkpt lat="47.28761" lon="-2.36977">
        <ele>25.39999961853</ele>
        <time>2022-01-20T09:02:58.000Z</time>
      </trkpt>
      <trkpt lat="47.28763" lon="-2.3698">
        <ele>25.799999237061</ele>
        <time>2022-01-20T09:02:59.000Z</time>
      </trkpt>
      <trkpt lat="47.28769" lon="-2.36989">
        <ele>25.799999237061</ele>
        <time>2022-01-20T09:03:02.000Z</time>
      </trkpt>
      <trkpt lat="47.28784" lon="-2.37012">
        <ele>25.799999237061</ele>
        <time>2022-01-20T09:03:08.000Z</time>
      </trkpt>
      <trkpt lat="47.28789" lon="-2.37031">
        <ele>25.39999961853</ele>
        <time>2022-01-20T09:03:11.000Z</time>
      </trkpt>
      <trkpt lat="47.28791" lon="-2.37037">
        <ele>25</ele>
        <time>2022-01-20T09:03:12.000Z</time>
      </trkpt>
      <trkpt lat="47.28793" lon="-2.37044">
        <ele>24.60000038147</ele>
        <time>2022-01-20T09:03:13.000Z</time>
      </trkpt>
      <trkpt lat="47.28794" lon="-2.37053">
        <ele>24.200000762939</ele>
        <time>2022-01-20T09:03:14.000Z</time>
      </trkpt>
      <trkpt lat="47.28795" lon="-2.37062">
        <ele>23.60000038147</ele>
        <time>2022-01-20T09:03:15.000Z</time>
      </trkpt>
      <trkpt lat="47.28795" lon="-2.37073">
        <ele>23.200000762939</ele>
        <time>2022-01-20T09:03:16.000Z</time>
      </trkpt>
      <trkpt lat="47.28797" lon="-2.37081">
        <ele>22.799999237061</ele>
        <time>2022-01-20T09:03:17.000Z</time>
      </trkpt>
      <trkpt lat="47.28799" lon="-2.37088">
        <ele>22.200000762939</ele>
        <time>2022-01-20T09:03:18.000Z</time>
      </trkpt>
      <trkpt lat="47.288" lon="-2.37094">
        <ele>21.799999237061</ele>
        <time>2022-01-20T09:03:19.000Z</time>
      </trkpt>
      <trkpt lat="47.28802" lon="-2.37099">
        <ele>21.200000762939</ele>
        <time>2022-01-20T09:03:20.000Z</time>
      </trkpt>
      <trkpt lat="47.28804" lon="-2.37105">
        <ele>20.799999237061</ele>
        <time>2022-01-20T09:03:21.000Z</time>
      </trkpt>
      <trkpt lat="47.28807" lon="-2.37107">
        <ele>20.39999961853</ele>
        <time>2022-01-20T09:03:22.000Z</time>
      </trkpt>
      <trkpt lat="47.2881" lon="-2.37107">
        <ele>20</ele>
        <time>2022-01-20T09:03:23.000Z</time>
      </trkpt>
      <trkpt lat="47.28812" lon="-2.37106">
        <ele>19.39999961853</ele>
        <time>2022-01-20T09:03:24.000Z</time>
      </trkpt>
      <trkpt lat="47.28815" lon="-2.37106">
        <ele>18.799999237061</ele>
        <time>2022-01-20T09:03:25.000Z</time>
      </trkpt>
      <trkpt lat="47.28817" lon="-2.37104">
        <ele>18.39999961853</ele>
        <time>2022-01-20T09:03:26.000Z</time>
      </trkpt>
      <trkpt lat="47.28819" lon="-2.37101">
        <ele>17.799999237061</ele>
        <time>2022-01-20T09:03:27.000Z</time>
      </trkpt>
      <trkpt lat="47.28821" lon="-2.37097">
        <ele>17.200000762939</ele>
        <time>2022-01-20T09:03:28.000Z</time>
      </trkpt>
      <trkpt lat="47.28822" lon="-2.37092">
        <ele>16</ele>
        <time>2022-01-20T09:03:29.000Z</time>
      </trkpt>
      <trkpt lat="47.28823" lon="-2.37087">
        <ele>15.60000038147</ele>
        <time>2022-01-20T09:03:30.000Z</time>
      </trkpt>
      <trkpt lat="47.28822" lon="-2.37082">
        <ele>15</ele>
        <time>2022-01-20T09:03:31.000Z</time>
      </trkpt>
      <trkpt lat="47.28822" lon="-2.37077">
        <ele>15</ele>
        <time>2022-01-20T09:03:32.000Z</time>
      </trkpt>
      <trkpt lat="47.28822" lon="-2.37066">
        <ele>15</ele>
        <time>2022-01-20T09:03:34.000Z</time>
      </trkpt>
      <trkpt lat="47.28819" lon="-2.37056">
        <ele>15</ele>
        <time>2022-01-20T09:03:36.000Z</time>
      </trkpt>
      <trkpt lat="47.28813" lon="-2.37041">
        <ele>15</ele>
        <time>2022-01-20T09:03:39.000Z</time>
      </trkpt>
      <trkpt lat="47.28811" lon="-2.37034">
        <ele>15</ele>
        <time>2022-01-20T09:03:40.000Z</time>
      </trkpt>
      <trkpt lat="47.28807" lon="-2.37021">
        <ele>15</ele>
        <time>2022-01-20T09:03:42.000Z</time>
      </trkpt>
      <trkpt lat="47.28798" lon="-2.36995">
        <ele>15</ele>
        <time>2022-01-20T09:03:46.000Z</time>
      </trkpt>
      <trkpt lat="47.28794" lon="-2.36982">
        <ele>15</ele>
        <time>2022-01-20T09:03:48.000Z</time>
      </trkpt>
      <trkpt lat="47.28787" lon="-2.36958">
        <ele>15</ele>
        <time>2022-01-20T09:03:52.000Z</time>
      </trkpt>
      <trkpt lat="47.2878" lon="-2.3692">
        <ele>15</ele>
        <time>2022-01-20T09:03:58.000Z</time>
      </trkpt>
      <trkpt lat="47.28772" lon="-2.36911">
        <ele>15</ele>
        <time>2022-01-20T09:04:01.000Z</time>
      </trkpt>
      <trkpt lat="47.28764" lon="-2.36894">
        <ele>15</ele>
        <time>2022-01-20T09:04:06.000Z</time>
      </trkpt>
      <trkpt lat="47.28765" lon="-2.3687">
        <ele>15.39999961853</ele>
        <time>2022-01-20T09:04:12.000Z</time>
      </trkpt>
      <trkpt lat="47.28765" lon="-2.36866">
        <ele>15.800000190735</ele>
        <time>2022-01-20T09:04:13.000Z</time>
      </trkpt>
      <trkpt lat="47.28766" lon="-2.36863">
        <ele>16.200000762939</ele>
        <time>2022-01-20T09:04:14.000Z</time>
      </trkpt>
      <trkpt lat="47.28766" lon="-2.36859">
        <ele>16.60000038147</ele>
        <time>2022-01-20T09:04:15.000Z</time>
      </trkpt>
      <trkpt lat="47.28766" lon="-2.36854">
        <ele>17</ele>
        <time>2022-01-20T09:04:16.000Z</time>
      </trkpt>
      <trkpt lat="47.28768" lon="-2.36838">
        <ele>17.60000038147</ele>
        <time>2022-01-20T09:04:19.000Z</time>
      </trkpt>
      <trkpt lat="47.2877" lon="-2.36831">
        <ele>18</ele>
        <time>2022-01-20T09:04:20.000Z</time>
      </trkpt>
      <trkpt lat="47.2877" lon="-2.36827">
        <ele>18.39999961853</ele>
        <time>2022-01-20T09:04:21.000Z</time>
      </trkpt>
      <trkpt lat="47.28771" lon="-2.36822">
        <ele>18.799999237061</ele>
        <time>2022-01-20T09:04:22.000Z</time>
      </trkpt>
      <trkpt lat="47.28772" lon="-2.36817">
        <ele>19.200000762939</ele>
        <time>2022-01-20T09:04:23.000Z</time>
      </trkpt>
      <trkpt lat="47.28776" lon="-2.368">
        <ele>19.60000038147</ele>
        <time>2022-01-20T09:04:27.000Z</time>
      </trkpt>
      <trkpt lat="47.28777" lon="-2.36796">
        <ele>20</ele>
        <time>2022-01-20T09:04:28.000Z</time>
      </trkpt>
      <trkpt lat="47.28778" lon="-2.36791">
        <ele>20.39999961853</ele>
        <time>2022-01-20T09:04:29.000Z</time>
      </trkpt>
      <trkpt lat="47.28779" lon="-2.36787">
        <ele>21</ele>
        <time>2022-01-20T09:04:30.000Z</time>
      </trkpt>
      <trkpt lat="47.2878" lon="-2.36783">
        <ele>21.39999961853</ele>
        <time>2022-01-20T09:04:31.000Z</time>
      </trkpt>
      <trkpt lat="47.28782" lon="-2.36775">
        <ele>21.39999961853</ele>
        <time>2022-01-20T09:04:33.000Z</time>
      </trkpt>
      <trkpt lat="47.28788" lon="-2.36743">
        <ele>21.39999961853</ele>
        <time>2022-01-20T09:04:40.000Z</time>
      </trkpt>
      <trkpt lat="47.28793" lon="-2.36726">
        <ele>21.799999237061</ele>
        <time>2022-01-20T09:04:44.000Z</time>
      </trkpt>
      <trkpt lat="47.28794" lon="-2.36723">
        <ele>22.200000762939</ele>
        <time>2022-01-20T09:04:45.000Z</time>
      </trkpt>
      <trkpt lat="47.28795" lon="-2.36719">
        <ele>22.60000038147</ele>
        <time>2022-01-20T09:04:46.000Z</time>
      </trkpt>
      <trkpt lat="47.28797" lon="-2.36715">
        <ele>23</ele>
        <time>2022-01-20T09:04:47.000Z</time>
      </trkpt>
      <trkpt lat="47.28798" lon="-2.36712">
        <ele>23.60000038147</ele>
        <time>2022-01-20T09:04:48.000Z</time>
      </trkpt>
      <trkpt lat="47.28801" lon="-2.36702">
        <ele>24</ele>
        <time>2022-01-20T09:04:51.000Z</time>
      </trkpt>
      <trkpt lat="47.28802" lon="-2.36698">
        <ele>24.39999961853</ele>
        <time>2022-01-20T09:04:52.000Z</time>
      </trkpt>
      <trkpt lat="47.28803" lon="-2.36695">
        <ele>24.799999237061</ele>
        <time>2022-01-20T09:04:53.000Z</time>
      </trkpt>
      <trkpt lat="47.28804" lon="-2.36692">
        <ele>25.200000762939</ele>
        <time>2022-01-20T09:04:54.000Z</time>
      </trkpt>
      <trkpt lat="47.28805" lon="-2.36688">
        <ele>25.60000038147</ele>
        <time>2022-01-20T09:04:55.000Z</time>
      </trkpt>
      <trkpt lat="47.28808" lon="-2.3668">
        <ele>26</ele>
        <time>2022-01-20T09:04:58.000Z</time>
      </trkpt>
      <trkpt lat="47.28809" lon="-2.36677">
        <ele>26.60000038147</ele>
        <time>2022-01-20T09:04:59.000Z</time>
      </trkpt>
      <trkpt lat="47.2881" lon="-2.36674">
        <ele>27</ele>
        <time>2022-01-20T09:05:00.000Z</time>
      </trkpt>
      <trkpt lat="47.28811" lon="-2.3667">
        <ele>27.39999961853</ele>
        <time>2022-01-20T09:05:01.000Z</time>
      </trkpt>
      <trkpt lat="47.28812" lon="-2.36666">
        <ele>28</ele>
        <time>2022-01-20T09:05:02.000Z</time>
      </trkpt>
      <trkpt lat="47.28813" lon="-2.36663">
        <ele>28</ele>
        <time>2022-01-20T09:05:03.000Z</time>
      </trkpt>
      <trkpt lat="47.28815" lon="-2.36657">
        <ele>28.39999961853</ele>
        <time>2022-01-20T09:05:05.000Z</time>
      </trkpt>
      <trkpt lat="47.28816" lon="-2.36654">
        <ele>28.799999237061</ele>
        <time>2022-01-20T09:05:06.000Z</time>
      </trkpt>
      <trkpt lat="47.28816" lon="-2.36652">
        <ele>29.200000762939</ele>
        <time>2022-01-20T09:05:07.000Z</time>
      </trkpt>
      <trkpt lat="47.28817" lon="-2.36649">
        <ele>30</ele>
        <time>2022-01-20T09:05:08.000Z</time>
      </trkpt>
      <trkpt lat="47.28817" lon="-2.36642">
        <ele>30</ele>
        <time>2022-01-20T09:05:10.000Z</time>
      </trkpt>
      <trkpt lat="47.28817" lon="-2.36639">
        <ele>30.39999961853</ele>
        <time>2022-01-20T09:05:11.000Z</time>
      </trkpt>
      <trkpt lat="47.28816" lon="-2.36636">
        <ele>30.799999237061</ele>
        <time>2022-01-20T09:05:12.000Z</time>
      </trkpt>
      <trkpt lat="47.28816" lon="-2.36633">
        <ele>31.200000762939</ele>
        <time>2022-01-20T09:05:13.000Z</time>
      </trkpt>
      <trkpt lat="47.28815" lon="-2.3663">
        <ele>31.60000038147</ele>
        <time>2022-01-20T09:05:14.000Z</time>
      </trkpt>
      <trkpt lat="47.28814" lon="-2.36627">
        <ele>32</ele>
        <time>2022-01-20T09:05:15.000Z</time>
      </trkpt>
      <trkpt lat="47.28812" lon="-2.36619">
        <ele>32</ele>
        <time>2022-01-20T09:05:18.000Z</time>
      </trkpt>
      <trkpt lat="47.2881" lon="-2.36611">
        <ele>32.400001525879</ele>
        <time>2022-01-20T09:05:21.000Z</time>
      </trkpt>
      <trkpt lat="47.28809" lon="-2.36608">
        <ele>32.799999237061</ele>
        <time>2022-01-20T09:05:22.000Z</time>
      </trkpt>
      <trkpt lat="47.28807" lon="-2.36605">
        <ele>33.200000762939</ele>
        <time>2022-01-20T09:05:23.000Z</time>
      </trkpt>
      <trkpt lat="47.28806" lon="-2.36602">
        <ele>33.599998474121</ele>
        <time>2022-01-20T09:05:24.000Z</time>
      </trkpt>
      <trkpt lat="47.28805" lon="-2.36599">
        <ele>34</ele>
        <time>2022-01-20T09:05:25.000Z</time>
      </trkpt>
      <trkpt lat="47.28801" lon="-2.3658">
        <ele>34</ele>
        <time>2022-01-20T09:05:31.000Z</time>
      </trkpt>
      <trkpt lat="47.288" lon="-2.36574">
        <ele>34.599998474121</ele>
        <time>2022-01-20T09:05:33.000Z</time>
      </trkpt>
      <trkpt lat="47.28799" lon="-2.36571">
        <ele>35</ele>
        <time>2022-01-20T09:05:34.000Z</time>
      </trkpt>
      <trkpt lat="47.28799" lon="-2.36568">
        <ele>35.400001525879</ele>
        <time>2022-01-20T09:05:35.000Z</time>
      </trkpt>
      <trkpt lat="47.28798" lon="-2.36565">
        <ele>35.799999237061</ele>
        <time>2022-01-20T09:05:36.000Z</time>
      </trkpt>
      <trkpt lat="47.28796" lon="-2.36562">
        <ele>36.200000762939</ele>
        <time>2022-01-20T09:05:37.000Z</time>
      </trkpt>
      <trkpt lat="47.2879" lon="-2.36544">
        <ele>36.200000762939</ele>
        <time>2022-01-20T09:05:43.000Z</time>
      </trkpt>
      <trkpt lat="47.28792" lon="-2.36522">
        <ele>36.200000762939</ele>
        <time>2022-01-20T09:05:49.000Z</time>
      </trkpt>
      <trkpt lat="47.28794" lon="-2.36516">
        <ele>36.200000762939</ele>
        <time>2022-01-20T09:05:51.000Z</time>
      </trkpt>
      <trkpt lat="47.28796" lon="-2.36508">
        <ele>36.599998474121</ele>
        <time>2022-01-20T09:05:53.000Z</time>
      </trkpt>
      <trkpt lat="47.28797" lon="-2.36504">
        <ele>37</ele>
        <time>2022-01-20T09:05:54.000Z</time>
      </trkpt>
      <trkpt lat="47.28797" lon="-2.36501">
        <ele>37.400001525879</ele>
        <time>2022-01-20T09:05:55.000Z</time>
      </trkpt>
      <trkpt lat="47.28798" lon="-2.36498">
        <ele>38</ele>
        <time>2022-01-20T09:05:56.000Z</time>
      </trkpt>
      <trkpt lat="47.28798" lon="-2.36494">
        <ele>38.400001525879</ele>
        <time>2022-01-20T09:05:57.000Z</time>
      </trkpt>
      <trkpt lat="47.28799" lon="-2.36487">
        <ele>38.400001525879</ele>
        <time>2022-01-20T09:05:59.000Z</time>
      </trkpt>
      <trkpt lat="47.28799" lon="-2.3648">
        <ele>38.400001525879</ele>
        <time>2022-01-20T09:06:01.000Z</time>
      </trkpt>
      <trkpt lat="47.28801" lon="-2.36469">
        <ele>38.799999237061</ele>
        <time>2022-01-20T09:06:04.000Z</time>
      </trkpt>
      <trkpt lat="47.28802" lon="-2.36466">
        <ele>39.200000762939</ele>
        <time>2022-01-20T09:06:05.000Z</time>
      </trkpt>
      <trkpt lat="47.28802" lon="-2.36463">
        <ele>39.599998474121</ele>
        <time>2022-01-20T09:06:06.000Z</time>
      </trkpt>
      <trkpt lat="47.28802" lon="-2.36459">
        <ele>40</ele>
        <time>2022-01-20T09:06:07.000Z</time>
      </trkpt>
      <trkpt lat="47.28802" lon="-2.36456">
        <ele>40.599998474121</ele>
        <time>2022-01-20T09:06:08.000Z</time>
      </trkpt>
      <trkpt lat="47.28802" lon="-2.36452">
        <ele>40.599998474121</ele>
        <time>2022-01-20T09:06:09.000Z</time>
      </trkpt>
      <trkpt lat="47.28798" lon="-2.36428">
        <ele>40.599998474121</ele>
        <time>2022-01-20T09:06:16.000Z</time>
      </trkpt>
      <trkpt lat="47.28799" lon="-2.36426">
        <ele>40.599998474121</ele>
        <time>2022-01-20T09:06:17.000Z</time>
      </trkpt>
      <trkpt lat="47.28805" lon="-2.3642">
        <ele>40.599998474121</ele>
        <time>2022-01-20T09:06:21.000Z</time>
      </trkpt>
      <trkpt lat="47.28816" lon="-2.36413">
        <ele>41</ele>
        <time>2022-01-20T09:06:26.000Z</time>
      </trkpt>
      <trkpt lat="47.28819" lon="-2.36412">
        <ele>41.400001525879</ele>
        <time>2022-01-20T09:06:27.000Z</time>
      </trkpt>
      <trkpt lat="47.28822" lon="-2.3641">
        <ele>41.799999237061</ele>
        <time>2022-01-20T09:06:28.000Z</time>
      </trkpt>
      <trkpt lat="47.28825" lon="-2.36407">
        <ele>42.200000762939</ele>
        <time>2022-01-20T09:06:29.000Z</time>
      </trkpt>
      <trkpt lat="47.28827" lon="-2.36405">
        <ele>42.599998474121</ele>
        <time>2022-01-20T09:06:30.000Z</time>
      </trkpt>
      <trkpt lat="47.2883" lon="-2.36403">
        <ele>42.599998474121</ele>
        <time>2022-01-20T09:06:31.000Z</time>
      </trkpt>
      <trkpt lat="47.28832" lon="-2.36404">
        <ele>42.599998474121</ele>
        <time>2022-01-20T09:06:32.000Z</time>
      </trkpt>
      <trkpt lat="47.28838" lon="-2.36408">
        <ele>42.599998474121</ele>
        <time>2022-01-20T09:06:35.000Z</time>
      </trkpt>
      <trkpt lat="47.28843" lon="-2.36415">
        <ele>42.599998474121</ele>
        <time>2022-01-20T09:06:38.000Z</time>
      </trkpt>
      <trkpt lat="47.28852" lon="-2.36438">
        <ele>42</ele>
        <time>2022-01-20T09:06:42.000Z</time>
      </trkpt>
      <trkpt lat="47.28854" lon="-2.36446">
        <ele>41.400001525879</ele>
        <time>2022-01-20T09:06:43.000Z</time>
      </trkpt>
      <trkpt lat="47.28855" lon="-2.36453">
        <ele>41</ele>
        <time>2022-01-20T09:06:44.000Z</time>
      </trkpt>
      <trkpt lat="47.28857" lon="-2.36461">
        <ele>40.400001525879</ele>
        <time>2022-01-20T09:06:45.000Z</time>
      </trkpt>
      <trkpt lat="47.28858" lon="-2.36469">
        <ele>39.400001525879</ele>
        <time>2022-01-20T09:06:46.000Z</time>
      </trkpt>
      <trkpt lat="47.2886" lon="-2.36476">
        <ele>39</ele>
        <time>2022-01-20T09:06:47.000Z</time>
      </trkpt>
      <trkpt lat="47.28862" lon="-2.36483">
        <ele>38.400001525879</ele>
        <time>2022-01-20T09:06:48.000Z</time>
      </trkpt>
      <trkpt lat="47.28865" lon="-2.3649">
        <ele>38</ele>
        <time>2022-01-20T09:06:49.000Z</time>
      </trkpt>
      <trkpt lat="47.28868" lon="-2.365">
        <ele>37.400001525879</ele>
        <time>2022-01-20T09:06:50.000Z</time>
      </trkpt>
      <trkpt lat="47.2887" lon="-2.36509">
        <ele>37</ele>
        <time>2022-01-20T09:06:51.000Z</time>
      </trkpt>
      <trkpt lat="47.28872" lon="-2.36517">
        <ele>36.599998474121</ele>
        <time>2022-01-20T09:06:52.000Z</time>
      </trkpt>
      <trkpt lat="47.28873" lon="-2.36526">
        <ele>36</ele>
        <time>2022-01-20T09:06:53.000Z</time>
      </trkpt>
      <trkpt lat="47.28872" lon="-2.36536">
        <ele>35.599998474121</ele>
        <time>2022-01-20T09:06:54.000Z</time>
      </trkpt>
      <trkpt lat="47.2887" lon="-2.36548">
        <ele>35</ele>
        <time>2022-01-20T09:06:55.000Z</time>
      </trkpt>
      <trkpt lat="47.28867" lon="-2.36557">
        <ele>34.400001525879</ele>
        <time>2022-01-20T09:06:56.000Z</time>
      </trkpt>
      <trkpt lat="47.28864" lon="-2.36566">
        <ele>34</ele>
        <time>2022-01-20T09:06:57.000Z</time>
      </trkpt>
      <trkpt lat="47.28861" lon="-2.36573">
        <ele>33.400001525879</ele>
        <time>2022-01-20T09:06:58.000Z</time>
      </trkpt>
      <trkpt lat="47.28858" lon="-2.3658">
        <ele>32.799999237061</ele>
        <time>2022-01-20T09:06:59.000Z</time>
      </trkpt>
      <trkpt lat="47.28855" lon="-2.36585">
        <ele>32.799999237061</ele>
        <time>2022-01-20T09:07:00.000Z</time>
      </trkpt>
      <trkpt lat="47.28841" lon="-2.36617">
        <ele>32.799999237061</ele>
        <time>2022-01-20T09:07:05.000Z</time>
      </trkpt>
      <trkpt lat="47.28837" lon="-2.36622">
        <ele>32.799999237061</ele>
        <time>2022-01-20T09:07:06.000Z</time>
      </trkpt>
      <trkpt lat="47.28818" lon="-2.36655">
        <ele>32.799999237061</ele>
        <time>2022-01-20T09:07:12.000Z</time>
      </trkpt>
      <trkpt lat="47.28815" lon="-2.36663">
        <ele>32.200000762939</ele>
        <time>2022-01-20T09:07:13.000Z</time>
      </trkpt>
      <trkpt lat="47.28813" lon="-2.36671">
        <ele>31.799999237061</ele>
        <time>2022-01-20T09:07:14.000Z</time>
      </trkpt>
      <trkpt lat="47.28809" lon="-2.3668">
        <ele>31.200000762939</ele>
        <time>2022-01-20T09:07:15.000Z</time>
      </trkpt>
      <trkpt lat="47.28807" lon="-2.36689">
        <ele>30.60000038147</ele>
        <time>2022-01-20T09:07:16.000Z</time>
      </trkpt>
      <trkpt lat="47.28804" lon="-2.36698">
        <ele>30</ele>
        <time>2022-01-20T09:07:17.000Z</time>
      </trkpt>
      <trkpt lat="47.28802" lon="-2.36709">
        <ele>29.200000762939</ele>
        <time>2022-01-20T09:07:18.000Z</time>
      </trkpt>
      <trkpt lat="47.28799" lon="-2.36719">
        <ele>28.39999961853</ele>
        <time>2022-01-20T09:07:19.000Z</time>
      </trkpt>
      <trkpt lat="47.28796" lon="-2.3673">
        <ele>27.60000038147</ele>
        <time>2022-01-20T09:07:20.000Z</time>
      </trkpt>
      <trkpt lat="47.28794" lon="-2.36739">
        <ele>26.799999237061</ele>
        <time>2022-01-20T09:07:21.000Z</time>
      </trkpt>
      <trkpt lat="47.28791" lon="-2.36749">
        <ele>26.200000762939</ele>
        <time>2022-01-20T09:07:22.000Z</time>
      </trkpt>
      <trkpt lat="47.28789" lon="-2.36758">
        <ele>25.60000038147</ele>
        <time>2022-01-20T09:07:23.000Z</time>
      </trkpt>
      <trkpt lat="47.28787" lon="-2.36767">
        <ele>25</ele>
        <time>2022-01-20T09:07:24.000Z</time>
      </trkpt>
      <trkpt lat="47.28784" lon="-2.36777">
        <ele>24.39999961853</ele>
        <time>2022-01-20T09:07:25.000Z</time>
      </trkpt>
      <trkpt lat="47.28781" lon="-2.36785">
        <ele>23.799999237061</ele>
        <time>2022-01-20T09:07:26.000Z</time>
      </trkpt>
      <trkpt lat="47.28779" lon="-2.36795">
        <ele>23.799999237061</ele>
        <time>2022-01-20T09:07:27.000Z</time>
      </trkpt>
      <trkpt lat="47.28776" lon="-2.36813">
        <ele>23.39999961853</ele>
        <time>2022-01-20T09:07:29.000Z</time>
      </trkpt>
      <trkpt lat="47.28775" lon="-2.36822">
        <ele>23</ele>
        <time>2022-01-20T09:07:30.000Z</time>
      </trkpt>
      <trkpt lat="47.28773" lon="-2.3683">
        <ele>22.60000038147</ele>
        <time>2022-01-20T09:07:31.000Z</time>
      </trkpt>
      <trkpt lat="47.28771" lon="-2.3684">
        <ele>22</ele>
        <time>2022-01-20T09:07:32.000Z</time>
      </trkpt>
      <trkpt lat="47.2877" lon="-2.36849">
        <ele>21.200000762939</ele>
        <time>2022-01-20T09:07:33.000Z</time>
      </trkpt>
      <trkpt lat="47.28768" lon="-2.36858">
        <ele>20.60000038147</ele>
        <time>2022-01-20T09:07:34.000Z</time>
      </trkpt>
      <trkpt lat="47.28767" lon="-2.36865">
        <ele>20</ele>
        <time>2022-01-20T09:07:35.000Z</time>
      </trkpt>
      <trkpt lat="47.28767" lon="-2.36872">
        <ele>18.799999237061</ele>
        <time>2022-01-20T09:07:36.000Z</time>
      </trkpt>
      <trkpt lat="47.28767" lon="-2.36878">
        <ele>18.39999961853</ele>
        <time>2022-01-20T09:07:37.000Z</time>
      </trkpt>
      <trkpt lat="47.28768" lon="-2.36884">
        <ele>17.799999237061</ele>
        <time>2022-01-20T09:07:38.000Z</time>
      </trkpt>
      <trkpt lat="47.2877" lon="-2.36889">
        <ele>17.39999961853</ele>
        <time>2022-01-20T09:07:39.000Z</time>
      </trkpt>
      <trkpt lat="47.28772" lon="-2.36894">
        <ele>17</ele>
        <time>2022-01-20T09:07:40.000Z</time>
      </trkpt>
      <trkpt lat="47.28775" lon="-2.36897">
        <ele>16.39999961853</ele>
        <time>2022-01-20T09:07:41.000Z</time>
      </trkpt>
      <trkpt lat="47.28777" lon="-2.36901">
        <ele>16</ele>
        <time>2022-01-20T09:07:42.000Z</time>
      </trkpt>
      <trkpt lat="47.28778" lon="-2.36904">
        <ele>15.60000038147</ele>
        <time>2022-01-20T09:07:43.000Z</time>
      </trkpt>
      <trkpt lat="47.2878" lon="-2.36905">
        <ele>15.199999809265</ele>
        <time>2022-01-20T09:07:44.000Z</time>
      </trkpt>
      <trkpt lat="47.28781" lon="-2.36908">
        <ele>14.60000038147</ele>
        <time>2022-01-20T09:07:45.000Z</time>
      </trkpt>
      <trkpt lat="47.28784" lon="-2.36922">
        <ele>14.60000038147</ele>
        <time>2022-01-20T09:07:48.000Z</time>
      </trkpt>
      <trkpt lat="47.28785" lon="-2.36926">
        <ele>14.60000038147</ele>
        <time>2022-01-20T09:07:49.000Z</time>
      </trkpt>
      <trkpt lat="47.2879" lon="-2.36957">
        <ele>14.60000038147</ele>
        <time>2022-01-20T09:07:55.000Z</time>
      </trkpt>
      <trkpt lat="47.28796" lon="-2.36984">
        <ele>14.60000038147</ele>
        <time>2022-01-20T09:08:00.000Z</time>
      </trkpt>
      <trkpt lat="47.28807" lon="-2.37017">
        <ele>14.60000038147</ele>
        <time>2022-01-20T09:08:06.000Z</time>
      </trkpt>
      <trkpt lat="47.28816" lon="-2.37045">
        <ele>14.60000038147</ele>
        <time>2022-01-20T09:08:12.000Z</time>
      </trkpt>
      <trkpt lat="47.28825" lon="-2.37066">
        <ele>14.199999809265</ele>
        <time>2022-01-20T09:08:17.000Z</time>
      </trkpt>
      <trkpt lat="47.28826" lon="-2.37069">
        <ele>13.800000190735</ele>
        <time>2022-01-20T09:08:18.000Z</time>
      </trkpt>
      <trkpt lat="47.28827" lon="-2.37072">
        <ele>13.39999961853</ele>
        <time>2022-01-20T09:08:19.000Z</time>
      </trkpt>
      <trkpt lat="47.28827" lon="-2.37076">
        <ele>13</ele>
        <time>2022-01-20T09:08:20.000Z</time>
      </trkpt>
      <trkpt lat="47.28827" lon="-2.37079">
        <ele>12.60000038147</ele>
        <time>2022-01-20T09:08:21.000Z</time>
      </trkpt>
      <trkpt lat="47.28828" lon="-2.3709">
        <ele>12.60000038147</ele>
        <time>2022-01-20T09:08:24.000Z</time>
      </trkpt>
      <trkpt lat="47.28828" lon="-2.37117">
        <ele>12.60000038147</ele>
        <time>2022-01-20T09:08:30.000Z</time>
      </trkpt>
      <trkpt lat="47.28827" lon="-2.37145">
        <ele>12.60000038147</ele>
        <time>2022-01-20T09:08:35.000Z</time>
      </trkpt>
      <trkpt lat="47.28831" lon="-2.37168">
        <ele>12.60000038147</ele>
        <time>2022-01-20T09:08:40.000Z</time>
      </trkpt>
      <trkpt lat="47.28835" lon="-2.37194">
        <ele>12.60000038147</ele>
        <time>2022-01-20T09:08:46.000Z</time>
      </trkpt>
      <trkpt lat="47.2884" lon="-2.3722">
        <ele>12.60000038147</ele>
        <time>2022-01-20T09:08:52.000Z</time>
      </trkpt>
      <trkpt lat="47.28845" lon="-2.37237">
        <ele>12.60000038147</ele>
        <time>2022-01-20T09:08:56.000Z</time>
      </trkpt>
      <trkpt lat="47.28848" lon="-2.37238">
        <ele>12.60000038147</ele>
        <time>2022-01-20T09:08:57.000Z</time>
      </trkpt>
      <trkpt lat="47.2886" lon="-2.37238">
        <ele>12.60000038147</ele>
        <time>2022-01-20T09:09:02.000Z</time>
      </trkpt>
      <trkpt lat="47.28871" lon="-2.37233">
        <ele>12.60000038147</ele>
        <time>2022-01-20T09:09:09.000Z</time>
      </trkpt>
      <trkpt lat="47.2888" lon="-2.3723">
        <ele>12.60000038147</ele>
        <time>2022-01-20T09:09:15.000Z</time>
      </trkpt>
      <trkpt lat="47.28891" lon="-2.37223">
        <ele>12.60000038147</ele>
        <time>2022-01-20T09:09:23.000Z</time>
      </trkpt>
      <trkpt lat="47.28893" lon="-2.37222">
        <ele>12.60000038147</ele>
        <time>2022-01-20T09:09:24.000Z</time>
      </trkpt>
      <trkpt lat="47.289" lon="-2.3722">
        <ele>12.60000038147</ele>
        <time>2022-01-20T09:09:28.000Z</time>
      </trkpt>
      <trkpt lat="47.28912" lon="-2.37213">
        <ele>12.60000038147</ele>
        <time>2022-01-20T09:09:34.000Z</time>
      </trkpt>
      <trkpt lat="47.28923" lon="-2.37209">
        <ele>12.60000038147</ele>
        <time>2022-01-20T09:09:40.000Z</time>
      </trkpt>
      <trkpt lat="47.28935" lon="-2.37206">
        <ele>12.60000038147</ele>
        <time>2022-01-20T09:09:48.000Z</time>
      </trkpt>
      <trkpt lat="47.28941" lon="-2.37205">
        <ele>12.60000038147</ele>
        <time>2022-01-20T09:09:52.000Z</time>
      </trkpt>
      <trkpt lat="47.28943" lon="-2.37207">
        <ele>12.60000038147</ele>
        <time>2022-01-20T09:09:54.000Z</time>
      </trkpt>
      <trkpt lat="47.2895" lon="-2.37206">
        <ele>13.199999809265</ele>
        <time>2022-01-20T09:09:59.000Z</time>
      </trkpt>
      <trkpt lat="47.28952" lon="-2.37206">
        <ele>13.60000038147</ele>
        <time>2022-01-20T09:10:00.000Z</time>
      </trkpt>
      <trkpt lat="47.28953" lon="-2.37205">
        <ele>14</ele>
        <time>2022-01-20T09:10:01.000Z</time>
      </trkpt>
      <trkpt lat="47.28955" lon="-2.37204">
        <ele>14.39999961853</ele>
        <time>2022-01-20T09:10:02.000Z</time>
      </trkpt>
      <trkpt lat="47.28956" lon="-2.37204">
        <ele>14.800000190735</ele>
        <time>2022-01-20T09:10:03.000Z</time>
      </trkpt>
      <trkpt lat="47.28959" lon="-2.37203">
        <ele>14.800000190735</ele>
        <time>2022-01-20T09:10:06.000Z</time>
      </trkpt>
      <trkpt lat="47.2896" lon="-2.37203">
        <ele>14.800000190735</ele>
        <time>2022-01-20T09:10:07.000Z</time>
      </trkpt>
      <trkpt lat="47.28961" lon="-2.37201">
        <ele>14.800000190735</ele>
        <time>2022-01-20T09:11:17.000Z</time>
      </trkpt>
      <trkpt lat="47.28962" lon="-2.37194">
        <ele>14.800000190735</ele>
        <time>2022-01-20T09:11:19.000Z</time>
      </trkpt>
      <trkpt lat="47.28962" lon="-2.37162">
        <ele>15.199999809265</ele>
        <time>2022-01-20T09:11:26.000Z</time>
      </trkpt>
      <trkpt lat="47.28961" lon="-2.37157">
        <ele>15.60000038147</ele>
        <time>2022-01-20T09:11:27.000Z</time>
      </trkpt>
      <trkpt lat="47.28959" lon="-2.37152">
        <ele>16.200000762939</ele>
        <time>2022-01-20T09:11:28.000Z</time>
      </trkpt>
      <trkpt lat="47.28957" lon="-2.37147">
        <ele>16.60000038147</ele>
        <time>2022-01-20T09:11:29.000Z</time>
      </trkpt>
      <trkpt lat="47.28955" lon="-2.37142">
        <ele>17</ele>
        <time>2022-01-20T09:11:30.000Z</time>
      </trkpt>
      <trkpt lat="47.28947" lon="-2.37128">
        <ele>17</ele>
        <time>2022-01-20T09:11:33.000Z</time>
      </trkpt>
      <trkpt lat="47.28941" lon="-2.37119">
        <ele>17</ele>
        <time>2022-01-20T09:11:35.000Z</time>
      </trkpt>
      <trkpt lat="47.28938" lon="-2.37115">
        <ele>17.39999961853</ele>
        <time>2022-01-20T09:11:36.000Z</time>
      </trkpt>
      <trkpt lat="47.28935" lon="-2.37111">
        <ele>17.799999237061</ele>
        <time>2022-01-20T09:11:37.000Z</time>
      </trkpt>
      <trkpt lat="47.28931" lon="-2.37107">
        <ele>18.200000762939</ele>
        <time>2022-01-20T09:11:38.000Z</time>
      </trkpt>
      <trkpt lat="47.28928" lon="-2.37103">
        <ele>18.60000038147</ele>
        <time>2022-01-20T09:11:39.000Z</time>
      </trkpt>
      <trkpt lat="47.28924" lon="-2.37099">
        <ele>19</ele>
        <time>2022-01-20T09:11:40.000Z</time>
      </trkpt>
      <trkpt lat="47.28901" lon="-2.3707">
        <ele>19</ele>
        <time>2022-01-20T09:11:47.000Z</time>
      </trkpt>
      <trkpt lat="47.28881" lon="-2.37036">
        <ele>19</ele>
        <time>2022-01-20T09:11:54.000Z</time>
      </trkpt>
      <trkpt lat="47.28874" lon="-2.37018">
        <ele>19.39999961853</ele>
        <time>2022-01-20T09:11:57.000Z</time>
      </trkpt>
      <trkpt lat="47.28872" lon="-2.37012">
        <ele>20</ele>
        <time>2022-01-20T09:11:58.000Z</time>
      </trkpt>
      <trkpt lat="47.2887" lon="-2.37006">
        <ele>20.39999961853</ele>
        <time>2022-01-20T09:11:59.000Z</time>
      </trkpt>
      <trkpt lat="47.28869" lon="-2.37">
        <ele>20.799999237061</ele>
        <time>2022-01-20T09:12:00.000Z</time>
      </trkpt>
      <trkpt lat="47.28868" lon="-2.36993">
        <ele>21.200000762939</ele>
        <time>2022-01-20T09:12:01.000Z</time>
      </trkpt>
      <trkpt lat="47.28862" lon="-2.36975">
        <ele>21.200000762939</ele>
        <time>2022-01-20T09:12:04.000Z</time>
      </trkpt>
      <trkpt lat="47.28861" lon="-2.36968">
        <ele>21.200000762939</ele>
        <time>2022-01-20T09:12:05.000Z</time>
      </trkpt>
      <trkpt lat="47.28849" lon="-2.36915">
        <ele>21.200000762939</ele>
        <time>2022-01-20T09:12:13.000Z</time>
      </trkpt>
      <trkpt lat="47.28847" lon="-2.36888">
        <ele>21.60000038147</ele>
        <time>2022-01-20T09:12:17.000Z</time>
      </trkpt>
      <trkpt lat="47.28847" lon="-2.36881">
        <ele>22</ele>
        <time>2022-01-20T09:12:18.000Z</time>
      </trkpt>
      <trkpt lat="47.28847" lon="-2.36873">
        <ele>22.39999961853</ele>
        <time>2022-01-20T09:12:19.000Z</time>
      </trkpt>
      <trkpt lat="47.28848" lon="-2.36867">
        <ele>23</ele>
        <time>2022-01-20T09:12:20.000Z</time>
      </trkpt>
      <trkpt lat="47.28849" lon="-2.3686">
        <ele>23.39999961853</ele>
        <time>2022-01-20T09:12:21.000Z</time>
      </trkpt>
      <trkpt lat="47.28853" lon="-2.3684">
        <ele>23.39999961853</ele>
        <time>2022-01-20T09:12:24.000Z</time>
      </trkpt>
      <trkpt lat="47.2886" lon="-2.36808">
        <ele>23.799999237061</ele>
        <time>2022-01-20T09:12:29.000Z</time>
      </trkpt>
      <trkpt lat="47.28862" lon="-2.36801">
        <ele>24.200000762939</ele>
        <time>2022-01-20T09:12:30.000Z</time>
      </trkpt>
      <trkpt lat="47.28864" lon="-2.36795">
        <ele>25</ele>
        <time>2022-01-20T09:12:31.000Z</time>
      </trkpt>
      <trkpt lat="47.28865" lon="-2.36789">
        <ele>25.39999961853</ele>
        <time>2022-01-20T09:12:32.000Z</time>
      </trkpt>
      <trkpt lat="47.2887" lon="-2.3677">
        <ele>25.39999961853</ele>
        <time>2022-01-20T09:12:35.000Z</time>
      </trkpt>
      <trkpt lat="47.28872" lon="-2.36764">
        <ele>25.39999961853</ele>
        <time>2022-01-20T09:12:36.000Z</time>
      </trkpt>
      <trkpt lat="47.28886" lon="-2.3673">
        <ele>25.39999961853</ele>
        <time>2022-01-20T09:12:42.000Z</time>
      </trkpt>
      <trkpt lat="47.28889" lon="-2.36724">
        <ele>25.799999237061</ele>
        <time>2022-01-20T09:12:43.000Z</time>
      </trkpt>
      <trkpt lat="47.28891" lon="-2.36718">
        <ele>26.200000762939</ele>
        <time>2022-01-20T09:12:44.000Z</time>
      </trkpt>
      <trkpt lat="47.28894" lon="-2.36712">
        <ele>26.60000038147</ele>
        <time>2022-01-20T09:12:45.000Z</time>
      </trkpt>
      <trkpt lat="47.28896" lon="-2.36706">
        <ele>27.200000762939</ele>
        <time>2022-01-20T09:12:46.000Z</time>
      </trkpt>
      <trkpt lat="47.28899" lon="-2.367">
        <ele>27.60000038147</ele>
        <time>2022-01-20T09:12:47.000Z</time>
      </trkpt>
      <trkpt lat="47.28907" lon="-2.3668">
        <ele>27.60000038147</ele>
        <time>2022-01-20T09:12:50.000Z</time>
      </trkpt>
      <trkpt lat="47.28924" lon="-2.36641">
        <ele>27.60000038147</ele>
        <time>2022-01-20T09:12:56.000Z</time>
      </trkpt>
      <trkpt lat="47.28951" lon="-2.36582">
        <ele>27.60000038147</ele>
        <time>2022-01-20T09:13:05.000Z</time>
      </trkpt>
      <trkpt lat="47.28973" lon="-2.36549">
        <ele>27.60000038147</ele>
        <time>2022-01-20T09:13:11.000Z</time>
      </trkpt>
      <trkpt lat="47.29005" lon="-2.36518">
        <ele>27.60000038147</ele>
        <time>2022-01-20T09:13:18.000Z</time>
      </trkpt>
      <trkpt lat="47.29037" lon="-2.36492">
        <ele>27.60000038147</ele>
        <time>2022-01-20T09:13:25.000Z</time>
      </trkpt>
      <trkpt lat="47.29075" lon="-2.3646">
        <ele>27.60000038147</ele>
        <time>2022-01-20T09:13:33.000Z</time>
      </trkpt>
      <trkpt lat="47.29108" lon="-2.36435">
        <ele>27.60000038147</ele>
        <time>2022-01-20T09:13:40.000Z</time>
      </trkpt>
      <trkpt lat="47.29112" lon="-2.36431">
        <ele>27.60000038147</ele>
        <time>2022-01-20T09:13:41.000Z</time>
      </trkpt>
      <trkpt lat="47.2913" lon="-2.36413">
        <ele>27.60000038147</ele>
        <time>2022-01-20T09:13:45.000Z</time>
      </trkpt>
      <trkpt lat="47.29162" lon="-2.36392">
        <ele>27.60000038147</ele>
        <time>2022-01-20T09:13:52.000Z</time>
      </trkpt>
      <trkpt lat="47.29193" lon="-2.36382">
        <ele>27.60000038147</ele>
        <time>2022-01-20T09:13:58.000Z</time>
      </trkpt>
      <trkpt lat="47.29234" lon="-2.36379">
        <ele>27.60000038147</ele>
        <time>2022-01-20T09:14:05.000Z</time>
      </trkpt>
      <trkpt lat="47.29239" lon="-2.36378">
        <ele>27.60000038147</ele>
        <time>2022-01-20T09:14:06.000Z</time>
      </trkpt>
      <trkpt lat="47.29264" lon="-2.36369">
        <ele>27.60000038147</ele>
        <time>2022-01-20T09:14:11.000Z</time>
      </trkpt>
      <trkpt lat="47.29291" lon="-2.36354">
        <ele>28</ele>
        <time>2022-01-20T09:14:17.000Z</time>
      </trkpt>
      <trkpt lat="47.29295" lon="-2.36351">
        <ele>28.39999961853</ele>
        <time>2022-01-20T09:14:18.000Z</time>
      </trkpt>
      <trkpt lat="47.29299" lon="-2.36348">
        <ele>28.799999237061</ele>
        <time>2022-01-20T09:14:19.000Z</time>
      </trkpt>
      <trkpt lat="47.29304" lon="-2.36344">
        <ele>29.200000762939</ele>
        <time>2022-01-20T09:14:20.000Z</time>
      </trkpt>
      <trkpt lat="47.29308" lon="-2.36341">
        <ele>29.60000038147</ele>
        <time>2022-01-20T09:14:21.000Z</time>
      </trkpt>
      <trkpt lat="47.2932" lon="-2.36332">
        <ele>30</ele>
        <time>2022-01-20T09:14:24.000Z</time>
      </trkpt>
      <trkpt lat="47.29324" lon="-2.36329">
        <ele>30.39999961853</ele>
        <time>2022-01-20T09:14:25.000Z</time>
      </trkpt>
      <trkpt lat="47.29327" lon="-2.36326">
        <ele>30.799999237061</ele>
        <time>2022-01-20T09:14:26.000Z</time>
      </trkpt>
      <trkpt lat="47.29331" lon="-2.36323">
        <ele>31.200000762939</ele>
        <time>2022-01-20T09:14:27.000Z</time>
      </trkpt>
      <trkpt lat="47.29334" lon="-2.36319">
        <ele>31.60000038147</ele>
        <time>2022-01-20T09:14:28.000Z</time>
      </trkpt>
      <trkpt lat="47.29355" lon="-2.36304">
        <ele>31.60000038147</ele>
        <time>2022-01-20T09:14:33.000Z</time>
      </trkpt>
      <trkpt lat="47.29363" lon="-2.36298">
        <ele>32</ele>
        <time>2022-01-20T09:14:35.000Z</time>
      </trkpt>
      <trkpt lat="47.29367" lon="-2.36294">
        <ele>32.599998474121</ele>
        <time>2022-01-20T09:14:36.000Z</time>
      </trkpt>
      <trkpt lat="47.29371" lon="-2.36291">
        <ele>33</ele>
        <time>2022-01-20T09:14:37.000Z</time>
      </trkpt>
      <trkpt lat="47.29375" lon="-2.36289">
        <ele>33.400001525879</ele>
        <time>2022-01-20T09:14:38.000Z</time>
      </trkpt>
      <trkpt lat="47.29379" lon="-2.36286">
        <ele>33.799999237061</ele>
        <time>2022-01-20T09:14:39.000Z</time>
      </trkpt>
      <trkpt lat="47.29383" lon="-2.36282">
        <ele>33.799999237061</ele>
        <time>2022-01-20T09:14:40.000Z</time>
      </trkpt>
      <trkpt lat="47.2939" lon="-2.36275">
        <ele>33.799999237061</ele>
        <time>2022-01-20T09:14:42.000Z</time>
      </trkpt>
      <trkpt lat="47.29407" lon="-2.36263">
        <ele>33.799999237061</ele>
        <time>2022-01-20T09:14:46.000Z</time>
      </trkpt>
      <trkpt lat="47.29422" lon="-2.36251">
        <ele>34.200000762939</ele>
        <time>2022-01-20T09:14:50.000Z</time>
      </trkpt>
      <trkpt lat="47.29426" lon="-2.36248">
        <ele>34.599998474121</ele>
        <time>2022-01-20T09:14:51.000Z</time>
      </trkpt>
      <trkpt lat="47.2943" lon="-2.36245">
        <ele>35</ele>
        <time>2022-01-20T09:14:52.000Z</time>
      </trkpt>
      <trkpt lat="47.29434" lon="-2.36243">
        <ele>35.400001525879</ele>
        <time>2022-01-20T09:14:53.000Z</time>
      </trkpt>
      <trkpt lat="47.29438" lon="-2.3624">
        <ele>35.799999237061</ele>
        <time>2022-01-20T09:14:54.000Z</time>
      </trkpt>
      <trkpt lat="47.29458" lon="-2.36225">
        <ele>35.799999237061</ele>
        <time>2022-01-20T09:14:59.000Z</time>
      </trkpt>
      <trkpt lat="47.29484" lon="-2.36203">
        <ele>35.799999237061</ele>
        <time>2022-01-20T09:15:06.000Z</time>
      </trkpt>
      <trkpt lat="47.29516" lon="-2.36182">
        <ele>35.799999237061</ele>
        <time>2022-01-20T09:15:14.000Z</time>
      </trkpt>
      <trkpt lat="47.29525" lon="-2.36174">
        <ele>35.799999237061</ele>
        <time>2022-01-20T09:15:18.000Z</time>
      </trkpt>
      <trkpt lat="47.29528" lon="-2.36169">
        <ele>35.799999237061</ele>
        <time>2022-01-20T09:15:22.000Z</time>
      </trkpt>
      <trkpt lat="47.29529" lon="-2.36168">
        <ele>35.799999237061</ele>
        <time>2022-01-20T09:15:23.000Z</time>
      </trkpt>
      <trkpt lat="47.29528" lon="-2.36158">
        <ele>35.799999237061</ele>
        <time>2022-01-20T09:15:28.000Z</time>
      </trkpt>
      <trkpt lat="47.29522" lon="-2.36139">
        <ele>35.799999237061</ele>
        <time>2022-01-20T09:15:32.000Z</time>
      </trkpt>
      <trkpt lat="47.29507" lon="-2.36106">
        <ele>35.799999237061</ele>
        <time>2022-01-20T09:15:38.000Z</time>
      </trkpt>
      <trkpt lat="47.29494" lon="-2.36072">
        <ele>36.200000762939</ele>
        <time>2022-01-20T09:15:44.000Z</time>
      </trkpt>
      <trkpt lat="47.29492" lon="-2.36066">
        <ele>36.599998474121</ele>
        <time>2022-01-20T09:15:45.000Z</time>
      </trkpt>
      <trkpt lat="47.2949" lon="-2.3606">
        <ele>37</ele>
        <time>2022-01-20T09:15:46.000Z</time>
      </trkpt>
      <trkpt lat="47.29488" lon="-2.36054">
        <ele>37.400001525879</ele>
        <time>2022-01-20T09:15:47.000Z</time>
      </trkpt>
      <trkpt lat="47.29486" lon="-2.36049">
        <ele>37.799999237061</ele>
        <time>2022-01-20T09:15:48.000Z</time>
      </trkpt>
      <trkpt lat="47.29481" lon="-2.36032">
        <ele>37.799999237061</ele>
        <time>2022-01-20T09:15:52.000Z</time>
      </trkpt>
      <trkpt lat="47.29475" lon="-2.36015">
        <ele>37.799999237061</ele>
        <time>2022-01-20T09:15:57.000Z</time>
      </trkpt>
      <trkpt lat="47.29461" lon="-2.35987">
        <ele>37.799999237061</ele>
        <time>2022-01-20T09:16:03.000Z</time>
      </trkpt>
      <trkpt lat="47.29467" lon="-2.35975">
        <ele>37.799999237061</ele>
        <time>2022-01-20T09:16:06.000Z</time>
      </trkpt>
      <trkpt lat="47.29478" lon="-2.35971">
        <ele>37.799999237061</ele>
        <time>2022-01-20T09:16:09.000Z</time>
      </trkpt>
      <trkpt lat="47.29485" lon="-2.35966">
        <ele>37.799999237061</ele>
        <time>2022-01-20T09:16:11.000Z</time>
      </trkpt>
      <trkpt lat="47.29509" lon="-2.35945">
        <ele>37.799999237061</ele>
        <time>2022-01-20T09:16:18.000Z</time>
      </trkpt>
      <trkpt lat="47.29509" lon="-2.3593">
        <ele>37.799999237061</ele>
        <time>2022-01-20T09:16:22.000Z</time>
      </trkpt>
      <trkpt lat="47.29507" lon="-2.35922">
        <ele>37.799999237061</ele>
        <time>2022-01-20T09:16:24.000Z</time>
      </trkpt>
      <trkpt lat="47.29502" lon="-2.35909">
        <ele>37.799999237061</ele>
        <time>2022-01-20T09:16:28.000Z</time>
      </trkpt>
      <trkpt lat="47.29492" lon="-2.35901">
        <ele>37.799999237061</ele>
        <time>2022-01-20T09:16:33.000Z</time>
      </trkpt>
      <trkpt lat="47.29482" lon="-2.35902">
        <ele>37.799999237061</ele>
        <time>2022-01-20T09:16:39.000Z</time>
      </trkpt>
      <trkpt lat="47.2947" lon="-2.35906">
        <ele>37.799999237061</ele>
        <time>2022-01-20T09:16:46.000Z</time>
      </trkpt>
      <trkpt lat="47.29468" lon="-2.35906">
        <ele>37.799999237061</ele>
        <time>2022-01-20T09:16:47.000Z</time>
      </trkpt>
      <trkpt lat="47.29462" lon="-2.35904">
        <ele>37.799999237061</ele>
        <time>2022-01-20T09:16:50.000Z</time>
      </trkpt>
      <trkpt lat="47.29458" lon="-2.35908">
        <ele>37.799999237061</ele>
        <time>2022-01-20T09:16:53.000Z</time>
      </trkpt>
      <trkpt lat="47.29453" lon="-2.3591">
        <ele>37.799999237061</ele>
        <time>2022-01-20T09:16:56.000Z</time>
      </trkpt>
      <trkpt lat="47.29451" lon="-2.35902">
        <ele>37.799999237061</ele>
        <time>2022-01-20T09:17:00.000Z</time>
      </trkpt>
      <trkpt lat="47.29455" lon="-2.359">
        <ele>37.799999237061</ele>
        <time>2022-01-20T09:17:04.000Z</time>
      </trkpt>
      <trkpt lat="47.29457" lon="-2.35902">
        <ele>37.799999237061</ele>
        <time>2022-01-20T09:17:07.000Z</time>
      </trkpt>
      <trkpt lat="47.2946" lon="-2.35904">
        <ele>37.799999237061</ele>
        <time>2022-01-20T09:17:29.000Z</time>
      </trkpt>
      <trkpt lat="47.29462" lon="-2.35905">
        <ele>37.799999237061</ele>
        <time>2022-01-20T09:17:30.000Z</time>
      </trkpt>
      <trkpt lat="47.29467" lon="-2.35906">
        <ele>37.799999237061</ele>
        <time>2022-01-20T09:17:33.000Z</time>
      </trkpt>
      <trkpt lat="47.2947" lon="-2.35905">
        <ele>37.799999237061</ele>
        <time>2022-01-20T09:17:34.000Z</time>
      </trkpt>
      <trkpt lat="47.29487" lon="-2.35899">
        <ele>37.799999237061</ele>
        <time>2022-01-20T09:17:40.000Z</time>
      </trkpt>
      <trkpt lat="47.29491" lon="-2.359">
        <ele>37.799999237061</ele>
        <time>2022-01-20T09:17:41.000Z</time>
      </trkpt>
      <trkpt lat="47.295" lon="-2.35908">
        <ele>37.799999237061</ele>
        <time>2022-01-20T09:17:44.000Z</time>
      </trkpt>
      <trkpt lat="47.29508" lon="-2.35927">
        <ele>37.799999237061</ele>
        <time>2022-01-20T09:17:48.000Z</time>
      </trkpt>
      <trkpt lat="47.29509" lon="-2.35931">
        <ele>37.799999237061</ele>
        <time>2022-01-20T09:17:49.000Z</time>
      </trkpt>
      <trkpt lat="47.29515" lon="-2.3594">
        <ele>37.799999237061</ele>
        <time>2022-01-20T09:17:52.000Z</time>
      </trkpt>
      <trkpt lat="47.29517" lon="-2.3594">
        <ele>37.799999237061</ele>
        <time>2022-01-20T09:17:53.000Z</time>
      </trkpt>
      <trkpt lat="47.29531" lon="-2.35933">
        <ele>37.799999237061</ele>
        <time>2022-01-20T09:17:57.000Z</time>
      </trkpt>
      <trkpt lat="47.2956" lon="-2.35915">
        <ele>37.799999237061</ele>
        <time>2022-01-20T09:18:04.000Z</time>
      </trkpt>
      <trkpt lat="47.29573" lon="-2.35908">
        <ele>37.799999237061</ele>
        <time>2022-01-20T09:18:07.000Z</time>
      </trkpt>
      <trkpt lat="47.29581" lon="-2.35904">
        <ele>37.799999237061</ele>
        <time>2022-01-20T09:18:09.000Z</time>
      </trkpt>
      <trkpt lat="47.29585" lon="-2.35902">
        <ele>37.799999237061</ele>
        <time>2022-01-20T09:18:10.000Z</time>
      </trkpt>
      <trkpt lat="47.29593" lon="-2.35898">
        <ele>37.799999237061</ele>
        <time>2022-01-20T09:18:12.000Z</time>
      </trkpt>
      <trkpt lat="47.2961" lon="-2.35885">
        <ele>37.799999237061</ele>
        <time>2022-01-20T09:18:16.000Z</time>
      </trkpt>
      <trkpt lat="47.29638" lon="-2.3587">
        <ele>37.799999237061</ele>
        <time>2022-01-20T09:18:22.000Z</time>
      </trkpt>
      <trkpt lat="47.29643" lon="-2.35867">
        <ele>37.799999237061</ele>
        <time>2022-01-20T09:18:23.000Z</time>
      </trkpt>
      <trkpt lat="47.29652" lon="-2.3585">
        <ele>37.799999237061</ele>
        <time>2022-01-20T09:18:26.000Z</time>
      </trkpt>
      <trkpt lat="47.29655" lon="-2.35845">
        <ele>37.799999237061</ele>
        <time>2022-01-20T09:18:27.000Z</time>
      </trkpt>
      <trkpt lat="47.29658" lon="-2.3584">
        <ele>38.200000762939</ele>
        <time>2022-01-20T09:18:28.000Z</time>
      </trkpt>
      <trkpt lat="47.29661" lon="-2.35837">
        <ele>38.599998474121</ele>
        <time>2022-01-20T09:18:29.000Z</time>
      </trkpt>
      <trkpt lat="47.29666" lon="-2.35836">
        <ele>39</ele>
        <time>2022-01-20T09:18:30.000Z</time>
      </trkpt>
      <trkpt lat="47.2967" lon="-2.35837">
        <ele>39.400001525879</ele>
        <time>2022-01-20T09:18:31.000Z</time>
      </trkpt>
      <trkpt lat="47.29676" lon="-2.35837">
        <ele>39.799999237061</ele>
        <time>2022-01-20T09:18:32.000Z</time>
      </trkpt>
      <trkpt lat="47.29691" lon="-2.35838">
        <ele>39.799999237061</ele>
        <time>2022-01-20T09:18:35.000Z</time>
      </trkpt>
      <trkpt lat="47.29696" lon="-2.35836">
        <ele>39.799999237061</ele>
        <time>2022-01-20T09:18:36.000Z</time>
      </trkpt>
      <trkpt lat="47.29711" lon="-2.3583">
        <ele>39.799999237061</ele>
        <time>2022-01-20T09:18:39.000Z</time>
      </trkpt>
      <trkpt lat="47.29738" lon="-2.35815">
        <ele>39.799999237061</ele>
        <time>2022-01-20T09:18:45.000Z</time>
      </trkpt>
      <trkpt lat="47.29759" lon="-2.35805">
        <ele>40.200000762939</ele>
        <time>2022-01-20T09:18:50.000Z</time>
      </trkpt>
      <trkpt lat="47.29764" lon="-2.35803">
        <ele>40.799999237061</ele>
        <time>2022-01-20T09:18:51.000Z</time>
      </trkpt>
      <trkpt lat="47.29768" lon="-2.35801">
        <ele>41.200000762939</ele>
        <time>2022-01-20T09:18:52.000Z</time>
      </trkpt>
      <trkpt lat="47.29772" lon="-2.35799">
        <ele>41.599998474121</ele>
        <time>2022-01-20T09:18:53.000Z</time>
      </trkpt>
      <trkpt lat="47.29777" lon="-2.35798">
        <ele>42</ele>
        <time>2022-01-20T09:18:54.000Z</time>
      </trkpt>
      <trkpt lat="47.298" lon="-2.3579">
        <ele>42</ele>
        <time>2022-01-20T09:18:59.000Z</time>
      </trkpt>
      <trkpt lat="47.29845" lon="-2.35774">
        <ele>42</ele>
        <time>2022-01-20T09:19:08.000Z</time>
      </trkpt>
      <trkpt lat="47.29888" lon="-2.35759">
        <ele>42</ele>
        <time>2022-01-20T09:19:16.000Z</time>
      </trkpt>
      <trkpt lat="47.29893" lon="-2.35756">
        <ele>42</ele>
        <time>2022-01-20T09:19:17.000Z</time>
      </trkpt>
      <trkpt lat="47.29895" lon="-2.35751">
        <ele>41.599998474121</ele>
        <time>2022-01-20T09:19:18.000Z</time>
      </trkpt>
      <trkpt lat="47.29897" lon="-2.35746">
        <ele>41.200000762939</ele>
        <time>2022-01-20T09:19:19.000Z</time>
      </trkpt>
      <trkpt lat="47.29897" lon="-2.3574">
        <ele>40.799999237061</ele>
        <time>2022-01-20T09:19:20.000Z</time>
      </trkpt>
      <trkpt lat="47.29896" lon="-2.35735">
        <ele>40.400001525879</ele>
        <time>2022-01-20T09:19:21.000Z</time>
      </trkpt>
      <trkpt lat="47.29894" lon="-2.35729">
        <ele>40</ele>
        <time>2022-01-20T09:19:22.000Z</time>
      </trkpt>
      <trkpt lat="47.29888" lon="-2.35709">
        <ele>40</ele>
        <time>2022-01-20T09:19:25.000Z</time>
      </trkpt>
      <trkpt lat="47.29886" lon="-2.35702">
        <ele>40</ele>
        <time>2022-01-20T09:19:26.000Z</time>
      </trkpt>
      <trkpt lat="47.29876" lon="-2.35648">
        <ele>40</ele>
        <time>2022-01-20T09:19:33.000Z</time>
      </trkpt>
      <trkpt lat="47.29863" lon="-2.35589">
        <ele>40</ele>
        <time>2022-01-20T09:19:40.000Z</time>
      </trkpt>
      <trkpt lat="47.29844" lon="-2.35521">
        <ele>40</ele>
        <time>2022-01-20T09:19:48.000Z</time>
      </trkpt>
      <trkpt lat="47.29838" lon="-2.35496">
        <ele>39.599998474121</ele>
        <time>2022-01-20T09:19:51.000Z</time>
      </trkpt>
      <trkpt lat="47.29836" lon="-2.35488">
        <ele>39.200000762939</ele>
        <time>2022-01-20T09:19:52.000Z</time>
      </trkpt>
      <trkpt lat="47.29833" lon="-2.3548">
        <ele>38.599998474121</ele>
        <time>2022-01-20T09:19:53.000Z</time>
      </trkpt>
      <trkpt lat="47.29831" lon="-2.35472">
        <ele>38.200000762939</ele>
        <time>2022-01-20T09:19:54.000Z</time>
      </trkpt>
      <trkpt lat="47.2983" lon="-2.35464">
        <ele>37.799999237061</ele>
        <time>2022-01-20T09:19:55.000Z</time>
      </trkpt>
      <trkpt lat="47.29835" lon="-2.35449">
        <ele>37.799999237061</ele>
        <time>2022-01-20T09:19:57.000Z</time>
      </trkpt>
      <trkpt lat="47.29854" lon="-2.35427">
        <ele>37.799999237061</ele>
        <time>2022-01-20T09:20:01.000Z</time>
      </trkpt>
      <trkpt lat="47.29891" lon="-2.35391">
        <ele>37.799999237061</ele>
        <time>2022-01-20T09:20:08.000Z</time>
      </trkpt>
      <trkpt lat="47.29915" lon="-2.35364">
        <ele>37.400001525879</ele>
        <time>2022-01-20T09:20:13.000Z</time>
      </trkpt>
      <trkpt lat="47.2992" lon="-2.35358">
        <ele>37</ele>
        <time>2022-01-20T09:20:14.000Z</time>
      </trkpt>
      <trkpt lat="47.29924" lon="-2.35352">
        <ele>36.599998474121</ele>
        <time>2022-01-20T09:20:15.000Z</time>
      </trkpt>
      <trkpt lat="47.29929" lon="-2.35347">
        <ele>36.200000762939</ele>
        <time>2022-01-20T09:20:16.000Z</time>
      </trkpt>
      <trkpt lat="47.29933" lon="-2.35341">
        <ele>35.799999237061</ele>
        <time>2022-01-20T09:20:17.000Z</time>
      </trkpt>
      <trkpt lat="47.29972" lon="-2.35291">
        <ele>35.799999237061</ele>
        <time>2022-01-20T09:20:26.000Z</time>
      </trkpt>
      <trkpt lat="47.29999" lon="-2.35258">
        <ele>35.799999237061</ele>
        <time>2022-01-20T09:20:33.000Z</time>
      </trkpt>
      <trkpt lat="47.30007" lon="-2.35251">
        <ele>35.799999237061</ele>
        <time>2022-01-20T09:20:36.000Z</time>
      </trkpt>
      <trkpt lat="47.3001" lon="-2.35252">
        <ele>35.799999237061</ele>
        <time>2022-01-20T09:20:37.000Z</time>
      </trkpt>
      <trkpt lat="47.30016" lon="-2.3525">
        <ele>35.799999237061</ele>
        <time>2022-01-20T09:20:42.000Z</time>
      </trkpt>
      <trkpt lat="47.30021" lon="-2.35247">
        <ele>35.200000762939</ele>
        <time>2022-01-20T09:20:46.000Z</time>
      </trkpt>
      <trkpt lat="47.30022" lon="-2.35247">
        <ele>34.799999237061</ele>
        <time>2022-01-20T09:20:47.000Z</time>
      </trkpt>
      <trkpt lat="47.30023" lon="-2.35246">
        <ele>34.400001525879</ele>
        <time>2022-01-20T09:20:48.000Z</time>
      </trkpt>
      <trkpt lat="47.30025" lon="-2.35245">
        <ele>34</ele>
        <time>2022-01-20T09:20:49.000Z</time>
      </trkpt>
      <trkpt lat="47.30026" lon="-2.35246">
        <ele>33.599998474121</ele>
        <time>2022-01-20T09:20:50.000Z</time>
      </trkpt>
      <trkpt lat="47.3003" lon="-2.35242">
        <ele>33.599998474121</ele>
        <time>2022-01-20T09:20:53.000Z</time>
      </trkpt>
      <trkpt lat="47.30032" lon="-2.3524">
        <ele>33.599998474121</ele>
        <time>2022-01-20T09:20:54.000Z</time>
      </trkpt>
      <trkpt lat="47.30043" lon="-2.35231">
        <ele>33.599998474121</ele>
        <time>2022-01-20T09:20:58.000Z</time>
      </trkpt>
      <trkpt lat="47.30059" lon="-2.35223">
        <ele>33.599998474121</ele>
        <time>2022-01-20T09:21:03.000Z</time>
      </trkpt>
      <trkpt lat="47.30079" lon="-2.35213">
        <ele>33.599998474121</ele>
        <time>2022-01-20T09:21:09.000Z</time>
      </trkpt>
      <trkpt lat="47.30099" lon="-2.35206">
        <ele>33.599998474121</ele>
        <time>2022-01-20T09:21:14.000Z</time>
      </trkpt>
      <trkpt lat="47.30118" lon="-2.35195">
        <ele>33.599998474121</ele>
        <time>2022-01-20T09:21:19.000Z</time>
      </trkpt>
      <trkpt lat="47.30132" lon="-2.35193">
        <ele>33.599998474121</ele>
        <time>2022-01-20T09:21:24.000Z</time>
      </trkpt>
      <trkpt lat="47.30148" lon="-2.35193">
        <ele>33.599998474121</ele>
        <time>2022-01-20T09:21:30.000Z</time>
      </trkpt>
      <trkpt lat="47.30161" lon="-2.35184">
        <ele>33.599998474121</ele>
        <time>2022-01-20T09:21:36.000Z</time>
      </trkpt>
      <trkpt lat="47.30175" lon="-2.35176">
        <ele>33.599998474121</ele>
        <time>2022-01-20T09:21:41.000Z</time>
      </trkpt>
      <trkpt lat="47.30194" lon="-2.35168">
        <ele>33.599998474121</ele>
        <time>2022-01-20T09:21:47.000Z</time>
      </trkpt>
      <trkpt lat="47.30204" lon="-2.35155">
        <ele>33.599998474121</ele>
        <time>2022-01-20T09:21:51.000Z</time>
      </trkpt>
      <trkpt lat="47.30205" lon="-2.35142">
        <ele>33.599998474121</ele>
        <time>2022-01-20T09:21:55.000Z</time>
      </trkpt>
      <trkpt lat="47.30205" lon="-2.35135">
        <ele>33.599998474121</ele>
        <time>2022-01-20T09:21:57.000Z</time>
      </trkpt>
      <trkpt lat="47.30205" lon="-2.35125">
        <ele>34.599998474121</ele>
        <time>2022-01-20T09:21:59.000Z</time>
      </trkpt>
      <trkpt lat="47.30206" lon="-2.35119">
        <ele>35</ele>
        <time>2022-01-20T09:22:00.000Z</time>
      </trkpt>
      <trkpt lat="47.30207" lon="-2.35114">
        <ele>35.400001525879</ele>
        <time>2022-01-20T09:22:01.000Z</time>
      </trkpt>
      <trkpt lat="47.30207" lon="-2.35109">
        <ele>35.799999237061</ele>
        <time>2022-01-20T09:22:02.000Z</time>
      </trkpt>
      <trkpt lat="47.30207" lon="-2.35074">
        <ele>35.799999237061</ele>
        <time>2022-01-20T09:22:08.000Z</time>
      </trkpt>
      <trkpt lat="47.30207" lon="-2.35036">
        <ele>35.799999237061</ele>
        <time>2022-01-20T09:22:15.000Z</time>
      </trkpt>
      <trkpt lat="47.30207" lon="-2.35007">
        <ele>35.799999237061</ele>
        <time>2022-01-20T09:22:22.000Z</time>
      </trkpt>
      <trkpt lat="47.30206" lon="-2.34998">
        <ele>36.799999237061</ele>
        <time>2022-01-20T09:22:24.000Z</time>
      </trkpt>
      <trkpt lat="47.30207" lon="-2.34993">
        <ele>37.200000762939</ele>
        <time>2022-01-20T09:22:25.000Z</time>
      </trkpt>
      <trkpt lat="47.30207" lon="-2.34988">
        <ele>37.599998474121</ele>
        <time>2022-01-20T09:22:26.000Z</time>
      </trkpt>
      <trkpt lat="47.30207" lon="-2.34984">
        <ele>38.200000762939</ele>
        <time>2022-01-20T09:22:27.000Z</time>
      </trkpt>
      <trkpt lat="47.30208" lon="-2.34946">
        <ele>38.200000762939</ele>
        <time>2022-01-20T09:22:34.000Z</time>
      </trkpt>
      <trkpt lat="47.30207" lon="-2.34914">
        <ele>38.200000762939</ele>
        <time>2022-01-20T09:22:40.000Z</time>
      </trkpt>
      <trkpt lat="47.3021" lon="-2.34905">
        <ele>38.599998474121</ele>
        <time>2022-01-20T09:22:42.000Z</time>
      </trkpt>
      <trkpt lat="47.30213" lon="-2.34901">
        <ele>39</ele>
        <time>2022-01-20T09:22:43.000Z</time>
      </trkpt>
      <trkpt lat="47.30216" lon="-2.34897">
        <ele>39.400001525879</ele>
        <time>2022-01-20T09:22:44.000Z</time>
      </trkpt>
      <trkpt lat="47.30219" lon="-2.34893">
        <ele>39.799999237061</ele>
        <time>2022-01-20T09:22:45.000Z</time>
      </trkpt>
      <trkpt lat="47.30224" lon="-2.34889">
        <ele>40.200000762939</ele>
        <time>2022-01-20T09:22:46.000Z</time>
      </trkpt>
      <trkpt lat="47.30238" lon="-2.34878">
        <ele>40.200000762939</ele>
        <time>2022-01-20T09:22:49.000Z</time>
      </trkpt>
      <trkpt lat="47.30242" lon="-2.34876">
        <ele>40.200000762939</ele>
        <time>2022-01-20T09:22:50.000Z</time>
      </trkpt>
      <trkpt lat="47.30264" lon="-2.34863">
        <ele>40.200000762939</ele>
        <time>2022-01-20T09:22:55.000Z</time>
      </trkpt>
      <trkpt lat="47.30289" lon="-2.3485">
        <ele>40.200000762939</ele>
        <time>2022-01-20T09:23:01.000Z</time>
      </trkpt>
      <trkpt lat="47.30306" lon="-2.34826">
        <ele>40.200000762939</ele>
        <time>2022-01-20T09:23:07.000Z</time>
      </trkpt>
      <trkpt lat="47.30313" lon="-2.34815">
        <ele>40.200000762939</ele>
        <time>2022-01-20T09:23:09.000Z</time>
      </trkpt>
      <trkpt lat="47.30323" lon="-2.34797">
        <ele>40.200000762939</ele>
        <time>2022-01-20T09:23:12.000Z</time>
      </trkpt>
      <trkpt lat="47.30348" lon="-2.34767">
        <ele>40.200000762939</ele>
        <time>2022-01-20T09:23:18.000Z</time>
      </trkpt>
      <trkpt lat="47.3037" lon="-2.34755">
        <ele>40.200000762939</ele>
        <time>2022-01-20T09:23:23.000Z</time>
      </trkpt>
      <trkpt lat="47.30397" lon="-2.34738">
        <ele>40.200000762939</ele>
        <time>2022-01-20T09:23:29.000Z</time>
      </trkpt>
      <trkpt lat="47.30421" lon="-2.34723">
        <ele>40.200000762939</ele>
        <time>2022-01-20T09:23:34.000Z</time>
      </trkpt>
      <trkpt lat="47.30425" lon="-2.34719">
        <ele>40.200000762939</ele>
        <time>2022-01-20T09:23:35.000Z</time>
      </trkpt>
      <trkpt lat="47.30441" lon="-2.34701">
        <ele>40.200000762939</ele>
        <time>2022-01-20T09:23:39.000Z</time>
      </trkpt>
      <trkpt lat="47.30466" lon="-2.34679">
        <ele>40.200000762939</ele>
        <time>2022-01-20T09:23:44.000Z</time>
      </trkpt>
      <trkpt lat="47.30474" lon="-2.34668">
        <ele>40.200000762939</ele>
        <time>2022-01-20T09:23:46.000Z</time>
      </trkpt>
      <trkpt lat="47.30494" lon="-2.34636">
        <ele>40.200000762939</ele>
        <time>2022-01-20T09:23:52.000Z</time>
      </trkpt>
      <trkpt lat="47.30508" lon="-2.34613">
        <ele>40.200000762939</ele>
        <time>2022-01-20T09:23:57.000Z</time>
      </trkpt>
      <trkpt lat="47.30522" lon="-2.34593">
        <ele>40.200000762939</ele>
        <time>2022-01-20T09:24:01.000Z</time>
      </trkpt>
      <trkpt lat="47.30525" lon="-2.34588">
        <ele>40.200000762939</ele>
        <time>2022-01-20T09:24:02.000Z</time>
      </trkpt>
      <trkpt lat="47.30538" lon="-2.34569">
        <ele>40.200000762939</ele>
        <time>2022-01-20T09:24:06.000Z</time>
      </trkpt>
      <trkpt lat="47.30558" lon="-2.34537">
        <ele>40.200000762939</ele>
        <time>2022-01-20T09:24:12.000Z</time>
      </trkpt>
      <trkpt lat="47.30573" lon="-2.34511">
        <ele>40.599998474121</ele>
        <time>2022-01-20T09:24:17.000Z</time>
      </trkpt>
      <trkpt lat="47.30576" lon="-2.34507">
        <ele>41.200000762939</ele>
        <time>2022-01-20T09:24:18.000Z</time>
      </trkpt>
      <trkpt lat="47.30579" lon="-2.34502">
        <ele>41.599998474121</ele>
        <time>2022-01-20T09:24:19.000Z</time>
      </trkpt>
      <trkpt lat="47.30582" lon="-2.34497">
        <ele>42</ele>
        <time>2022-01-20T09:24:20.000Z</time>
      </trkpt>
      <trkpt lat="47.30584" lon="-2.34492">
        <ele>42.400001525879</ele>
        <time>2022-01-20T09:24:21.000Z</time>
      </trkpt>
      <trkpt lat="47.30598" lon="-2.34468">
        <ele>42.400001525879</ele>
        <time>2022-01-20T09:24:25.000Z</time>
      </trkpt>
      <trkpt lat="47.30618" lon="-2.34439">
        <ele>42.400001525879</ele>
        <time>2022-01-20T09:24:31.000Z</time>
      </trkpt>
      <trkpt lat="47.30641" lon="-2.34405">
        <ele>42.400001525879</ele>
        <time>2022-01-20T09:24:37.000Z</time>
      </trkpt>
      <trkpt lat="47.30664" lon="-2.34367">
        <ele>42.400001525879</ele>
        <time>2022-01-20T09:24:43.000Z</time>
      </trkpt>
      <trkpt lat="47.30672" lon="-2.34354">
        <ele>42.400001525879</ele>
        <time>2022-01-20T09:24:45.000Z</time>
      </trkpt>
      <trkpt lat="47.30685" lon="-2.34329">
        <ele>42.400001525879</ele>
        <time>2022-01-20T09:24:49.000Z</time>
      </trkpt>
      <trkpt lat="47.30708" lon="-2.34288">
        <ele>42.400001525879</ele>
        <time>2022-01-20T09:24:55.000Z</time>
      </trkpt>
      <trkpt lat="47.30714" lon="-2.34273">
        <ele>42.400001525879</ele>
        <time>2022-01-20T09:24:57.000Z</time>
      </trkpt>
      <trkpt lat="47.30719" lon="-2.34259">
        <ele>42.400001525879</ele>
        <time>2022-01-20T09:24:59.000Z</time>
      </trkpt>
      <trkpt lat="47.3072" lon="-2.34239">
        <ele>42.400001525879</ele>
        <time>2022-01-20T09:25:02.000Z</time>
      </trkpt>
      <trkpt lat="47.30721" lon="-2.34234">
        <ele>42.400001525879</ele>
        <time>2022-01-20T09:25:03.000Z</time>
      </trkpt>
      <trkpt lat="47.30725" lon="-2.34231">
        <ele>42.400001525879</ele>
        <time>2022-01-20T09:25:04.000Z</time>
      </trkpt>
      <trkpt lat="47.30734" lon="-2.34228">
        <ele>42.400001525879</ele>
        <time>2022-01-20T09:25:06.000Z</time>
      </trkpt>
      <trkpt lat="47.30759" lon="-2.34221">
        <ele>42.400001525879</ele>
        <time>2022-01-20T09:25:11.000Z</time>
      </trkpt>
      <trkpt lat="47.30765" lon="-2.34206">
        <ele>42.400001525879</ele>
        <time>2022-01-20T09:25:14.000Z</time>
      </trkpt>
      <trkpt lat="47.30767" lon="-2.34184">
        <ele>42.400001525879</ele>
        <time>2022-01-20T09:25:17.000Z</time>
      </trkpt>
      <trkpt lat="47.30767" lon="-2.34178">
        <ele>42.400001525879</ele>
        <time>2022-01-20T09:25:18.000Z</time>
      </trkpt>
      <trkpt lat="47.30768" lon="-2.34157">
        <ele>42.400001525879</ele>
        <time>2022-01-20T09:25:21.000Z</time>
      </trkpt>
      <trkpt lat="47.3077" lon="-2.34143">
        <ele>42.400001525879</ele>
        <time>2022-01-20T09:25:23.000Z</time>
      </trkpt>
      <trkpt lat="47.30772" lon="-2.34096">
        <ele>42.400001525879</ele>
        <time>2022-01-20T09:25:29.000Z</time>
      </trkpt>
      <trkpt lat="47.30773" lon="-2.34088">
        <ele>42.400001525879</ele>
        <time>2022-01-20T09:25:30.000Z</time>
      </trkpt>
      <trkpt lat="47.30776" lon="-2.34066">
        <ele>42.400001525879</ele>
        <time>2022-01-20T09:25:33.000Z</time>
      </trkpt>
      <trkpt lat="47.30776" lon="-2.34043">
        <ele>42</ele>
        <time>2022-01-20T09:25:36.000Z</time>
      </trkpt>
      <trkpt lat="47.30776" lon="-2.34034">
        <ele>41.599998474121</ele>
        <time>2022-01-20T09:25:37.000Z</time>
      </trkpt>
      <trkpt lat="47.30777" lon="-2.34026">
        <ele>41.200000762939</ele>
        <time>2022-01-20T09:25:38.000Z</time>
      </trkpt>
      <trkpt lat="47.30778" lon="-2.34018">
        <ele>40.799999237061</ele>
        <time>2022-01-20T09:25:39.000Z</time>
      </trkpt>
      <trkpt lat="47.30778" lon="-2.34011">
        <ele>40.400001525879</ele>
        <time>2022-01-20T09:25:40.000Z</time>
      </trkpt>
      <trkpt lat="47.3078" lon="-2.33979">
        <ele>40.400001525879</ele>
        <time>2022-01-20T09:25:45.000Z</time>
      </trkpt>
      <trkpt lat="47.30785" lon="-2.33972">
        <ele>40.400001525879</ele>
        <time>2022-01-20T09:25:47.000Z</time>
      </trkpt>
      <trkpt lat="47.30788" lon="-2.33972">
        <ele>40.400001525879</ele>
        <time>2022-01-20T09:25:48.000Z</time>
      </trkpt>
      <trkpt lat="47.30802" lon="-2.33968">
        <ele>40.400001525879</ele>
        <time>2022-01-20T09:25:53.000Z</time>
      </trkpt>
      <trkpt lat="47.30814" lon="-2.33964">
        <ele>40.400001525879</ele>
        <time>2022-01-20T09:25:58.000Z</time>
      </trkpt>
      <trkpt lat="47.30827" lon="-2.33958">
        <ele>40.400001525879</ele>
        <time>2022-01-20T09:26:04.000Z</time>
      </trkpt>
      <trkpt lat="47.30845" lon="-2.33953">
        <ele>40.400001525879</ele>
        <time>2022-01-20T09:26:09.000Z</time>
      </trkpt>
      <trkpt lat="47.30881" lon="-2.33946">
        <ele>40.400001525879</ele>
        <time>2022-01-20T09:26:17.000Z</time>
      </trkpt>
      <trkpt lat="47.30904" lon="-2.33944">
        <ele>40.400001525879</ele>
        <time>2022-01-20T09:26:22.000Z</time>
      </trkpt>
      <trkpt lat="47.30933" lon="-2.33947">
        <ele>40.400001525879</ele>
        <time>2022-01-20T09:26:28.000Z</time>
      </trkpt>
      <trkpt lat="47.30939" lon="-2.33948">
        <ele>40.400001525879</ele>
        <time>2022-01-20T09:26:29.000Z</time>
      </trkpt>
      <trkpt lat="47.30966" lon="-2.33954">
        <ele>40.400001525879</ele>
        <time>2022-01-20T09:26:34.000Z</time>
      </trkpt>
      <trkpt lat="47.31" lon="-2.33953">
        <ele>40.400001525879</ele>
        <time>2022-01-20T09:26:41.000Z</time>
      </trkpt>
      <trkpt lat="47.31014" lon="-2.33952">
        <ele>40</ele>
        <time>2022-01-20T09:26:44.000Z</time>
      </trkpt>
      <trkpt lat="47.31019" lon="-2.33951">
        <ele>39.599998474121</ele>
        <time>2022-01-20T09:26:45.000Z</time>
      </trkpt>
      <trkpt lat="47.31024" lon="-2.33951">
        <ele>39.200000762939</ele>
        <time>2022-01-20T09:26:46.000Z</time>
      </trkpt>
      <trkpt lat="47.31029" lon="-2.3395">
        <ele>38.799999237061</ele>
        <time>2022-01-20T09:26:47.000Z</time>
      </trkpt>
      <trkpt lat="47.31034" lon="-2.33949">
        <ele>38.400001525879</ele>
        <time>2022-01-20T09:26:48.000Z</time>
      </trkpt>
      <trkpt lat="47.3106" lon="-2.33941">
        <ele>38.400001525879</ele>
        <time>2022-01-20T09:26:53.000Z</time>
      </trkpt>
      <trkpt lat="47.31063" lon="-2.33936">
        <ele>38.400001525879</ele>
        <time>2022-01-20T09:26:54.000Z</time>
      </trkpt>
      <trkpt lat="47.31065" lon="-2.33915">
        <ele>38.400001525879</ele>
        <time>2022-01-20T09:26:57.000Z</time>
      </trkpt>
      <trkpt lat="47.31065" lon="-2.33908">
        <ele>38.400001525879</ele>
        <time>2022-01-20T09:26:58.000Z</time>
      </trkpt>
      <trkpt lat="47.31067" lon="-2.33856">
        <ele>38.400001525879</ele>
        <time>2022-01-20T09:27:05.000Z</time>
      </trkpt>
      <trkpt lat="47.3107" lon="-2.33811">
        <ele>38.400001525879</ele>
        <time>2022-01-20T09:27:11.000Z</time>
      </trkpt>
      <trkpt lat="47.31076" lon="-2.33789">
        <ele>38.400001525879</ele>
        <time>2022-01-20T09:27:14.000Z</time>
      </trkpt>
      <trkpt lat="47.31083" lon="-2.33775">
        <ele>38.400001525879</ele>
        <time>2022-01-20T09:27:16.000Z</time>
      </trkpt>
      <trkpt lat="47.31094" lon="-2.33745">
        <ele>38.400001525879</ele>
        <time>2022-01-20T09:27:20.000Z</time>
      </trkpt>
      <trkpt lat="47.31102" lon="-2.33695">
        <ele>38.400001525879</ele>
        <time>2022-01-20T09:27:26.000Z</time>
      </trkpt>
      <trkpt lat="47.3111" lon="-2.33632">
        <ele>38.400001525879</ele>
        <time>2022-01-20T09:27:34.000Z</time>
      </trkpt>
      <trkpt lat="47.31114" lon="-2.33593">
        <ele>38.400001525879</ele>
        <time>2022-01-20T09:27:39.000Z</time>
      </trkpt>
      <trkpt lat="47.31113" lon="-2.33556">
        <ele>38.400001525879</ele>
        <time>2022-01-20T09:27:44.000Z</time>
      </trkpt>
      <trkpt lat="47.31105" lon="-2.33509">
        <ele>38.400001525879</ele>
        <time>2022-01-20T09:27:50.000Z</time>
      </trkpt>
      <trkpt lat="47.31096" lon="-2.33458">
        <ele>38.400001525879</ele>
        <time>2022-01-20T09:27:56.000Z</time>
      </trkpt>
      <trkpt lat="47.31094" lon="-2.3341">
        <ele>37.799999237061</ele>
        <time>2022-01-20T09:28:01.000Z</time>
      </trkpt>
      <trkpt lat="47.31094" lon="-2.334">
        <ele>37.400001525879</ele>
        <time>2022-01-20T09:28:02.000Z</time>
      </trkpt>
      <trkpt lat="47.31094" lon="-2.33391">
        <ele>37</ele>
        <time>2022-01-20T09:28:03.000Z</time>
      </trkpt>
      <trkpt lat="47.31094" lon="-2.33381">
        <ele>36.599998474121</ele>
        <time>2022-01-20T09:28:04.000Z</time>
      </trkpt>
      <trkpt lat="47.31093" lon="-2.33372">
        <ele>36.200000762939</ele>
        <time>2022-01-20T09:28:05.000Z</time>
      </trkpt>
      <trkpt lat="47.31094" lon="-2.33323">
        <ele>36.200000762939</ele>
        <time>2022-01-20T09:28:10.000Z</time>
      </trkpt>
      <trkpt lat="47.31097" lon="-2.33287">
        <ele>35.799999237061</ele>
        <time>2022-01-20T09:28:14.000Z</time>
      </trkpt>
      <trkpt lat="47.31098" lon="-2.33277">
        <ele>35.200000762939</ele>
        <time>2022-01-20T09:28:15.000Z</time>
      </trkpt>
      <trkpt lat="47.31099" lon="-2.33268">
        <ele>34.799999237061</ele>
        <time>2022-01-20T09:28:16.000Z</time>
      </trkpt>
      <trkpt lat="47.31101" lon="-2.33259">
        <ele>34.400001525879</ele>
        <time>2022-01-20T09:28:17.000Z</time>
      </trkpt>
      <trkpt lat="47.31102" lon="-2.3325">
        <ele>34</ele>
        <time>2022-01-20T09:28:18.000Z</time>
      </trkpt>
      <trkpt lat="47.31105" lon="-2.33223">
        <ele>34</ele>
        <time>2022-01-20T09:28:21.000Z</time>
      </trkpt>
      <trkpt lat="47.31108" lon="-2.33215">
        <ele>34</ele>
        <time>2022-01-20T09:28:22.000Z</time>
      </trkpt>
      <trkpt lat="47.31123" lon="-2.332">
        <ele>34</ele>
        <time>2022-01-20T09:28:25.000Z</time>
      </trkpt>
      <trkpt lat="47.3114" lon="-2.3319">
        <ele>34</ele>
        <time>2022-01-20T09:28:28.000Z</time>
      </trkpt>
      <trkpt lat="47.31151" lon="-2.33185">
        <ele>34</ele>
        <time>2022-01-20T09:28:30.000Z</time>
      </trkpt>
      <trkpt lat="47.31181" lon="-2.33165">
        <ele>33.599998474121</ele>
        <time>2022-01-20T09:28:35.000Z</time>
      </trkpt>
      <trkpt lat="47.31187" lon="-2.33161">
        <ele>33.200000762939</ele>
        <time>2022-01-20T09:28:36.000Z</time>
      </trkpt>
      <trkpt lat="47.31194" lon="-2.33158">
        <ele>32.799999237061</ele>
        <time>2022-01-20T09:28:37.000Z</time>
      </trkpt>
      <trkpt lat="47.312" lon="-2.33154">
        <ele>32.400001525879</ele>
        <time>2022-01-20T09:28:38.000Z</time>
      </trkpt>
      <trkpt lat="47.31208" lon="-2.33151">
        <ele>32</ele>
        <time>2022-01-20T09:28:39.000Z</time>
      </trkpt>
      <trkpt lat="47.31222" lon="-2.33147">
        <ele>32</ele>
        <time>2022-01-20T09:28:41.000Z</time>
      </trkpt>
      <trkpt lat="47.31229" lon="-2.33147">
        <ele>32</ele>
        <time>2022-01-20T09:28:42.000Z</time>
      </trkpt>
      <trkpt lat="47.31264" lon="-2.33152">
        <ele>32</ele>
        <time>2022-01-20T09:28:47.000Z</time>
      </trkpt>
      <trkpt lat="47.3129" lon="-2.33166">
        <ele>32</ele>
        <time>2022-01-20T09:28:51.000Z</time>
      </trkpt>
      <trkpt lat="47.31325" lon="-2.33195">
        <ele>32</ele>
        <time>2022-01-20T09:28:57.000Z</time>
      </trkpt>
      <trkpt lat="47.31368" lon="-2.33233">
        <ele>32</ele>
        <time>2022-01-20T09:29:04.000Z</time>
      </trkpt>
      <trkpt lat="47.31412" lon="-2.33264">
        <ele>32</ele>
        <time>2022-01-20T09:29:11.000Z</time>
      </trkpt>
      <trkpt lat="47.31425" lon="-2.33274">
        <ele>32</ele>
        <time>2022-01-20T09:29:13.000Z</time>
      </trkpt>
      <trkpt lat="47.31442" lon="-2.33291">
        <ele>32</ele>
        <time>2022-01-20T09:29:16.000Z</time>
      </trkpt>
      <trkpt lat="47.31451" lon="-2.33306">
        <ele>32</ele>
        <time>2022-01-20T09:29:18.000Z</time>
      </trkpt>
      <trkpt lat="47.31458" lon="-2.33321">
        <ele>32</ele>
        <time>2022-01-20T09:29:20.000Z</time>
      </trkpt>
      <trkpt lat="47.31466" lon="-2.33335">
        <ele>32.400001525879</ele>
        <time>2022-01-20T09:29:22.000Z</time>
      </trkpt>
      <trkpt lat="47.31469" lon="-2.33343">
        <ele>32.799999237061</ele>
        <time>2022-01-20T09:29:23.000Z</time>
      </trkpt>
      <trkpt lat="47.31472" lon="-2.3335">
        <ele>33.799999237061</ele>
        <time>2022-01-20T09:29:24.000Z</time>
      </trkpt>
      <trkpt lat="47.31476" lon="-2.33356">
        <ele>34.200000762939</ele>
        <time>2022-01-20T09:29:25.000Z</time>
      </trkpt>
      <trkpt lat="47.31483" lon="-2.33368">
        <ele>34.200000762939</ele>
        <time>2022-01-20T09:29:27.000Z</time>
      </trkpt>
      <trkpt lat="47.31495" lon="-2.33367">
        <ele>34.200000762939</ele>
        <time>2022-01-20T09:29:29.000Z</time>
      </trkpt>
      <trkpt lat="47.3151" lon="-2.33355">
        <ele>34.200000762939</ele>
        <time>2022-01-20T09:29:32.000Z</time>
      </trkpt>
      <trkpt lat="47.31515" lon="-2.33352">
        <ele>34.200000762939</ele>
        <time>2022-01-20T09:29:33.000Z</time>
      </trkpt>
      <trkpt lat="47.31552" lon="-2.33333">
        <ele>34.200000762939</ele>
        <time>2022-01-20T09:29:40.000Z</time>
      </trkpt>
      <trkpt lat="47.31583" lon="-2.3332">
        <ele>34.200000762939</ele>
        <time>2022-01-20T09:29:46.000Z</time>
      </trkpt>
      <trkpt lat="47.31588" lon="-2.33318">
        <ele>34.200000762939</ele>
        <time>2022-01-20T09:29:47.000Z</time>
      </trkpt>
      <trkpt lat="47.31624" lon="-2.33299">
        <ele>34.200000762939</ele>
        <time>2022-01-20T09:29:54.000Z</time>
      </trkpt>
      <trkpt lat="47.3166" lon="-2.33278">
        <ele>34.200000762939</ele>
        <time>2022-01-20T09:30:01.000Z</time>
      </trkpt>
      <trkpt lat="47.31686" lon="-2.33266">
        <ele>34.200000762939</ele>
        <time>2022-01-20T09:30:06.000Z</time>
      </trkpt>
      <trkpt lat="47.31711" lon="-2.33253">
        <ele>33.599998474121</ele>
        <time>2022-01-20T09:30:12.000Z</time>
      </trkpt>
      <trkpt lat="47.31716" lon="-2.33251">
        <ele>32.799999237061</ele>
        <time>2022-01-20T09:30:13.000Z</time>
      </trkpt>
      <trkpt lat="47.31721" lon="-2.33249">
        <ele>32.400001525879</ele>
        <time>2022-01-20T09:30:14.000Z</time>
      </trkpt>
      <trkpt lat="47.31726" lon="-2.33247">
        <ele>32</ele>
        <time>2022-01-20T09:30:15.000Z</time>
      </trkpt>
      <trkpt lat="47.31735" lon="-2.33245">
        <ele>32</ele>
        <time>2022-01-20T09:30:17.000Z</time>
      </trkpt>
      <trkpt lat="47.31739" lon="-2.33248">
        <ele>32</ele>
        <time>2022-01-20T09:30:18.000Z</time>
      </trkpt>
      <trkpt lat="47.31742" lon="-2.33254">
        <ele>31.39999961853</ele>
        <time>2022-01-20T09:30:19.000Z</time>
      </trkpt>
      <trkpt lat="47.31742" lon="-2.3326">
        <ele>31</ele>
        <time>2022-01-20T09:30:20.000Z</time>
      </trkpt>
      <trkpt lat="47.31743" lon="-2.33266">
        <ele>30.60000038147</ele>
        <time>2022-01-20T09:30:21.000Z</time>
      </trkpt>
      <trkpt lat="47.31744" lon="-2.33273">
        <ele>30.200000762939</ele>
        <time>2022-01-20T09:30:22.000Z</time>
      </trkpt>
      <trkpt lat="47.31745" lon="-2.33279">
        <ele>29.799999237061</ele>
        <time>2022-01-20T09:30:23.000Z</time>
      </trkpt>
      <trkpt lat="47.31746" lon="-2.33284">
        <ele>29.799999237061</ele>
        <time>2022-01-20T09:30:24.000Z</time>
      </trkpt>
      <trkpt lat="47.31749" lon="-2.33296">
        <ele>29.799999237061</ele>
        <time>2022-01-20T09:30:26.000Z</time>
      </trkpt>
      <trkpt lat="47.31751" lon="-2.33303">
        <ele>29.799999237061</ele>
        <time>2022-01-20T09:30:27.000Z</time>
      </trkpt>
      <trkpt lat="47.31756" lon="-2.33314">
        <ele>29.799999237061</ele>
        <time>2022-01-20T09:30:29.000Z</time>
      </trkpt>
      <trkpt lat="47.31766" lon="-2.33326">
        <ele>29.799999237061</ele>
        <time>2022-01-20T09:30:31.000Z</time>
      </trkpt>
      <trkpt lat="47.31772" lon="-2.33328">
        <ele>29.799999237061</ele>
        <time>2022-01-20T09:30:32.000Z</time>
      </trkpt>
      <trkpt lat="47.31777" lon="-2.33325">
        <ele>29.39999961853</ele>
        <time>2022-01-20T09:30:33.000Z</time>
      </trkpt>
      <trkpt lat="47.31781" lon="-2.33322">
        <ele>29</ele>
        <time>2022-01-20T09:30:34.000Z</time>
      </trkpt>
      <trkpt lat="47.31785" lon="-2.33319">
        <ele>28.39999961853</ele>
        <time>2022-01-20T09:30:35.000Z</time>
      </trkpt>
      <trkpt lat="47.31788" lon="-2.33315">
        <ele>28</ele>
        <time>2022-01-20T09:30:36.000Z</time>
      </trkpt>
      <trkpt lat="47.31793" lon="-2.33311">
        <ele>27.60000038147</ele>
        <time>2022-01-20T09:30:37.000Z</time>
      </trkpt>
      <trkpt lat="47.31798" lon="-2.33307">
        <ele>27.200000762939</ele>
        <time>2022-01-20T09:30:38.000Z</time>
      </trkpt>
      <trkpt lat="47.31803" lon="-2.33303">
        <ele>26.60000038147</ele>
        <time>2022-01-20T09:30:39.000Z</time>
      </trkpt>
      <trkpt lat="47.31807" lon="-2.333">
        <ele>26.200000762939</ele>
        <time>2022-01-20T09:30:40.000Z</time>
      </trkpt>
      <trkpt lat="47.31811" lon="-2.33296">
        <ele>25.799999237061</ele>
        <time>2022-01-20T09:30:41.000Z</time>
      </trkpt>
      <trkpt lat="47.31816" lon="-2.33293">
        <ele>25.39999961853</ele>
        <time>2022-01-20T09:30:42.000Z</time>
      </trkpt>
      <trkpt lat="47.31826" lon="-2.33286">
        <ele>24.799999237061</ele>
        <time>2022-01-20T09:30:44.000Z</time>
      </trkpt>
      <trkpt lat="47.31829" lon="-2.33283">
        <ele>24.39999961853</ele>
        <time>2022-01-20T09:30:45.000Z</time>
      </trkpt>
      <trkpt lat="47.31832" lon="-2.33279">
        <ele>24</ele>
        <time>2022-01-20T09:30:46.000Z</time>
      </trkpt>
      <trkpt lat="47.31836" lon="-2.33275">
        <ele>23.39999961853</ele>
        <time>2022-01-20T09:30:47.000Z</time>
      </trkpt>
      <trkpt lat="47.31838" lon="-2.33271">
        <ele>23</ele>
        <time>2022-01-20T09:30:48.000Z</time>
      </trkpt>
      <trkpt lat="47.31841" lon="-2.33265">
        <ele>23</ele>
        <time>2022-01-20T09:30:49.000Z</time>
      </trkpt>
      <trkpt lat="47.31845" lon="-2.33258">
        <ele>23</ele>
        <time>2022-01-20T09:30:50.000Z</time>
      </trkpt>
      <trkpt lat="47.31852" lon="-2.33234">
        <ele>23</ele>
        <time>2022-01-20T09:30:53.000Z</time>
      </trkpt>
      <trkpt lat="47.31854" lon="-2.33225">
        <ele>23</ele>
        <time>2022-01-20T09:30:54.000Z</time>
      </trkpt>
      <trkpt lat="47.31859" lon="-2.33185">
        <ele>22.60000038147</ele>
        <time>2022-01-20T09:30:58.000Z</time>
      </trkpt>
      <trkpt lat="47.3186" lon="-2.33175">
        <ele>22.200000762939</ele>
        <time>2022-01-20T09:30:59.000Z</time>
      </trkpt>
      <trkpt lat="47.31861" lon="-2.33165">
        <ele>21.799999237061</ele>
        <time>2022-01-20T09:31:00.000Z</time>
      </trkpt>
      <trkpt lat="47.31863" lon="-2.33156">
        <ele>21.200000762939</ele>
        <time>2022-01-20T09:31:01.000Z</time>
      </trkpt>
      <trkpt lat="47.31865" lon="-2.33147">
        <ele>20.799999237061</ele>
        <time>2022-01-20T09:31:02.000Z</time>
      </trkpt>
      <trkpt lat="47.31867" lon="-2.33127">
        <ele>20.39999961853</ele>
        <time>2022-01-20T09:31:04.000Z</time>
      </trkpt>
      <trkpt lat="47.31868" lon="-2.33117">
        <ele>20</ele>
        <time>2022-01-20T09:31:05.000Z</time>
      </trkpt>
      <trkpt lat="47.31869" lon="-2.33106">
        <ele>19.60000038147</ele>
        <time>2022-01-20T09:31:06.000Z</time>
      </trkpt>
      <trkpt lat="47.31871" lon="-2.33096">
        <ele>19.200000762939</ele>
        <time>2022-01-20T09:31:07.000Z</time>
      </trkpt>
      <trkpt lat="47.31871" lon="-2.33085">
        <ele>18.799999237061</ele>
        <time>2022-01-20T09:31:08.000Z</time>
      </trkpt>
      <trkpt lat="47.31874" lon="-2.33046">
        <ele>18.799999237061</ele>
        <time>2022-01-20T09:31:12.000Z</time>
      </trkpt>
      <trkpt lat="47.31874" lon="-2.33017">
        <ele>18.39999961853</ele>
        <time>2022-01-20T09:31:15.000Z</time>
      </trkpt>
      <trkpt lat="47.31873" lon="-2.33008">
        <ele>18</ele>
        <time>2022-01-20T09:31:16.000Z</time>
      </trkpt>
      <trkpt lat="47.31873" lon="-2.32999">
        <ele>17.60000038147</ele>
        <time>2022-01-20T09:31:17.000Z</time>
      </trkpt>
      <trkpt lat="47.31873" lon="-2.32989">
        <ele>17.200000762939</ele>
        <time>2022-01-20T09:31:18.000Z</time>
      </trkpt>
      <trkpt lat="47.31873" lon="-2.32981">
        <ele>16.799999237061</ele>
        <time>2022-01-20T09:31:19.000Z</time>
      </trkpt>
      <trkpt lat="47.31878" lon="-2.32937">
        <ele>16.799999237061</ele>
        <time>2022-01-20T09:31:24.000Z</time>
      </trkpt>
      <trkpt lat="47.31879" lon="-2.32923">
        <ele>16.799999237061</ele>
        <time>2022-01-20T09:31:26.000Z</time>
      </trkpt>
      <trkpt lat="47.31877" lon="-2.32901">
        <ele>16.799999237061</ele>
        <time>2022-01-20T09:31:29.000Z</time>
      </trkpt>
      <trkpt lat="47.31878" lon="-2.32857">
        <ele>16.799999237061</ele>
        <time>2022-01-20T09:31:34.000Z</time>
      </trkpt>
      <trkpt lat="47.31876" lon="-2.32793">
        <ele>16.799999237061</ele>
        <time>2022-01-20T09:31:42.000Z</time>
      </trkpt>
      <trkpt lat="47.31875" lon="-2.32764">
        <ele>16.799999237061</ele>
        <time>2022-01-20T09:31:46.000Z</time>
      </trkpt>
      <trkpt lat="47.31871" lon="-2.3275">
        <ele>16.799999237061</ele>
        <time>2022-01-20T09:31:48.000Z</time>
      </trkpt>
      <trkpt lat="47.31869" lon="-2.32743">
        <ele>17.200000762939</ele>
        <time>2022-01-20T09:31:49.000Z</time>
      </trkpt>
      <trkpt lat="47.31867" lon="-2.32737">
        <ele>17.60000038147</ele>
        <time>2022-01-20T09:31:50.000Z</time>
      </trkpt>
      <trkpt lat="47.31864" lon="-2.32731">
        <ele>18</ele>
        <time>2022-01-20T09:31:51.000Z</time>
      </trkpt>
      <trkpt lat="47.31863" lon="-2.32726">
        <ele>18.799999237061</ele>
        <time>2022-01-20T09:31:52.000Z</time>
      </trkpt>
      <trkpt lat="47.31857" lon="-2.32713">
        <ele>18.799999237061</ele>
        <time>2022-01-20T09:31:54.000Z</time>
      </trkpt>
      <trkpt lat="47.31846" lon="-2.32684">
        <ele>18.799999237061</ele>
        <time>2022-01-20T09:32:00.000Z</time>
      </trkpt>
      <trkpt lat="47.31837" lon="-2.32647">
        <ele>19.200000762939</ele>
        <time>2022-01-20T09:32:06.000Z</time>
      </trkpt>
      <trkpt lat="47.31835" lon="-2.32641">
        <ele>19.799999237061</ele>
        <time>2022-01-20T09:32:07.000Z</time>
      </trkpt>
      <trkpt lat="47.31834" lon="-2.32634">
        <ele>20.200000762939</ele>
        <time>2022-01-20T09:32:08.000Z</time>
      </trkpt>
      <trkpt lat="47.31831" lon="-2.32626">
        <ele>20.60000038147</ele>
        <time>2022-01-20T09:32:09.000Z</time>
      </trkpt>
      <trkpt lat="47.31829" lon="-2.32619">
        <ele>21</ele>
        <time>2022-01-20T09:32:10.000Z</time>
      </trkpt>
      <trkpt lat="47.31825" lon="-2.326">
        <ele>21</ele>
        <time>2022-01-20T09:32:13.000Z</time>
      </trkpt>
      <trkpt lat="47.31816" lon="-2.32569">
        <ele>21</ele>
        <time>2022-01-20T09:32:18.000Z</time>
      </trkpt>
      <trkpt lat="47.31813" lon="-2.32557">
        <ele>21.39999961853</ele>
        <time>2022-01-20T09:32:20.000Z</time>
      </trkpt>
      <trkpt lat="47.31811" lon="-2.32551">
        <ele>21.799999237061</ele>
        <time>2022-01-20T09:32:21.000Z</time>
      </trkpt>
      <trkpt lat="47.31809" lon="-2.32546">
        <ele>22.200000762939</ele>
        <time>2022-01-20T09:32:22.000Z</time>
      </trkpt>
      <trkpt lat="47.31808" lon="-2.32541">
        <ele>22.60000038147</ele>
        <time>2022-01-20T09:32:23.000Z</time>
      </trkpt>
      <trkpt lat="47.31806" lon="-2.32536">
        <ele>23.200000762939</ele>
        <time>2022-01-20T09:32:24.000Z</time>
      </trkpt>
      <trkpt lat="47.31805" lon="-2.32526">
        <ele>23.200000762939</ele>
        <time>2022-01-20T09:32:26.000Z</time>
      </trkpt>
      <trkpt lat="47.31799" lon="-2.32497">
        <ele>23.60000038147</ele>
        <time>2022-01-20T09:32:32.000Z</time>
      </trkpt>
      <trkpt lat="47.31798" lon="-2.32493">
        <ele>24</ele>
        <time>2022-01-20T09:32:33.000Z</time>
      </trkpt>
      <trkpt lat="47.31797" lon="-2.32489">
        <ele>24.39999961853</ele>
        <time>2022-01-20T09:32:34.000Z</time>
      </trkpt>
      <trkpt lat="47.31796" lon="-2.32484">
        <ele>24.799999237061</ele>
        <time>2022-01-20T09:32:35.000Z</time>
      </trkpt>
      <trkpt lat="47.31795" lon="-2.3248">
        <ele>25.200000762939</ele>
        <time>2022-01-20T09:32:36.000Z</time>
      </trkpt>
      <trkpt lat="47.31792" lon="-2.32466">
        <ele>25.60000038147</ele>
        <time>2022-01-20T09:32:39.000Z</time>
      </trkpt>
      <trkpt lat="47.3179" lon="-2.32461">
        <ele>26.200000762939</ele>
        <time>2022-01-20T09:32:40.000Z</time>
      </trkpt>
      <trkpt lat="47.31789" lon="-2.32454">
        <ele>26.60000038147</ele>
        <time>2022-01-20T09:32:41.000Z</time>
      </trkpt>
      <trkpt lat="47.31788" lon="-2.32448">
        <ele>27.60000038147</ele>
        <time>2022-01-20T09:32:42.000Z</time>
      </trkpt>
      <trkpt lat="47.31784" lon="-2.3242">
        <ele>27.60000038147</ele>
        <time>2022-01-20T09:32:47.000Z</time>
      </trkpt>
      <trkpt lat="47.31779" lon="-2.32393">
        <ele>28</ele>
        <time>2022-01-20T09:32:52.000Z</time>
      </trkpt>
      <trkpt lat="47.31778" lon="-2.32388">
        <ele>28.39999961853</ele>
        <time>2022-01-20T09:32:53.000Z</time>
      </trkpt>
      <trkpt lat="47.31777" lon="-2.32383">
        <ele>28.799999237061</ele>
        <time>2022-01-20T09:32:54.000Z</time>
      </trkpt>
      <trkpt lat="47.31776" lon="-2.32378">
        <ele>29.200000762939</ele>
        <time>2022-01-20T09:32:55.000Z</time>
      </trkpt>
      <trkpt lat="47.31774" lon="-2.32372">
        <ele>29.799999237061</ele>
        <time>2022-01-20T09:32:56.000Z</time>
      </trkpt>
      <trkpt lat="47.31772" lon="-2.3236">
        <ele>29.799999237061</ele>
        <time>2022-01-20T09:32:58.000Z</time>
      </trkpt>
      <trkpt lat="47.31765" lon="-2.32323">
        <ele>29.799999237061</ele>
        <time>2022-01-20T09:33:05.000Z</time>
      </trkpt>
      <trkpt lat="47.31757" lon="-2.32281">
        <ele>29.799999237061</ele>
        <time>2022-01-20T09:33:13.000Z</time>
      </trkpt>
      <trkpt lat="47.31752" lon="-2.32257">
        <ele>29.799999237061</ele>
        <time>2022-01-20T09:33:19.000Z</time>
      </trkpt>
      <trkpt lat="47.31752" lon="-2.32253">
        <ele>30.200000762939</ele>
        <time>2022-01-20T09:33:20.000Z</time>
      </trkpt>
      <trkpt lat="47.31751" lon="-2.3225">
        <ele>30.60000038147</ele>
        <time>2022-01-20T09:33:21.000Z</time>
      </trkpt>
      <trkpt lat="47.31751" lon="-2.32247">
        <ele>31</ele>
        <time>2022-01-20T09:33:22.000Z</time>
      </trkpt>
      <trkpt lat="47.31751" lon="-2.32244">
        <ele>31.39999961853</ele>
        <time>2022-01-20T09:33:23.000Z</time>
      </trkpt>
      <trkpt lat="47.31751" lon="-2.32241">
        <ele>31.799999237061</ele>
        <time>2022-01-20T09:33:24.000Z</time>
      </trkpt>
      <trkpt lat="47.31752" lon="-2.32239">
        <ele>31.799999237061</ele>
        <time>2022-01-20T09:33:25.000Z</time>
      </trkpt>
      <trkpt lat="47.31754" lon="-2.32237">
        <ele>31.799999237061</ele>
        <time>2022-01-20T09:33:26.000Z</time>
      </trkpt>
      <trkpt lat="47.3176" lon="-2.32234">
        <ele>31.799999237061</ele>
        <time>2022-01-20T09:33:29.000Z</time>
      </trkpt>
      <trkpt lat="47.31771" lon="-2.32233">
        <ele>31.799999237061</ele>
        <time>2022-01-20T09:33:32.000Z</time>
      </trkpt>
      <trkpt lat="47.31775" lon="-2.32233">
        <ele>31.799999237061</ele>
        <time>2022-01-20T09:33:33.000Z</time>
      </trkpt>
      <trkpt lat="47.318" lon="-2.32228">
        <ele>31.799999237061</ele>
        <time>2022-01-20T09:33:39.000Z</time>
      </trkpt>
      <trkpt lat="47.3183" lon="-2.32224">
        <ele>31.39999961853</ele>
        <time>2022-01-20T09:33:45.000Z</time>
      </trkpt>
      <trkpt lat="47.31836" lon="-2.32223">
        <ele>30.799999237061</ele>
        <time>2022-01-20T09:33:46.000Z</time>
      </trkpt>
      <trkpt lat="47.31842" lon="-2.32221">
        <ele>30.39999961853</ele>
        <time>2022-01-20T09:33:47.000Z</time>
      </trkpt>
      <trkpt lat="47.31847" lon="-2.32219">
        <ele>30</ele>
        <time>2022-01-20T09:33:48.000Z</time>
      </trkpt>
      <trkpt lat="47.31854" lon="-2.32217">
        <ele>29.60000038147</ele>
        <time>2022-01-20T09:33:49.000Z</time>
      </trkpt>
      <trkpt lat="47.31866" lon="-2.32212">
        <ele>29.200000762939</ele>
        <time>2022-01-20T09:33:51.000Z</time>
      </trkpt>
      <trkpt lat="47.31873" lon="-2.32211">
        <ele>28.799999237061</ele>
        <time>2022-01-20T09:33:52.000Z</time>
      </trkpt>
      <trkpt lat="47.31879" lon="-2.32209">
        <ele>28.39999961853</ele>
        <time>2022-01-20T09:33:53.000Z</time>
      </trkpt>
      <trkpt lat="47.31887" lon="-2.32207">
        <ele>28</ele>
        <time>2022-01-20T09:33:54.000Z</time>
      </trkpt>
      <trkpt lat="47.31895" lon="-2.32205">
        <ele>27.60000038147</ele>
        <time>2022-01-20T09:33:55.000Z</time>
      </trkpt>
      <trkpt lat="47.31903" lon="-2.32204">
        <ele>27.200000762939</ele>
        <time>2022-01-20T09:33:56.000Z</time>
      </trkpt>
      <trkpt lat="47.3191" lon="-2.32204">
        <ele>26.799999237061</ele>
        <time>2022-01-20T09:33:57.000Z</time>
      </trkpt>
      <trkpt lat="47.31918" lon="-2.32206">
        <ele>26.39999961853</ele>
        <time>2022-01-20T09:33:58.000Z</time>
      </trkpt>
      <trkpt lat="47.31927" lon="-2.32208">
        <ele>26</ele>
        <time>2022-01-20T09:33:59.000Z</time>
      </trkpt>
      <trkpt lat="47.31935" lon="-2.3221">
        <ele>25.39999961853</ele>
        <time>2022-01-20T09:34:00.000Z</time>
      </trkpt>
      <trkpt lat="47.31942" lon="-2.32212">
        <ele>24.799999237061</ele>
        <time>2022-01-20T09:34:01.000Z</time>
      </trkpt>
      <trkpt lat="47.31948" lon="-2.32214">
        <ele>24.39999961853</ele>
        <time>2022-01-20T09:34:02.000Z</time>
      </trkpt>
      <trkpt lat="47.31954" lon="-2.32217">
        <ele>23.60000038147</ele>
        <time>2022-01-20T09:34:03.000Z</time>
      </trkpt>
      <trkpt lat="47.31956" lon="-2.32221">
        <ele>23</ele>
        <time>2022-01-20T09:34:04.000Z</time>
      </trkpt>
      <trkpt lat="47.31956" lon="-2.32228">
        <ele>22.200000762939</ele>
        <time>2022-01-20T09:34:05.000Z</time>
      </trkpt>
      <trkpt lat="47.31954" lon="-2.32234">
        <ele>21.60000038147</ele>
        <time>2022-01-20T09:34:06.000Z</time>
      </trkpt>
      <trkpt lat="47.31952" lon="-2.32239">
        <ele>20.799999237061</ele>
        <time>2022-01-20T09:34:07.000Z</time>
      </trkpt>
      <trkpt lat="47.3195" lon="-2.32245">
        <ele>20.799999237061</ele>
        <time>2022-01-20T09:34:08.000Z</time>
      </trkpt>
      <trkpt lat="47.31946" lon="-2.32256">
        <ele>20.799999237061</ele>
        <time>2022-01-20T09:34:10.000Z</time>
      </trkpt>
      <trkpt lat="47.31947" lon="-2.32262">
        <ele>20.39999961853</ele>
        <time>2022-01-20T09:34:11.000Z</time>
      </trkpt>
      <trkpt lat="47.31949" lon="-2.32266">
        <ele>19.799999237061</ele>
        <time>2022-01-20T09:34:12.000Z</time>
      </trkpt>
      <trkpt lat="47.31953" lon="-2.32266">
        <ele>19.39999961853</ele>
        <time>2022-01-20T09:34:13.000Z</time>
      </trkpt>
      <trkpt lat="47.31958" lon="-2.32264">
        <ele>19</ele>
        <time>2022-01-20T09:34:14.000Z</time>
      </trkpt>
      <trkpt lat="47.31961" lon="-2.32255">
        <ele>18.60000038147</ele>
        <time>2022-01-20T09:34:15.000Z</time>
      </trkpt>
      <trkpt lat="47.31966" lon="-2.32247">
        <ele>18.60000038147</ele>
        <time>2022-01-20T09:34:16.000Z</time>
      </trkpt>
      <trkpt lat="47.3197" lon="-2.3224">
        <ele>18.60000038147</ele>
        <time>2022-01-20T09:34:17.000Z</time>
      </trkpt>
      <trkpt lat="47.31975" lon="-2.32233">
        <ele>18</ele>
        <time>2022-01-20T09:34:18.000Z</time>
      </trkpt>
      <trkpt lat="47.31982" lon="-2.32226">
        <ele>17.60000038147</ele>
        <time>2022-01-20T09:34:19.000Z</time>
      </trkpt>
      <trkpt lat="47.31989" lon="-2.32219">
        <ele>16.799999237061</ele>
        <time>2022-01-20T09:34:20.000Z</time>
      </trkpt>
      <trkpt lat="47.31995" lon="-2.32212">
        <ele>16.200000762939</ele>
        <time>2022-01-20T09:34:21.000Z</time>
      </trkpt>
      <trkpt lat="47.32002" lon="-2.32205">
        <ele>15.800000190735</ele>
        <time>2022-01-20T09:34:22.000Z</time>
      </trkpt>
      <trkpt lat="47.32008" lon="-2.32197">
        <ele>15.199999809265</ele>
        <time>2022-01-20T09:34:23.000Z</time>
      </trkpt>
      <trkpt lat="47.32015" lon="-2.3219">
        <ele>14.800000190735</ele>
        <time>2022-01-20T09:34:24.000Z</time>
      </trkpt>
      <trkpt lat="47.32023" lon="-2.32187">
        <ele>14.199999809265</ele>
        <time>2022-01-20T09:34:25.000Z</time>
      </trkpt>
      <trkpt lat="47.3203" lon="-2.32185">
        <ele>14.199999809265</ele>
        <time>2022-01-20T09:34:26.000Z</time>
      </trkpt>
      <trkpt lat="47.32087" lon="-2.3218">
        <ele>13.800000190735</ele>
        <time>2022-01-20T09:34:33.000Z</time>
      </trkpt>
      <trkpt lat="47.32094" lon="-2.3218">
        <ele>13.39999961853</ele>
        <time>2022-01-20T09:34:34.000Z</time>
      </trkpt>
      <trkpt lat="47.32102" lon="-2.3218">
        <ele>12.800000190735</ele>
        <time>2022-01-20T09:34:35.000Z</time>
      </trkpt>
      <trkpt lat="47.3211" lon="-2.32178">
        <ele>12.39999961853</ele>
        <time>2022-01-20T09:34:36.000Z</time>
      </trkpt>
      <trkpt lat="47.32118" lon="-2.32176">
        <ele>12</ele>
        <time>2022-01-20T09:34:37.000Z</time>
      </trkpt>
      <trkpt lat="47.32133" lon="-2.3217">
        <ele>12</ele>
        <time>2022-01-20T09:34:39.000Z</time>
      </trkpt>
      <trkpt lat="47.32158" lon="-2.32149">
        <ele>12</ele>
        <time>2022-01-20T09:34:43.000Z</time>
      </trkpt>
      <trkpt lat="47.3217" lon="-2.32139">
        <ele>11.60000038147</ele>
        <time>2022-01-20T09:34:45.000Z</time>
      </trkpt>
      <trkpt lat="47.32175" lon="-2.32135">
        <ele>11.199999809265</ele>
        <time>2022-01-20T09:34:46.000Z</time>
      </trkpt>
      <trkpt lat="47.3218" lon="-2.32131">
        <ele>10.800000190735</ele>
        <time>2022-01-20T09:34:47.000Z</time>
      </trkpt>
      <trkpt lat="47.32185" lon="-2.32127">
        <ele>10.199999809265</ele>
        <time>2022-01-20T09:34:48.000Z</time>
      </trkpt>
      <trkpt lat="47.32189" lon="-2.32123">
        <ele>9.8000001907349</ele>
        <time>2022-01-20T09:34:49.000Z</time>
      </trkpt>
      <trkpt lat="47.32199" lon="-2.32114">
        <ele>9.8000001907349</ele>
        <time>2022-01-20T09:34:52.000Z</time>
      </trkpt>
      <trkpt lat="47.32215" lon="-2.32112">
        <ele>9.8000001907349</ele>
        <time>2022-01-20T09:34:56.000Z</time>
      </trkpt>
      <trkpt lat="47.32246" lon="-2.32105">
        <ele>9.8000001907349</ele>
        <time>2022-01-20T09:35:03.000Z</time>
      </trkpt>
      <trkpt lat="47.32271" lon="-2.32101">
        <ele>9.8000001907349</ele>
        <time>2022-01-20T09:35:10.000Z</time>
      </trkpt>
      <trkpt lat="47.32296" lon="-2.32097">
        <ele>10.199999809265</ele>
        <time>2022-01-20T09:35:17.000Z</time>
      </trkpt>
      <trkpt lat="47.323" lon="-2.32097">
        <ele>10.60000038147</ele>
        <time>2022-01-20T09:35:18.000Z</time>
      </trkpt>
      <trkpt lat="47.32304" lon="-2.32097">
        <ele>11</ele>
        <time>2022-01-20T09:35:19.000Z</time>
      </trkpt>
      <trkpt lat="47.32307" lon="-2.32097">
        <ele>11.39999961853</ele>
        <time>2022-01-20T09:35:20.000Z</time>
      </trkpt>
      <trkpt lat="47.3231" lon="-2.32097">
        <ele>11.800000190735</ele>
        <time>2022-01-20T09:35:21.000Z</time>
      </trkpt>
      <trkpt lat="47.32336" lon="-2.32102">
        <ele>11.800000190735</ele>
        <time>2022-01-20T09:35:28.000Z</time>
      </trkpt>
      <trkpt lat="47.32345" lon="-2.32101">
        <ele>11.800000190735</ele>
        <time>2022-01-20T09:35:33.000Z</time>
      </trkpt>
      <trkpt lat="47.32345" lon="-2.32101">
        <ele>11.39999961853</ele>
        <time>2022-01-20T09:35:34.000Z</time>
      </trkpt>
      <trkpt lat="47.32348" lon="-2.32102">
        <ele>9.8000001907349</ele>
        <time>2022-01-20T09:35:40.000Z</time>
      </trkpt>
      <trkpt lat="47.32353" lon="-2.32104">
        <ele>9.8000001907349</ele>
        <time>2022-01-20T09:35:42.000Z</time>
      </trkpt>
      <trkpt lat="47.32364" lon="-2.32104">
        <ele>9.8000001907349</ele>
        <time>2022-01-20T09:35:45.000Z</time>
      </trkpt>
      <trkpt lat="47.32373" lon="-2.32103">
        <ele>9.8000001907349</ele>
        <time>2022-01-20T09:35:47.000Z</time>
      </trkpt>
      <trkpt lat="47.32408" lon="-2.32102">
        <ele>9.8000001907349</ele>
        <time>2022-01-20T09:35:54.000Z</time>
      </trkpt>
      <trkpt lat="47.32445" lon="-2.321">
        <ele>9.8000001907349</ele>
        <time>2022-01-20T09:36:01.000Z</time>
      </trkpt>
      <trkpt lat="47.32481" lon="-2.32097">
        <ele>9.8000001907349</ele>
        <time>2022-01-20T09:36:08.000Z</time>
      </trkpt>
      <trkpt lat="47.3252" lon="-2.32096">
        <ele>9.8000001907349</ele>
        <time>2022-01-20T09:36:16.000Z</time>
      </trkpt>
      <trkpt lat="47.32555" lon="-2.32094">
        <ele>9.8000001907349</ele>
        <time>2022-01-20T09:36:23.000Z</time>
      </trkpt>
      <trkpt lat="47.32574" lon="-2.32094">
        <ele>9.8000001907349</ele>
        <time>2022-01-20T09:36:27.000Z</time>
      </trkpt>
      <trkpt lat="47.32584" lon="-2.32097">
        <ele>9.8000001907349</ele>
        <time>2022-01-20T09:36:29.000Z</time>
      </trkpt>
      <trkpt lat="47.32591" lon="-2.32117">
        <ele>9.8000001907349</ele>
        <time>2022-01-20T09:36:32.000Z</time>
      </trkpt>
      <trkpt lat="47.32584" lon="-2.32143">
        <ele>9.8000001907349</ele>
        <time>2022-01-20T09:36:35.000Z</time>
      </trkpt>
      <trkpt lat="47.32578" lon="-2.32161">
        <ele>9.3999996185303</ele>
        <time>2022-01-20T09:36:37.000Z</time>
      </trkpt>
      <trkpt lat="47.32574" lon="-2.32171">
        <ele>9</ele>
        <time>2022-01-20T09:36:38.000Z</time>
      </trkpt>
      <trkpt lat="47.32572" lon="-2.32181">
        <ele>8.6000003814697</ele>
        <time>2022-01-20T09:36:39.000Z</time>
      </trkpt>
      <trkpt lat="47.32569" lon="-2.32191">
        <ele>8</ele>
        <time>2022-01-20T09:36:40.000Z</time>
      </trkpt>
      <trkpt lat="47.32566" lon="-2.32201">
        <ele>7.5999999046326</ele>
        <time>2022-01-20T09:36:41.000Z</time>
      </trkpt>
      <trkpt lat="47.32549" lon="-2.32255">
        <ele>7.5999999046326</ele>
        <time>2022-01-20T09:36:47.000Z</time>
      </trkpt>
      <trkpt lat="47.3254" lon="-2.3228">
        <ele>7.5999999046326</ele>
        <time>2022-01-20T09:36:51.000Z</time>
      </trkpt>
      <trkpt lat="47.32536" lon="-2.32309">
        <ele>8</ele>
        <time>2022-01-20T09:36:56.000Z</time>
      </trkpt>
      <trkpt lat="47.32538" lon="-2.32314">
        <ele>8.3999996185303</ele>
        <time>2022-01-20T09:36:57.000Z</time>
      </trkpt>
      <trkpt lat="47.32541" lon="-2.32317">
        <ele>8.8000001907349</ele>
        <time>2022-01-20T09:36:58.000Z</time>
      </trkpt>
      <trkpt lat="47.32545" lon="-2.32318">
        <ele>9.3999996185303</ele>
        <time>2022-01-20T09:36:59.000Z</time>
      </trkpt>
      <trkpt lat="47.32549" lon="-2.32318">
        <ele>9.8000001907349</ele>
        <time>2022-01-20T09:37:00.000Z</time>
      </trkpt>
      <trkpt lat="47.32554" lon="-2.32316">
        <ele>9.8000001907349</ele>
        <time>2022-01-20T09:37:01.000Z</time>
      </trkpt>
      <trkpt lat="47.32569" lon="-2.32313">
        <ele>9.8000001907349</ele>
        <time>2022-01-20T09:37:04.000Z</time>
      </trkpt>
      <trkpt lat="47.32605" lon="-2.32307">
        <ele>9.8000001907349</ele>
        <time>2022-01-20T09:37:10.000Z</time>
      </trkpt>
      <trkpt lat="47.32641" lon="-2.32311">
        <ele>9.8000001907349</ele>
        <time>2022-01-20T09:37:16.000Z</time>
      </trkpt>
      <trkpt lat="47.32678" lon="-2.32318">
        <ele>9.8000001907349</ele>
        <time>2022-01-20T09:37:22.000Z</time>
      </trkpt>
      <trkpt lat="47.32724" lon="-2.32336">
        <ele>9.8000001907349</ele>
        <time>2022-01-20T09:37:29.000Z</time>
      </trkpt>
      <trkpt lat="47.32742" lon="-2.32348">
        <ele>9.3999996185303</ele>
        <time>2022-01-20T09:37:32.000Z</time>
      </trkpt>
      <trkpt lat="47.32748" lon="-2.32351">
        <ele>9</ele>
        <time>2022-01-20T09:37:33.000Z</time>
      </trkpt>
      <trkpt lat="47.32755" lon="-2.32355">
        <ele>8.6000003814697</ele>
        <time>2022-01-20T09:37:34.000Z</time>
      </trkpt>
      <trkpt lat="47.32761" lon="-2.32359">
        <ele>8</ele>
        <time>2022-01-20T09:37:35.000Z</time>
      </trkpt>
      <trkpt lat="47.32767" lon="-2.32363">
        <ele>7.5999999046326</ele>
        <time>2022-01-20T09:37:36.000Z</time>
      </trkpt>
      <trkpt lat="47.32786" lon="-2.32374">
        <ele>7.5999999046326</ele>
        <time>2022-01-20T09:37:39.000Z</time>
      </trkpt>
      <trkpt lat="47.32796" lon="-2.32381">
        <ele>7.5999999046326</ele>
        <time>2022-01-20T09:37:41.000Z</time>
      </trkpt>
      <trkpt lat="47.32831" lon="-2.32415">
        <ele>7.5999999046326</ele>
        <time>2022-01-20T09:37:48.000Z</time>
      </trkpt>
      <trkpt lat="47.32868" lon="-2.32441">
        <ele>7.5999999046326</ele>
        <time>2022-01-20T09:37:55.000Z</time>
      </trkpt>
      <trkpt lat="47.3289" lon="-2.32456">
        <ele>7.5999999046326</ele>
        <time>2022-01-20T09:37:59.000Z</time>
      </trkpt>
      <trkpt lat="47.32898" lon="-2.32469">
        <ele>7.5999999046326</ele>
        <time>2022-01-20T09:38:01.000Z</time>
      </trkpt>
      <trkpt lat="47.32904" lon="-2.32484">
        <ele>7.5999999046326</ele>
        <time>2022-01-20T09:38:03.000Z</time>
      </trkpt>
      <trkpt lat="47.32908" lon="-2.32501">
        <ele>7.5999999046326</ele>
        <time>2022-01-20T09:38:05.000Z</time>
      </trkpt>
      <trkpt lat="47.32914" lon="-2.32526">
        <ele>7.5999999046326</ele>
        <time>2022-01-20T09:38:08.000Z</time>
      </trkpt>
      <trkpt lat="47.32916" lon="-2.32543">
        <ele>7.5999999046326</ele>
        <time>2022-01-20T09:38:10.000Z</time>
      </trkpt>
      <trkpt lat="47.32917" lon="-2.32552">
        <ele>7.5999999046326</ele>
        <time>2022-01-20T09:38:11.000Z</time>
      </trkpt>
      <trkpt lat="47.32917" lon="-2.32587">
        <ele>7.5999999046326</ele>
        <time>2022-01-20T09:38:15.000Z</time>
      </trkpt>
      <trkpt lat="47.32917" lon="-2.32622">
        <ele>7.5999999046326</ele>
        <time>2022-01-20T09:38:19.000Z</time>
      </trkpt>
      <trkpt lat="47.32919" lon="-2.32629">
        <ele>7.5999999046326</ele>
        <time>2022-01-20T09:38:20.000Z</time>
      </trkpt>
      <trkpt lat="47.32929" lon="-2.32644">
        <ele>7.5999999046326</ele>
        <time>2022-01-20T09:38:23.000Z</time>
      </trkpt>
      <trkpt lat="47.32934" lon="-2.32645">
        <ele>7.1999998092651</ele>
        <time>2022-01-20T09:38:24.000Z</time>
      </trkpt>
      <trkpt lat="47.3294" lon="-2.32645">
        <ele>6.8000001907349</ele>
        <time>2022-01-20T09:38:25.000Z</time>
      </trkpt>
      <trkpt lat="47.32946" lon="-2.32644">
        <ele>6.4000000953674</ele>
        <time>2022-01-20T09:38:26.000Z</time>
      </trkpt>
      <trkpt lat="47.32952" lon="-2.32643">
        <ele>6</ele>
        <time>2022-01-20T09:38:27.000Z</time>
      </trkpt>
      <trkpt lat="47.32958" lon="-2.32641">
        <ele>5.5999999046326</ele>
        <time>2022-01-20T09:38:28.000Z</time>
      </trkpt>
      <trkpt lat="47.32964" lon="-2.3264">
        <ele>5.5999999046326</ele>
        <time>2022-01-20T09:38:29.000Z</time>
      </trkpt>
      <trkpt lat="47.32981" lon="-2.3263">
        <ele>5.5999999046326</ele>
        <time>2022-01-20T09:38:32.000Z</time>
      </trkpt>
      <trkpt lat="47.32999" lon="-2.32626">
        <ele>5.5999999046326</ele>
        <time>2022-01-20T09:38:35.000Z</time>
      </trkpt>
      <trkpt lat="47.33023" lon="-2.32635">
        <ele>5.5999999046326</ele>
        <time>2022-01-20T09:38:39.000Z</time>
      </trkpt>
      <trkpt lat="47.33034" lon="-2.32633">
        <ele>5.1999998092651</ele>
        <time>2022-01-20T09:38:41.000Z</time>
      </trkpt>
      <trkpt lat="47.33039" lon="-2.32629">
        <ele>4.8000001907349</ele>
        <time>2022-01-20T09:38:42.000Z</time>
      </trkpt>
      <trkpt lat="47.33044" lon="-2.32625">
        <ele>4.4000000953674</ele>
        <time>2022-01-20T09:38:43.000Z</time>
      </trkpt>
      <trkpt lat="47.33049" lon="-2.3262">
        <ele>4</ele>
        <time>2022-01-20T09:38:44.000Z</time>
      </trkpt>
      <trkpt lat="47.33054" lon="-2.32616">
        <ele>3.5999999046326</ele>
        <time>2022-01-20T09:38:45.000Z</time>
      </trkpt>
      <trkpt lat="47.33074" lon="-2.32599">
        <ele>3.5999999046326</ele>
        <time>2022-01-20T09:38:49.000Z</time>
      </trkpt>
      <trkpt lat="47.331" lon="-2.32577">
        <ele>4</ele>
        <time>2022-01-20T09:38:54.000Z</time>
      </trkpt>
      <trkpt lat="47.33105" lon="-2.32573">
        <ele>4.4000000953674</ele>
        <time>2022-01-20T09:38:55.000Z</time>
      </trkpt>
      <trkpt lat="47.3311" lon="-2.32568">
        <ele>4.8000001907349</ele>
        <time>2022-01-20T09:38:56.000Z</time>
      </trkpt>
      <trkpt lat="47.33116" lon="-2.32563">
        <ele>5.1999998092651</ele>
        <time>2022-01-20T09:38:57.000Z</time>
      </trkpt>
      <trkpt lat="47.33121" lon="-2.32559">
        <ele>5.8000001907349</ele>
        <time>2022-01-20T09:38:58.000Z</time>
      </trkpt>
      <trkpt lat="47.33132" lon="-2.32551">
        <ele>5.8000001907349</ele>
        <time>2022-01-20T09:39:00.000Z</time>
      </trkpt>
      <trkpt lat="47.33166" lon="-2.32524">
        <ele>6.1999998092651</ele>
        <time>2022-01-20T09:39:07.000Z</time>
      </trkpt>
      <trkpt lat="47.33171" lon="-2.32521">
        <ele>6.5999999046326</ele>
        <time>2022-01-20T09:39:08.000Z</time>
      </trkpt>
      <trkpt lat="47.33175" lon="-2.32519">
        <ele>7</ele>
        <time>2022-01-20T09:39:09.000Z</time>
      </trkpt>
      <trkpt lat="47.3318" lon="-2.32517">
        <ele>7.4000000953674</ele>
        <time>2022-01-20T09:39:10.000Z</time>
      </trkpt>
      <trkpt lat="47.33185" lon="-2.32515">
        <ele>7.8000001907349</ele>
        <time>2022-01-20T09:39:11.000Z</time>
      </trkpt>
      <trkpt lat="47.33191" lon="-2.32513">
        <ele>7.8000001907349</ele>
        <time>2022-01-20T09:39:12.000Z</time>
      </trkpt>
      <trkpt lat="47.33237" lon="-2.32494">
        <ele>7.8000001907349</ele>
        <time>2022-01-20T09:39:20.000Z</time>
      </trkpt>
      <trkpt lat="47.33271" lon="-2.32477">
        <ele>7.8000001907349</ele>
        <time>2022-01-20T09:39:26.000Z</time>
      </trkpt>
      <trkpt lat="47.33299" lon="-2.32464">
        <ele>7.8000001907349</ele>
        <time>2022-01-20T09:39:31.000Z</time>
      </trkpt>
      <trkpt lat="47.33322" lon="-2.32458">
        <ele>7.8000001907349</ele>
        <time>2022-01-20T09:39:35.000Z</time>
      </trkpt>
      <trkpt lat="47.33327" lon="-2.32455">
        <ele>7.8000001907349</ele>
        <time>2022-01-20T09:39:36.000Z</time>
      </trkpt>
      <trkpt lat="47.33336" lon="-2.32446">
        <ele>7.8000001907349</ele>
        <time>2022-01-20T09:39:38.000Z</time>
      </trkpt>
      <trkpt lat="47.33349" lon="-2.32425">
        <ele>7.8000001907349</ele>
        <time>2022-01-20T09:39:41.000Z</time>
      </trkpt>
      <trkpt lat="47.33355" lon="-2.32419">
        <ele>7.8000001907349</ele>
        <time>2022-01-20T09:39:42.000Z</time>
      </trkpt>
      <trkpt lat="47.33366" lon="-2.32407">
        <ele>7.8000001907349</ele>
        <time>2022-01-20T09:39:44.000Z</time>
      </trkpt>
      <trkpt lat="47.33384" lon="-2.32392">
        <ele>7.8000001907349</ele>
        <time>2022-01-20T09:39:47.000Z</time>
      </trkpt>
      <trkpt lat="47.33432" lon="-2.32352">
        <ele>7.4000000953674</ele>
        <time>2022-01-20T09:39:55.000Z</time>
      </trkpt>
      <trkpt lat="47.33439" lon="-2.32347">
        <ele>7</ele>
        <time>2022-01-20T09:39:56.000Z</time>
      </trkpt>
      <trkpt lat="47.33445" lon="-2.32343">
        <ele>6.5999999046326</ele>
        <time>2022-01-20T09:39:57.000Z</time>
      </trkpt>
      <trkpt lat="47.33451" lon="-2.32339">
        <ele>6.1999998092651</ele>
        <time>2022-01-20T09:39:58.000Z</time>
      </trkpt>
      <trkpt lat="47.33457" lon="-2.32335">
        <ele>5.8000001907349</ele>
        <time>2022-01-20T09:39:59.000Z</time>
      </trkpt>
      <trkpt lat="47.33482" lon="-2.32322">
        <ele>5.8000001907349</ele>
        <time>2022-01-20T09:40:03.000Z</time>
      </trkpt>
      <trkpt lat="47.33516" lon="-2.32305">
        <ele>5.8000001907349</ele>
        <time>2022-01-20T09:40:09.000Z</time>
      </trkpt>
      <trkpt lat="47.33522" lon="-2.32303">
        <ele>5.8000001907349</ele>
        <time>2022-01-20T09:40:10.000Z</time>
      </trkpt>
      <trkpt lat="47.33538" lon="-2.32301">
        <ele>5.8000001907349</ele>
        <time>2022-01-20T09:40:13.000Z</time>
      </trkpt>
      <trkpt lat="47.3357" lon="-2.32294">
        <ele>5.8000001907349</ele>
        <time>2022-01-20T09:40:19.000Z</time>
      </trkpt>
      <trkpt lat="47.33592" lon="-2.3229">
        <ele>6.1999998092651</ele>
        <time>2022-01-20T09:40:23.000Z</time>
      </trkpt>
      <trkpt lat="47.33598" lon="-2.32289">
        <ele>6.5999999046326</ele>
        <time>2022-01-20T09:40:24.000Z</time>
      </trkpt>
      <trkpt lat="47.33604" lon="-2.32288">
        <ele>7</ele>
        <time>2022-01-20T09:40:25.000Z</time>
      </trkpt>
      <trkpt lat="47.3361" lon="-2.32287">
        <ele>7.4000000953674</ele>
        <time>2022-01-20T09:40:26.000Z</time>
      </trkpt>
      <trkpt lat="47.33616" lon="-2.32287">
        <ele>7.8000001907349</ele>
        <time>2022-01-20T09:40:27.000Z</time>
      </trkpt>
      <trkpt lat="47.33639" lon="-2.32284">
        <ele>7.8000001907349</ele>
        <time>2022-01-20T09:40:31.000Z</time>
      </trkpt>
      <trkpt lat="47.33663" lon="-2.32276">
        <ele>7.8000001907349</ele>
        <time>2022-01-20T09:40:35.000Z</time>
      </trkpt>
      <trkpt lat="47.33675" lon="-2.32269">
        <ele>7.8000001907349</ele>
        <time>2022-01-20T09:40:37.000Z</time>
      </trkpt>
      <trkpt lat="47.33716" lon="-2.32244">
        <ele>7.8000001907349</ele>
        <time>2022-01-20T09:40:44.000Z</time>
      </trkpt>
      <trkpt lat="47.33756" lon="-2.32221">
        <ele>7.8000001907349</ele>
        <time>2022-01-20T09:40:51.000Z</time>
      </trkpt>
      <trkpt lat="47.33786" lon="-2.3221">
        <ele>7.8000001907349</ele>
        <time>2022-01-20T09:40:56.000Z</time>
      </trkpt>
      <trkpt lat="47.3383" lon="-2.32203">
        <ele>7.8000001907349</ele>
        <time>2022-01-20T09:41:03.000Z</time>
      </trkpt>
      <trkpt lat="47.33862" lon="-2.32198">
        <ele>7.8000001907349</ele>
        <time>2022-01-20T09:41:08.000Z</time>
      </trkpt>
      <trkpt lat="47.33888" lon="-2.32198">
        <ele>7.8000001907349</ele>
        <time>2022-01-20T09:41:12.000Z</time>
      </trkpt>
      <trkpt lat="47.33895" lon="-2.32199">
        <ele>7.4000000953674</ele>
        <time>2022-01-20T09:41:13.000Z</time>
      </trkpt>
      <trkpt lat="47.33901" lon="-2.322">
        <ele>7</ele>
        <time>2022-01-20T09:41:14.000Z</time>
      </trkpt>
      <trkpt lat="47.33906" lon="-2.322">
        <ele>6.5999999046326</ele>
        <time>2022-01-20T09:41:15.000Z</time>
      </trkpt>
      <trkpt lat="47.33912" lon="-2.322">
        <ele>6.1999998092651</ele>
        <time>2022-01-20T09:41:16.000Z</time>
      </trkpt>
      <trkpt lat="47.33918" lon="-2.32199">
        <ele>5.5999999046326</ele>
        <time>2022-01-20T09:41:17.000Z</time>
      </trkpt>
      <trkpt lat="47.3393" lon="-2.32199">
        <ele>5.5999999046326</ele>
        <time>2022-01-20T09:41:19.000Z</time>
      </trkpt>
      <trkpt lat="47.33936" lon="-2.32201">
        <ele>5.5999999046326</ele>
        <time>2022-01-20T09:41:20.000Z</time>
      </trkpt>
      <trkpt lat="47.33959" lon="-2.32216">
        <ele>5.5999999046326</ele>
        <time>2022-01-20T09:41:24.000Z</time>
      </trkpt>
      <trkpt lat="47.33966" lon="-2.32218">
        <ele>5.5999999046326</ele>
        <time>2022-01-20T09:41:25.000Z</time>
      </trkpt>
      <trkpt lat="47.34004" lon="-2.32218">
        <ele>5.5999999046326</ele>
        <time>2022-01-20T09:41:31.000Z</time>
      </trkpt>
      <trkpt lat="47.34048" lon="-2.32218">
        <ele>5.5999999046326</ele>
        <time>2022-01-20T09:41:38.000Z</time>
      </trkpt>
      <trkpt lat="47.34054" lon="-2.32219">
        <ele>5.5999999046326</ele>
        <time>2022-01-20T09:41:39.000Z</time>
      </trkpt>
      <trkpt lat="47.34066" lon="-2.32222">
        <ele>5.5999999046326</ele>
        <time>2022-01-20T09:41:41.000Z</time>
      </trkpt>
      <trkpt lat="47.34071" lon="-2.32226">
        <ele>5.5999999046326</ele>
        <time>2022-01-20T09:41:42.000Z</time>
      </trkpt>
      <trkpt lat="47.34086" lon="-2.32248">
        <ele>5.5999999046326</ele>
        <time>2022-01-20T09:41:46.000Z</time>
      </trkpt>
      <trkpt lat="47.34093" lon="-2.32277">
        <ele>6.1999998092651</ele>
        <time>2022-01-20T09:41:50.000Z</time>
      </trkpt>
      <trkpt lat="47.34095" lon="-2.32285">
        <ele>6.5999999046326</ele>
        <time>2022-01-20T09:41:51.000Z</time>
      </trkpt>
      <trkpt lat="47.34097" lon="-2.32293">
        <ele>7</ele>
        <time>2022-01-20T09:41:52.000Z</time>
      </trkpt>
      <trkpt lat="47.34099" lon="-2.323">
        <ele>7.4000000953674</ele>
        <time>2022-01-20T09:41:53.000Z</time>
      </trkpt>
      <trkpt lat="47.34101" lon="-2.32308">
        <ele>7.8000001907349</ele>
        <time>2022-01-20T09:41:54.000Z</time>
      </trkpt>
      <trkpt lat="47.34103" lon="-2.32316">
        <ele>7.8000001907349</ele>
        <time>2022-01-20T09:41:55.000Z</time>
      </trkpt>
      <trkpt lat="47.34114" lon="-2.3236">
        <ele>7.8000001907349</ele>
        <time>2022-01-20T09:42:01.000Z</time>
      </trkpt>
      <trkpt lat="47.34116" lon="-2.32368">
        <ele>8.1999998092651</ele>
        <time>2022-01-20T09:42:02.000Z</time>
      </trkpt>
      <trkpt lat="47.34119" lon="-2.32375">
        <ele>8.6000003814697</ele>
        <time>2022-01-20T09:42:03.000Z</time>
      </trkpt>
      <trkpt lat="47.34121" lon="-2.32384">
        <ele>9.1999998092651</ele>
        <time>2022-01-20T09:42:04.000Z</time>
      </trkpt>
      <trkpt lat="47.34123" lon="-2.32392">
        <ele>9.6000003814697</ele>
        <time>2022-01-20T09:42:05.000Z</time>
      </trkpt>
      <trkpt lat="47.34126" lon="-2.32401">
        <ele>10</ele>
        <time>2022-01-20T09:42:06.000Z</time>
      </trkpt>
      <trkpt lat="47.34128" lon="-2.32411">
        <ele>10</ele>
        <time>2022-01-20T09:42:07.000Z</time>
      </trkpt>
      <trkpt lat="47.34136" lon="-2.32437">
        <ele>10</ele>
        <time>2022-01-20T09:42:10.000Z</time>
      </trkpt>
      <trkpt lat="47.3415" lon="-2.32488">
        <ele>10</ele>
        <time>2022-01-20T09:42:16.000Z</time>
      </trkpt>
      <trkpt lat="47.34153" lon="-2.3251">
        <ele>10</ele>
        <time>2022-01-20T09:42:19.000Z</time>
      </trkpt>
      <trkpt lat="47.34154" lon="-2.32541">
        <ele>10</ele>
        <time>2022-01-20T09:42:23.000Z</time>
      </trkpt>
      <trkpt lat="47.34154" lon="-2.32576">
        <ele>10</ele>
        <time>2022-01-20T09:42:29.000Z</time>
      </trkpt>
      <trkpt lat="47.34151" lon="-2.32611">
        <ele>10.39999961853</ele>
        <time>2022-01-20T09:42:35.000Z</time>
      </trkpt>
      <trkpt lat="47.34151" lon="-2.32618">
        <ele>10.800000190735</ele>
        <time>2022-01-20T09:42:36.000Z</time>
      </trkpt>
      <trkpt lat="47.34151" lon="-2.32624">
        <ele>11.199999809265</ele>
        <time>2022-01-20T09:42:37.000Z</time>
      </trkpt>
      <trkpt lat="47.34152" lon="-2.32631">
        <ele>11.60000038147</ele>
        <time>2022-01-20T09:42:38.000Z</time>
      </trkpt>
      <trkpt lat="47.34153" lon="-2.32638">
        <ele>12</ele>
        <time>2022-01-20T09:42:39.000Z</time>
      </trkpt>
      <trkpt lat="47.34153" lon="-2.32651">
        <ele>12</ele>
        <time>2022-01-20T09:42:41.000Z</time>
      </trkpt>
      <trkpt lat="47.34153" lon="-2.32658">
        <ele>12</ele>
        <time>2022-01-20T09:42:42.000Z</time>
      </trkpt>
      <trkpt lat="47.34156" lon="-2.32687">
        <ele>12</ele>
        <time>2022-01-20T09:42:46.000Z</time>
      </trkpt>
      <trkpt lat="47.34158" lon="-2.3271">
        <ele>12</ele>
        <time>2022-01-20T09:42:49.000Z</time>
      </trkpt>
      <trkpt lat="47.34159" lon="-2.3273">
        <ele>12</ele>
        <time>2022-01-20T09:42:52.000Z</time>
      </trkpt>
      <trkpt lat="47.34161" lon="-2.32748">
        <ele>12</ele>
        <time>2022-01-20T09:42:57.000Z</time>
      </trkpt>
      <trkpt lat="47.34161" lon="-2.32759">
        <ele>12</ele>
        <time>2022-01-20T09:43:00.000Z</time>
      </trkpt>
      <trkpt lat="47.34159" lon="-2.32764">
        <ele>12</ele>
        <time>2022-01-20T09:43:02.000Z</time>
      </trkpt>
      <trkpt lat="47.34155" lon="-2.3277">
        <ele>12</ele>
        <time>2022-01-20T09:43:07.000Z</time>
      </trkpt>
      <trkpt lat="47.34154" lon="-2.32776">
        <ele>12</ele>
        <time>2022-01-20T09:43:10.000Z</time>
      </trkpt>
      <trkpt lat="47.34154" lon="-2.32778">
        <ele>12</ele>
        <time>2022-01-20T09:43:11.000Z</time>
      </trkpt>
      <trkpt lat="47.34154" lon="-2.3278">
        <ele>12</ele>
        <time>2022-01-20T09:43:12.000Z</time>
      </trkpt>
      <trkpt lat="47.34155" lon="-2.32782">
        <ele>12</ele>
        <time>2022-01-20T09:43:13.000Z</time>
      </trkpt>
      <trkpt lat="47.34159" lon="-2.32793">
        <ele>12</ele>
        <time>2022-01-20T09:43:17.000Z</time>
      </trkpt>
      <trkpt lat="47.34161" lon="-2.32805">
        <ele>12</ele>
        <time>2022-01-20T09:43:23.000Z</time>
      </trkpt>
      <trkpt lat="47.34162" lon="-2.32807">
        <ele>12</ele>
        <time>2022-01-20T09:43:24.000Z</time>
      </trkpt>
      <trkpt lat="47.34165" lon="-2.32811">
        <ele>12</ele>
        <time>2022-01-20T09:43:27.000Z</time>
      </trkpt>
      <trkpt lat="47.34168" lon="-2.32818">
        <ele>11.60000038147</ele>
        <time>2022-01-20T09:43:30.000Z</time>
      </trkpt>
      <trkpt lat="47.34169" lon="-2.3282">
        <ele>11.199999809265</ele>
        <time>2022-01-20T09:43:31.000Z</time>
      </trkpt>
      <trkpt lat="47.3417" lon="-2.32822">
        <ele>10.800000190735</ele>
        <time>2022-01-20T09:43:32.000Z</time>
      </trkpt>
      <trkpt lat="47.34172" lon="-2.32825">
        <ele>10.39999961853</ele>
        <time>2022-01-20T09:43:33.000Z</time>
      </trkpt>
      <trkpt lat="47.34173" lon="-2.32827">
        <ele>10</ele>
        <time>2022-01-20T09:43:34.000Z</time>
      </trkpt>
      <trkpt lat="47.3418" lon="-2.32835">
        <ele>10</ele>
        <time>2022-01-20T09:43:37.000Z</time>
      </trkpt>
      <trkpt lat="47.34187" lon="-2.32844">
        <ele>10</ele>
        <time>2022-01-20T09:43:42.000Z</time>
      </trkpt>
      <trkpt lat="47.34191" lon="-2.32851">
        <ele>10</ele>
        <time>2022-01-20T09:43:48.000Z</time>
      </trkpt>
      <trkpt lat="47.34195" lon="-2.32858">
        <ele>9.6000003814697</ele>
        <time>2022-01-20T09:43:51.000Z</time>
      </trkpt>
      <trkpt lat="47.34197" lon="-2.32861">
        <ele>9.1999998092651</ele>
        <time>2022-01-20T09:43:52.000Z</time>
      </trkpt>
      <trkpt lat="47.34198" lon="-2.32864">
        <ele>8.6000003814697</ele>
        <time>2022-01-20T09:43:53.000Z</time>
      </trkpt>
      <trkpt lat="47.342" lon="-2.32867">
        <ele>8.1999998092651</ele>
        <time>2022-01-20T09:43:54.000Z</time>
      </trkpt>
      <trkpt lat="47.34202" lon="-2.3287">
        <ele>7.8000001907349</ele>
        <time>2022-01-20T09:43:55.000Z</time>
      </trkpt>
      <trkpt lat="47.34209" lon="-2.32882">
        <ele>7.8000001907349</ele>
        <time>2022-01-20T09:43:59.000Z</time>
      </trkpt>
      <trkpt lat="47.34219" lon="-2.32897">
        <ele>7.4000000953674</ele>
        <time>2022-01-20T09:44:04.000Z</time>
      </trkpt>
      <trkpt lat="47.34221" lon="-2.329">
        <ele>7</ele>
        <time>2022-01-20T09:44:05.000Z</time>
      </trkpt>
      <trkpt lat="47.34222" lon="-2.32903">
        <ele>6.5999999046326</ele>
        <time>2022-01-20T09:44:06.000Z</time>
      </trkpt>
      <trkpt lat="47.34224" lon="-2.32906">
        <ele>6.1999998092651</ele>
        <time>2022-01-20T09:44:07.000Z</time>
      </trkpt>
      <trkpt lat="47.34226" lon="-2.32908">
        <ele>5.5999999046326</ele>
        <time>2022-01-20T09:44:08.000Z</time>
      </trkpt>
      <trkpt lat="47.3423" lon="-2.32916">
        <ele>5.5999999046326</ele>
        <time>2022-01-20T09:44:11.000Z</time>
      </trkpt>
      <trkpt lat="47.34232" lon="-2.32916">
        <ele>5.5999999046326</ele>
        <time>2022-01-20T09:44:12.000Z</time>
      </trkpt>
      <trkpt lat="47.34236" lon="-2.32921">
        <ele>5.5999999046326</ele>
        <time>2022-01-20T09:44:15.000Z</time>
      </trkpt>
      <trkpt lat="47.34244" lon="-2.32931">
        <ele>5.5999999046326</ele>
        <time>2022-01-20T09:44:22.000Z</time>
      </trkpt>
      <trkpt lat="47.34245" lon="-2.32932">
        <ele>5.5999999046326</ele>
        <time>2022-01-20T09:44:23.000Z</time>
      </trkpt>
      <trkpt lat="47.34245" lon="-2.32933">
        <ele>5.5999999046326</ele>
        <time>2022-01-20T09:44:30.000Z</time>
      </trkpt>
      <trkpt lat="47.34249" lon="-2.32937">
        <ele>5.5999999046326</ele>
        <time>2022-01-20T09:44:32.000Z</time>
      </trkpt>
      <trkpt lat="47.34259" lon="-2.32956">
        <ele>5.5999999046326</ele>
        <time>2022-01-20T09:44:38.000Z</time>
      </trkpt>
      <trkpt lat="47.3426" lon="-2.3296">
        <ele>5.5999999046326</ele>
        <time>2022-01-20T09:44:39.000Z</time>
      </trkpt>
      <trkpt lat="47.34262" lon="-2.3297">
        <ele>5.5999999046326</ele>
        <time>2022-01-20T09:44:41.000Z</time>
      </trkpt>
      <trkpt lat="47.34262" lon="-2.32976">
        <ele>5.5999999046326</ele>
        <time>2022-01-20T09:44:42.000Z</time>
      </trkpt>
      <trkpt lat="47.34266" lon="-2.32999">
        <ele>5.5999999046326</ele>
        <time>2022-01-20T09:44:48.000Z</time>
      </trkpt>
      <trkpt lat="47.34267" lon="-2.33004">
        <ele>5.5999999046326</ele>
        <time>2022-01-20T09:44:49.000Z</time>
      </trkpt>
      <trkpt lat="47.34267" lon="-2.33009">
        <ele>5.5999999046326</ele>
        <time>2022-01-20T09:44:50.000Z</time>
      </trkpt>
      <trkpt lat="47.34265" lon="-2.33024">
        <ele>5.5999999046326</ele>
        <time>2022-01-20T09:44:54.000Z</time>
      </trkpt>
      <trkpt lat="47.34265" lon="-2.33032">
        <ele>5.5999999046326</ele>
        <time>2022-01-20T09:44:56.000Z</time>
      </trkpt>
      <trkpt lat="47.34264" lon="-2.33035">
        <ele>5.5999999046326</ele>
        <time>2022-01-20T09:44:57.000Z</time>
      </trkpt>
      <trkpt lat="47.34261" lon="-2.33042">
        <ele>5.5999999046326</ele>
        <time>2022-01-20T09:44:59.000Z</time>
      </trkpt>
      <trkpt lat="47.34258" lon="-2.33053">
        <ele>5.5999999046326</ele>
        <time>2022-01-20T09:45:01.000Z</time>
      </trkpt>
      <trkpt lat="47.34252" lon="-2.33071">
        <ele>5.5999999046326</ele>
        <time>2022-01-20T09:45:04.000Z</time>
      </trkpt>
      <trkpt lat="47.34244" lon="-2.3311">
        <ele>5.5999999046326</ele>
        <time>2022-01-20T09:45:08.000Z</time>
      </trkpt>
      <trkpt lat="47.34233" lon="-2.33154">
        <ele>5.5999999046326</ele>
        <time>2022-01-20T09:45:13.000Z</time>
      </trkpt>
      <trkpt lat="47.34231" lon="-2.33162">
        <ele>5.5999999046326</ele>
        <time>2022-01-20T09:45:14.000Z</time>
      </trkpt>
      <trkpt lat="47.34213" lon="-2.33229">
        <ele>5.5999999046326</ele>
        <time>2022-01-20T09:45:23.000Z</time>
      </trkpt>
      <trkpt lat="47.34202" lon="-2.33274">
        <ele>6</ele>
        <time>2022-01-20T09:45:29.000Z</time>
      </trkpt>
      <trkpt lat="47.342" lon="-2.33282">
        <ele>6.4000000953674</ele>
        <time>2022-01-20T09:45:30.000Z</time>
      </trkpt>
      <trkpt lat="47.34197" lon="-2.33289">
        <ele>7</ele>
        <time>2022-01-20T09:45:31.000Z</time>
      </trkpt>
      <trkpt lat="47.34195" lon="-2.33297">
        <ele>7.4000000953674</ele>
        <time>2022-01-20T09:45:32.000Z</time>
      </trkpt>
      <trkpt lat="47.34193" lon="-2.33305">
        <ele>7.8000001907349</ele>
        <time>2022-01-20T09:45:33.000Z</time>
      </trkpt>
      <trkpt lat="47.34187" lon="-2.33326">
        <ele>7.8000001907349</ele>
        <time>2022-01-20T09:45:36.000Z</time>
      </trkpt>
      <trkpt lat="47.34177" lon="-2.33358">
        <ele>7.8000001907349</ele>
        <time>2022-01-20T09:45:42.000Z</time>
      </trkpt>
      <trkpt lat="47.34171" lon="-2.33376">
        <ele>7.8000001907349</ele>
        <time>2022-01-20T09:45:47.000Z</time>
      </trkpt>
      <trkpt lat="47.34158" lon="-2.33402">
        <ele>7.8000001907349</ele>
        <time>2022-01-20T09:45:53.000Z</time>
      </trkpt>
      <trkpt lat="47.3414" lon="-2.33425">
        <ele>7.8000001907349</ele>
        <time>2022-01-20T09:46:00.000Z</time>
      </trkpt>
      <trkpt lat="47.3413" lon="-2.33441">
        <ele>8.1999998092651</ele>
        <time>2022-01-20T09:46:05.000Z</time>
      </trkpt>
      <trkpt lat="47.34128" lon="-2.33444">
        <ele>8.6000003814697</ele>
        <time>2022-01-20T09:46:06.000Z</time>
      </trkpt>
      <trkpt lat="47.34126" lon="-2.33447">
        <ele>9</ele>
        <time>2022-01-20T09:46:07.000Z</time>
      </trkpt>
      <trkpt lat="47.34125" lon="-2.33449">
        <ele>9.3999996185303</ele>
        <time>2022-01-20T09:46:08.000Z</time>
      </trkpt>
      <trkpt lat="47.34124" lon="-2.33451">
        <ele>9.8000001907349</ele>
        <time>2022-01-20T09:46:09.000Z</time>
      </trkpt>
      <trkpt lat="47.34121" lon="-2.33456">
        <ele>9.8000001907349</ele>
        <time>2022-01-20T09:46:11.000Z</time>
      </trkpt>
      <trkpt lat="47.34112" lon="-2.33473">
        <ele>9.8000001907349</ele>
        <time>2022-01-20T09:46:16.000Z</time>
      </trkpt>
      <trkpt lat="47.34101" lon="-2.33488">
        <ele>9.8000001907349</ele>
        <time>2022-01-20T09:46:20.000Z</time>
      </trkpt>
      <trkpt lat="47.34083" lon="-2.33515">
        <ele>9.8000001907349</ele>
        <time>2022-01-20T09:46:26.000Z</time>
      </trkpt>
      <trkpt lat="47.34068" lon="-2.33543">
        <ele>9.8000001907349</ele>
        <time>2022-01-20T09:46:32.000Z</time>
      </trkpt>
      <trkpt lat="47.34054" lon="-2.33566">
        <ele>9.8000001907349</ele>
        <time>2022-01-20T09:46:37.000Z</time>
      </trkpt>
      <trkpt lat="47.34049" lon="-2.33576">
        <ele>10.199999809265</ele>
        <time>2022-01-20T09:46:39.000Z</time>
      </trkpt>
      <trkpt lat="47.34046" lon="-2.33581">
        <ele>10.60000038147</ele>
        <time>2022-01-20T09:46:40.000Z</time>
      </trkpt>
      <trkpt lat="47.34043" lon="-2.33587">
        <ele>11</ele>
        <time>2022-01-20T09:46:41.000Z</time>
      </trkpt>
      <trkpt lat="47.34039" lon="-2.33593">
        <ele>11.800000190735</ele>
        <time>2022-01-20T09:46:42.000Z</time>
      </trkpt>
      <trkpt lat="47.34036" lon="-2.33598">
        <ele>11.800000190735</ele>
        <time>2022-01-20T09:46:43.000Z</time>
      </trkpt>
      <trkpt lat="47.34025" lon="-2.3362">
        <ele>11.800000190735</ele>
        <time>2022-01-20T09:46:47.000Z</time>
      </trkpt>
      <trkpt lat="47.34018" lon="-2.33631">
        <ele>11.800000190735</ele>
        <time>2022-01-20T09:46:49.000Z</time>
      </trkpt>
      <trkpt lat="47.34" lon="-2.33666">
        <ele>11.800000190735</ele>
        <time>2022-01-20T09:46:55.000Z</time>
      </trkpt>
      <trkpt lat="47.33976" lon="-2.33701">
        <ele>11.800000190735</ele>
        <time>2022-01-20T09:47:02.000Z</time>
      </trkpt>
      <trkpt lat="47.33961" lon="-2.33725">
        <ele>12.199999809265</ele>
        <time>2022-01-20T09:47:07.000Z</time>
      </trkpt>
      <trkpt lat="47.33958" lon="-2.33729">
        <ele>12.60000038147</ele>
        <time>2022-01-20T09:47:08.000Z</time>
      </trkpt>
      <trkpt lat="47.33955" lon="-2.33733">
        <ele>13</ele>
        <time>2022-01-20T09:47:09.000Z</time>
      </trkpt>
      <trkpt lat="47.3395" lon="-2.33742">
        <ele>13.39999961853</ele>
        <time>2022-01-20T09:47:10.000Z</time>
      </trkpt>
      <trkpt lat="47.33946" lon="-2.33751">
        <ele>13.800000190735</ele>
        <time>2022-01-20T09:47:11.000Z</time>
      </trkpt>
      <trkpt lat="47.33932" lon="-2.33779">
        <ele>13.800000190735</ele>
        <time>2022-01-20T09:47:15.000Z</time>
      </trkpt>
      <trkpt lat="47.33914" lon="-2.33814">
        <ele>13.800000190735</ele>
        <time>2022-01-20T09:47:21.000Z</time>
      </trkpt>
      <trkpt lat="47.33897" lon="-2.33843">
        <ele>13.800000190735</ele>
        <time>2022-01-20T09:47:27.000Z</time>
      </trkpt>
      <trkpt lat="47.33881" lon="-2.33866">
        <ele>13.800000190735</ele>
        <time>2022-01-20T09:47:33.000Z</time>
      </trkpt>
      <trkpt lat="47.33874" lon="-2.33876">
        <ele>14.199999809265</ele>
        <time>2022-01-20T09:47:36.000Z</time>
      </trkpt>
      <trkpt lat="47.33871" lon="-2.3388">
        <ele>14.60000038147</ele>
        <time>2022-01-20T09:47:37.000Z</time>
      </trkpt>
      <trkpt lat="47.33868" lon="-2.33885">
        <ele>15.199999809265</ele>
        <time>2022-01-20T09:47:38.000Z</time>
      </trkpt>
      <trkpt lat="47.33864" lon="-2.33889">
        <ele>15.60000038147</ele>
        <time>2022-01-20T09:47:39.000Z</time>
      </trkpt>
      <trkpt lat="47.33859" lon="-2.33893">
        <ele>16</ele>
        <time>2022-01-20T09:47:40.000Z</time>
      </trkpt>
      <trkpt lat="47.33845" lon="-2.33904">
        <ele>16</ele>
        <time>2022-01-20T09:47:43.000Z</time>
      </trkpt>
      <trkpt lat="47.33804" lon="-2.33936">
        <ele>16</ele>
        <time>2022-01-20T09:47:51.000Z</time>
      </trkpt>
      <trkpt lat="47.33779" lon="-2.33955">
        <ele>16</ele>
        <time>2022-01-20T09:47:56.000Z</time>
      </trkpt>
      <trkpt lat="47.33744" lon="-2.33985">
        <ele>16</ele>
        <time>2022-01-20T09:48:03.000Z</time>
      </trkpt>
      <trkpt lat="47.33715" lon="-2.34009">
        <ele>16.39999961853</ele>
        <time>2022-01-20T09:48:09.000Z</time>
      </trkpt>
      <trkpt lat="47.3371" lon="-2.34013">
        <ele>16.799999237061</ele>
        <time>2022-01-20T09:48:10.000Z</time>
      </trkpt>
      <trkpt lat="47.33706" lon="-2.34016">
        <ele>17.200000762939</ele>
        <time>2022-01-20T09:48:11.000Z</time>
      </trkpt>
      <trkpt lat="47.33701" lon="-2.3402">
        <ele>17.60000038147</ele>
        <time>2022-01-20T09:48:12.000Z</time>
      </trkpt>
      <trkpt lat="47.33697" lon="-2.34023">
        <ele>18</ele>
        <time>2022-01-20T09:48:13.000Z</time>
      </trkpt>
      <trkpt lat="47.33685" lon="-2.34035">
        <ele>18</ele>
        <time>2022-01-20T09:48:16.000Z</time>
      </trkpt>
      <trkpt lat="47.33652" lon="-2.34062">
        <ele>18</ele>
        <time>2022-01-20T09:48:23.000Z</time>
      </trkpt>
      <trkpt lat="47.33628" lon="-2.34086">
        <ele>18</ele>
        <time>2022-01-20T09:48:29.000Z</time>
      </trkpt>
      <trkpt lat="47.33602" lon="-2.34106">
        <ele>18.39999961853</ele>
        <time>2022-01-20T09:48:34.000Z</time>
      </trkpt>
      <trkpt lat="47.33597" lon="-2.3411">
        <ele>18.799999237061</ele>
        <time>2022-01-20T09:48:35.000Z</time>
      </trkpt>
      <trkpt lat="47.33591" lon="-2.34114">
        <ele>19.200000762939</ele>
        <time>2022-01-20T09:48:36.000Z</time>
      </trkpt>
      <trkpt lat="47.33585" lon="-2.34118">
        <ele>19.60000038147</ele>
        <time>2022-01-20T09:48:37.000Z</time>
      </trkpt>
      <trkpt lat="47.33579" lon="-2.34123">
        <ele>20</ele>
        <time>2022-01-20T09:48:38.000Z</time>
      </trkpt>
      <trkpt lat="47.33554" lon="-2.34142">
        <ele>20</ele>
        <time>2022-01-20T09:48:42.000Z</time>
      </trkpt>
      <trkpt lat="47.335" lon="-2.3418">
        <ele>20</ele>
        <time>2022-01-20T09:48:51.000Z</time>
      </trkpt>
      <trkpt lat="47.33461" lon="-2.34215">
        <ele>20</ele>
        <time>2022-01-20T09:48:58.000Z</time>
      </trkpt>
      <trkpt lat="47.33453" lon="-2.34227">
        <ele>20</ele>
        <time>2022-01-20T09:49:00.000Z</time>
      </trkpt>
      <trkpt lat="47.33441" lon="-2.34246">
        <ele>20</ele>
        <time>2022-01-20T09:49:03.000Z</time>
      </trkpt>
      <trkpt lat="47.33434" lon="-2.34261">
        <ele>20</ele>
        <time>2022-01-20T09:49:05.000Z</time>
      </trkpt>
      <trkpt lat="47.33426" lon="-2.34283">
        <ele>20</ele>
        <time>2022-01-20T09:49:08.000Z</time>
      </trkpt>
      <trkpt lat="47.33421" lon="-2.34298">
        <ele>20.39999961853</ele>
        <time>2022-01-20T09:49:10.000Z</time>
      </trkpt>
      <trkpt lat="47.33418" lon="-2.34306">
        <ele>20.799999237061</ele>
        <time>2022-01-20T09:49:11.000Z</time>
      </trkpt>
      <trkpt lat="47.33416" lon="-2.34314">
        <ele>21.200000762939</ele>
        <time>2022-01-20T09:49:12.000Z</time>
      </trkpt>
      <trkpt lat="47.33413" lon="-2.34322">
        <ele>21.60000038147</ele>
        <time>2022-01-20T09:49:13.000Z</time>
      </trkpt>
      <trkpt lat="47.3341" lon="-2.3433">
        <ele>22</ele>
        <time>2022-01-20T09:49:14.000Z</time>
      </trkpt>
      <trkpt lat="47.33407" lon="-2.34338">
        <ele>22</ele>
        <time>2022-01-20T09:49:15.000Z</time>
      </trkpt>
      <trkpt lat="47.33387" lon="-2.34394">
        <ele>22</ele>
        <time>2022-01-20T09:49:22.000Z</time>
      </trkpt>
      <trkpt lat="47.33367" lon="-2.34452">
        <ele>22</ele>
        <time>2022-01-20T09:49:30.000Z</time>
      </trkpt>
      <trkpt lat="47.33354" lon="-2.3449">
        <ele>22</ele>
        <time>2022-01-20T09:49:35.000Z</time>
      </trkpt>
      <trkpt lat="47.33351" lon="-2.34496">
        <ele>22</ele>
        <time>2022-01-20T09:49:36.000Z</time>
      </trkpt>
      <trkpt lat="47.33344" lon="-2.34512">
        <ele>22</ele>
        <time>2022-01-20T09:49:39.000Z</time>
      </trkpt>
      <trkpt lat="47.3334" lon="-2.34522">
        <ele>22</ele>
        <time>2022-01-20T09:49:41.000Z</time>
      </trkpt>
      <trkpt lat="47.33338" lon="-2.34532">
        <ele>22</ele>
        <time>2022-01-20T09:49:45.000Z</time>
      </trkpt>
      <trkpt lat="47.33337" lon="-2.34538">
        <ele>22</ele>
        <time>2022-01-20T09:49:52.000Z</time>
      </trkpt>
      <trkpt lat="47.33337" lon="-2.34538">
        <ele>22</ele>
        <time>2022-01-20T09:49:53.000Z</time>
      </trkpt>
      <trkpt lat="47.33335" lon="-2.34543">
        <ele>22</ele>
        <time>2022-01-20T09:50:12.000Z</time>
      </trkpt>
      <trkpt lat="47.33332" lon="-2.3455">
        <ele>22</ele>
        <time>2022-01-20T09:50:15.000Z</time>
      </trkpt>
      <trkpt lat="47.33331" lon="-2.34552">
        <ele>21.60000038147</ele>
        <time>2022-01-20T09:50:16.000Z</time>
      </trkpt>
      <trkpt lat="47.3333" lon="-2.34555">
        <ele>21.200000762939</ele>
        <time>2022-01-20T09:50:17.000Z</time>
      </trkpt>
      <trkpt lat="47.3333" lon="-2.34558">
        <ele>20.799999237061</ele>
        <time>2022-01-20T09:50:18.000Z</time>
      </trkpt>
      <trkpt lat="47.3333" lon="-2.34561">
        <ele>20.39999961853</ele>
        <time>2022-01-20T09:50:19.000Z</time>
      </trkpt>
      <trkpt lat="47.33329" lon="-2.34564">
        <ele>20</ele>
        <time>2022-01-20T09:50:20.000Z</time>
      </trkpt>
      <trkpt lat="47.33324" lon="-2.3458">
        <ele>20</ele>
        <time>2022-01-20T09:50:26.000Z</time>
      </trkpt>
      <trkpt lat="47.33317" lon="-2.34602">
        <ele>20</ele>
        <time>2022-01-20T09:50:31.000Z</time>
      </trkpt>
      <trkpt lat="47.33307" lon="-2.34629">
        <ele>20</ele>
        <time>2022-01-20T09:50:37.000Z</time>
      </trkpt>
      <trkpt lat="47.33299" lon="-2.34648">
        <ele>20</ele>
        <time>2022-01-20T09:50:42.000Z</time>
      </trkpt>
      <trkpt lat="47.33294" lon="-2.34662">
        <ele>20</ele>
        <time>2022-01-20T09:50:47.000Z</time>
      </trkpt>
      <trkpt lat="47.33286" lon="-2.34684">
        <ele>20</ele>
        <time>2022-01-20T09:50:53.000Z</time>
      </trkpt>
      <trkpt lat="47.33276" lon="-2.34709">
        <ele>20</ele>
        <time>2022-01-20T09:50:59.000Z</time>
      </trkpt>
      <trkpt lat="47.33262" lon="-2.34748">
        <ele>20</ele>
        <time>2022-01-20T09:51:06.000Z</time>
      </trkpt>
      <trkpt lat="47.33251" lon="-2.3478">
        <ele>20</ele>
        <time>2022-01-20T09:51:12.000Z</time>
      </trkpt>
      <trkpt lat="47.33241" lon="-2.34807">
        <ele>20</ele>
        <time>2022-01-20T09:51:19.000Z</time>
      </trkpt>
      <trkpt lat="47.33233" lon="-2.34826">
        <ele>20.39999961853</ele>
        <time>2022-01-20T09:51:24.000Z</time>
      </trkpt>
      <trkpt lat="47.33231" lon="-2.3483">
        <ele>20.799999237061</ele>
        <time>2022-01-20T09:51:25.000Z</time>
      </trkpt>
      <trkpt lat="47.33228" lon="-2.34833">
        <ele>21.200000762939</ele>
        <time>2022-01-20T09:51:26.000Z</time>
      </trkpt>
      <trkpt lat="47.33227" lon="-2.34837">
        <ele>21.60000038147</ele>
        <time>2022-01-20T09:51:27.000Z</time>
      </trkpt>
      <trkpt lat="47.33226" lon="-2.34841">
        <ele>22</ele>
        <time>2022-01-20T09:51:28.000Z</time>
      </trkpt>
      <trkpt lat="47.33222" lon="-2.3485">
        <ele>22</ele>
        <time>2022-01-20T09:51:31.000Z</time>
      </trkpt>
      <trkpt lat="47.33218" lon="-2.34862">
        <ele>22</ele>
        <time>2022-01-20T09:51:36.000Z</time>
      </trkpt>
      <trkpt lat="47.33212" lon="-2.34877">
        <ele>22</ele>
        <time>2022-01-20T09:51:42.000Z</time>
      </trkpt>
      <trkpt lat="47.33203" lon="-2.34896">
        <ele>22</ele>
        <time>2022-01-20T09:51:48.000Z</time>
      </trkpt>
      <trkpt lat="47.33192" lon="-2.34923">
        <ele>22</ele>
        <time>2022-01-20T09:51:55.000Z</time>
      </trkpt>
      <trkpt lat="47.33183" lon="-2.34943">
        <ele>22.39999961853</ele>
        <time>2022-01-20T09:52:00.000Z</time>
      </trkpt>
      <trkpt lat="47.33181" lon="-2.34947">
        <ele>22.799999237061</ele>
        <time>2022-01-20T09:52:01.000Z</time>
      </trkpt>
      <trkpt lat="47.33179" lon="-2.34951">
        <ele>23.200000762939</ele>
        <time>2022-01-20T09:52:02.000Z</time>
      </trkpt>
      <trkpt lat="47.33178" lon="-2.34955">
        <ele>24.200000762939</ele>
        <time>2022-01-20T09:52:03.000Z</time>
      </trkpt>
      <trkpt lat="47.33168" lon="-2.34975">
        <ele>24.200000762939</ele>
        <time>2022-01-20T09:52:08.000Z</time>
      </trkpt>
      <trkpt lat="47.33165" lon="-2.34979">
        <ele>24.200000762939</ele>
        <time>2022-01-20T09:52:09.000Z</time>
      </trkpt>
      <trkpt lat="47.33158" lon="-2.34993">
        <ele>24.200000762939</ele>
        <time>2022-01-20T09:52:12.000Z</time>
      </trkpt>
      <trkpt lat="47.33155" lon="-2.34998">
        <ele>24.200000762939</ele>
        <time>2022-01-20T09:52:13.000Z</time>
      </trkpt>
      <trkpt lat="47.33141" lon="-2.35022">
        <ele>24.200000762939</ele>
        <time>2022-01-20T09:52:19.000Z</time>
      </trkpt>
      <trkpt lat="47.33125" lon="-2.35045">
        <ele>24.200000762939</ele>
        <time>2022-01-20T09:52:25.000Z</time>
      </trkpt>
      <trkpt lat="47.33117" lon="-2.35055">
        <ele>25</ele>
        <time>2022-01-20T09:52:28.000Z</time>
      </trkpt>
      <trkpt lat="47.33115" lon="-2.35058">
        <ele>25.39999961853</ele>
        <time>2022-01-20T09:52:29.000Z</time>
      </trkpt>
      <trkpt lat="47.33112" lon="-2.35062">
        <ele>25.799999237061</ele>
        <time>2022-01-20T09:52:30.000Z</time>
      </trkpt>
      <trkpt lat="47.3311" lon="-2.35065">
        <ele>26.200000762939</ele>
        <time>2022-01-20T09:52:31.000Z</time>
      </trkpt>
      <trkpt lat="47.33108" lon="-2.35069">
        <ele>26.200000762939</ele>
        <time>2022-01-20T09:52:32.000Z</time>
      </trkpt>
      <trkpt lat="47.33091" lon="-2.35093">
        <ele>26.200000762939</ele>
        <time>2022-01-20T09:52:38.000Z</time>
      </trkpt>
      <trkpt lat="47.3308" lon="-2.3511">
        <ele>26.200000762939</ele>
        <time>2022-01-20T09:52:42.000Z</time>
      </trkpt>
      <trkpt lat="47.33065" lon="-2.35132">
        <ele>26.200000762939</ele>
        <time>2022-01-20T09:52:48.000Z</time>
      </trkpt>
      <trkpt lat="47.33055" lon="-2.35151">
        <ele>26.200000762939</ele>
        <time>2022-01-20T09:52:52.000Z</time>
      </trkpt>
      <trkpt lat="47.33049" lon="-2.35168">
        <ele>26.200000762939</ele>
        <time>2022-01-20T09:52:55.000Z</time>
      </trkpt>
      <trkpt lat="47.33043" lon="-2.35177">
        <ele>26.200000762939</ele>
        <time>2022-01-20T09:52:57.000Z</time>
      </trkpt>
      <trkpt lat="47.33032" lon="-2.352">
        <ele>26.60000038147</ele>
        <time>2022-01-20T09:53:02.000Z</time>
      </trkpt>
      <trkpt lat="47.3303" lon="-2.35205">
        <ele>27</ele>
        <time>2022-01-20T09:53:03.000Z</time>
      </trkpt>
      <trkpt lat="47.33028" lon="-2.35209">
        <ele>27.39999961853</ele>
        <time>2022-01-20T09:53:04.000Z</time>
      </trkpt>
      <trkpt lat="47.33026" lon="-2.35213">
        <ele>27.799999237061</ele>
        <time>2022-01-20T09:53:05.000Z</time>
      </trkpt>
      <trkpt lat="47.33024" lon="-2.35217">
        <ele>28.200000762939</ele>
        <time>2022-01-20T09:53:06.000Z</time>
      </trkpt>
      <trkpt lat="47.33024" lon="-2.35221">
        <ele>28.200000762939</ele>
        <time>2022-01-20T09:53:07.000Z</time>
      </trkpt>
      <trkpt lat="47.33025" lon="-2.35237">
        <ele>28.200000762939</ele>
        <time>2022-01-20T09:53:11.000Z</time>
      </trkpt>
      <trkpt lat="47.33022" lon="-2.35264">
        <ele>28.200000762939</ele>
        <time>2022-01-20T09:53:16.000Z</time>
      </trkpt>
      <trkpt lat="47.33021" lon="-2.35294">
        <ele>28.200000762939</ele>
        <time>2022-01-20T09:53:22.000Z</time>
      </trkpt>
      <trkpt lat="47.33022" lon="-2.35325">
        <ele>28.200000762939</ele>
        <time>2022-01-20T09:53:28.000Z</time>
      </trkpt>
      <trkpt lat="47.33024" lon="-2.35353">
        <ele>28.200000762939</ele>
        <time>2022-01-20T09:53:32.000Z</time>
      </trkpt>
      <trkpt lat="47.33026" lon="-2.35371">
        <ele>28.200000762939</ele>
        <time>2022-01-20T09:53:34.000Z</time>
      </trkpt>
      <trkpt lat="47.33028" lon="-2.35398">
        <ele>28.200000762939</ele>
        <time>2022-01-20T09:53:37.000Z</time>
      </trkpt>
      <trkpt lat="47.33028" lon="-2.35406">
        <ele>28.200000762939</ele>
        <time>2022-01-20T09:53:38.000Z</time>
      </trkpt>
      <trkpt lat="47.33028" lon="-2.35421">
        <ele>28.200000762939</ele>
        <time>2022-01-20T09:53:40.000Z</time>
      </trkpt>
      <trkpt lat="47.3303" lon="-2.35437">
        <ele>27.799999237061</ele>
        <time>2022-01-20T09:53:42.000Z</time>
      </trkpt>
      <trkpt lat="47.3303" lon="-2.35446">
        <ele>27.39999961853</ele>
        <time>2022-01-20T09:53:43.000Z</time>
      </trkpt>
      <trkpt lat="47.3303" lon="-2.35454">
        <ele>26.799999237061</ele>
        <time>2022-01-20T09:53:44.000Z</time>
      </trkpt>
      <trkpt lat="47.33029" lon="-2.35462">
        <ele>26.39999961853</ele>
        <time>2022-01-20T09:53:45.000Z</time>
      </trkpt>
      <trkpt lat="47.33029" lon="-2.35469">
        <ele>26</ele>
        <time>2022-01-20T09:53:46.000Z</time>
      </trkpt>
      <trkpt lat="47.33029" lon="-2.35476">
        <ele>26</ele>
        <time>2022-01-20T09:53:47.000Z</time>
      </trkpt>
      <trkpt lat="47.33027" lon="-2.35516">
        <ele>26</ele>
        <time>2022-01-20T09:53:53.000Z</time>
      </trkpt>
      <trkpt lat="47.33026" lon="-2.35558">
        <ele>26</ele>
        <time>2022-01-20T09:53:59.000Z</time>
      </trkpt>
      <trkpt lat="47.33026" lon="-2.35565">
        <ele>26</ele>
        <time>2022-01-20T09:54:00.000Z</time>
      </trkpt>
      <trkpt lat="47.33025" lon="-2.35573">
        <ele>25.60000038147</ele>
        <time>2022-01-20T09:54:01.000Z</time>
      </trkpt>
      <trkpt lat="47.33024" lon="-2.3558">
        <ele>25</ele>
        <time>2022-01-20T09:54:02.000Z</time>
      </trkpt>
      <trkpt lat="47.33024" lon="-2.35587">
        <ele>24.60000038147</ele>
        <time>2022-01-20T09:54:03.000Z</time>
      </trkpt>
      <trkpt lat="47.33023" lon="-2.35594">
        <ele>24.200000762939</ele>
        <time>2022-01-20T09:54:04.000Z</time>
      </trkpt>
      <trkpt lat="47.33023" lon="-2.35602">
        <ele>23.799999237061</ele>
        <time>2022-01-20T09:54:05.000Z</time>
      </trkpt>
      <trkpt lat="47.33021" lon="-2.35615">
        <ele>23.799999237061</ele>
        <time>2022-01-20T09:54:07.000Z</time>
      </trkpt>
      <trkpt lat="47.33022" lon="-2.35633">
        <ele>23.39999961853</ele>
        <time>2022-01-20T09:54:10.000Z</time>
      </trkpt>
      <trkpt lat="47.33022" lon="-2.35637">
        <ele>23</ele>
        <time>2022-01-20T09:54:11.000Z</time>
      </trkpt>
      <trkpt lat="47.33021" lon="-2.35641">
        <ele>22.39999961853</ele>
        <time>2022-01-20T09:54:12.000Z</time>
      </trkpt>
      <trkpt lat="47.33021" lon="-2.35644">
        <ele>22</ele>
        <time>2022-01-20T09:54:13.000Z</time>
      </trkpt>
      <trkpt lat="47.3302" lon="-2.35648">
        <ele>21.60000038147</ele>
        <time>2022-01-20T09:54:14.000Z</time>
      </trkpt>
      <trkpt lat="47.3302" lon="-2.35652">
        <ele>21.60000038147</ele>
        <time>2022-01-20T09:54:15.000Z</time>
      </trkpt>
      <trkpt lat="47.33017" lon="-2.35677">
        <ele>21.60000038147</ele>
        <time>2022-01-20T09:54:20.000Z</time>
      </trkpt>
      <trkpt lat="47.33011" lon="-2.35709">
        <ele>21.60000038147</ele>
        <time>2022-01-20T09:54:25.000Z</time>
      </trkpt>
      <trkpt lat="47.3301" lon="-2.35716">
        <ele>21.60000038147</ele>
        <time>2022-01-20T09:54:26.000Z</time>
      </trkpt>
      <trkpt lat="47.3301" lon="-2.35744">
        <ele>21.60000038147</ele>
        <time>2022-01-20T09:54:30.000Z</time>
      </trkpt>
      <trkpt lat="47.33012" lon="-2.35756">
        <ele>21.60000038147</ele>
        <time>2022-01-20T09:54:32.000Z</time>
      </trkpt>
      <trkpt lat="47.33016" lon="-2.35767">
        <ele>21.60000038147</ele>
        <time>2022-01-20T09:54:34.000Z</time>
      </trkpt>
      <trkpt lat="47.33021" lon="-2.35779">
        <ele>21.60000038147</ele>
        <time>2022-01-20T09:54:36.000Z</time>
      </trkpt>
      <trkpt lat="47.33024" lon="-2.35784">
        <ele>21.60000038147</ele>
        <time>2022-01-20T09:54:37.000Z</time>
      </trkpt>
      <trkpt lat="47.33039" lon="-2.35795">
        <ele>21.60000038147</ele>
        <time>2022-01-20T09:54:41.000Z</time>
      </trkpt>
      <trkpt lat="47.33052" lon="-2.35799">
        <ele>21.60000038147</ele>
        <time>2022-01-20T09:54:44.000Z</time>
      </trkpt>
      <trkpt lat="47.33065" lon="-2.35801">
        <ele>22</ele>
        <time>2022-01-20T09:54:47.000Z</time>
      </trkpt>
      <trkpt lat="47.3307" lon="-2.35801">
        <ele>22.39999961853</ele>
        <time>2022-01-20T09:54:48.000Z</time>
      </trkpt>
      <trkpt lat="47.33075" lon="-2.35802">
        <ele>22.799999237061</ele>
        <time>2022-01-20T09:54:49.000Z</time>
      </trkpt>
      <trkpt lat="47.33079" lon="-2.35802">
        <ele>23.200000762939</ele>
        <time>2022-01-20T09:54:50.000Z</time>
      </trkpt>
      <trkpt lat="47.33084" lon="-2.35803">
        <ele>23.60000038147</ele>
        <time>2022-01-20T09:54:51.000Z</time>
      </trkpt>
      <trkpt lat="47.33088" lon="-2.35803">
        <ele>23.60000038147</ele>
        <time>2022-01-20T09:54:52.000Z</time>
      </trkpt>
      <trkpt lat="47.33092" lon="-2.35802">
        <ele>23.60000038147</ele>
        <time>2022-01-20T09:54:53.000Z</time>
      </trkpt>
      <trkpt lat="47.33114" lon="-2.35803">
        <ele>23.60000038147</ele>
        <time>2022-01-20T09:54:58.000Z</time>
      </trkpt>
      <trkpt lat="47.33143" lon="-2.35805">
        <ele>24</ele>
        <time>2022-01-20T09:55:04.000Z</time>
      </trkpt>
      <trkpt lat="47.33147" lon="-2.35805">
        <ele>24.39999961853</ele>
        <time>2022-01-20T09:55:05.000Z</time>
      </trkpt>
      <trkpt lat="47.33151" lon="-2.35806">
        <ele>24.799999237061</ele>
        <time>2022-01-20T09:55:06.000Z</time>
      </trkpt>
      <trkpt lat="47.33156" lon="-2.35807">
        <ele>25.39999961853</ele>
        <time>2022-01-20T09:55:07.000Z</time>
      </trkpt>
      <trkpt lat="47.3316" lon="-2.35807">
        <ele>25.799999237061</ele>
        <time>2022-01-20T09:55:08.000Z</time>
      </trkpt>
      <trkpt lat="47.33174" lon="-2.3581">
        <ele>25.799999237061</ele>
        <time>2022-01-20T09:55:11.000Z</time>
      </trkpt>
      <trkpt lat="47.33207" lon="-2.35817">
        <ele>25.799999237061</ele>
        <time>2022-01-20T09:55:18.000Z</time>
      </trkpt>
      <trkpt lat="47.33211" lon="-2.35818">
        <ele>25.799999237061</ele>
        <time>2022-01-20T09:55:19.000Z</time>
      </trkpt>
      <trkpt lat="47.33237" lon="-2.35831">
        <ele>25.799999237061</ele>
        <time>2022-01-20T09:55:25.000Z</time>
      </trkpt>
      <trkpt lat="47.3324" lon="-2.35834">
        <ele>26.200000762939</ele>
        <time>2022-01-20T09:55:26.000Z</time>
      </trkpt>
      <trkpt lat="47.33244" lon="-2.35837">
        <ele>26.60000038147</ele>
        <time>2022-01-20T09:55:27.000Z</time>
      </trkpt>
      <trkpt lat="47.33247" lon="-2.35841">
        <ele>27</ele>
        <time>2022-01-20T09:55:28.000Z</time>
      </trkpt>
      <trkpt lat="47.33251" lon="-2.35844">
        <ele>27.39999961853</ele>
        <time>2022-01-20T09:55:29.000Z</time>
      </trkpt>
      <trkpt lat="47.33254" lon="-2.35847">
        <ele>28</ele>
        <time>2022-01-20T09:55:30.000Z</time>
      </trkpt>
      <trkpt lat="47.33257" lon="-2.3585">
        <ele>28</ele>
        <time>2022-01-20T09:55:31.000Z</time>
      </trkpt>
      <trkpt lat="47.33264" lon="-2.35856">
        <ele>28.39999961853</ele>
        <time>2022-01-20T09:55:33.000Z</time>
      </trkpt>
      <trkpt lat="47.33267" lon="-2.3586">
        <ele>28.799999237061</ele>
        <time>2022-01-20T09:55:34.000Z</time>
      </trkpt>
      <trkpt lat="47.3327" lon="-2.35864">
        <ele>29.200000762939</ele>
        <time>2022-01-20T09:55:35.000Z</time>
      </trkpt>
      <trkpt lat="47.33273" lon="-2.35868">
        <ele>29.60000038147</ele>
        <time>2022-01-20T09:55:36.000Z</time>
      </trkpt>
      <trkpt lat="47.33277" lon="-2.35872">
        <ele>30</ele>
        <time>2022-01-20T09:55:37.000Z</time>
      </trkpt>
      <trkpt lat="47.3328" lon="-2.35875">
        <ele>30</ele>
        <time>2022-01-20T09:55:38.000Z</time>
      </trkpt>
      <trkpt lat="47.33298" lon="-2.35887">
        <ele>30.39999961853</ele>
        <time>2022-01-20T09:55:43.000Z</time>
      </trkpt>
      <trkpt lat="47.33302" lon="-2.35889">
        <ele>31</ele>
        <time>2022-01-20T09:55:44.000Z</time>
      </trkpt>
      <trkpt lat="47.33305" lon="-2.35892">
        <ele>31.39999961853</ele>
        <time>2022-01-20T09:55:45.000Z</time>
      </trkpt>
      <trkpt lat="47.33307" lon="-2.35895">
        <ele>32.200000762939</ele>
        <time>2022-01-20T09:55:46.000Z</time>
      </trkpt>
      <trkpt lat="47.33312" lon="-2.35905">
        <ele>32.200000762939</ele>
        <time>2022-01-20T09:55:48.000Z</time>
      </trkpt>
      <trkpt lat="47.33321" lon="-2.35934">
        <ele>32.200000762939</ele>
        <time>2022-01-20T09:55:53.000Z</time>
      </trkpt>
      <trkpt lat="47.33322" lon="-2.3594">
        <ele>32.200000762939</ele>
        <time>2022-01-20T09:55:54.000Z</time>
      </trkpt>
      <trkpt lat="47.33323" lon="-2.3596">
        <ele>32.200000762939</ele>
        <time>2022-01-20T09:55:57.000Z</time>
      </trkpt>
      <trkpt lat="47.3332" lon="-2.35979">
        <ele>32.200000762939</ele>
        <time>2022-01-20T09:56:00.000Z</time>
      </trkpt>
      <trkpt lat="47.33317" lon="-2.35991">
        <ele>32.200000762939</ele>
        <time>2022-01-20T09:56:02.000Z</time>
      </trkpt>
      <trkpt lat="47.33313" lon="-2.3603">
        <ele>32.200000762939</ele>
        <time>2022-01-20T09:56:08.000Z</time>
      </trkpt>
      <trkpt lat="47.3331" lon="-2.36073">
        <ele>32.599998474121</ele>
        <time>2022-01-20T09:56:14.000Z</time>
      </trkpt>
      <trkpt lat="47.3331" lon="-2.3608">
        <ele>33</ele>
        <time>2022-01-20T09:56:15.000Z</time>
      </trkpt>
      <trkpt lat="47.3331" lon="-2.36087">
        <ele>33.400001525879</ele>
        <time>2022-01-20T09:56:16.000Z</time>
      </trkpt>
      <trkpt lat="47.33309" lon="-2.36094">
        <ele>33.799999237061</ele>
        <time>2022-01-20T09:56:17.000Z</time>
      </trkpt>
      <trkpt lat="47.33309" lon="-2.36101">
        <ele>34.200000762939</ele>
        <time>2022-01-20T09:56:18.000Z</time>
      </trkpt>
      <trkpt lat="47.33309" lon="-2.36124">
        <ele>34.200000762939</ele>
        <time>2022-01-20T09:56:21.000Z</time>
      </trkpt>
      <trkpt lat="47.33309" lon="-2.36163">
        <ele>34.200000762939</ele>
        <time>2022-01-20T09:56:26.000Z</time>
      </trkpt>
      <trkpt lat="47.33309" lon="-2.3617">
        <ele>34.200000762939</ele>
        <time>2022-01-20T09:56:27.000Z</time>
      </trkpt>
      <trkpt lat="47.3331" lon="-2.36177">
        <ele>34.200000762939</ele>
        <time>2022-01-20T09:56:28.000Z</time>
      </trkpt>
      <trkpt lat="47.33309" lon="-2.36197">
        <ele>34.200000762939</ele>
        <time>2022-01-20T09:56:31.000Z</time>
      </trkpt>
      <trkpt lat="47.3331" lon="-2.36211">
        <ele>34.200000762939</ele>
        <time>2022-01-20T09:56:33.000Z</time>
      </trkpt>
      <trkpt lat="47.33318" lon="-2.36217">
        <ele>34.200000762939</ele>
        <time>2022-01-20T09:56:36.000Z</time>
      </trkpt>
      <trkpt lat="47.33326" lon="-2.36211">
        <ele>34.200000762939</ele>
        <time>2022-01-20T09:56:38.000Z</time>
      </trkpt>
      <trkpt lat="47.33333" lon="-2.36206">
        <ele>34.200000762939</ele>
        <time>2022-01-20T09:56:40.000Z</time>
      </trkpt>
      <trkpt lat="47.33349" lon="-2.36195">
        <ele>34.200000762939</ele>
        <time>2022-01-20T09:56:44.000Z</time>
      </trkpt>
      <trkpt lat="47.33362" lon="-2.36187">
        <ele>34.200000762939</ele>
        <time>2022-01-20T09:56:47.000Z</time>
      </trkpt>
      <trkpt lat="47.33394" lon="-2.36168">
        <ele>34.200000762939</ele>
        <time>2022-01-20T09:56:54.000Z</time>
      </trkpt>
      <trkpt lat="47.33399" lon="-2.36166">
        <ele>34.200000762939</ele>
        <time>2022-01-20T09:56:55.000Z</time>
      </trkpt>
      <trkpt lat="47.3341" lon="-2.36166">
        <ele>34.200000762939</ele>
        <time>2022-01-20T09:56:58.000Z</time>
      </trkpt>
      <trkpt lat="47.33414" lon="-2.36184">
        <ele>34.200000762939</ele>
        <time>2022-01-20T09:57:01.000Z</time>
      </trkpt>
      <trkpt lat="47.33415" lon="-2.36198">
        <ele>34.200000762939</ele>
        <time>2022-01-20T09:57:03.000Z</time>
      </trkpt>
      <trkpt lat="47.33412" lon="-2.36224">
        <ele>34.200000762939</ele>
        <time>2022-01-20T09:57:06.000Z</time>
      </trkpt>
      <trkpt lat="47.3341" lon="-2.36243">
        <ele>34.200000762939</ele>
        <time>2022-01-20T09:57:08.000Z</time>
      </trkpt>
      <trkpt lat="47.3341" lon="-2.36252">
        <ele>33.799999237061</ele>
        <time>2022-01-20T09:57:09.000Z</time>
      </trkpt>
      <trkpt lat="47.3341" lon="-2.36262">
        <ele>33.400001525879</ele>
        <time>2022-01-20T09:57:10.000Z</time>
      </trkpt>
      <trkpt lat="47.33411" lon="-2.36271">
        <ele>33</ele>
        <time>2022-01-20T09:57:11.000Z</time>
      </trkpt>
      <trkpt lat="47.3341" lon="-2.36281">
        <ele>32.599998474121</ele>
        <time>2022-01-20T09:57:12.000Z</time>
      </trkpt>
      <trkpt lat="47.33412" lon="-2.3629">
        <ele>32.200000762939</ele>
        <time>2022-01-20T09:57:13.000Z</time>
      </trkpt>
      <trkpt lat="47.33414" lon="-2.36299">
        <ele>32.200000762939</ele>
        <time>2022-01-20T09:57:14.000Z</time>
      </trkpt>
      <trkpt lat="47.33425" lon="-2.36338">
        <ele>32.200000762939</ele>
        <time>2022-01-20T09:57:19.000Z</time>
      </trkpt>
      <trkpt lat="47.33427" lon="-2.36345">
        <ele>32.200000762939</ele>
        <time>2022-01-20T09:57:20.000Z</time>
      </trkpt>
      <trkpt lat="47.33433" lon="-2.36362">
        <ele>31.799999237061</ele>
        <time>2022-01-20T09:57:23.000Z</time>
      </trkpt>
      <trkpt lat="47.33435" lon="-2.36366">
        <ele>31.39999961853</ele>
        <time>2022-01-20T09:57:24.000Z</time>
      </trkpt>
      <trkpt lat="47.33436" lon="-2.36369">
        <ele>30.60000038147</ele>
        <time>2022-01-20T09:57:25.000Z</time>
      </trkpt>
      <trkpt lat="47.33436" lon="-2.36371">
        <ele>30.200000762939</ele>
        <time>2022-01-20T09:57:26.000Z</time>
      </trkpt>
      <trkpt lat="47.33439" lon="-2.36375">
        <ele>30.200000762939</ele>
        <time>2022-01-20T09:57:30.000Z</time>
      </trkpt>
      <trkpt lat="47.33443" lon="-2.36386">
        <ele>30.200000762939</ele>
        <time>2022-01-20T09:57:35.000Z</time>
      </trkpt>
      <trkpt lat="47.33448" lon="-2.36396">
        <ele>29.60000038147</ele>
        <time>2022-01-20T09:57:40.000Z</time>
      </trkpt>
      <trkpt lat="47.33448" lon="-2.36398">
        <ele>29.200000762939</ele>
        <time>2022-01-20T09:57:41.000Z</time>
      </trkpt>
      <trkpt lat="47.33449" lon="-2.364">
        <ele>28.799999237061</ele>
        <time>2022-01-20T09:57:42.000Z</time>
      </trkpt>
      <trkpt lat="47.3345" lon="-2.36402">
        <ele>28.39999961853</ele>
        <time>2022-01-20T09:57:43.000Z</time>
      </trkpt>
      <trkpt lat="47.33451" lon="-2.36404">
        <ele>28</ele>
        <time>2022-01-20T09:57:44.000Z</time>
      </trkpt>
      <trkpt lat="47.33453" lon="-2.36407">
        <ele>28</ele>
        <time>2022-01-20T09:57:47.000Z</time>
      </trkpt>
      <trkpt lat="47.33455" lon="-2.36408">
        <ele>28</ele>
        <time>2022-01-20T09:57:49.000Z</time>
      </trkpt>
      <trkpt lat="47.33462" lon="-2.36411">
        <ele>28</ele>
        <time>2022-01-20T09:57:53.000Z</time>
      </trkpt>
      <trkpt lat="47.33464" lon="-2.36412">
        <ele>28</ele>
        <time>2022-01-20T09:57:54.000Z</time>
      </trkpt>
      <trkpt lat="47.33467" lon="-2.36417">
        <ele>28</ele>
        <time>2022-01-20T09:57:57.000Z</time>
      </trkpt>
      <trkpt lat="47.33467" lon="-2.36419">
        <ele>28</ele>
        <time>2022-01-20T09:57:58.000Z</time>
      </trkpt>
      <trkpt lat="47.33468" lon="-2.36421">
        <ele>28</ele>
        <time>2022-01-20T09:58:00.000Z</time>
      </trkpt>
      <trkpt lat="47.3347" lon="-2.36432">
        <ele>28</ele>
        <time>2022-01-20T09:58:15.000Z</time>
      </trkpt>
      <trkpt lat="47.3347" lon="-2.36436">
        <ele>28</ele>
        <time>2022-01-20T09:58:17.000Z</time>
      </trkpt>
      <trkpt lat="47.33472" lon="-2.36453">
        <ele>28</ele>
        <time>2022-01-20T09:58:22.000Z</time>
      </trkpt>
      <trkpt lat="47.33471" lon="-2.36482">
        <ele>28</ele>
        <time>2022-01-20T09:58:28.000Z</time>
      </trkpt>
      <trkpt lat="47.33469" lon="-2.36514">
        <ele>28</ele>
        <time>2022-01-20T09:58:34.000Z</time>
      </trkpt>
      <trkpt lat="47.33468" lon="-2.36536">
        <ele>27.60000038147</ele>
        <time>2022-01-20T09:58:38.000Z</time>
      </trkpt>
      <trkpt lat="47.33468" lon="-2.36541">
        <ele>26.799999237061</ele>
        <time>2022-01-20T09:58:39.000Z</time>
      </trkpt>
      <trkpt lat="47.33468" lon="-2.36546">
        <ele>26.39999961853</ele>
        <time>2022-01-20T09:58:40.000Z</time>
      </trkpt>
      <trkpt lat="47.33468" lon="-2.36552">
        <ele>26</ele>
        <time>2022-01-20T09:58:41.000Z</time>
      </trkpt>
      <trkpt lat="47.33468" lon="-2.36571">
        <ele>26</ele>
        <time>2022-01-20T09:58:45.000Z</time>
      </trkpt>
      <trkpt lat="47.33479" lon="-2.36582">
        <ele>26</ele>
        <time>2022-01-20T09:58:49.000Z</time>
      </trkpt>
      <trkpt lat="47.33492" lon="-2.36588">
        <ele>26</ele>
        <time>2022-01-20T09:58:53.000Z</time>
      </trkpt>
      <trkpt lat="47.33494" lon="-2.3659">
        <ele>26</ele>
        <time>2022-01-20T09:58:54.000Z</time>
      </trkpt>
      <trkpt lat="47.33511" lon="-2.36604">
        <ele>26</ele>
        <time>2022-01-20T09:58:59.000Z</time>
      </trkpt>
      <trkpt lat="47.33515" lon="-2.36606">
        <ele>26</ele>
        <time>2022-01-20T09:59:00.000Z</time>
      </trkpt>
      <trkpt lat="47.33529" lon="-2.36615">
        <ele>25</ele>
        <time>2022-01-20T09:59:04.000Z</time>
      </trkpt>
      <trkpt lat="47.33531" lon="-2.36618">
        <ele>24.60000038147</ele>
        <time>2022-01-20T09:59:05.000Z</time>
      </trkpt>
      <trkpt lat="47.33533" lon="-2.36622">
        <ele>24.200000762939</ele>
        <time>2022-01-20T09:59:06.000Z</time>
      </trkpt>
      <trkpt lat="47.33535" lon="-2.36625">
        <ele>23.799999237061</ele>
        <time>2022-01-20T09:59:07.000Z</time>
      </trkpt>
      <trkpt lat="47.33537" lon="-2.36627">
        <ele>23.200000762939</ele>
        <time>2022-01-20T09:59:08.000Z</time>
      </trkpt>
      <trkpt lat="47.33539" lon="-2.3663">
        <ele>22.799999237061</ele>
        <time>2022-01-20T09:59:09.000Z</time>
      </trkpt>
      <trkpt lat="47.3354" lon="-2.36633">
        <ele>22.39999961853</ele>
        <time>2022-01-20T09:59:10.000Z</time>
      </trkpt>
      <trkpt lat="47.3354" lon="-2.36636">
        <ele>22</ele>
        <time>2022-01-20T09:59:11.000Z</time>
      </trkpt>
      <trkpt lat="47.3354" lon="-2.3664">
        <ele>21.39999961853</ele>
        <time>2022-01-20T09:59:12.000Z</time>
      </trkpt>
      <trkpt lat="47.33539" lon="-2.36644">
        <ele>20.799999237061</ele>
        <time>2022-01-20T09:59:13.000Z</time>
      </trkpt>
      <trkpt lat="47.33537" lon="-2.36648">
        <ele>20.200000762939</ele>
        <time>2022-01-20T09:59:14.000Z</time>
      </trkpt>
      <trkpt lat="47.33535" lon="-2.36652">
        <ele>19.60000038147</ele>
        <time>2022-01-20T09:59:15.000Z</time>
      </trkpt>
      <trkpt lat="47.33532" lon="-2.36654">
        <ele>19</ele>
        <time>2022-01-20T09:59:16.000Z</time>
      </trkpt>
      <trkpt lat="47.33531" lon="-2.36657">
        <ele>19</ele>
        <time>2022-01-20T09:59:17.000Z</time>
      </trkpt>
      <trkpt lat="47.33519" lon="-2.36669">
        <ele>19</ele>
        <time>2022-01-20T09:59:22.000Z</time>
      </trkpt>
      <trkpt lat="47.33508" lon="-2.36686">
        <ele>19</ele>
        <time>2022-01-20T09:59:27.000Z</time>
      </trkpt>
      <trkpt lat="47.335" lon="-2.36701">
        <ele>19</ele>
        <time>2022-01-20T09:59:32.000Z</time>
      </trkpt>
      <trkpt lat="47.33496" lon="-2.3671">
        <ele>19</ele>
        <time>2022-01-20T09:59:36.000Z</time>
      </trkpt>
      <trkpt lat="47.33491" lon="-2.36721">
        <ele>19</ele>
        <time>2022-01-20T09:59:41.000Z</time>
      </trkpt>
      <trkpt lat="47.33488" lon="-2.36728">
        <ele>19</ele>
        <time>2022-01-20T09:59:44.000Z</time>
      </trkpt>
      <trkpt lat="47.33486" lon="-2.36734">
        <ele>19</ele>
        <time>2022-01-20T09:59:46.000Z</time>
      </trkpt>
      <trkpt lat="47.33479" lon="-2.3675">
        <ele>19</ele>
        <time>2022-01-20T09:59:50.000Z</time>
      </trkpt>
      <trkpt lat="47.33473" lon="-2.36773">
        <ele>19</ele>
        <time>2022-01-20T09:59:55.000Z</time>
      </trkpt>
      <trkpt lat="47.33469" lon="-2.36804">
        <ele>19</ele>
        <time>2022-01-20T10:00:00.000Z</time>
      </trkpt>
      <trkpt lat="47.33466" lon="-2.36826">
        <ele>19</ele>
        <time>2022-01-20T10:00:05.000Z</time>
      </trkpt>
      <trkpt lat="47.33461" lon="-2.36842">
        <ele>19</ele>
        <time>2022-01-20T10:00:10.000Z</time>
      </trkpt>
      <trkpt lat="47.33458" lon="-2.36843">
        <ele>19</ele>
        <time>2022-01-20T10:00:11.000Z</time>
      </trkpt>
      <trkpt lat="47.33451" lon="-2.36856">
        <ele>19</ele>
        <time>2022-01-20T10:00:16.000Z</time>
      </trkpt>
      <trkpt lat="47.3345" lon="-2.3686">
        <ele>19.799999237061</ele>
        <time>2022-01-20T10:00:18.000Z</time>
      </trkpt>
      <trkpt lat="47.33449" lon="-2.36863">
        <ele>20.200000762939</ele>
        <time>2022-01-20T10:00:19.000Z</time>
      </trkpt>
      <trkpt lat="47.33449" lon="-2.36865">
        <ele>20.60000038147</ele>
        <time>2022-01-20T10:00:20.000Z</time>
      </trkpt>
      <trkpt lat="47.33448" lon="-2.36867">
        <ele>21</ele>
        <time>2022-01-20T10:00:21.000Z</time>
      </trkpt>
      <trkpt lat="47.33448" lon="-2.36887">
        <ele>21</ele>
        <time>2022-01-20T10:00:27.000Z</time>
      </trkpt>
      <trkpt lat="47.33449" lon="-2.36896">
        <ele>21</ele>
        <time>2022-01-20T10:00:29.000Z</time>
      </trkpt>
      <trkpt lat="47.33451" lon="-2.36909">
        <ele>21</ele>
        <time>2022-01-20T10:00:32.000Z</time>
      </trkpt>
      <trkpt lat="47.33452" lon="-2.36936">
        <ele>21</ele>
        <time>2022-01-20T10:00:38.000Z</time>
      </trkpt>
      <trkpt lat="47.3346" lon="-2.36958">
        <ele>21</ele>
        <time>2022-01-20T10:00:42.000Z</time>
      </trkpt>
      <trkpt lat="47.33468" lon="-2.36976">
        <ele>21</ele>
        <time>2022-01-20T10:00:46.000Z</time>
      </trkpt>
      <trkpt lat="47.33472" lon="-2.36985">
        <ele>21</ele>
        <time>2022-01-20T10:00:49.000Z</time>
      </trkpt>
      <trkpt lat="47.33472" lon="-2.36991">
        <ele>21</ele>
        <time>2022-01-20T10:00:50.000Z</time>
      </trkpt>
      <trkpt lat="47.3347" lon="-2.3703">
        <ele>21</ele>
        <time>2022-01-20T10:00:57.000Z</time>
      </trkpt>
      <trkpt lat="47.33469" lon="-2.37066">
        <ele>21</ele>
        <time>2022-01-20T10:01:03.000Z</time>
      </trkpt>
      <trkpt lat="47.33471" lon="-2.37095">
        <ele>21.60000038147</ele>
        <time>2022-01-20T10:01:08.000Z</time>
      </trkpt>
      <trkpt lat="47.33473" lon="-2.37101">
        <ele>22</ele>
        <time>2022-01-20T10:01:09.000Z</time>
      </trkpt>
      <trkpt lat="47.33473" lon="-2.37107">
        <ele>22.39999961853</ele>
        <time>2022-01-20T10:01:10.000Z</time>
      </trkpt>
      <trkpt lat="47.33475" lon="-2.37112">
        <ele>22.799999237061</ele>
        <time>2022-01-20T10:01:11.000Z</time>
      </trkpt>
      <trkpt lat="47.33476" lon="-2.37118">
        <ele>23.200000762939</ele>
        <time>2022-01-20T10:01:12.000Z</time>
      </trkpt>
      <trkpt lat="47.33477" lon="-2.37135">
        <ele>23.200000762939</ele>
        <time>2022-01-20T10:01:15.000Z</time>
      </trkpt>
      <trkpt lat="47.33481" lon="-2.37166">
        <ele>23.60000038147</ele>
        <time>2022-01-20T10:01:21.000Z</time>
      </trkpt>
      <trkpt lat="47.33481" lon="-2.37171">
        <ele>24</ele>
        <time>2022-01-20T10:01:22.000Z</time>
      </trkpt>
      <trkpt lat="47.33482" lon="-2.37175">
        <ele>24.39999961853</ele>
        <time>2022-01-20T10:01:23.000Z</time>
      </trkpt>
      <trkpt lat="47.33484" lon="-2.37179">
        <ele>24.799999237061</ele>
        <time>2022-01-20T10:01:24.000Z</time>
      </trkpt>
      <trkpt lat="47.33485" lon="-2.37184">
        <ele>25.200000762939</ele>
        <time>2022-01-20T10:01:25.000Z</time>
      </trkpt>
      <trkpt lat="47.33487" lon="-2.37196">
        <ele>25.200000762939</ele>
        <time>2022-01-20T10:01:27.000Z</time>
      </trkpt>
      <trkpt lat="47.33497" lon="-2.37223">
        <ele>25.200000762939</ele>
        <time>2022-01-20T10:01:33.000Z</time>
      </trkpt>
      <trkpt lat="47.33499" lon="-2.37224">
        <ele>25.200000762939</ele>
        <time>2022-01-20T10:01:34.000Z</time>
      </trkpt>
      <trkpt lat="47.33509" lon="-2.37228">
        <ele>25.60000038147</ele>
        <time>2022-01-20T10:01:37.000Z</time>
      </trkpt>
      <trkpt lat="47.33512" lon="-2.37228">
        <ele>26</ele>
        <time>2022-01-20T10:01:38.000Z</time>
      </trkpt>
      <trkpt lat="47.33515" lon="-2.37229">
        <ele>26.39999961853</ele>
        <time>2022-01-20T10:01:39.000Z</time>
      </trkpt>
      <trkpt lat="47.33518" lon="-2.3723">
        <ele>26.799999237061</ele>
        <time>2022-01-20T10:01:40.000Z</time>
      </trkpt>
      <trkpt lat="47.33521" lon="-2.3723">
        <ele>27.200000762939</ele>
        <time>2022-01-20T10:01:41.000Z</time>
      </trkpt>
      <trkpt lat="47.33528" lon="-2.3723">
        <ele>27.200000762939</ele>
        <time>2022-01-20T10:01:43.000Z</time>
      </trkpt>
      <trkpt lat="47.33533" lon="-2.37229">
        <ele>27.200000762939</ele>
        <time>2022-01-20T10:01:45.000Z</time>
      </trkpt>
      <trkpt lat="47.33537" lon="-2.37225">
        <ele>27.200000762939</ele>
        <time>2022-01-20T10:01:48.000Z</time>
      </trkpt>
      <trkpt lat="47.33538" lon="-2.37223">
        <ele>27.200000762939</ele>
        <time>2022-01-20T10:01:50.000Z</time>
      </trkpt>
      <trkpt lat="47.33539" lon="-2.3722">
        <ele>27.200000762939</ele>
        <time>2022-01-20T10:01:52.000Z</time>
      </trkpt>
      <trkpt lat="47.3354" lon="-2.37219">
        <ele>27.60000038147</ele>
        <time>2022-01-20T10:01:53.000Z</time>
      </trkpt>
      <trkpt lat="47.33541" lon="-2.37218">
        <ele>28</ele>
        <time>2022-01-20T10:01:54.000Z</time>
      </trkpt>
      <trkpt lat="47.33541" lon="-2.37216">
        <ele>28.60000038147</ele>
        <time>2022-01-20T10:01:55.000Z</time>
      </trkpt>
      <trkpt lat="47.33542" lon="-2.37215">
        <ele>29</ele>
        <time>2022-01-20T10:01:56.000Z</time>
      </trkpt>
      <trkpt lat="47.33543" lon="-2.37214">
        <ele>29.39999961853</ele>
        <time>2022-01-20T10:01:57.000Z</time>
      </trkpt>
      <trkpt lat="47.33545" lon="-2.37213">
        <ele>29.39999961853</ele>
        <time>2022-01-20T10:02:00.000Z</time>
      </trkpt>
      <trkpt lat="47.33545" lon="-2.37214">
        <ele>29.39999961853</ele>
        <time>2022-01-20T10:02:01.000Z</time>
      </trkpt>
      <trkpt lat="47.33547" lon="-2.37218">
        <ele>31.39999961853</ele>
        <time>2022-01-20T10:13:47.000Z</time>
      </trkpt>
      <trkpt lat="47.33544" lon="-2.37222">
        <ele>31.39999961853</ele>
        <time>2022-01-20T10:13:49.000Z</time>
      </trkpt>
      <trkpt lat="47.33541" lon="-2.37225">
        <ele>31.39999961853</ele>
        <time>2022-01-20T10:13:51.000Z</time>
      </trkpt>
      <trkpt lat="47.33537" lon="-2.37227">
        <ele>31.39999961853</ele>
        <time>2022-01-20T10:13:53.000Z</time>
      </trkpt>
      <trkpt lat="47.33519" lon="-2.37229">
        <ele>31.39999961853</ele>
        <time>2022-01-20T10:13:59.000Z</time>
      </trkpt>
      <trkpt lat="47.33503" lon="-2.37229">
        <ele>31.39999961853</ele>
        <time>2022-01-20T10:14:04.000Z</time>
      </trkpt>
      <trkpt lat="47.33503" lon="-2.37232">
        <ele>31.39999961853</ele>
        <time>2022-01-20T10:14:05.000Z</time>
      </trkpt>
      <trkpt lat="47.33505" lon="-2.37243">
        <ele>31.39999961853</ele>
        <time>2022-01-20T10:14:08.000Z</time>
      </trkpt>
      <trkpt lat="47.33508" lon="-2.37251">
        <ele>31.39999961853</ele>
        <time>2022-01-20T10:14:10.000Z</time>
      </trkpt>
      <trkpt lat="47.33515" lon="-2.37279">
        <ele>31.39999961853</ele>
        <time>2022-01-20T10:14:16.000Z</time>
      </trkpt>
      <trkpt lat="47.33523" lon="-2.37312">
        <ele>31.39999961853</ele>
        <time>2022-01-20T10:14:23.000Z</time>
      </trkpt>
      <trkpt lat="47.33531" lon="-2.37341">
        <ele>31.799999237061</ele>
        <time>2022-01-20T10:14:30.000Z</time>
      </trkpt>
      <trkpt lat="47.33532" lon="-2.37344">
        <ele>32.200000762939</ele>
        <time>2022-01-20T10:14:31.000Z</time>
      </trkpt>
      <trkpt lat="47.33534" lon="-2.37348">
        <ele>32.599998474121</ele>
        <time>2022-01-20T10:14:32.000Z</time>
      </trkpt>
      <trkpt lat="47.33535" lon="-2.37352">
        <ele>33</ele>
        <time>2022-01-20T10:14:33.000Z</time>
      </trkpt>
      <trkpt lat="47.33536" lon="-2.37356">
        <ele>33.400001525879</ele>
        <time>2022-01-20T10:14:34.000Z</time>
      </trkpt>
      <trkpt lat="47.33538" lon="-2.37369">
        <ele>33.400001525879</ele>
        <time>2022-01-20T10:14:37.000Z</time>
      </trkpt>
      <trkpt lat="47.3354" lon="-2.37396">
        <ele>33.400001525879</ele>
        <time>2022-01-20T10:14:42.000Z</time>
      </trkpt>
      <trkpt lat="47.3354" lon="-2.37403">
        <ele>34</ele>
        <time>2022-01-20T10:14:43.000Z</time>
      </trkpt>
      <trkpt lat="47.33539" lon="-2.37408">
        <ele>34.400001525879</ele>
        <time>2022-01-20T10:14:44.000Z</time>
      </trkpt>
      <trkpt lat="47.33539" lon="-2.37413">
        <ele>34.799999237061</ele>
        <time>2022-01-20T10:14:45.000Z</time>
      </trkpt>
      <trkpt lat="47.33539" lon="-2.37417">
        <ele>35.200000762939</ele>
        <time>2022-01-20T10:14:46.000Z</time>
      </trkpt>
      <trkpt lat="47.3354" lon="-2.37421">
        <ele>35.599998474121</ele>
        <time>2022-01-20T10:14:47.000Z</time>
      </trkpt>
      <trkpt lat="47.3354" lon="-2.37426">
        <ele>35.599998474121</ele>
        <time>2022-01-20T10:14:48.000Z</time>
      </trkpt>
      <trkpt lat="47.33536" lon="-2.37455">
        <ele>35.599998474121</ele>
        <time>2022-01-20T10:14:54.000Z</time>
      </trkpt>
      <trkpt lat="47.33528" lon="-2.37483">
        <ele>36</ele>
        <time>2022-01-20T10:14:59.000Z</time>
      </trkpt>
      <trkpt lat="47.33526" lon="-2.37488">
        <ele>36.400001525879</ele>
        <time>2022-01-20T10:15:00.000Z</time>
      </trkpt>
      <trkpt lat="47.33524" lon="-2.37493">
        <ele>36.799999237061</ele>
        <time>2022-01-20T10:15:01.000Z</time>
      </trkpt>
      <trkpt lat="47.33522" lon="-2.37498">
        <ele>37.200000762939</ele>
        <time>2022-01-20T10:15:02.000Z</time>
      </trkpt>
      <trkpt lat="47.33519" lon="-2.37503">
        <ele>37.599998474121</ele>
        <time>2022-01-20T10:15:03.000Z</time>
      </trkpt>
      <trkpt lat="47.33509" lon="-2.37522">
        <ele>37.599998474121</ele>
        <time>2022-01-20T10:15:07.000Z</time>
      </trkpt>
      <trkpt lat="47.33506" lon="-2.37526">
        <ele>37.599998474121</ele>
        <time>2022-01-20T10:15:08.000Z</time>
      </trkpt>
      <trkpt lat="47.3349" lon="-2.3755">
        <ele>38</ele>
        <time>2022-01-20T10:15:14.000Z</time>
      </trkpt>
      <trkpt lat="47.33487" lon="-2.37554">
        <ele>38.400001525879</ele>
        <time>2022-01-20T10:15:15.000Z</time>
      </trkpt>
      <trkpt lat="47.33484" lon="-2.37558">
        <ele>38.799999237061</ele>
        <time>2022-01-20T10:15:16.000Z</time>
      </trkpt>
      <trkpt lat="47.33481" lon="-2.37563">
        <ele>39.200000762939</ele>
        <time>2022-01-20T10:15:17.000Z</time>
      </trkpt>
      <trkpt lat="47.33478" lon="-2.37568">
        <ele>39.599998474121</ele>
        <time>2022-01-20T10:15:18.000Z</time>
      </trkpt>
      <trkpt lat="47.33457" lon="-2.37593">
        <ele>39.599998474121</ele>
        <time>2022-01-20T10:15:24.000Z</time>
      </trkpt>
      <trkpt lat="47.33428" lon="-2.37614">
        <ele>39.599998474121</ele>
        <time>2022-01-20T10:15:31.000Z</time>
      </trkpt>
      <trkpt lat="47.3342" lon="-2.37621">
        <ele>39.599998474121</ele>
        <time>2022-01-20T10:15:33.000Z</time>
      </trkpt>
      <trkpt lat="47.334" lon="-2.3764">
        <ele>39.599998474121</ele>
        <time>2022-01-20T10:15:38.000Z</time>
      </trkpt>
      <trkpt lat="47.33397" lon="-2.37645">
        <ele>39.599998474121</ele>
        <time>2022-01-20T10:15:39.000Z</time>
      </trkpt>
      <trkpt lat="47.33389" lon="-2.37662">
        <ele>39.599998474121</ele>
        <time>2022-01-20T10:15:42.000Z</time>
      </trkpt>
      <trkpt lat="47.33388" lon="-2.37668">
        <ele>39.599998474121</ele>
        <time>2022-01-20T10:15:43.000Z</time>
      </trkpt>
      <trkpt lat="47.33386" lon="-2.37687">
        <ele>39.599998474121</ele>
        <time>2022-01-20T10:15:46.000Z</time>
      </trkpt>
      <trkpt lat="47.33387" lon="-2.37718">
        <ele>40</ele>
        <time>2022-01-20T10:15:51.000Z</time>
      </trkpt>
      <trkpt lat="47.33387" lon="-2.37724">
        <ele>40.400001525879</ele>
        <time>2022-01-20T10:15:52.000Z</time>
      </trkpt>
      <trkpt lat="47.33387" lon="-2.3773">
        <ele>40.799999237061</ele>
        <time>2022-01-20T10:15:53.000Z</time>
      </trkpt>
      <trkpt lat="47.33387" lon="-2.37736">
        <ele>41.200000762939</ele>
        <time>2022-01-20T10:15:54.000Z</time>
      </trkpt>
      <trkpt lat="47.33387" lon="-2.37741">
        <ele>41.599998474121</ele>
        <time>2022-01-20T10:15:55.000Z</time>
      </trkpt>
      <trkpt lat="47.33387" lon="-2.37779">
        <ele>41.599998474121</ele>
        <time>2022-01-20T10:16:01.000Z</time>
      </trkpt>
      <trkpt lat="47.33384" lon="-2.37805">
        <ele>41.599998474121</ele>
        <time>2022-01-20T10:16:05.000Z</time>
      </trkpt>
      <trkpt lat="47.33381" lon="-2.37818">
        <ele>41.599998474121</ele>
        <time>2022-01-20T10:16:07.000Z</time>
      </trkpt>
      <trkpt lat="47.33369" lon="-2.37842">
        <ele>41.599998474121</ele>
        <time>2022-01-20T10:16:11.000Z</time>
      </trkpt>
      <trkpt lat="47.33367" lon="-2.37847">
        <ele>41.599998474121</ele>
        <time>2022-01-20T10:16:12.000Z</time>
      </trkpt>
      <trkpt lat="47.33364" lon="-2.37852">
        <ele>41.200000762939</ele>
        <time>2022-01-20T10:16:13.000Z</time>
      </trkpt>
      <trkpt lat="47.33361" lon="-2.37856">
        <ele>40.799999237061</ele>
        <time>2022-01-20T10:16:14.000Z</time>
      </trkpt>
      <trkpt lat="47.33358" lon="-2.37857">
        <ele>40.400001525879</ele>
        <time>2022-01-20T10:16:15.000Z</time>
      </trkpt>
      <trkpt lat="47.33354" lon="-2.37857">
        <ele>40</ele>
        <time>2022-01-20T10:16:16.000Z</time>
      </trkpt>
      <trkpt lat="47.3335" lon="-2.37856">
        <ele>39.599998474121</ele>
        <time>2022-01-20T10:16:17.000Z</time>
      </trkpt>
      <trkpt lat="47.33336" lon="-2.37853">
        <ele>39.599998474121</ele>
        <time>2022-01-20T10:16:20.000Z</time>
      </trkpt>
      <trkpt lat="47.3332" lon="-2.37858">
        <ele>39.599998474121</ele>
        <time>2022-01-20T10:16:23.000Z</time>
      </trkpt>
      <trkpt lat="47.33309" lon="-2.37862">
        <ele>39.599998474121</ele>
        <time>2022-01-20T10:16:25.000Z</time>
      </trkpt>
      <trkpt lat="47.33296" lon="-2.37867">
        <ele>39.200000762939</ele>
        <time>2022-01-20T10:16:27.000Z</time>
      </trkpt>
      <trkpt lat="47.33289" lon="-2.37868">
        <ele>38.799999237061</ele>
        <time>2022-01-20T10:16:28.000Z</time>
      </trkpt>
      <trkpt lat="47.33283" lon="-2.3787">
        <ele>38.200000762939</ele>
        <time>2022-01-20T10:16:29.000Z</time>
      </trkpt>
      <trkpt lat="47.33276" lon="-2.37872">
        <ele>37.799999237061</ele>
        <time>2022-01-20T10:16:30.000Z</time>
      </trkpt>
      <trkpt lat="47.3327" lon="-2.37874">
        <ele>37.400001525879</ele>
        <time>2022-01-20T10:16:31.000Z</time>
      </trkpt>
      <trkpt lat="47.33265" lon="-2.37876">
        <ele>37</ele>
        <time>2022-01-20T10:16:32.000Z</time>
      </trkpt>
      <trkpt lat="47.3326" lon="-2.37878">
        <ele>36.599998474121</ele>
        <time>2022-01-20T10:16:33.000Z</time>
      </trkpt>
      <trkpt lat="47.33254" lon="-2.37878">
        <ele>36.200000762939</ele>
        <time>2022-01-20T10:16:34.000Z</time>
      </trkpt>
      <trkpt lat="47.33249" lon="-2.37876">
        <ele>35.799999237061</ele>
        <time>2022-01-20T10:16:35.000Z</time>
      </trkpt>
      <trkpt lat="47.33243" lon="-2.37872">
        <ele>35.400001525879</ele>
        <time>2022-01-20T10:16:36.000Z</time>
      </trkpt>
      <trkpt lat="47.33238" lon="-2.37868">
        <ele>35</ele>
        <time>2022-01-20T10:16:37.000Z</time>
      </trkpt>
      <trkpt lat="47.33233" lon="-2.37864">
        <ele>34.400001525879</ele>
        <time>2022-01-20T10:16:38.000Z</time>
      </trkpt>
      <trkpt lat="47.33228" lon="-2.3786">
        <ele>34</ele>
        <time>2022-01-20T10:16:39.000Z</time>
      </trkpt>
      <trkpt lat="47.33223" lon="-2.37854">
        <ele>33.599998474121</ele>
        <time>2022-01-20T10:16:40.000Z</time>
      </trkpt>
      <trkpt lat="47.33219" lon="-2.37848">
        <ele>33.200000762939</ele>
        <time>2022-01-20T10:16:41.000Z</time>
      </trkpt>
      <trkpt lat="47.33215" lon="-2.37843">
        <ele>33.200000762939</ele>
        <time>2022-01-20T10:16:42.000Z</time>
      </trkpt>
      <trkpt lat="47.332" lon="-2.37819">
        <ele>32.799999237061</ele>
        <time>2022-01-20T10:16:46.000Z</time>
      </trkpt>
      <trkpt lat="47.33196" lon="-2.37813">
        <ele>32.400001525879</ele>
        <time>2022-01-20T10:16:47.000Z</time>
      </trkpt>
      <trkpt lat="47.33193" lon="-2.37806">
        <ele>32</ele>
        <time>2022-01-20T10:16:48.000Z</time>
      </trkpt>
      <trkpt lat="47.33189" lon="-2.378">
        <ele>31.60000038147</ele>
        <time>2022-01-20T10:16:49.000Z</time>
      </trkpt>
      <trkpt lat="47.33185" lon="-2.37793">
        <ele>31.200000762939</ele>
        <time>2022-01-20T10:16:50.000Z</time>
      </trkpt>
      <trkpt lat="47.33166" lon="-2.37758">
        <ele>30.60000038147</ele>
        <time>2022-01-20T10:16:55.000Z</time>
      </trkpt>
      <trkpt lat="47.33163" lon="-2.3775">
        <ele>30.200000762939</ele>
        <time>2022-01-20T10:16:56.000Z</time>
      </trkpt>
      <trkpt lat="47.33158" lon="-2.37744">
        <ele>29.799999237061</ele>
        <time>2022-01-20T10:16:57.000Z</time>
      </trkpt>
      <trkpt lat="47.33154" lon="-2.37739">
        <ele>29.39999961853</ele>
        <time>2022-01-20T10:16:58.000Z</time>
      </trkpt>
      <trkpt lat="47.33148" lon="-2.37736">
        <ele>29</ele>
        <time>2022-01-20T10:16:59.000Z</time>
      </trkpt>
      <trkpt lat="47.33132" lon="-2.37738">
        <ele>29</ele>
        <time>2022-01-20T10:17:02.000Z</time>
      </trkpt>
      <trkpt lat="47.33124" lon="-2.37745">
        <ele>29</ele>
        <time>2022-01-20T10:17:04.000Z</time>
      </trkpt>
      <trkpt lat="47.33118" lon="-2.37753">
        <ele>29</ele>
        <time>2022-01-20T10:17:06.000Z</time>
      </trkpt>
      <trkpt lat="47.33097" lon="-2.37775">
        <ele>29</ele>
        <time>2022-01-20T10:17:12.000Z</time>
      </trkpt>
      <trkpt lat="47.33065" lon="-2.37807">
        <ele>29</ele>
        <time>2022-01-20T10:17:21.000Z</time>
      </trkpt>
      <trkpt lat="47.33052" lon="-2.37819">
        <ele>29.39999961853</ele>
        <time>2022-01-20T10:17:24.000Z</time>
      </trkpt>
      <trkpt lat="47.33048" lon="-2.37823">
        <ele>29.799999237061</ele>
        <time>2022-01-20T10:17:25.000Z</time>
      </trkpt>
      <trkpt lat="47.33045" lon="-2.37828">
        <ele>30.200000762939</ele>
        <time>2022-01-20T10:17:26.000Z</time>
      </trkpt>
      <trkpt lat="47.3304" lon="-2.37831">
        <ele>30.60000038147</ele>
        <time>2022-01-20T10:17:27.000Z</time>
      </trkpt>
      <trkpt lat="47.33036" lon="-2.37836">
        <ele>31</ele>
        <time>2022-01-20T10:17:28.000Z</time>
      </trkpt>
      <trkpt lat="47.33025" lon="-2.37853">
        <ele>31</ele>
        <time>2022-01-20T10:17:31.000Z</time>
      </trkpt>
      <trkpt lat="47.33023" lon="-2.37859">
        <ele>31</ele>
        <time>2022-01-20T10:17:32.000Z</time>
      </trkpt>
      <trkpt lat="47.3301" lon="-2.37884">
        <ele>31</ele>
        <time>2022-01-20T10:17:36.000Z</time>
      </trkpt>
      <trkpt lat="47.33006" lon="-2.37891">
        <ele>31</ele>
        <time>2022-01-20T10:17:37.000Z</time>
      </trkpt>
      <trkpt lat="47.32995" lon="-2.37911">
        <ele>31</ele>
        <time>2022-01-20T10:17:40.000Z</time>
      </trkpt>
      <trkpt lat="47.32987" lon="-2.37924">
        <ele>31</ele>
        <time>2022-01-20T10:17:42.000Z</time>
      </trkpt>
      <trkpt lat="47.3298" lon="-2.37936">
        <ele>31.39999961853</ele>
        <time>2022-01-20T10:17:44.000Z</time>
      </trkpt>
      <trkpt lat="47.32976" lon="-2.37942">
        <ele>31.799999237061</ele>
        <time>2022-01-20T10:17:45.000Z</time>
      </trkpt>
      <trkpt lat="47.32972" lon="-2.37948">
        <ele>32.200000762939</ele>
        <time>2022-01-20T10:17:46.000Z</time>
      </trkpt>
      <trkpt lat="47.32968" lon="-2.37954">
        <ele>32.599998474121</ele>
        <time>2022-01-20T10:17:47.000Z</time>
      </trkpt>
      <trkpt lat="47.32964" lon="-2.37959">
        <ele>33</ele>
        <time>2022-01-20T10:17:48.000Z</time>
      </trkpt>
      <trkpt lat="47.32961" lon="-2.37964">
        <ele>33</ele>
        <time>2022-01-20T10:17:49.000Z</time>
      </trkpt>
      <trkpt lat="47.32937" lon="-2.37997">
        <ele>33</ele>
        <time>2022-01-20T10:17:55.000Z</time>
      </trkpt>
      <trkpt lat="47.32933" lon="-2.38003">
        <ele>33</ele>
        <time>2022-01-20T10:17:56.000Z</time>
      </trkpt>
      <trkpt lat="47.32917" lon="-2.38026">
        <ele>33</ele>
        <time>2022-01-20T10:18:00.000Z</time>
      </trkpt>
      <trkpt lat="47.32891" lon="-2.38073">
        <ele>33</ele>
        <time>2022-01-20T10:18:07.000Z</time>
      </trkpt>
      <trkpt lat="47.32863" lon="-2.38122">
        <ele>33</ele>
        <time>2022-01-20T10:18:15.000Z</time>
      </trkpt>
      <trkpt lat="47.32859" lon="-2.38127">
        <ele>33.400001525879</ele>
        <time>2022-01-20T10:18:16.000Z</time>
      </trkpt>
      <trkpt lat="47.32856" lon="-2.38133">
        <ele>33.799999237061</ele>
        <time>2022-01-20T10:18:17.000Z</time>
      </trkpt>
      <trkpt lat="47.32853" lon="-2.38139">
        <ele>34.200000762939</ele>
        <time>2022-01-20T10:18:18.000Z</time>
      </trkpt>
      <trkpt lat="47.3285" lon="-2.38145">
        <ele>34.599998474121</ele>
        <time>2022-01-20T10:18:19.000Z</time>
      </trkpt>
      <trkpt lat="47.32848" lon="-2.38151">
        <ele>35.200000762939</ele>
        <time>2022-01-20T10:18:20.000Z</time>
      </trkpt>
      <trkpt lat="47.32844" lon="-2.38156">
        <ele>35.200000762939</ele>
        <time>2022-01-20T10:18:21.000Z</time>
      </trkpt>
      <trkpt lat="47.32826" lon="-2.38195">
        <ele>35.200000762939</ele>
        <time>2022-01-20T10:18:27.000Z</time>
      </trkpt>
      <trkpt lat="47.3282" lon="-2.38215">
        <ele>35.599998474121</ele>
        <time>2022-01-20T10:18:30.000Z</time>
      </trkpt>
      <trkpt lat="47.32818" lon="-2.38222">
        <ele>36</ele>
        <time>2022-01-20T10:18:31.000Z</time>
      </trkpt>
      <trkpt lat="47.32816" lon="-2.38228">
        <ele>36.400001525879</ele>
        <time>2022-01-20T10:18:32.000Z</time>
      </trkpt>
      <trkpt lat="47.32814" lon="-2.38234">
        <ele>36.799999237061</ele>
        <time>2022-01-20T10:18:33.000Z</time>
      </trkpt>
      <trkpt lat="47.32812" lon="-2.3824">
        <ele>37.200000762939</ele>
        <time>2022-01-20T10:18:34.000Z</time>
      </trkpt>
      <trkpt lat="47.3281" lon="-2.38246">
        <ele>37.200000762939</ele>
        <time>2022-01-20T10:18:35.000Z</time>
      </trkpt>
      <trkpt lat="47.32807" lon="-2.38258">
        <ele>37.799999237061</ele>
        <time>2022-01-20T10:18:37.000Z</time>
      </trkpt>
      <trkpt lat="47.32806" lon="-2.38263">
        <ele>38.200000762939</ele>
        <time>2022-01-20T10:18:38.000Z</time>
      </trkpt>
      <trkpt lat="47.32805" lon="-2.38269">
        <ele>38.599998474121</ele>
        <time>2022-01-20T10:18:39.000Z</time>
      </trkpt>
      <trkpt lat="47.32803" lon="-2.38275">
        <ele>39</ele>
        <time>2022-01-20T10:18:40.000Z</time>
      </trkpt>
      <trkpt lat="47.32802" lon="-2.3828">
        <ele>39.599998474121</ele>
        <time>2022-01-20T10:18:41.000Z</time>
      </trkpt>
      <trkpt lat="47.32801" lon="-2.38286">
        <ele>39.599998474121</ele>
        <time>2022-01-20T10:18:42.000Z</time>
      </trkpt>
      <trkpt lat="47.32796" lon="-2.38309">
        <ele>40</ele>
        <time>2022-01-20T10:18:46.000Z</time>
      </trkpt>
      <trkpt lat="47.32794" lon="-2.38314">
        <ele>40.400001525879</ele>
        <time>2022-01-20T10:18:47.000Z</time>
      </trkpt>
      <trkpt lat="47.32792" lon="-2.3832">
        <ele>40.799999237061</ele>
        <time>2022-01-20T10:18:48.000Z</time>
      </trkpt>
      <trkpt lat="47.32791" lon="-2.38325">
        <ele>41.200000762939</ele>
        <time>2022-01-20T10:18:49.000Z</time>
      </trkpt>
      <trkpt lat="47.3279" lon="-2.3833">
        <ele>41.599998474121</ele>
        <time>2022-01-20T10:18:50.000Z</time>
      </trkpt>
      <trkpt lat="47.32786" lon="-2.38359">
        <ele>42.200000762939</ele>
        <time>2022-01-20T10:18:55.000Z</time>
      </trkpt>
      <trkpt lat="47.32784" lon="-2.38365">
        <ele>42.599998474121</ele>
        <time>2022-01-20T10:18:56.000Z</time>
      </trkpt>
      <trkpt lat="47.32784" lon="-2.3837">
        <ele>43</ele>
        <time>2022-01-20T10:18:57.000Z</time>
      </trkpt>
      <trkpt lat="47.32784" lon="-2.38375">
        <ele>43.400001525879</ele>
        <time>2022-01-20T10:18:58.000Z</time>
      </trkpt>
      <trkpt lat="47.32783" lon="-2.38381">
        <ele>43.799999237061</ele>
        <time>2022-01-20T10:18:59.000Z</time>
      </trkpt>
      <trkpt lat="47.32778" lon="-2.38394">
        <ele>43.799999237061</ele>
        <time>2022-01-20T10:19:02.000Z</time>
      </trkpt>
      <trkpt lat="47.32771" lon="-2.38396">
        <ele>44.200000762939</ele>
        <time>2022-01-20T10:19:04.000Z</time>
      </trkpt>
      <trkpt lat="47.32767" lon="-2.38397">
        <ele>44.599998474121</ele>
        <time>2022-01-20T10:19:05.000Z</time>
      </trkpt>
      <trkpt lat="47.32762" lon="-2.38397">
        <ele>45</ele>
        <time>2022-01-20T10:19:06.000Z</time>
      </trkpt>
      <trkpt lat="47.32757" lon="-2.38397">
        <ele>45.400001525879</ele>
        <time>2022-01-20T10:19:07.000Z</time>
      </trkpt>
      <trkpt lat="47.32752" lon="-2.38398">
        <ele>45.799999237061</ele>
        <time>2022-01-20T10:19:08.000Z</time>
      </trkpt>
      <trkpt lat="47.32728" lon="-2.38403">
        <ele>45.799999237061</ele>
        <time>2022-01-20T10:19:13.000Z</time>
      </trkpt>
      <trkpt lat="47.32704" lon="-2.38406">
        <ele>45.400001525879</ele>
        <time>2022-01-20T10:19:18.000Z</time>
      </trkpt>
      <trkpt lat="47.32699" lon="-2.38405">
        <ele>45</ele>
        <time>2022-01-20T10:19:19.000Z</time>
      </trkpt>
      <trkpt lat="47.32693" lon="-2.38402">
        <ele>44.599998474121</ele>
        <time>2022-01-20T10:19:20.000Z</time>
      </trkpt>
      <trkpt lat="47.32688" lon="-2.38397">
        <ele>44.200000762939</ele>
        <time>2022-01-20T10:19:21.000Z</time>
      </trkpt>
      <trkpt lat="47.32683" lon="-2.38391">
        <ele>43.599998474121</ele>
        <time>2022-01-20T10:19:22.000Z</time>
      </trkpt>
      <trkpt lat="47.32673" lon="-2.38379">
        <ele>43.599998474121</ele>
        <time>2022-01-20T10:19:24.000Z</time>
      </trkpt>
      <trkpt lat="47.32657" lon="-2.38357">
        <ele>43.599998474121</ele>
        <time>2022-01-20T10:19:27.000Z</time>
      </trkpt>
      <trkpt lat="47.32651" lon="-2.3835">
        <ele>43.200000762939</ele>
        <time>2022-01-20T10:19:28.000Z</time>
      </trkpt>
      <trkpt lat="47.32645" lon="-2.38342">
        <ele>42.799999237061</ele>
        <time>2022-01-20T10:19:29.000Z</time>
      </trkpt>
      <trkpt lat="47.32639" lon="-2.38334">
        <ele>42.400001525879</ele>
        <time>2022-01-20T10:19:30.000Z</time>
      </trkpt>
      <trkpt lat="47.32633" lon="-2.38327">
        <ele>41.799999237061</ele>
        <time>2022-01-20T10:19:31.000Z</time>
      </trkpt>
      <trkpt lat="47.32627" lon="-2.38319">
        <ele>41.400001525879</ele>
        <time>2022-01-20T10:19:32.000Z</time>
      </trkpt>
      <trkpt lat="47.32621" lon="-2.38311">
        <ele>41</ele>
        <time>2022-01-20T10:19:33.000Z</time>
      </trkpt>
      <trkpt lat="47.32614" lon="-2.38304">
        <ele>40.599998474121</ele>
        <time>2022-01-20T10:19:34.000Z</time>
      </trkpt>
      <trkpt lat="47.32606" lon="-2.38299">
        <ele>40</ele>
        <time>2022-01-20T10:19:35.000Z</time>
      </trkpt>
      <trkpt lat="47.32599" lon="-2.38296">
        <ele>39.599998474121</ele>
        <time>2022-01-20T10:19:36.000Z</time>
      </trkpt>
      <trkpt lat="47.32591" lon="-2.38295">
        <ele>39.200000762939</ele>
        <time>2022-01-20T10:19:37.000Z</time>
      </trkpt>
      <trkpt lat="47.32583" lon="-2.38297">
        <ele>38.799999237061</ele>
        <time>2022-01-20T10:19:38.000Z</time>
      </trkpt>
      <trkpt lat="47.32576" lon="-2.38299">
        <ele>38.400001525879</ele>
        <time>2022-01-20T10:19:39.000Z</time>
      </trkpt>
      <trkpt lat="47.32569" lon="-2.38302">
        <ele>37.799999237061</ele>
        <time>2022-01-20T10:19:40.000Z</time>
      </trkpt>
      <trkpt lat="47.32563" lon="-2.38305">
        <ele>37.400001525879</ele>
        <time>2022-01-20T10:19:41.000Z</time>
      </trkpt>
      <trkpt lat="47.32557" lon="-2.38307">
        <ele>37</ele>
        <time>2022-01-20T10:19:42.000Z</time>
      </trkpt>
      <trkpt lat="47.3254" lon="-2.38311">
        <ele>37</ele>
        <time>2022-01-20T10:19:45.000Z</time>
      </trkpt>
      <trkpt lat="47.32529" lon="-2.38319">
        <ele>37</ele>
        <time>2022-01-20T10:19:49.000Z</time>
      </trkpt>
      <trkpt lat="47.32526" lon="-2.38336">
        <ele>37</ele>
        <time>2022-01-20T10:19:53.000Z</time>
      </trkpt>
      <trkpt lat="47.32522" lon="-2.38368">
        <ele>37.400001525879</ele>
        <time>2022-01-20T10:19:58.000Z</time>
      </trkpt>
      <trkpt lat="47.32522" lon="-2.38374">
        <ele>37.799999237061</ele>
        <time>2022-01-20T10:19:59.000Z</time>
      </trkpt>
      <trkpt lat="47.32521" lon="-2.3838">
        <ele>38.200000762939</ele>
        <time>2022-01-20T10:20:00.000Z</time>
      </trkpt>
      <trkpt lat="47.32517" lon="-2.38384">
        <ele>38.799999237061</ele>
        <time>2022-01-20T10:20:01.000Z</time>
      </trkpt>
      <trkpt lat="47.32513" lon="-2.38385">
        <ele>39.200000762939</ele>
        <time>2022-01-20T10:20:02.000Z</time>
      </trkpt>
      <trkpt lat="47.32498" lon="-2.38379">
        <ele>39.200000762939</ele>
        <time>2022-01-20T10:20:05.000Z</time>
      </trkpt>
      <trkpt lat="47.32483" lon="-2.38371">
        <ele>39.200000762939</ele>
        <time>2022-01-20T10:20:08.000Z</time>
      </trkpt>
      <trkpt lat="47.32478" lon="-2.38368">
        <ele>39.200000762939</ele>
        <time>2022-01-20T10:20:09.000Z</time>
      </trkpt>
      <trkpt lat="47.32444" lon="-2.38355">
        <ele>39.200000762939</ele>
        <time>2022-01-20T10:20:16.000Z</time>
      </trkpt>
      <trkpt lat="47.32414" lon="-2.38343">
        <ele>39.200000762939</ele>
        <time>2022-01-20T10:20:22.000Z</time>
      </trkpt>
      <trkpt lat="47.32398" lon="-2.38332">
        <ele>39.200000762939</ele>
        <time>2022-01-20T10:20:25.000Z</time>
      </trkpt>
      <trkpt lat="47.32392" lon="-2.38329">
        <ele>39.200000762939</ele>
        <time>2022-01-20T10:20:26.000Z</time>
      </trkpt>
      <trkpt lat="47.32361" lon="-2.38316">
        <ele>39.200000762939</ele>
        <time>2022-01-20T10:20:31.000Z</time>
      </trkpt>
      <trkpt lat="47.32314" lon="-2.38293">
        <ele>39.200000762939</ele>
        <time>2022-01-20T10:20:38.000Z</time>
      </trkpt>
      <trkpt lat="47.323" lon="-2.38287">
        <ele>38.799999237061</ele>
        <time>2022-01-20T10:20:40.000Z</time>
      </trkpt>
      <trkpt lat="47.32294" lon="-2.38285">
        <ele>38</ele>
        <time>2022-01-20T10:20:41.000Z</time>
      </trkpt>
      <trkpt lat="47.32288" lon="-2.38283">
        <ele>37.599998474121</ele>
        <time>2022-01-20T10:20:42.000Z</time>
      </trkpt>
      <trkpt lat="47.32282" lon="-2.38282">
        <ele>37</ele>
        <time>2022-01-20T10:20:43.000Z</time>
      </trkpt>
      <trkpt lat="47.32268" lon="-2.38283">
        <ele>37</ele>
        <time>2022-01-20T10:20:45.000Z</time>
      </trkpt>
      <trkpt lat="47.3225" lon="-2.38287">
        <ele>37</ele>
        <time>2022-01-20T10:20:48.000Z</time>
      </trkpt>
      <trkpt lat="47.32223" lon="-2.38293">
        <ele>37</ele>
        <time>2022-01-20T10:20:53.000Z</time>
      </trkpt>
      <trkpt lat="47.32218" lon="-2.38293">
        <ele>37</ele>
        <time>2022-01-20T10:20:54.000Z</time>
      </trkpt>
      <trkpt lat="47.32207" lon="-2.38304">
        <ele>36.599998474121</ele>
        <time>2022-01-20T10:20:57.000Z</time>
      </trkpt>
      <trkpt lat="47.32204" lon="-2.38308">
        <ele>36.200000762939</ele>
        <time>2022-01-20T10:20:58.000Z</time>
      </trkpt>
      <trkpt lat="47.32201" lon="-2.38312">
        <ele>35.799999237061</ele>
        <time>2022-01-20T10:20:59.000Z</time>
      </trkpt>
      <trkpt lat="47.32199" lon="-2.38316">
        <ele>35.400001525879</ele>
        <time>2022-01-20T10:21:00.000Z</time>
      </trkpt>
      <trkpt lat="47.32195" lon="-2.3832">
        <ele>35</ele>
        <time>2022-01-20T10:21:01.000Z</time>
      </trkpt>
      <trkpt lat="47.32187" lon="-2.38332">
        <ele>35</ele>
        <time>2022-01-20T10:21:04.000Z</time>
      </trkpt>
      <trkpt lat="47.32171" lon="-2.38356">
        <ele>35</ele>
        <time>2022-01-20T10:21:10.000Z</time>
      </trkpt>
      <trkpt lat="47.32155" lon="-2.38381">
        <ele>35</ele>
        <time>2022-01-20T10:21:15.000Z</time>
      </trkpt>
      <trkpt lat="47.32136" lon="-2.38409">
        <ele>35</ele>
        <time>2022-01-20T10:21:21.000Z</time>
      </trkpt>
      <trkpt lat="47.32132" lon="-2.38413">
        <ele>35</ele>
        <time>2022-01-20T10:21:22.000Z</time>
      </trkpt>
      <trkpt lat="47.32117" lon="-2.38423">
        <ele>35</ele>
        <time>2022-01-20T10:21:26.000Z</time>
      </trkpt>
      <trkpt lat="47.32094" lon="-2.38434">
        <ele>35</ele>
        <time>2022-01-20T10:21:31.000Z</time>
      </trkpt>
      <trkpt lat="47.32089" lon="-2.38436">
        <ele>35.400001525879</ele>
        <time>2022-01-20T10:21:32.000Z</time>
      </trkpt>
      <trkpt lat="47.32086" lon="-2.38439">
        <ele>35.799999237061</ele>
        <time>2022-01-20T10:21:33.000Z</time>
      </trkpt>
      <trkpt lat="47.32082" lon="-2.38441">
        <ele>36.200000762939</ele>
        <time>2022-01-20T10:21:34.000Z</time>
      </trkpt>
      <trkpt lat="47.32078" lon="-2.38443">
        <ele>36.599998474121</ele>
        <time>2022-01-20T10:21:35.000Z</time>
      </trkpt>
      <trkpt lat="47.32074" lon="-2.38445">
        <ele>37</ele>
        <time>2022-01-20T10:21:36.000Z</time>
      </trkpt>
      <trkpt lat="47.32066" lon="-2.38449">
        <ele>37</ele>
        <time>2022-01-20T10:21:38.000Z</time>
      </trkpt>
      <trkpt lat="47.32037" lon="-2.3846">
        <ele>37</ele>
        <time>2022-01-20T10:21:45.000Z</time>
      </trkpt>
      <trkpt lat="47.32027" lon="-2.38465">
        <ele>37.400001525879</ele>
        <time>2022-01-20T10:21:47.000Z</time>
      </trkpt>
      <trkpt lat="47.32022" lon="-2.38467">
        <ele>37.799999237061</ele>
        <time>2022-01-20T10:21:48.000Z</time>
      </trkpt>
      <trkpt lat="47.32018" lon="-2.38469">
        <ele>38.200000762939</ele>
        <time>2022-01-20T10:21:49.000Z</time>
      </trkpt>
      <trkpt lat="47.32013" lon="-2.38471">
        <ele>38.599998474121</ele>
        <time>2022-01-20T10:21:50.000Z</time>
      </trkpt>
      <trkpt lat="47.32009" lon="-2.38472">
        <ele>39</ele>
        <time>2022-01-20T10:21:51.000Z</time>
      </trkpt>
      <trkpt lat="47.31977" lon="-2.38484">
        <ele>39</ele>
        <time>2022-01-20T10:21:58.000Z</time>
      </trkpt>
      <trkpt lat="47.31948" lon="-2.3849">
        <ele>39</ele>
        <time>2022-01-20T10:22:05.000Z</time>
      </trkpt>
      <trkpt lat="47.31938" lon="-2.38491">
        <ele>39.400001525879</ele>
        <time>2022-01-20T10:22:07.000Z</time>
      </trkpt>
      <trkpt lat="47.31935" lon="-2.38493">
        <ele>39.799999237061</ele>
        <time>2022-01-20T10:22:08.000Z</time>
      </trkpt>
      <trkpt lat="47.31931" lon="-2.38494">
        <ele>40.400001525879</ele>
        <time>2022-01-20T10:22:09.000Z</time>
      </trkpt>
      <trkpt lat="47.31927" lon="-2.38495">
        <ele>40.799999237061</ele>
        <time>2022-01-20T10:22:10.000Z</time>
      </trkpt>
      <trkpt lat="47.31922" lon="-2.38497">
        <ele>41.200000762939</ele>
        <time>2022-01-20T10:22:11.000Z</time>
      </trkpt>
      <trkpt lat="47.31918" lon="-2.385">
        <ele>41.200000762939</ele>
        <time>2022-01-20T10:22:12.000Z</time>
      </trkpt>
      <trkpt lat="47.31891" lon="-2.38513">
        <ele>41.200000762939</ele>
        <time>2022-01-20T10:22:19.000Z</time>
      </trkpt>
      <trkpt lat="47.31884" lon="-2.38517">
        <ele>41.599998474121</ele>
        <time>2022-01-20T10:22:21.000Z</time>
      </trkpt>
      <trkpt lat="47.3188" lon="-2.38518">
        <ele>42</ele>
        <time>2022-01-20T10:22:22.000Z</time>
      </trkpt>
      <trkpt lat="47.31876" lon="-2.3852">
        <ele>42.400001525879</ele>
        <time>2022-01-20T10:22:23.000Z</time>
      </trkpt>
      <trkpt lat="47.31873" lon="-2.38521">
        <ele>42.799999237061</ele>
        <time>2022-01-20T10:22:24.000Z</time>
      </trkpt>
      <trkpt lat="47.31869" lon="-2.38522">
        <ele>43.400001525879</ele>
        <time>2022-01-20T10:22:25.000Z</time>
      </trkpt>
      <trkpt lat="47.31866" lon="-2.38523">
        <ele>43.400001525879</ele>
        <time>2022-01-20T10:22:26.000Z</time>
      </trkpt>
      <trkpt lat="47.31845" lon="-2.3853">
        <ele>43.400001525879</ele>
        <time>2022-01-20T10:22:32.000Z</time>
      </trkpt>
      <trkpt lat="47.31841" lon="-2.38531">
        <ele>43.799999237061</ele>
        <time>2022-01-20T10:22:33.000Z</time>
      </trkpt>
      <trkpt lat="47.31838" lon="-2.38532">
        <ele>44.200000762939</ele>
        <time>2022-01-20T10:22:34.000Z</time>
      </trkpt>
      <trkpt lat="47.31835" lon="-2.38533">
        <ele>44.599998474121</ele>
        <time>2022-01-20T10:22:35.000Z</time>
      </trkpt>
      <trkpt lat="47.31831" lon="-2.38534">
        <ele>45</ele>
        <time>2022-01-20T10:22:36.000Z</time>
      </trkpt>
      <trkpt lat="47.31828" lon="-2.38534">
        <ele>45.400001525879</ele>
        <time>2022-01-20T10:22:37.000Z</time>
      </trkpt>
      <trkpt lat="47.31823" lon="-2.38536">
        <ele>45.400001525879</ele>
        <time>2022-01-20T10:22:39.000Z</time>
      </trkpt>
      <trkpt lat="47.31813" lon="-2.38543">
        <ele>46.200000762939</ele>
        <time>2022-01-20T10:22:43.000Z</time>
      </trkpt>
      <trkpt lat="47.31812" lon="-2.38546">
        <ele>46.599998474121</ele>
        <time>2022-01-20T10:22:44.000Z</time>
      </trkpt>
      <trkpt lat="47.31812" lon="-2.38551">
        <ele>47</ele>
        <time>2022-01-20T10:22:45.000Z</time>
      </trkpt>
      <trkpt lat="47.31812" lon="-2.38556">
        <ele>47.400001525879</ele>
        <time>2022-01-20T10:22:46.000Z</time>
      </trkpt>
      <trkpt lat="47.31812" lon="-2.38568">
        <ele>47.400001525879</ele>
        <time>2022-01-20T10:22:48.000Z</time>
      </trkpt>
      <trkpt lat="47.31813" lon="-2.3858">
        <ele>47.400001525879</ele>
        <time>2022-01-20T10:22:50.000Z</time>
      </trkpt>
      <trkpt lat="47.31815" lon="-2.386">
        <ele>47.400001525879</ele>
        <time>2022-01-20T10:22:53.000Z</time>
      </trkpt>
      <trkpt lat="47.31815" lon="-2.38613">
        <ele>47.400001525879</ele>
        <time>2022-01-20T10:22:55.000Z</time>
      </trkpt>
      <trkpt lat="47.31816" lon="-2.38626">
        <ele>47.400001525879</ele>
        <time>2022-01-20T10:22:57.000Z</time>
      </trkpt>
      <trkpt lat="47.3182" lon="-2.38685">
        <ele>47.400001525879</ele>
        <time>2022-01-20T10:23:05.000Z</time>
      </trkpt>
      <trkpt lat="47.31823" lon="-2.38737">
        <ele>47.400001525879</ele>
        <time>2022-01-20T10:23:12.000Z</time>
      </trkpt>
      <trkpt lat="47.31822" lon="-2.38794">
        <ele>47.400001525879</ele>
        <time>2022-01-20T10:23:19.000Z</time>
      </trkpt>
      <trkpt lat="47.31828" lon="-2.38835">
        <ele>47.400001525879</ele>
        <time>2022-01-20T10:23:24.000Z</time>
      </trkpt>
      <trkpt lat="47.31843" lon="-2.389">
        <ele>47.400001525879</ele>
        <time>2022-01-20T10:23:32.000Z</time>
      </trkpt>
      <trkpt lat="47.3185" lon="-2.38924">
        <ele>47</ele>
        <time>2022-01-20T10:23:35.000Z</time>
      </trkpt>
      <trkpt lat="47.31852" lon="-2.38932">
        <ele>46.599998474121</ele>
        <time>2022-01-20T10:23:36.000Z</time>
      </trkpt>
      <trkpt lat="47.31854" lon="-2.3894">
        <ele>46.200000762939</ele>
        <time>2022-01-20T10:23:37.000Z</time>
      </trkpt>
      <trkpt lat="47.31857" lon="-2.38949">
        <ele>45.799999237061</ele>
        <time>2022-01-20T10:23:38.000Z</time>
      </trkpt>
      <trkpt lat="47.31859" lon="-2.38957">
        <ele>45.400001525879</ele>
        <time>2022-01-20T10:23:39.000Z</time>
      </trkpt>
      <trkpt lat="47.31881" lon="-2.3901">
        <ele>45.400001525879</ele>
        <time>2022-01-20T10:23:46.000Z</time>
      </trkpt>
      <trkpt lat="47.31894" lon="-2.39054">
        <ele>45.400001525879</ele>
        <time>2022-01-20T10:23:52.000Z</time>
      </trkpt>
      <trkpt lat="47.31909" lon="-2.39108">
        <ele>45.400001525879</ele>
        <time>2022-01-20T10:23:59.000Z</time>
      </trkpt>
      <trkpt lat="47.31927" lon="-2.39166">
        <ele>45.400001525879</ele>
        <time>2022-01-20T10:24:06.000Z</time>
      </trkpt>
      <trkpt lat="47.31945" lon="-2.39231">
        <ele>45.400001525879</ele>
        <time>2022-01-20T10:24:14.000Z</time>
      </trkpt>
      <trkpt lat="47.31951" lon="-2.39255">
        <ele>45.799999237061</ele>
        <time>2022-01-20T10:24:17.000Z</time>
      </trkpt>
      <trkpt lat="47.31953" lon="-2.39264">
        <ele>46.200000762939</ele>
        <time>2022-01-20T10:24:18.000Z</time>
      </trkpt>
      <trkpt lat="47.31955" lon="-2.39272">
        <ele>46.599998474121</ele>
        <time>2022-01-20T10:24:19.000Z</time>
      </trkpt>
      <trkpt lat="47.31957" lon="-2.3928">
        <ele>47</ele>
        <time>2022-01-20T10:24:20.000Z</time>
      </trkpt>
      <trkpt lat="47.3196" lon="-2.39287">
        <ele>47.400001525879</ele>
        <time>2022-01-20T10:24:21.000Z</time>
      </trkpt>
      <trkpt lat="47.31972" lon="-2.39334">
        <ele>47.400001525879</ele>
        <time>2022-01-20T10:24:27.000Z</time>
      </trkpt>
      <trkpt lat="47.31985" lon="-2.39396">
        <ele>47.400001525879</ele>
        <time>2022-01-20T10:24:35.000Z</time>
      </trkpt>
      <trkpt lat="47.31991" lon="-2.39418">
        <ele>47.799999237061</ele>
        <time>2022-01-20T10:24:38.000Z</time>
      </trkpt>
      <trkpt lat="47.31993" lon="-2.39425">
        <ele>48.200000762939</ele>
        <time>2022-01-20T10:24:39.000Z</time>
      </trkpt>
      <trkpt lat="47.31995" lon="-2.39431">
        <ele>48.599998474121</ele>
        <time>2022-01-20T10:24:40.000Z</time>
      </trkpt>
      <trkpt lat="47.31998" lon="-2.39438">
        <ele>49</ele>
        <time>2022-01-20T10:24:41.000Z</time>
      </trkpt>
      <trkpt lat="47.32" lon="-2.39445">
        <ele>49.400001525879</ele>
        <time>2022-01-20T10:24:42.000Z</time>
      </trkpt>
      <trkpt lat="47.32015" lon="-2.39506">
        <ele>49.400001525879</ele>
        <time>2022-01-20T10:24:50.000Z</time>
      </trkpt>
      <trkpt lat="47.32026" lon="-2.39551">
        <ele>49.799999237061</ele>
        <time>2022-01-20T10:24:56.000Z</time>
      </trkpt>
      <trkpt lat="47.32027" lon="-2.39558">
        <ele>50.200000762939</ele>
        <time>2022-01-20T10:24:57.000Z</time>
      </trkpt>
      <trkpt lat="47.32029" lon="-2.39566">
        <ele>50.599998474121</ele>
        <time>2022-01-20T10:24:58.000Z</time>
      </trkpt>
      <trkpt lat="47.32031" lon="-2.39573">
        <ele>51</ele>
        <time>2022-01-20T10:24:59.000Z</time>
      </trkpt>
      <trkpt lat="47.32032" lon="-2.39582">
        <ele>51.400001525879</ele>
        <time>2022-01-20T10:25:00.000Z</time>
      </trkpt>
      <trkpt lat="47.32044" lon="-2.39633">
        <ele>51.400001525879</ele>
        <time>2022-01-20T10:25:07.000Z</time>
      </trkpt>
      <trkpt lat="47.32053" lon="-2.39668">
        <ele>51.400001525879</ele>
        <time>2022-01-20T10:25:12.000Z</time>
      </trkpt>
      <trkpt lat="47.32055" lon="-2.39675">
        <ele>51.400001525879</ele>
        <time>2022-01-20T10:25:13.000Z</time>
      </trkpt>
      <trkpt lat="47.32068" lon="-2.39725">
        <ele>51.400001525879</ele>
        <time>2022-01-20T10:25:20.000Z</time>
      </trkpt>
      <trkpt lat="47.32077" lon="-2.3977">
        <ele>52</ele>
        <time>2022-01-20T10:25:27.000Z</time>
      </trkpt>
      <trkpt lat="47.32079" lon="-2.39775">
        <ele>52.400001525879</ele>
        <time>2022-01-20T10:25:28.000Z</time>
      </trkpt>
      <trkpt lat="47.3208" lon="-2.3978">
        <ele>52.799999237061</ele>
        <time>2022-01-20T10:25:29.000Z</time>
      </trkpt>
      <trkpt lat="47.32082" lon="-2.39785">
        <ele>53.200000762939</ele>
        <time>2022-01-20T10:25:30.000Z</time>
      </trkpt>
      <trkpt lat="47.32083" lon="-2.39788">
        <ele>53.599998474121</ele>
        <time>2022-01-20T10:25:31.000Z</time>
      </trkpt>
      <trkpt lat="47.32085" lon="-2.39791">
        <ele>53.599998474121</ele>
        <time>2022-01-20T10:25:32.000Z</time>
      </trkpt>
      <trkpt lat="47.3209" lon="-2.39807">
        <ele>53.599998474121</ele>
        <time>2022-01-20T10:25:38.000Z</time>
      </trkpt>
      <trkpt lat="47.32089" lon="-2.3981">
        <ele>53.599998474121</ele>
        <time>2022-01-20T10:25:39.000Z</time>
      </trkpt>
      <trkpt lat="47.32073" lon="-2.39834">
        <ele>53.599998474121</ele>
        <time>2022-01-20T10:25:45.000Z</time>
      </trkpt>
      <trkpt lat="47.32052" lon="-2.39853">
        <ele>53.599998474121</ele>
        <time>2022-01-20T10:25:50.000Z</time>
      </trkpt>
      <trkpt lat="47.3202" lon="-2.3988">
        <ele>53.599998474121</ele>
        <time>2022-01-20T10:25:56.000Z</time>
      </trkpt>
      <trkpt lat="47.31977" lon="-2.39916">
        <ele>53.599998474121</ele>
        <time>2022-01-20T10:26:03.000Z</time>
      </trkpt>
      <trkpt lat="47.31972" lon="-2.39921">
        <ele>53.200000762939</ele>
        <time>2022-01-20T10:26:04.000Z</time>
      </trkpt>
      <trkpt lat="47.31966" lon="-2.39926">
        <ele>52.599998474121</ele>
        <time>2022-01-20T10:26:05.000Z</time>
      </trkpt>
      <trkpt lat="47.3196" lon="-2.39931">
        <ele>52.200000762939</ele>
        <time>2022-01-20T10:26:06.000Z</time>
      </trkpt>
      <trkpt lat="47.31954" lon="-2.39937">
        <ele>51.599998474121</ele>
        <time>2022-01-20T10:26:07.000Z</time>
      </trkpt>
      <trkpt lat="47.31948" lon="-2.39943">
        <ele>51.200000762939</ele>
        <time>2022-01-20T10:26:08.000Z</time>
      </trkpt>
      <trkpt lat="47.3193" lon="-2.3996">
        <ele>51.200000762939</ele>
        <time>2022-01-20T10:26:11.000Z</time>
      </trkpt>
      <trkpt lat="47.31905" lon="-2.39993">
        <ele>50.799999237061</ele>
        <time>2022-01-20T10:26:16.000Z</time>
      </trkpt>
      <trkpt lat="47.31901" lon="-2.4">
        <ele>50.400001525879</ele>
        <time>2022-01-20T10:26:17.000Z</time>
      </trkpt>
      <trkpt lat="47.31896" lon="-2.40006">
        <ele>50</ele>
        <time>2022-01-20T10:26:18.000Z</time>
      </trkpt>
      <trkpt lat="47.31891" lon="-2.40013">
        <ele>49.599998474121</ele>
        <time>2022-01-20T10:26:19.000Z</time>
      </trkpt>
      <trkpt lat="47.31886" lon="-2.4002">
        <ele>49.200000762939</ele>
        <time>2022-01-20T10:26:20.000Z</time>
      </trkpt>
      <trkpt lat="47.31872" lon="-2.40041">
        <ele>49.200000762939</ele>
        <time>2022-01-20T10:26:23.000Z</time>
      </trkpt>
      <trkpt lat="47.31834" lon="-2.40093">
        <ele>49.200000762939</ele>
        <time>2022-01-20T10:26:31.000Z</time>
      </trkpt>
      <trkpt lat="47.31801" lon="-2.40139">
        <ele>49.200000762939</ele>
        <time>2022-01-20T10:26:38.000Z</time>
      </trkpt>
      <trkpt lat="47.31776" lon="-2.40174">
        <ele>49.200000762939</ele>
        <time>2022-01-20T10:26:44.000Z</time>
      </trkpt>
      <trkpt lat="47.31761" lon="-2.40201">
        <ele>49.200000762939</ele>
        <time>2022-01-20T10:26:48.000Z</time>
      </trkpt>
      <trkpt lat="47.3174" lon="-2.40239">
        <ele>49.200000762939</ele>
        <time>2022-01-20T10:26:54.000Z</time>
      </trkpt>
      <trkpt lat="47.31733" lon="-2.4025">
        <ele>49.200000762939</ele>
        <time>2022-01-20T10:26:56.000Z</time>
      </trkpt>
      <trkpt lat="47.31716" lon="-2.40274">
        <ele>49.200000762939</ele>
        <time>2022-01-20T10:27:00.000Z</time>
      </trkpt>
      <trkpt lat="47.31693" lon="-2.40306">
        <ele>49.200000762939</ele>
        <time>2022-01-20T10:27:06.000Z</time>
      </trkpt>
      <trkpt lat="47.31687" lon="-2.40323">
        <ele>49.200000762939</ele>
        <time>2022-01-20T10:27:09.000Z</time>
      </trkpt>
      <trkpt lat="47.31676" lon="-2.40331">
        <ele>49.200000762939</ele>
        <time>2022-01-20T10:27:12.000Z</time>
      </trkpt>
      <trkpt lat="47.31667" lon="-2.40333">
        <ele>49.200000762939</ele>
        <time>2022-01-20T10:27:14.000Z</time>
      </trkpt>
      <trkpt lat="47.31653" lon="-2.40339">
        <ele>49.200000762939</ele>
        <time>2022-01-20T10:27:18.000Z</time>
      </trkpt>
      <trkpt lat="47.31643" lon="-2.40345">
        <ele>49.200000762939</ele>
        <time>2022-01-20T10:27:22.000Z</time>
      </trkpt>
      <trkpt lat="47.31633" lon="-2.40353">
        <ele>49.200000762939</ele>
        <time>2022-01-20T10:27:27.000Z</time>
      </trkpt>
      <trkpt lat="47.31622" lon="-2.40357">
        <ele>49.200000762939</ele>
        <time>2022-01-20T10:27:30.000Z</time>
      </trkpt>
      <trkpt lat="47.31617" lon="-2.40357">
        <ele>49.200000762939</ele>
        <time>2022-01-20T10:27:31.000Z</time>
      </trkpt>
      <trkpt lat="47.31613" lon="-2.40359">
        <ele>49.200000762939</ele>
        <time>2022-01-20T10:27:32.000Z</time>
      </trkpt>
      <trkpt lat="47.31591" lon="-2.40368">
        <ele>49.200000762939</ele>
        <time>2022-01-20T10:27:36.000Z</time>
      </trkpt>
      <trkpt lat="47.31545" lon="-2.4039">
        <ele>49.200000762939</ele>
        <time>2022-01-20T10:27:44.000Z</time>
      </trkpt>
      <trkpt lat="47.31523" lon="-2.40405">
        <ele>49.200000762939</ele>
        <time>2022-01-20T10:27:48.000Z</time>
      </trkpt>
      <trkpt lat="47.31502" lon="-2.40423">
        <ele>49.200000762939</ele>
        <time>2022-01-20T10:27:52.000Z</time>
      </trkpt>
      <trkpt lat="47.31469" lon="-2.40457">
        <ele>48.599998474121</ele>
        <time>2022-01-20T10:27:58.000Z</time>
      </trkpt>
      <trkpt lat="47.31462" lon="-2.40464">
        <ele>48.200000762939</ele>
        <time>2022-01-20T10:27:59.000Z</time>
      </trkpt>
      <trkpt lat="47.31455" lon="-2.4047">
        <ele>47.799999237061</ele>
        <time>2022-01-20T10:28:00.000Z</time>
      </trkpt>
      <trkpt lat="47.31447" lon="-2.40477">
        <ele>47.400001525879</ele>
        <time>2022-01-20T10:28:01.000Z</time>
      </trkpt>
      <trkpt lat="47.3144" lon="-2.40484">
        <ele>46.799999237061</ele>
        <time>2022-01-20T10:28:02.000Z</time>
      </trkpt>
      <trkpt lat="47.31432" lon="-2.40491">
        <ele>46.400001525879</ele>
        <time>2022-01-20T10:28:03.000Z</time>
      </trkpt>
      <trkpt lat="47.31423" lon="-2.40497">
        <ele>45.599998474121</ele>
        <time>2022-01-20T10:28:04.000Z</time>
      </trkpt>
      <trkpt lat="47.31414" lon="-2.40502">
        <ele>45.200000762939</ele>
        <time>2022-01-20T10:28:05.000Z</time>
      </trkpt>
      <trkpt lat="47.31404" lon="-2.40506">
        <ele>44.599998474121</ele>
        <time>2022-01-20T10:28:06.000Z</time>
      </trkpt>
      <trkpt lat="47.31395" lon="-2.4051">
        <ele>44.200000762939</ele>
        <time>2022-01-20T10:28:07.000Z</time>
      </trkpt>
      <trkpt lat="47.31385" lon="-2.40514">
        <ele>43.599998474121</ele>
        <time>2022-01-20T10:28:08.000Z</time>
      </trkpt>
      <trkpt lat="47.31376" lon="-2.40518">
        <ele>43.200000762939</ele>
        <time>2022-01-20T10:28:09.000Z</time>
      </trkpt>
      <trkpt lat="47.31367" lon="-2.40523">
        <ele>42.599998474121</ele>
        <time>2022-01-20T10:28:10.000Z</time>
      </trkpt>
      <trkpt lat="47.31359" lon="-2.40528">
        <ele>42.599998474121</ele>
        <time>2022-01-20T10:28:11.000Z</time>
      </trkpt>
      <trkpt lat="47.31352" lon="-2.40533">
        <ele>42.599998474121</ele>
        <time>2022-01-20T10:28:12.000Z</time>
      </trkpt>
      <trkpt lat="47.31334" lon="-2.40542">
        <ele>42.599998474121</ele>
        <time>2022-01-20T10:28:15.000Z</time>
      </trkpt>
      <trkpt lat="47.31321" lon="-2.40542">
        <ele>42.599998474121</ele>
        <time>2022-01-20T10:28:17.000Z</time>
      </trkpt>
      <trkpt lat="47.31295" lon="-2.40547">
        <ele>42.599998474121</ele>
        <time>2022-01-20T10:28:21.000Z</time>
      </trkpt>
      <trkpt lat="47.31246" lon="-2.40563">
        <ele>43.400001525879</ele>
        <time>2022-01-20T10:28:29.000Z</time>
      </trkpt>
      <trkpt lat="47.3124" lon="-2.40565">
        <ele>44</ele>
        <time>2022-01-20T10:28:30.000Z</time>
      </trkpt>
      <trkpt lat="47.31233" lon="-2.40567">
        <ele>44.400001525879</ele>
        <time>2022-01-20T10:28:31.000Z</time>
      </trkpt>
      <trkpt lat="47.31227" lon="-2.40569">
        <ele>44.799999237061</ele>
        <time>2022-01-20T10:28:32.000Z</time>
      </trkpt>
      <trkpt lat="47.31215" lon="-2.40576">
        <ele>44.799999237061</ele>
        <time>2022-01-20T10:28:34.000Z</time>
      </trkpt>
      <trkpt lat="47.31209" lon="-2.4058">
        <ele>44.799999237061</ele>
        <time>2022-01-20T10:28:35.000Z</time>
      </trkpt>
      <trkpt lat="47.31184" lon="-2.40608">
        <ele>44.799999237061</ele>
        <time>2022-01-20T10:28:40.000Z</time>
      </trkpt>
      <trkpt lat="47.31148" lon="-2.40653">
        <ele>44.799999237061</ele>
        <time>2022-01-20T10:28:47.000Z</time>
      </trkpt>
      <trkpt lat="47.31131" lon="-2.40673">
        <ele>44.200000762939</ele>
        <time>2022-01-20T10:28:50.000Z</time>
      </trkpt>
      <trkpt lat="47.31125" lon="-2.4068">
        <ele>43.799999237061</ele>
        <time>2022-01-20T10:28:51.000Z</time>
      </trkpt>
      <trkpt lat="47.31119" lon="-2.40687">
        <ele>43.400001525879</ele>
        <time>2022-01-20T10:28:52.000Z</time>
      </trkpt>
      <trkpt lat="47.31113" lon="-2.40694">
        <ele>43</ele>
        <time>2022-01-20T10:28:53.000Z</time>
      </trkpt>
      <trkpt lat="47.31106" lon="-2.40701">
        <ele>42.599998474121</ele>
        <time>2022-01-20T10:28:54.000Z</time>
      </trkpt>
      <trkpt lat="47.31069" lon="-2.40745">
        <ele>42.599998474121</ele>
        <time>2022-01-20T10:29:00.000Z</time>
      </trkpt>
      <trkpt lat="47.31063" lon="-2.40752">
        <ele>42.200000762939</ele>
        <time>2022-01-20T10:29:01.000Z</time>
      </trkpt>
      <trkpt lat="47.31056" lon="-2.4076">
        <ele>41.799999237061</ele>
        <time>2022-01-20T10:29:02.000Z</time>
      </trkpt>
      <trkpt lat="47.31049" lon="-2.40768">
        <ele>41.200000762939</ele>
        <time>2022-01-20T10:29:03.000Z</time>
      </trkpt>
      <trkpt lat="47.31043" lon="-2.40776">
        <ele>40.799999237061</ele>
        <time>2022-01-20T10:29:04.000Z</time>
      </trkpt>
      <trkpt lat="47.31036" lon="-2.40784">
        <ele>40.400001525879</ele>
        <time>2022-01-20T10:29:05.000Z</time>
      </trkpt>
      <trkpt lat="47.31023" lon="-2.408">
        <ele>40.400001525879</ele>
        <time>2022-01-20T10:29:07.000Z</time>
      </trkpt>
      <trkpt lat="47.30995" lon="-2.40829">
        <ele>40</ele>
        <time>2022-01-20T10:29:11.000Z</time>
      </trkpt>
      <trkpt lat="47.30987" lon="-2.40834">
        <ele>39.599998474121</ele>
        <time>2022-01-20T10:29:12.000Z</time>
      </trkpt>
      <trkpt lat="47.30979" lon="-2.40838">
        <ele>39.200000762939</ele>
        <time>2022-01-20T10:29:13.000Z</time>
      </trkpt>
      <trkpt lat="47.3097" lon="-2.40841">
        <ele>38.799999237061</ele>
        <time>2022-01-20T10:29:14.000Z</time>
      </trkpt>
      <trkpt lat="47.3096" lon="-2.40843">
        <ele>38.400001525879</ele>
        <time>2022-01-20T10:29:15.000Z</time>
      </trkpt>
      <trkpt lat="47.30951" lon="-2.40844">
        <ele>38</ele>
        <time>2022-01-20T10:29:16.000Z</time>
      </trkpt>
      <trkpt lat="47.30942" lon="-2.40842">
        <ele>37.400001525879</ele>
        <time>2022-01-20T10:29:17.000Z</time>
      </trkpt>
      <trkpt lat="47.30932" lon="-2.40838">
        <ele>37</ele>
        <time>2022-01-20T10:29:18.000Z</time>
      </trkpt>
      <trkpt lat="47.30924" lon="-2.40834">
        <ele>36.200000762939</ele>
        <time>2022-01-20T10:29:19.000Z</time>
      </trkpt>
      <trkpt lat="47.30906" lon="-2.40824">
        <ele>35.799999237061</ele>
        <time>2022-01-20T10:29:21.000Z</time>
      </trkpt>
      <trkpt lat="47.30898" lon="-2.40818">
        <ele>35.200000762939</ele>
        <time>2022-01-20T10:29:22.000Z</time>
      </trkpt>
      <trkpt lat="47.30888" lon="-2.40812">
        <ele>34.799999237061</ele>
        <time>2022-01-20T10:29:23.000Z</time>
      </trkpt>
      <trkpt lat="47.30879" lon="-2.40806">
        <ele>34.200000762939</ele>
        <time>2022-01-20T10:29:24.000Z</time>
      </trkpt>
      <trkpt lat="47.3087" lon="-2.408">
        <ele>33.599998474121</ele>
        <time>2022-01-20T10:29:25.000Z</time>
      </trkpt>
      <trkpt lat="47.30861" lon="-2.40793">
        <ele>33</ele>
        <time>2022-01-20T10:29:26.000Z</time>
      </trkpt>
      <trkpt lat="47.30852" lon="-2.40787">
        <ele>32.400001525879</ele>
        <time>2022-01-20T10:29:27.000Z</time>
      </trkpt>
      <trkpt lat="47.30842" lon="-2.4078">
        <ele>31.799999237061</ele>
        <time>2022-01-20T10:29:28.000Z</time>
      </trkpt>
      <trkpt lat="47.30823" lon="-2.40768">
        <ele>31.200000762939</ele>
        <time>2022-01-20T10:29:30.000Z</time>
      </trkpt>
      <trkpt lat="47.30813" lon="-2.40761">
        <ele>30.799999237061</ele>
        <time>2022-01-20T10:29:31.000Z</time>
      </trkpt>
      <trkpt lat="47.30803" lon="-2.40755">
        <ele>30.39999961853</ele>
        <time>2022-01-20T10:29:32.000Z</time>
      </trkpt>
      <trkpt lat="47.30792" lon="-2.40749">
        <ele>29.799999237061</ele>
        <time>2022-01-20T10:29:33.000Z</time>
      </trkpt>
      <trkpt lat="47.30782" lon="-2.40743">
        <ele>29</ele>
        <time>2022-01-20T10:29:34.000Z</time>
      </trkpt>
      <trkpt lat="47.30771" lon="-2.40739">
        <ele>28.39999961853</ele>
        <time>2022-01-20T10:29:35.000Z</time>
      </trkpt>
      <trkpt lat="47.3076" lon="-2.40738">
        <ele>27.799999237061</ele>
        <time>2022-01-20T10:29:36.000Z</time>
      </trkpt>
      <trkpt lat="47.3075" lon="-2.40741">
        <ele>27</ele>
        <time>2022-01-20T10:29:37.000Z</time>
      </trkpt>
      <trkpt lat="47.30739" lon="-2.40746">
        <ele>26.200000762939</ele>
        <time>2022-01-20T10:29:38.000Z</time>
      </trkpt>
      <trkpt lat="47.30729" lon="-2.40753">
        <ele>25.39999961853</ele>
        <time>2022-01-20T10:29:39.000Z</time>
      </trkpt>
      <trkpt lat="47.3072" lon="-2.40759">
        <ele>24.60000038147</ele>
        <time>2022-01-20T10:29:40.000Z</time>
      </trkpt>
      <trkpt lat="47.30711" lon="-2.40766">
        <ele>24.200000762939</ele>
        <time>2022-01-20T10:29:41.000Z</time>
      </trkpt>
      <trkpt lat="47.30704" lon="-2.40771">
        <ele>23.799999237061</ele>
        <time>2022-01-20T10:29:42.000Z</time>
      </trkpt>
      <trkpt lat="47.30696" lon="-2.40777">
        <ele>22.39999961853</ele>
        <time>2022-01-20T10:29:43.000Z</time>
      </trkpt>
      <trkpt lat="47.3069" lon="-2.40781">
        <ele>21.799999237061</ele>
        <time>2022-01-20T10:29:44.000Z</time>
      </trkpt>
      <trkpt lat="47.30683" lon="-2.40784">
        <ele>21</ele>
        <time>2022-01-20T10:29:45.000Z</time>
      </trkpt>
      <trkpt lat="47.30677" lon="-2.40787">
        <ele>20.200000762939</ele>
        <time>2022-01-20T10:29:46.000Z</time>
      </trkpt>
      <trkpt lat="47.3067" lon="-2.4079">
        <ele>19.39999961853</ele>
        <time>2022-01-20T10:29:47.000Z</time>
      </trkpt>
      <trkpt lat="47.30654" lon="-2.40802">
        <ele>19</ele>
        <time>2022-01-20T10:29:50.000Z</time>
      </trkpt>
      <trkpt lat="47.30648" lon="-2.40806">
        <ele>18.60000038147</ele>
        <time>2022-01-20T10:29:51.000Z</time>
      </trkpt>
      <trkpt lat="47.30642" lon="-2.4081">
        <ele>18.200000762939</ele>
        <time>2022-01-20T10:29:52.000Z</time>
      </trkpt>
      <trkpt lat="47.30637" lon="-2.40815">
        <ele>17.799999237061</ele>
        <time>2022-01-20T10:29:53.000Z</time>
      </trkpt>
      <trkpt lat="47.30631" lon="-2.40819">
        <ele>17.39999961853</ele>
        <time>2022-01-20T10:29:54.000Z</time>
      </trkpt>
      <trkpt lat="47.30608" lon="-2.4083">
        <ele>17.39999961853</ele>
        <time>2022-01-20T10:29:58.000Z</time>
      </trkpt>
      <trkpt lat="47.30604" lon="-2.4083">
        <ele>17.39999961853</ele>
        <time>2022-01-20T10:29:59.000Z</time>
      </trkpt>
      <trkpt lat="47.30598" lon="-2.40823">
        <ele>17.39999961853</ele>
        <time>2022-01-20T10:30:01.000Z</time>
      </trkpt>
      <trkpt lat="47.30595" lon="-2.40812">
        <ele>17.39999961853</ele>
        <time>2022-01-20T10:30:03.000Z</time>
      </trkpt>
      <trkpt lat="47.30589" lon="-2.40793">
        <ele>17.39999961853</ele>
        <time>2022-01-20T10:30:06.000Z</time>
      </trkpt>
      <trkpt lat="47.30584" lon="-2.40782">
        <ele>17</ele>
        <time>2022-01-20T10:30:08.000Z</time>
      </trkpt>
      <trkpt lat="47.30582" lon="-2.40776">
        <ele>16.60000038147</ele>
        <time>2022-01-20T10:30:09.000Z</time>
      </trkpt>
      <trkpt lat="47.3058" lon="-2.4077">
        <ele>16.200000762939</ele>
        <time>2022-01-20T10:30:10.000Z</time>
      </trkpt>
      <trkpt lat="47.30577" lon="-2.40763">
        <ele>15.800000190735</ele>
        <time>2022-01-20T10:30:11.000Z</time>
      </trkpt>
      <trkpt lat="47.30574" lon="-2.40756">
        <ele>15.39999961853</ele>
        <time>2022-01-20T10:30:12.000Z</time>
      </trkpt>
      <trkpt lat="47.30571" lon="-2.40748">
        <ele>15.39999961853</ele>
        <time>2022-01-20T10:30:13.000Z</time>
      </trkpt>
      <trkpt lat="47.30549" lon="-2.40687">
        <ele>15.39999961853</ele>
        <time>2022-01-20T10:30:20.000Z</time>
      </trkpt>
      <trkpt lat="47.30537" lon="-2.40661">
        <ele>15.39999961853</ele>
        <time>2022-01-20T10:30:23.000Z</time>
      </trkpt>
      <trkpt lat="47.30533" lon="-2.40653">
        <ele>15</ele>
        <time>2022-01-20T10:30:24.000Z</time>
      </trkpt>
      <trkpt lat="47.30529" lon="-2.40644">
        <ele>14.60000038147</ele>
        <time>2022-01-20T10:30:25.000Z</time>
      </trkpt>
      <trkpt lat="47.30526" lon="-2.40636">
        <ele>14.199999809265</ele>
        <time>2022-01-20T10:30:26.000Z</time>
      </trkpt>
      <trkpt lat="47.30522" lon="-2.40627">
        <ele>13.800000190735</ele>
        <time>2022-01-20T10:30:27.000Z</time>
      </trkpt>
      <trkpt lat="47.30519" lon="-2.40618">
        <ele>13.39999961853</ele>
        <time>2022-01-20T10:30:28.000Z</time>
      </trkpt>
      <trkpt lat="47.30506" lon="-2.40585">
        <ele>13.39999961853</ele>
        <time>2022-01-20T10:30:32.000Z</time>
      </trkpt>
      <trkpt lat="47.30502" lon="-2.40577">
        <ele>13.39999961853</ele>
        <time>2022-01-20T10:30:33.000Z</time>
      </trkpt>
      <trkpt lat="47.30485" lon="-2.4053">
        <ele>13.39999961853</ele>
        <time>2022-01-20T10:30:39.000Z</time>
      </trkpt>
      <trkpt lat="47.30469" lon="-2.40485">
        <ele>13.39999961853</ele>
        <time>2022-01-20T10:30:45.000Z</time>
      </trkpt>
      <trkpt lat="47.30459" lon="-2.40456">
        <ele>13.39999961853</ele>
        <time>2022-01-20T10:30:49.000Z</time>
      </trkpt>
      <trkpt lat="47.30454" lon="-2.40443">
        <ele>13.39999961853</ele>
        <time>2022-01-20T10:30:51.000Z</time>
      </trkpt>
      <trkpt lat="47.30438" lon="-2.40402">
        <ele>13.39999961853</ele>
        <time>2022-01-20T10:30:57.000Z</time>
      </trkpt>
      <trkpt lat="47.30433" lon="-2.40388">
        <ele>13.800000190735</ele>
        <time>2022-01-20T10:30:59.000Z</time>
      </trkpt>
      <trkpt lat="47.3043" lon="-2.40381">
        <ele>14.199999809265</ele>
        <time>2022-01-20T10:31:00.000Z</time>
      </trkpt>
      <trkpt lat="47.30427" lon="-2.40374">
        <ele>14.60000038147</ele>
        <time>2022-01-20T10:31:01.000Z</time>
      </trkpt>
      <trkpt lat="47.30424" lon="-2.40368">
        <ele>15</ele>
        <time>2022-01-20T10:31:02.000Z</time>
      </trkpt>
      <trkpt lat="47.30422" lon="-2.40361">
        <ele>15.39999961853</ele>
        <time>2022-01-20T10:31:03.000Z</time>
      </trkpt>
      <trkpt lat="47.3041" lon="-2.4033">
        <ele>16</ele>
        <time>2022-01-20T10:31:08.000Z</time>
      </trkpt>
      <trkpt lat="47.30407" lon="-2.40324">
        <ele>16.39999961853</ele>
        <time>2022-01-20T10:31:09.000Z</time>
      </trkpt>
      <trkpt lat="47.30404" lon="-2.40318">
        <ele>16.799999237061</ele>
        <time>2022-01-20T10:31:10.000Z</time>
      </trkpt>
      <trkpt lat="47.30402" lon="-2.40312">
        <ele>17.200000762939</ele>
        <time>2022-01-20T10:31:11.000Z</time>
      </trkpt>
      <trkpt lat="47.30399" lon="-2.40306">
        <ele>17.60000038147</ele>
        <time>2022-01-20T10:31:12.000Z</time>
      </trkpt>
      <trkpt lat="47.30385" lon="-2.40268">
        <ele>17.60000038147</ele>
        <time>2022-01-20T10:31:18.000Z</time>
      </trkpt>
      <trkpt lat="47.3037" lon="-2.40223">
        <ele>17.60000038147</ele>
        <time>2022-01-20T10:31:24.000Z</time>
      </trkpt>
      <trkpt lat="47.30364" lon="-2.40207">
        <ele>17.60000038147</ele>
        <time>2022-01-20T10:31:26.000Z</time>
      </trkpt>
      <trkpt lat="47.30351" lon="-2.4019">
        <ele>17.60000038147</ele>
        <time>2022-01-20T10:31:29.000Z</time>
      </trkpt>
      <trkpt lat="47.30342" lon="-2.40177">
        <ele>17.60000038147</ele>
        <time>2022-01-20T10:31:31.000Z</time>
      </trkpt>
      <trkpt lat="47.30337" lon="-2.40162">
        <ele>17.60000038147</ele>
        <time>2022-01-20T10:31:33.000Z</time>
      </trkpt>
      <trkpt lat="47.30323" lon="-2.40106">
        <ele>17.60000038147</ele>
        <time>2022-01-20T10:31:40.000Z</time>
      </trkpt>
      <trkpt lat="47.30304" lon="-2.40046">
        <ele>17.60000038147</ele>
        <time>2022-01-20T10:31:48.000Z</time>
      </trkpt>
      <trkpt lat="47.30294" lon="-2.40017">
        <ele>17.60000038147</ele>
        <time>2022-01-20T10:31:52.000Z</time>
      </trkpt>
      <trkpt lat="47.30287" lon="-2.39995">
        <ele>17.60000038147</ele>
        <time>2022-01-20T10:31:55.000Z</time>
      </trkpt>
      <trkpt lat="47.3027" lon="-2.39935">
        <ele>17.60000038147</ele>
        <time>2022-01-20T10:32:03.000Z</time>
      </trkpt>
      <trkpt lat="47.30251" lon="-2.39877">
        <ele>17.60000038147</ele>
        <time>2022-01-20T10:32:11.000Z</time>
      </trkpt>
      <trkpt lat="47.30232" lon="-2.39819">
        <ele>17.60000038147</ele>
        <time>2022-01-20T10:32:19.000Z</time>
      </trkpt>
      <trkpt lat="47.30215" lon="-2.39767">
        <ele>17.60000038147</ele>
        <time>2022-01-20T10:32:26.000Z</time>
      </trkpt>
      <trkpt lat="47.30199" lon="-2.39716">
        <ele>17.60000038147</ele>
        <time>2022-01-20T10:32:33.000Z</time>
      </trkpt>
      <trkpt lat="47.30196" lon="-2.39709">
        <ele>17.60000038147</ele>
        <time>2022-01-20T10:32:34.000Z</time>
      </trkpt>
      <trkpt lat="47.30185" lon="-2.39683">
        <ele>18</ele>
        <time>2022-01-20T10:32:38.000Z</time>
      </trkpt>
      <trkpt lat="47.3018" lon="-2.39679">
        <ele>18.39999961853</ele>
        <time>2022-01-20T10:32:39.000Z</time>
      </trkpt>
      <trkpt lat="47.30175" lon="-2.39676">
        <ele>18.799999237061</ele>
        <time>2022-01-20T10:32:40.000Z</time>
      </trkpt>
      <trkpt lat="47.30169" lon="-2.39674">
        <ele>19.200000762939</ele>
        <time>2022-01-20T10:32:41.000Z</time>
      </trkpt>
      <trkpt lat="47.30164" lon="-2.39673">
        <ele>19.799999237061</ele>
        <time>2022-01-20T10:32:42.000Z</time>
      </trkpt>
      <trkpt lat="47.30158" lon="-2.39672">
        <ele>19.799999237061</ele>
        <time>2022-01-20T10:32:43.000Z</time>
      </trkpt>
      <trkpt lat="47.30129" lon="-2.39667">
        <ele>19.799999237061</ele>
        <time>2022-01-20T10:32:48.000Z</time>
      </trkpt>
      <trkpt lat="47.30111" lon="-2.39664">
        <ele>19.799999237061</ele>
        <time>2022-01-20T10:32:51.000Z</time>
      </trkpt>
      <trkpt lat="47.30093" lon="-2.39662">
        <ele>19.799999237061</ele>
        <time>2022-01-20T10:32:54.000Z</time>
      </trkpt>
      <trkpt lat="47.30051" lon="-2.39653">
        <ele>19.799999237061</ele>
        <time>2022-01-20T10:33:01.000Z</time>
      </trkpt>
      <trkpt lat="47.30012" lon="-2.39645">
        <ele>19.799999237061</ele>
        <time>2022-01-20T10:33:08.000Z</time>
      </trkpt>
      <trkpt lat="47.29967" lon="-2.39637">
        <ele>19.799999237061</ele>
        <time>2022-01-20T10:33:16.000Z</time>
      </trkpt>
      <trkpt lat="47.29959" lon="-2.39635">
        <ele>19.200000762939</ele>
        <time>2022-01-20T10:33:18.000Z</time>
      </trkpt>
      <trkpt lat="47.29955" lon="-2.39632">
        <ele>18.799999237061</ele>
        <time>2022-01-20T10:33:19.000Z</time>
      </trkpt>
      <trkpt lat="47.29953" lon="-2.39627">
        <ele>18.39999961853</ele>
        <time>2022-01-20T10:33:20.000Z</time>
      </trkpt>
      <trkpt lat="47.29952" lon="-2.39623">
        <ele>18</ele>
        <time>2022-01-20T10:33:21.000Z</time>
      </trkpt>
      <trkpt lat="47.2995" lon="-2.39619">
        <ele>17.39999961853</ele>
        <time>2022-01-20T10:33:22.000Z</time>
      </trkpt>
      <trkpt lat="47.29947" lon="-2.39617">
        <ele>17.39999961853</ele>
        <time>2022-01-20T10:33:23.000Z</time>
      </trkpt>
      <trkpt lat="47.29936" lon="-2.39618">
        <ele>17.39999961853</ele>
        <time>2022-01-20T10:33:26.000Z</time>
      </trkpt>
      <trkpt lat="47.29931" lon="-2.39617">
        <ele>17.39999961853</ele>
        <time>2022-01-20T10:33:27.000Z</time>
      </trkpt>
      <trkpt lat="47.2991" lon="-2.39613">
        <ele>17.39999961853</ele>
        <time>2022-01-20T10:33:31.000Z</time>
      </trkpt>
      <trkpt lat="47.29865" lon="-2.39604">
        <ele>17</ele>
        <time>2022-01-20T10:33:38.000Z</time>
      </trkpt>
      <trkpt lat="47.29859" lon="-2.39603">
        <ele>16.60000038147</ele>
        <time>2022-01-20T10:33:39.000Z</time>
      </trkpt>
      <trkpt lat="47.29852" lon="-2.39602">
        <ele>16.200000762939</ele>
        <time>2022-01-20T10:33:40.000Z</time>
      </trkpt>
      <trkpt lat="47.29845" lon="-2.39601">
        <ele>15.800000190735</ele>
        <time>2022-01-20T10:33:41.000Z</time>
      </trkpt>
      <trkpt lat="47.29838" lon="-2.39599">
        <ele>15.39999961853</ele>
        <time>2022-01-20T10:33:42.000Z</time>
      </trkpt>
      <trkpt lat="47.29818" lon="-2.39594">
        <ele>15.39999961853</ele>
        <time>2022-01-20T10:33:45.000Z</time>
      </trkpt>
      <trkpt lat="47.29762" lon="-2.39583">
        <ele>15.39999961853</ele>
        <time>2022-01-20T10:33:53.000Z</time>
      </trkpt>
      <trkpt lat="47.29748" lon="-2.39581">
        <ele>15.39999961853</ele>
        <time>2022-01-20T10:33:55.000Z</time>
      </trkpt>
      <trkpt lat="47.29727" lon="-2.39577">
        <ele>15</ele>
        <time>2022-01-20T10:33:58.000Z</time>
      </trkpt>
      <trkpt lat="47.2972" lon="-2.39576">
        <ele>14.60000038147</ele>
        <time>2022-01-20T10:33:59.000Z</time>
      </trkpt>
      <trkpt lat="47.29713" lon="-2.39575">
        <ele>14</ele>
        <time>2022-01-20T10:34:00.000Z</time>
      </trkpt>
      <trkpt lat="47.29706" lon="-2.39573">
        <ele>13.60000038147</ele>
        <time>2022-01-20T10:34:01.000Z</time>
      </trkpt>
      <trkpt lat="47.297" lon="-2.39572">
        <ele>13.199999809265</ele>
        <time>2022-01-20T10:34:02.000Z</time>
      </trkpt>
      <trkpt lat="47.29686" lon="-2.39569">
        <ele>13.199999809265</ele>
        <time>2022-01-20T10:34:04.000Z</time>
      </trkpt>
      <trkpt lat="47.29641" lon="-2.3956">
        <ele>13.199999809265</ele>
        <time>2022-01-20T10:34:11.000Z</time>
      </trkpt>
      <trkpt lat="47.29624" lon="-2.39556">
        <ele>13.199999809265</ele>
        <time>2022-01-20T10:34:15.000Z</time>
      </trkpt>
      <trkpt lat="47.29623" lon="-2.39557">
        <ele>12.800000190735</ele>
        <time>2022-01-20T10:34:16.000Z</time>
      </trkpt>
      <trkpt lat="47.29621" lon="-2.39559">
        <ele>12.39999961853</ele>
        <time>2022-01-20T10:34:17.000Z</time>
      </trkpt>
      <trkpt lat="47.29619" lon="-2.39561">
        <ele>12</ele>
        <time>2022-01-20T10:34:18.000Z</time>
      </trkpt>
      <trkpt lat="47.29617" lon="-2.39563">
        <ele>11.60000038147</ele>
        <time>2022-01-20T10:34:19.000Z</time>
      </trkpt>
      <trkpt lat="47.29614" lon="-2.39564">
        <ele>11.199999809265</ele>
        <time>2022-01-20T10:34:20.000Z</time>
      </trkpt>
      <trkpt lat="47.29608" lon="-2.3957">
        <ele>11.199999809265</ele>
        <time>2022-01-20T10:34:23.000Z</time>
      </trkpt>
      <trkpt lat="47.2961" lon="-2.39574">
        <ele>10.800000190735</ele>
        <time>2022-01-20T10:34:25.000Z</time>
      </trkpt>
      <trkpt lat="47.29612" lon="-2.39574">
        <ele>10.199999809265</ele>
        <time>2022-01-20T10:34:26.000Z</time>
      </trkpt>
      <trkpt lat="47.29615" lon="-2.39573">
        <ele>9.8000001907349</ele>
        <time>2022-01-20T10:34:27.000Z</time>
      </trkpt>
      <trkpt lat="47.29619" lon="-2.39575">
        <ele>9.3999996185303</ele>
        <time>2022-01-20T10:34:28.000Z</time>
      </trkpt>
      <trkpt lat="47.29622" lon="-2.39578">
        <ele>9</ele>
        <time>2022-01-20T10:34:29.000Z</time>
      </trkpt>
      <trkpt lat="47.29624" lon="-2.39583">
        <ele>9</ele>
        <time>2022-01-20T10:34:30.000Z</time>
      </trkpt>
      <trkpt lat="47.29626" lon="-2.39588">
        <ele>8.3999996185303</ele>
        <time>2022-01-20T10:34:31.000Z</time>
      </trkpt>
      <trkpt lat="47.29626" lon="-2.39594">
        <ele>8</ele>
        <time>2022-01-20T10:34:32.000Z</time>
      </trkpt>
      <trkpt lat="47.29626" lon="-2.396">
        <ele>7.5999999046326</ele>
        <time>2022-01-20T10:34:33.000Z</time>
      </trkpt>
      <trkpt lat="47.29627" lon="-2.39607">
        <ele>7.1999998092651</ele>
        <time>2022-01-20T10:34:34.000Z</time>
      </trkpt>
      <trkpt lat="47.29627" lon="-2.39614">
        <ele>6.5999999046326</ele>
        <time>2022-01-20T10:34:35.000Z</time>
      </trkpt>
      <trkpt lat="47.29625" lon="-2.39636">
        <ele>6.5999999046326</ele>
        <time>2022-01-20T10:34:38.000Z</time>
      </trkpt>
      <trkpt lat="47.29624" lon="-2.39644">
        <ele>6.5999999046326</ele>
        <time>2022-01-20T10:34:39.000Z</time>
      </trkpt>
      <trkpt lat="47.29622" lon="-2.39652">
        <ele>6.5999999046326</ele>
        <time>2022-01-20T10:34:40.000Z</time>
      </trkpt>
      <trkpt lat="47.29609" lon="-2.3968">
        <ele>6.5999999046326</ele>
        <time>2022-01-20T10:34:44.000Z</time>
      </trkpt>
      <trkpt lat="47.29605" lon="-2.39686">
        <ele>6.5999999046326</ele>
        <time>2022-01-20T10:34:45.000Z</time>
      </trkpt>
      <trkpt lat="47.29578" lon="-2.39732">
        <ele>6.5999999046326</ele>
        <time>2022-01-20T10:34:52.000Z</time>
      </trkpt>
      <trkpt lat="47.29555" lon="-2.39783">
        <ele>6.5999999046326</ele>
        <time>2022-01-20T10:34:59.000Z</time>
      </trkpt>
      <trkpt lat="47.29533" lon="-2.39831">
        <ele>6.5999999046326</ele>
        <time>2022-01-20T10:35:06.000Z</time>
      </trkpt>
      <trkpt lat="47.29512" lon="-2.39876">
        <ele>6.5999999046326</ele>
        <time>2022-01-20T10:35:13.000Z</time>
      </trkpt>
      <trkpt lat="47.29503" lon="-2.39893">
        <ele>6.5999999046326</ele>
        <time>2022-01-20T10:35:16.000Z</time>
      </trkpt>
      <trkpt lat="47.29495" lon="-2.39899">
        <ele>6.5999999046326</ele>
        <time>2022-01-20T10:35:18.000Z</time>
      </trkpt>
      <trkpt lat="47.29483" lon="-2.39893">
        <ele>6.5999999046326</ele>
        <time>2022-01-20T10:35:21.000Z</time>
      </trkpt>
      <trkpt lat="47.29467" lon="-2.39882">
        <ele>6.5999999046326</ele>
        <time>2022-01-20T10:35:25.000Z</time>
      </trkpt>
      <trkpt lat="47.29457" lon="-2.39867">
        <ele>6.5999999046326</ele>
        <time>2022-01-20T10:35:28.000Z</time>
      </trkpt>
      <trkpt lat="47.29453" lon="-2.39862">
        <ele>6.5999999046326</ele>
        <time>2022-01-20T10:35:29.000Z</time>
      </trkpt>
      <trkpt lat="47.29446" lon="-2.39853">
        <ele>6.5999999046326</ele>
        <time>2022-01-20T10:35:31.000Z</time>
      </trkpt>
      <trkpt lat="47.29432" lon="-2.39847">
        <ele>6.5999999046326</ele>
        <time>2022-01-20T10:35:34.000Z</time>
      </trkpt>
      <trkpt lat="47.29427" lon="-2.39847">
        <ele>6.5999999046326</ele>
        <time>2022-01-20T10:35:35.000Z</time>
      </trkpt>
      <trkpt lat="47.29405" lon="-2.39847">
        <ele>6.5999999046326</ele>
        <time>2022-01-20T10:35:39.000Z</time>
      </trkpt>
      <trkpt lat="47.294" lon="-2.3985">
        <ele>6.5999999046326</ele>
        <time>2022-01-20T10:35:40.000Z</time>
      </trkpt>
      <trkpt lat="47.29374" lon="-2.39867">
        <ele>6.5999999046326</ele>
        <time>2022-01-20T10:35:45.000Z</time>
      </trkpt>
      <trkpt lat="47.2934" lon="-2.39899">
        <ele>6.5999999046326</ele>
        <time>2022-01-20T10:35:52.000Z</time>
      </trkpt>
      <trkpt lat="47.29325" lon="-2.39916">
        <ele>6.5999999046326</ele>
        <time>2022-01-20T10:35:56.000Z</time>
      </trkpt>
      <trkpt lat="47.29321" lon="-2.3992">
        <ele>6.5999999046326</ele>
        <time>2022-01-20T10:35:57.000Z</time>
      </trkpt>
      <trkpt lat="47.29306" lon="-2.39941">
        <ele>6.5999999046326</ele>
        <time>2022-01-20T10:36:02.000Z</time>
      </trkpt>
      <trkpt lat="47.29296" lon="-2.39959">
        <ele>6.5999999046326</ele>
        <time>2022-01-20T10:36:07.000Z</time>
      </trkpt>
      <trkpt lat="47.29287" lon="-2.39978">
        <ele>6.5999999046326</ele>
        <time>2022-01-20T10:36:13.000Z</time>
      </trkpt>
      <trkpt lat="47.29277" lon="-2.4">
        <ele>6.5999999046326</ele>
        <time>2022-01-20T10:36:19.000Z</time>
      </trkpt>
      <trkpt lat="47.29261" lon="-2.40033">
        <ele>6.5999999046326</ele>
        <time>2022-01-20T10:36:25.000Z</time>
      </trkpt>
      <trkpt lat="47.29235" lon="-2.40086">
        <ele>6.5999999046326</ele>
        <time>2022-01-20T10:36:33.000Z</time>
      </trkpt>
      <trkpt lat="47.29213" lon="-2.40131">
        <ele>6.5999999046326</ele>
        <time>2022-01-20T10:36:40.000Z</time>
      </trkpt>
      <trkpt lat="47.29182" lon="-2.40199">
        <ele>6.5999999046326</ele>
        <time>2022-01-20T10:36:50.000Z</time>
      </trkpt>
      <trkpt lat="47.29179" lon="-2.40205">
        <ele>6.5999999046326</ele>
        <time>2022-01-20T10:36:51.000Z</time>
      </trkpt>
      <trkpt lat="47.29149" lon="-2.40269">
        <ele>6.5999999046326</ele>
        <time>2022-01-20T10:37:00.000Z</time>
      </trkpt>
      <trkpt lat="47.29118" lon="-2.40334">
        <ele>6.5999999046326</ele>
        <time>2022-01-20T10:37:09.000Z</time>
      </trkpt>
      <trkpt lat="47.29084" lon="-2.40403">
        <ele>6.5999999046326</ele>
        <time>2022-01-20T10:37:18.000Z</time>
      </trkpt>
      <trkpt lat="47.29048" lon="-2.40475">
        <ele>6.5999999046326</ele>
        <time>2022-01-20T10:37:27.000Z</time>
      </trkpt>
      <trkpt lat="47.29044" lon="-2.40482">
        <ele>6.5999999046326</ele>
        <time>2022-01-20T10:37:28.000Z</time>
      </trkpt>
      <trkpt lat="47.29009" lon="-2.40531">
        <ele>6.5999999046326</ele>
        <time>2022-01-20T10:37:35.000Z</time>
      </trkpt>
      <trkpt lat="47.28968" lon="-2.4057">
        <ele>6.5999999046326</ele>
        <time>2022-01-20T10:37:42.000Z</time>
      </trkpt>
      <trkpt lat="47.28963" lon="-2.40574">
        <ele>6.5999999046326</ele>
        <time>2022-01-20T10:37:43.000Z</time>
      </trkpt>
      <trkpt lat="47.28913" lon="-2.40609">
        <ele>6.5999999046326</ele>
        <time>2022-01-20T10:37:51.000Z</time>
      </trkpt>
      <trkpt lat="47.28907" lon="-2.40613">
        <ele>6.5999999046326</ele>
        <time>2022-01-20T10:37:52.000Z</time>
      </trkpt>
      <trkpt lat="47.28857" lon="-2.40644">
        <ele>6.5999999046326</ele>
        <time>2022-01-20T10:38:00.000Z</time>
      </trkpt>
      <trkpt lat="47.28851" lon="-2.40648">
        <ele>6.5999999046326</ele>
        <time>2022-01-20T10:38:01.000Z</time>
      </trkpt>
      <trkpt lat="47.28802" lon="-2.40685">
        <ele>6.5999999046326</ele>
        <time>2022-01-20T10:38:09.000Z</time>
      </trkpt>
      <trkpt lat="47.28763" lon="-2.40726">
        <ele>6.5999999046326</ele>
        <time>2022-01-20T10:38:16.000Z</time>
      </trkpt>
      <trkpt lat="47.2873" lon="-2.40778">
        <ele>6.5999999046326</ele>
        <time>2022-01-20T10:38:23.000Z</time>
      </trkpt>
      <trkpt lat="47.28713" lon="-2.40829">
        <ele>6.5999999046326</ele>
        <time>2022-01-20T10:38:29.000Z</time>
      </trkpt>
      <trkpt lat="47.28706" lon="-2.40875">
        <ele>6.5999999046326</ele>
        <time>2022-01-20T10:38:34.000Z</time>
      </trkpt>
      <trkpt lat="47.28707" lon="-2.40939">
        <ele>6.5999999046326</ele>
        <time>2022-01-20T10:38:41.000Z</time>
      </trkpt>
      <trkpt lat="47.2872" lon="-2.4101">
        <ele>6.5999999046326</ele>
        <time>2022-01-20T10:38:49.000Z</time>
      </trkpt>
      <trkpt lat="47.28739" lon="-2.41076">
        <ele>6.5999999046326</ele>
        <time>2022-01-20T10:38:57.000Z</time>
      </trkpt>
      <trkpt lat="47.28758" lon="-2.41141">
        <ele>6.5999999046326</ele>
        <time>2022-01-20T10:39:05.000Z</time>
      </trkpt>
      <trkpt lat="47.2877" lon="-2.41189">
        <ele>6.5999999046326</ele>
        <time>2022-01-20T10:39:11.000Z</time>
      </trkpt>
      <trkpt lat="47.28771" lon="-2.41196">
        <ele>6.5999999046326</ele>
        <time>2022-01-20T10:39:12.000Z</time>
      </trkpt>
      <trkpt lat="47.28776" lon="-2.41226">
        <ele>6.5999999046326</ele>
        <time>2022-01-20T10:39:16.000Z</time>
      </trkpt>
      <trkpt lat="47.28778" lon="-2.41233">
        <ele>6.5999999046326</ele>
        <time>2022-01-20T10:39:17.000Z</time>
      </trkpt>
      <trkpt lat="47.28778" lon="-2.41256">
        <ele>6.5999999046326</ele>
        <time>2022-01-20T10:39:20.000Z</time>
      </trkpt>
      <trkpt lat="47.28768" lon="-2.41272">
        <ele>6.5999999046326</ele>
        <time>2022-01-20T10:39:23.000Z</time>
      </trkpt>
      <trkpt lat="47.28755" lon="-2.41274">
        <ele>6.5999999046326</ele>
        <time>2022-01-20T10:39:26.000Z</time>
      </trkpt>
      <trkpt lat="47.28744" lon="-2.4126">
        <ele>6.5999999046326</ele>
        <time>2022-01-20T10:39:29.000Z</time>
      </trkpt>
      <trkpt lat="47.28737" lon="-2.41251">
        <ele>6.5999999046326</ele>
        <time>2022-01-20T10:39:31.000Z</time>
      </trkpt>
      <trkpt lat="47.28727" lon="-2.41245">
        <ele>6.5999999046326</ele>
        <time>2022-01-20T10:39:33.000Z</time>
      </trkpt>
      <trkpt lat="47.28692" lon="-2.41233">
        <ele>6.5999999046326</ele>
        <time>2022-01-20T10:39:39.000Z</time>
      </trkpt>
      <trkpt lat="47.2865" lon="-2.41225">
        <ele>6.5999999046326</ele>
        <time>2022-01-20T10:39:45.000Z</time>
      </trkpt>
      <trkpt lat="47.28627" lon="-2.4122">
        <ele>6.1999998092651</ele>
        <time>2022-01-20T10:39:48.000Z</time>
      </trkpt>
      <trkpt lat="47.2862" lon="-2.41219">
        <ele>5.8000001907349</ele>
        <time>2022-01-20T10:39:49.000Z</time>
      </trkpt>
      <trkpt lat="47.28612" lon="-2.41217">
        <ele>5.4000000953674</ele>
        <time>2022-01-20T10:39:50.000Z</time>
      </trkpt>
      <trkpt lat="47.28604" lon="-2.41215">
        <ele>5</ele>
        <time>2022-01-20T10:39:51.000Z</time>
      </trkpt>
      <trkpt lat="47.28596" lon="-2.41214">
        <ele>4.5999999046326</ele>
        <time>2022-01-20T10:39:52.000Z</time>
      </trkpt>
      <trkpt lat="47.28589" lon="-2.41212">
        <ele>4.5999999046326</ele>
        <time>2022-01-20T10:39:53.000Z</time>
      </trkpt>
      <trkpt lat="47.2854" lon="-2.412">
        <ele>4.5999999046326</ele>
        <time>2022-01-20T10:40:00.000Z</time>
      </trkpt>
      <trkpt lat="47.28527" lon="-2.41197">
        <ele>4.5999999046326</ele>
        <time>2022-01-20T10:40:03.000Z</time>
      </trkpt>
      <trkpt lat="47.28518" lon="-2.412">
        <ele>4.5999999046326</ele>
        <time>2022-01-20T10:40:05.000Z</time>
      </trkpt>
      <trkpt lat="47.28505" lon="-2.41203">
        <ele>4.5999999046326</ele>
        <time>2022-01-20T10:40:08.000Z</time>
      </trkpt>
      <trkpt lat="47.28499" lon="-2.41209">
        <ele>4.5999999046326</ele>
        <time>2022-01-20T10:40:10.000Z</time>
      </trkpt>
      <trkpt lat="47.28486" lon="-2.41214">
        <ele>4.5999999046326</ele>
        <time>2022-01-20T10:40:14.000Z</time>
      </trkpt>
      <trkpt lat="47.28475" lon="-2.41207">
        <ele>4.5999999046326</ele>
        <time>2022-01-20T10:40:17.000Z</time>
      </trkpt>
      <trkpt lat="47.2847" lon="-2.41206">
        <ele>4.5999999046326</ele>
        <time>2022-01-20T10:40:18.000Z</time>
      </trkpt>
      <trkpt lat="47.28466" lon="-2.41206">
        <ele>5</ele>
        <time>2022-01-20T10:40:19.000Z</time>
      </trkpt>
      <trkpt lat="47.28462" lon="-2.41208">
        <ele>5.4000000953674</ele>
        <time>2022-01-20T10:40:20.000Z</time>
      </trkpt>
      <trkpt lat="47.28458" lon="-2.41211">
        <ele>5.8000001907349</ele>
        <time>2022-01-20T10:40:21.000Z</time>
      </trkpt>
      <trkpt lat="47.28454" lon="-2.41213">
        <ele>6.1999998092651</ele>
        <time>2022-01-20T10:40:22.000Z</time>
      </trkpt>
      <trkpt lat="47.2845" lon="-2.41214">
        <ele>6.5999999046326</ele>
        <time>2022-01-20T10:40:23.000Z</time>
      </trkpt>
      <trkpt lat="47.28446" lon="-2.41217">
        <ele>6.5999999046326</ele>
        <time>2022-01-20T10:40:24.000Z</time>
      </trkpt>
      <trkpt lat="47.28433" lon="-2.41226">
        <ele>6.5999999046326</ele>
        <time>2022-01-20T10:40:28.000Z</time>
      </trkpt>
      <trkpt lat="47.28428" lon="-2.41236">
        <ele>6.5999999046326</ele>
        <time>2022-01-20T10:40:32.000Z</time>
      </trkpt>
      <trkpt lat="47.28429" lon="-2.41241">
        <ele>6.5999999046326</ele>
        <time>2022-01-20T10:40:34.000Z</time>
      </trkpt>
      <trkpt lat="47.28434" lon="-2.41249">
        <ele>6.1999998092651</ele>
        <time>2022-01-20T10:40:36.000Z</time>
      </trkpt>
      <trkpt lat="47.28437" lon="-2.41253">
        <ele>5.8000001907349</ele>
        <time>2022-01-20T10:40:37.000Z</time>
      </trkpt>
      <trkpt lat="47.2844" lon="-2.41256">
        <ele>5.4000000953674</ele>
        <time>2022-01-20T10:40:38.000Z</time>
      </trkpt>
      <trkpt lat="47.28444" lon="-2.4126">
        <ele>5</ele>
        <time>2022-01-20T10:40:39.000Z</time>
      </trkpt>
      <trkpt lat="47.28447" lon="-2.41263">
        <ele>4.5999999046326</ele>
        <time>2022-01-20T10:40:40.000Z</time>
      </trkpt>
      <trkpt lat="47.28452" lon="-2.41268">
        <ele>4.5999999046326</ele>
        <time>2022-01-20T10:40:42.000Z</time>
      </trkpt>
      <trkpt lat="47.28456" lon="-2.41284">
        <ele>4.5999999046326</ele>
        <time>2022-01-20T10:40:46.000Z</time>
      </trkpt>
      <trkpt lat="47.28453" lon="-2.41314">
        <ele>4.5999999046326</ele>
        <time>2022-01-20T10:40:52.000Z</time>
      </trkpt>
      <trkpt lat="47.28448" lon="-2.41339">
        <ele>4.5999999046326</ele>
        <time>2022-01-20T10:40:56.000Z</time>
      </trkpt>
      <trkpt lat="47.28446" lon="-2.41346">
        <ele>4.5999999046326</ele>
        <time>2022-01-20T10:40:57.000Z</time>
      </trkpt>
      <trkpt lat="47.2843" lon="-2.41397">
        <ele>4.5999999046326</ele>
        <time>2022-01-20T10:41:04.000Z</time>
      </trkpt>
      <trkpt lat="47.28427" lon="-2.41414">
        <ele>4.5999999046326</ele>
        <time>2022-01-20T10:41:06.000Z</time>
      </trkpt>
      <trkpt lat="47.28421" lon="-2.41441">
        <ele>4.5999999046326</ele>
        <time>2022-01-20T10:41:09.000Z</time>
      </trkpt>
      <trkpt lat="47.28414" lon="-2.41509">
        <ele>4.5999999046326</ele>
        <time>2022-01-20T10:41:16.000Z</time>
      </trkpt>
      <trkpt lat="47.28406" lon="-2.41586">
        <ele>4.5999999046326</ele>
        <time>2022-01-20T10:41:24.000Z</time>
      </trkpt>
      <trkpt lat="47.28399" lon="-2.41643">
        <ele>4.5999999046326</ele>
        <time>2022-01-20T10:41:30.000Z</time>
      </trkpt>
      <trkpt lat="47.28393" lon="-2.4169">
        <ele>4.5999999046326</ele>
        <time>2022-01-20T10:41:35.000Z</time>
      </trkpt>
      <trkpt lat="47.28391" lon="-2.41699">
        <ele>4.5999999046326</ele>
        <time>2022-01-20T10:41:36.000Z</time>
      </trkpt>
      <trkpt lat="47.2837" lon="-2.41781">
        <ele>4.5999999046326</ele>
        <time>2022-01-20T10:41:45.000Z</time>
      </trkpt>
      <trkpt lat="47.28353" lon="-2.41851">
        <ele>4.5999999046326</ele>
        <time>2022-01-20T10:41:53.000Z</time>
      </trkpt>
      <trkpt lat="47.28338" lon="-2.41909">
        <ele>4.5999999046326</ele>
        <time>2022-01-20T10:42:01.000Z</time>
      </trkpt>
      <trkpt lat="47.28323" lon="-2.41961">
        <ele>4.5999999046326</ele>
        <time>2022-01-20T10:42:08.000Z</time>
      </trkpt>
      <trkpt lat="47.28314" lon="-2.41988">
        <ele>4.5999999046326</ele>
        <time>2022-01-20T10:42:12.000Z</time>
      </trkpt>
      <trkpt lat="47.28311" lon="-2.41991">
        <ele>4.5999999046326</ele>
        <time>2022-01-20T10:42:13.000Z</time>
      </trkpt>
      <trkpt lat="47.28297" lon="-2.41993">
        <ele>4.5999999046326</ele>
        <time>2022-01-20T10:42:16.000Z</time>
      </trkpt>
      <trkpt lat="47.28289" lon="-2.42001">
        <ele>4.5999999046326</ele>
        <time>2022-01-20T10:42:18.000Z</time>
      </trkpt>
      <trkpt lat="47.28284" lon="-2.42002">
        <ele>4.5999999046326</ele>
        <time>2022-01-20T10:42:19.000Z</time>
      </trkpt>
      <trkpt lat="47.2827" lon="-2.41996">
        <ele>4.5999999046326</ele>
        <time>2022-01-20T10:42:22.000Z</time>
      </trkpt>
      <trkpt lat="47.28266" lon="-2.41993">
        <ele>4.5999999046326</ele>
        <time>2022-01-20T10:42:23.000Z</time>
      </trkpt>
      <trkpt lat="47.28241" lon="-2.41973">
        <ele>4.5999999046326</ele>
        <time>2022-01-20T10:42:29.000Z</time>
      </trkpt>
      <trkpt lat="47.28224" lon="-2.41955">
        <ele>4.5999999046326</ele>
        <time>2022-01-20T10:42:33.000Z</time>
      </trkpt>
      <trkpt lat="47.28219" lon="-2.41953">
        <ele>4.5999999046326</ele>
        <time>2022-01-20T10:42:34.000Z</time>
      </trkpt>
      <trkpt lat="47.28175" lon="-2.4193">
        <ele>4.5999999046326</ele>
        <time>2022-01-20T10:42:42.000Z</time>
      </trkpt>
      <trkpt lat="47.28136" lon="-2.4191">
        <ele>4.5999999046326</ele>
        <time>2022-01-20T10:42:50.000Z</time>
      </trkpt>
      <trkpt lat="47.28108" lon="-2.41895">
        <ele>4.5999999046326</ele>
        <time>2022-01-20T10:42:56.000Z</time>
      </trkpt>
      <trkpt lat="47.28076" lon="-2.41878">
        <ele>4.5999999046326</ele>
        <time>2022-01-20T10:43:03.000Z</time>
      </trkpt>
      <trkpt lat="47.28044" lon="-2.4186">
        <ele>4.5999999046326</ele>
        <time>2022-01-20T10:43:10.000Z</time>
      </trkpt>
      <trkpt lat="47.28015" lon="-2.41842">
        <ele>4.5999999046326</ele>
        <time>2022-01-20T10:43:16.000Z</time>
      </trkpt>
      <trkpt lat="47.27996" lon="-2.41832">
        <ele>4.5999999046326</ele>
        <time>2022-01-20T10:43:21.000Z</time>
      </trkpt>
      <trkpt lat="47.27981" lon="-2.41821">
        <ele>4.5999999046326</ele>
        <time>2022-01-20T10:43:26.000Z</time>
      </trkpt>
      <trkpt lat="47.27954" lon="-2.4181">
        <ele>4.5999999046326</ele>
        <time>2022-01-20T10:43:33.000Z</time>
      </trkpt>
      <trkpt lat="47.27941" lon="-2.41805">
        <ele>4.5999999046326</ele>
        <time>2022-01-20T10:43:36.000Z</time>
      </trkpt>
      <trkpt lat="47.27932" lon="-2.41801">
        <ele>4.5999999046326</ele>
        <time>2022-01-20T10:43:38.000Z</time>
      </trkpt>
      <trkpt lat="47.27909" lon="-2.41792">
        <ele>4.5999999046326</ele>
        <time>2022-01-20T10:43:44.000Z</time>
      </trkpt>
      <trkpt lat="47.2789" lon="-2.41783">
        <ele>4.5999999046326</ele>
        <time>2022-01-20T10:43:50.000Z</time>
      </trkpt>
      <trkpt lat="47.2787" lon="-2.41769">
        <ele>4.5999999046326</ele>
        <time>2022-01-20T10:43:56.000Z</time>
      </trkpt>
      <trkpt lat="47.27851" lon="-2.41755">
        <ele>4.5999999046326</ele>
        <time>2022-01-20T10:44:03.000Z</time>
      </trkpt>
      <trkpt lat="47.2785" lon="-2.41753">
        <ele>4.5999999046326</ele>
        <time>2022-01-20T10:44:04.000Z</time>
      </trkpt>
      <trkpt lat="47.27851" lon="-2.41749">
        <ele>4.5999999046326</ele>
        <time>2022-01-20T10:44:06.000Z</time>
      </trkpt>
      <trkpt lat="47.27857" lon="-2.41732">
        <ele>4.5999999046326</ele>
        <time>2022-01-20T10:44:12.000Z</time>
      </trkpt>
      <trkpt lat="47.27869" lon="-2.41704">
        <ele>4.5999999046326</ele>
        <time>2022-01-20T10:44:19.000Z</time>
      </trkpt>
      <trkpt lat="47.27874" lon="-2.41692">
        <ele>4.5999999046326</ele>
        <time>2022-01-20T10:44:21.000Z</time>
      </trkpt>
      <trkpt lat="47.27885" lon="-2.41669">
        <ele>4.5999999046326</ele>
        <time>2022-01-20T10:44:25.000Z</time>
      </trkpt>
      <trkpt lat="47.27888" lon="-2.41663">
        <ele>4.5999999046326</ele>
        <time>2022-01-20T10:44:26.000Z</time>
      </trkpt>
      <trkpt lat="47.27895" lon="-2.41645">
        <ele>4.5999999046326</ele>
        <time>2022-01-20T10:44:29.000Z</time>
      </trkpt>
      <trkpt lat="47.27897" lon="-2.41639">
        <ele>4.5999999046326</ele>
        <time>2022-01-20T10:44:30.000Z</time>
      </trkpt>
      <trkpt lat="47.27901" lon="-2.41633">
        <ele>4.5999999046326</ele>
        <time>2022-01-20T10:44:31.000Z</time>
      </trkpt>
      <trkpt lat="47.27908" lon="-2.41621">
        <ele>4.5999999046326</ele>
        <time>2022-01-20T10:44:33.000Z</time>
      </trkpt>
      <trkpt lat="47.27911" lon="-2.41615">
        <ele>4.5999999046326</ele>
        <time>2022-01-20T10:44:34.000Z</time>
      </trkpt>
      <trkpt lat="47.2793" lon="-2.41576">
        <ele>4.5999999046326</ele>
        <time>2022-01-20T10:44:41.000Z</time>
      </trkpt>
      <trkpt lat="47.27939" lon="-2.4156">
        <ele>4.5999999046326</ele>
        <time>2022-01-20T10:44:44.000Z</time>
      </trkpt>
      <trkpt lat="47.27948" lon="-2.41545">
        <ele>4.5999999046326</ele>
        <time>2022-01-20T10:44:47.000Z</time>
      </trkpt>
      <trkpt lat="47.27955" lon="-2.41524">
        <ele>5</ele>
        <time>2022-01-20T10:44:51.000Z</time>
      </trkpt>
      <trkpt lat="47.27957" lon="-2.41518">
        <ele>5.4000000953674</ele>
        <time>2022-01-20T10:44:52.000Z</time>
      </trkpt>
      <trkpt lat="47.27959" lon="-2.41512">
        <ele>5.8000001907349</ele>
        <time>2022-01-20T10:44:53.000Z</time>
      </trkpt>
      <trkpt lat="47.27962" lon="-2.41506">
        <ele>6.4000000953674</ele>
        <time>2022-01-20T10:44:54.000Z</time>
      </trkpt>
      <trkpt lat="47.27964" lon="-2.41499">
        <ele>6.8000001907349</ele>
        <time>2022-01-20T10:44:55.000Z</time>
      </trkpt>
      <trkpt lat="47.27967" lon="-2.41493">
        <ele>6.8000001907349</ele>
        <time>2022-01-20T10:44:56.000Z</time>
      </trkpt>
      <trkpt lat="47.27968" lon="-2.41486">
        <ele>6.8000001907349</ele>
        <time>2022-01-20T10:44:57.000Z</time>
      </trkpt>
      <trkpt lat="47.27975" lon="-2.41459">
        <ele>6.8000001907349</ele>
        <time>2022-01-20T10:45:01.000Z</time>
      </trkpt>
      <trkpt lat="47.27984" lon="-2.41429">
        <ele>6.8000001907349</ele>
        <time>2022-01-20T10:45:06.000Z</time>
      </trkpt>
      <trkpt lat="47.27987" lon="-2.41416">
        <ele>6.8000001907349</ele>
        <time>2022-01-20T10:45:08.000Z</time>
      </trkpt>
      <trkpt lat="47.27989" lon="-2.41396">
        <ele>6.8000001907349</ele>
        <time>2022-01-20T10:45:11.000Z</time>
      </trkpt>
      <trkpt lat="47.27993" lon="-2.41369">
        <ele>6.8000001907349</ele>
        <time>2022-01-20T10:45:15.000Z</time>
      </trkpt>
      <trkpt lat="47.28" lon="-2.41318">
        <ele>6.8000001907349</ele>
        <time>2022-01-20T10:45:22.000Z</time>
      </trkpt>
      <trkpt lat="47.28009" lon="-2.41274">
        <ele>6.8000001907349</ele>
        <time>2022-01-20T10:45:28.000Z</time>
      </trkpt>
      <trkpt lat="47.2802" lon="-2.41233">
        <ele>6.8000001907349</ele>
        <time>2022-01-20T10:45:34.000Z</time>
      </trkpt>
      <trkpt lat="47.28022" lon="-2.41227">
        <ele>6.8000001907349</ele>
        <time>2022-01-20T10:45:35.000Z</time>
      </trkpt>
      <trkpt lat="47.28026" lon="-2.41207">
        <ele>6.8000001907349</ele>
        <time>2022-01-20T10:45:40.000Z</time>
      </trkpt>
      <trkpt lat="47.28028" lon="-2.41195">
        <ele>6.8000001907349</ele>
        <time>2022-01-20T10:45:45.000Z</time>
      </trkpt>
      <trkpt lat="47.28032" lon="-2.41174">
        <ele>6.8000001907349</ele>
        <time>2022-01-20T10:45:51.000Z</time>
      </trkpt>
      <trkpt lat="47.28035" lon="-2.41169">
        <ele>6.8000001907349</ele>
        <time>2022-01-20T10:45:54.000Z</time>
      </trkpt>
      <trkpt lat="47.28036" lon="-2.41164">
        <ele>6.8000001907349</ele>
        <time>2022-01-20T10:46:16.000Z</time>
      </trkpt>
      <trkpt lat="47.28039" lon="-2.41148">
        <ele>6.8000001907349</ele>
        <time>2022-01-20T10:46:22.000Z</time>
      </trkpt>
      <trkpt lat="47.28042" lon="-2.41133">
        <ele>6.8000001907349</ele>
        <time>2022-01-20T10:46:28.000Z</time>
      </trkpt>
      <trkpt lat="47.28044" lon="-2.41114">
        <ele>6.8000001907349</ele>
        <time>2022-01-20T10:46:33.000Z</time>
      </trkpt>
      <trkpt lat="47.28046" lon="-2.41086">
        <ele>6.8000001907349</ele>
        <time>2022-01-20T10:46:38.000Z</time>
      </trkpt>
      <trkpt lat="47.28055" lon="-2.41043">
        <ele>6.8000001907349</ele>
        <time>2022-01-20T10:46:44.000Z</time>
      </trkpt>
      <trkpt lat="47.28063" lon="-2.41">
        <ele>6.8000001907349</ele>
        <time>2022-01-20T10:46:50.000Z</time>
      </trkpt>
      <trkpt lat="47.28065" lon="-2.40993">
        <ele>6.8000001907349</ele>
        <time>2022-01-20T10:46:51.000Z</time>
      </trkpt>
      <trkpt lat="47.28075" lon="-2.40955">
        <ele>6.8000001907349</ele>
        <time>2022-01-20T10:46:57.000Z</time>
      </trkpt>
      <trkpt lat="47.28079" lon="-2.40936">
        <ele>6.8000001907349</ele>
        <time>2022-01-20T10:47:00.000Z</time>
      </trkpt>
      <trkpt lat="47.28077" lon="-2.40924">
        <ele>6.8000001907349</ele>
        <time>2022-01-20T10:47:02.000Z</time>
      </trkpt>
      <trkpt lat="47.28072" lon="-2.40912">
        <ele>6.8000001907349</ele>
        <time>2022-01-20T10:47:04.000Z</time>
      </trkpt>
      <trkpt lat="47.2806" lon="-2.40887">
        <ele>6.8000001907349</ele>
        <time>2022-01-20T10:47:08.000Z</time>
      </trkpt>
      <trkpt lat="47.28058" lon="-2.4088">
        <ele>6.8000001907349</ele>
        <time>2022-01-20T10:47:09.000Z</time>
      </trkpt>
      <trkpt lat="47.2805" lon="-2.40859">
        <ele>6.8000001907349</ele>
        <time>2022-01-20T10:47:13.000Z</time>
      </trkpt>
      <trkpt lat="47.28042" lon="-2.40835">
        <ele>6.8000001907349</ele>
        <time>2022-01-20T10:47:17.000Z</time>
      </trkpt>
      <trkpt lat="47.28036" lon="-2.40827">
        <ele>6.8000001907349</ele>
        <time>2022-01-20T10:47:19.000Z</time>
      </trkpt>
      <trkpt lat="47.28033" lon="-2.40811">
        <ele>6.8000001907349</ele>
        <time>2022-01-20T10:47:22.000Z</time>
      </trkpt>
      <trkpt lat="47.28034" lon="-2.40787">
        <ele>6.8000001907349</ele>
        <time>2022-01-20T10:47:27.000Z</time>
      </trkpt>
      <trkpt lat="47.28037" lon="-2.40771">
        <ele>6.8000001907349</ele>
        <time>2022-01-20T10:47:30.000Z</time>
      </trkpt>
      <trkpt lat="47.28038" lon="-2.40766">
        <ele>6.8000001907349</ele>
        <time>2022-01-20T10:47:31.000Z</time>
      </trkpt>
      <trkpt lat="47.28046" lon="-2.40723">
        <ele>6.8000001907349</ele>
        <time>2022-01-20T10:47:38.000Z</time>
      </trkpt>
      <trkpt lat="47.28051" lon="-2.40705">
        <ele>6.8000001907349</ele>
        <time>2022-01-20T10:47:41.000Z</time>
      </trkpt>
      <trkpt lat="47.28054" lon="-2.40691">
        <ele>6.8000001907349</ele>
        <time>2022-01-20T10:47:43.000Z</time>
      </trkpt>
      <trkpt lat="47.28052" lon="-2.4067">
        <ele>6.8000001907349</ele>
        <time>2022-01-20T10:47:46.000Z</time>
      </trkpt>
      <trkpt lat="47.2805" lon="-2.40663">
        <ele>6.8000001907349</ele>
        <time>2022-01-20T10:47:47.000Z</time>
      </trkpt>
      <trkpt lat="47.28044" lon="-2.40633">
        <ele>6.8000001907349</ele>
        <time>2022-01-20T10:47:51.000Z</time>
      </trkpt>
      <trkpt lat="47.28044" lon="-2.40625">
        <ele>6.8000001907349</ele>
        <time>2022-01-20T10:47:52.000Z</time>
      </trkpt>
      <trkpt lat="47.28049" lon="-2.40594">
        <ele>6.8000001907349</ele>
        <time>2022-01-20T10:47:56.000Z</time>
      </trkpt>
      <trkpt lat="47.28051" lon="-2.40587">
        <ele>6.8000001907349</ele>
        <time>2022-01-20T10:47:57.000Z</time>
      </trkpt>
      <trkpt lat="47.28058" lon="-2.40549">
        <ele>6.8000001907349</ele>
        <time>2022-01-20T10:48:02.000Z</time>
      </trkpt>
      <trkpt lat="47.28068" lon="-2.40502">
        <ele>6.8000001907349</ele>
        <time>2022-01-20T10:48:09.000Z</time>
      </trkpt>
      <trkpt lat="47.28072" lon="-2.40488">
        <ele>6.8000001907349</ele>
        <time>2022-01-20T10:48:11.000Z</time>
      </trkpt>
      <trkpt lat="47.28081" lon="-2.4047">
        <ele>6.8000001907349</ele>
        <time>2022-01-20T10:48:14.000Z</time>
      </trkpt>
      <trkpt lat="47.28088" lon="-2.40459">
        <ele>6.8000001907349</ele>
        <time>2022-01-20T10:48:16.000Z</time>
      </trkpt>
      <trkpt lat="47.28099" lon="-2.4044">
        <ele>6.8000001907349</ele>
        <time>2022-01-20T10:48:19.000Z</time>
      </trkpt>
      <trkpt lat="47.28102" lon="-2.40434">
        <ele>6.8000001907349</ele>
        <time>2022-01-20T10:48:20.000Z</time>
      </trkpt>
      <trkpt lat="47.28104" lon="-2.40427">
        <ele>6.8000001907349</ele>
        <time>2022-01-20T10:48:21.000Z</time>
      </trkpt>
      <trkpt lat="47.28109" lon="-2.40405">
        <ele>6.8000001907349</ele>
        <time>2022-01-20T10:48:24.000Z</time>
      </trkpt>
      <trkpt lat="47.2811" lon="-2.40397">
        <ele>6.8000001907349</ele>
        <time>2022-01-20T10:48:25.000Z</time>
      </trkpt>
      <trkpt lat="47.28117" lon="-2.40334">
        <ele>6.8000001907349</ele>
        <time>2022-01-20T10:48:33.000Z</time>
      </trkpt>
      <trkpt lat="47.28122" lon="-2.40303">
        <ele>7.1999998092651</ele>
        <time>2022-01-20T10:48:37.000Z</time>
      </trkpt>
      <trkpt lat="47.28122" lon="-2.40295">
        <ele>7.5999999046326</ele>
        <time>2022-01-20T10:48:38.000Z</time>
      </trkpt>
      <trkpt lat="47.28123" lon="-2.40287">
        <ele>8</ele>
        <time>2022-01-20T10:48:39.000Z</time>
      </trkpt>
      <trkpt lat="47.28125" lon="-2.40279">
        <ele>8.8000001907349</ele>
        <time>2022-01-20T10:48:40.000Z</time>
      </trkpt>
      <trkpt lat="47.28126" lon="-2.40262">
        <ele>8.8000001907349</ele>
        <time>2022-01-20T10:48:42.000Z</time>
      </trkpt>
      <trkpt lat="47.28133" lon="-2.40205">
        <ele>8.8000001907349</ele>
        <time>2022-01-20T10:48:49.000Z</time>
      </trkpt>
      <trkpt lat="47.28139" lon="-2.40146">
        <ele>8.8000001907349</ele>
        <time>2022-01-20T10:48:56.000Z</time>
      </trkpt>
      <trkpt lat="47.28144" lon="-2.40083">
        <ele>8.8000001907349</ele>
        <time>2022-01-20T10:49:04.000Z</time>
      </trkpt>
      <trkpt lat="47.2815" lon="-2.40028">
        <ele>8.8000001907349</ele>
        <time>2022-01-20T10:49:11.000Z</time>
      </trkpt>
      <trkpt lat="47.28151" lon="-2.4002">
        <ele>8.8000001907349</ele>
        <time>2022-01-20T10:49:12.000Z</time>
      </trkpt>
      <trkpt lat="47.28154" lon="-2.39988">
        <ele>8.8000001907349</ele>
        <time>2022-01-20T10:49:16.000Z</time>
      </trkpt>
      <trkpt lat="47.28155" lon="-2.3998">
        <ele>8.8000001907349</ele>
        <time>2022-01-20T10:49:17.000Z</time>
      </trkpt>
      <trkpt lat="47.28156" lon="-2.39963">
        <ele>8.8000001907349</ele>
        <time>2022-01-20T10:49:19.000Z</time>
      </trkpt>
      <trkpt lat="47.28156" lon="-2.39946">
        <ele>8.8000001907349</ele>
        <time>2022-01-20T10:49:21.000Z</time>
      </trkpt>
      <trkpt lat="47.2816" lon="-2.39887">
        <ele>8.8000001907349</ele>
        <time>2022-01-20T10:49:28.000Z</time>
      </trkpt>
      <trkpt lat="47.28164" lon="-2.39814">
        <ele>8.8000001907349</ele>
        <time>2022-01-20T10:49:37.000Z</time>
      </trkpt>
      <trkpt lat="47.28168" lon="-2.39752">
        <ele>8.8000001907349</ele>
        <time>2022-01-20T10:49:44.000Z</time>
      </trkpt>
      <trkpt lat="47.28171" lon="-2.39689">
        <ele>8.8000001907349</ele>
        <time>2022-01-20T10:49:51.000Z</time>
      </trkpt>
      <trkpt lat="47.28172" lon="-2.39617">
        <ele>8.8000001907349</ele>
        <time>2022-01-20T10:49:59.000Z</time>
      </trkpt>
      <trkpt lat="47.28174" lon="-2.39544">
        <ele>8.8000001907349</ele>
        <time>2022-01-20T10:50:07.000Z</time>
      </trkpt>
      <trkpt lat="47.28175" lon="-2.39499">
        <ele>8.8000001907349</ele>
        <time>2022-01-20T10:50:13.000Z</time>
      </trkpt>
      <trkpt lat="47.28175" lon="-2.3945">
        <ele>8.8000001907349</ele>
        <time>2022-01-20T10:50:19.000Z</time>
      </trkpt>
      <trkpt lat="47.28175" lon="-2.39381">
        <ele>8.8000001907349</ele>
        <time>2022-01-20T10:50:27.000Z</time>
      </trkpt>
      <trkpt lat="47.28174" lon="-2.393">
        <ele>8.8000001907349</ele>
        <time>2022-01-20T10:50:36.000Z</time>
      </trkpt>
      <trkpt lat="47.28174" lon="-2.39292">
        <ele>9.1999998092651</ele>
        <time>2022-01-20T10:50:37.000Z</time>
      </trkpt>
      <trkpt lat="47.28174" lon="-2.39286">
        <ele>9.8000001907349</ele>
        <time>2022-01-20T10:50:38.000Z</time>
      </trkpt>
      <trkpt lat="47.28174" lon="-2.3928">
        <ele>10.199999809265</ele>
        <time>2022-01-20T10:50:39.000Z</time>
      </trkpt>
      <trkpt lat="47.28174" lon="-2.39275">
        <ele>10.800000190735</ele>
        <time>2022-01-20T10:50:40.000Z</time>
      </trkpt>
      <trkpt lat="47.28173" lon="-2.39271">
        <ele>11.199999809265</ele>
        <time>2022-01-20T10:50:41.000Z</time>
      </trkpt>
      <trkpt lat="47.28173" lon="-2.3926">
        <ele>11.199999809265</ele>
        <time>2022-01-20T10:50:45.000Z</time>
      </trkpt>
      <trkpt lat="47.28173" lon="-2.39256">
        <ele>10.800000190735</ele>
        <time>2022-01-20T10:50:48.000Z</time>
      </trkpt>
      <trkpt lat="47.28173" lon="-2.39256">
        <ele>10.39999961853</ele>
        <time>2022-01-20T10:50:49.000Z</time>
      </trkpt>
      <trkpt lat="47.28173" lon="-2.39253">
        <ele>9.1999998092651</ele>
        <time>2022-01-20T10:51:33.000Z</time>
      </trkpt>
      <trkpt lat="47.28174" lon="-2.39232">
        <ele>9.1999998092651</ele>
        <time>2022-01-20T10:51:38.000Z</time>
      </trkpt>
      <trkpt lat="47.28174" lon="-2.39225">
        <ele>9.1999998092651</ele>
        <time>2022-01-20T10:51:39.000Z</time>
      </trkpt>
      <trkpt lat="47.28174" lon="-2.39211">
        <ele>9.1999998092651</ele>
        <time>2022-01-20T10:51:41.000Z</time>
      </trkpt>
      <trkpt lat="47.28173" lon="-2.39203">
        <ele>9.1999998092651</ele>
        <time>2022-01-20T10:51:42.000Z</time>
      </trkpt>
      <trkpt lat="47.2817" lon="-2.39149">
        <ele>9.1999998092651</ele>
        <time>2022-01-20T10:51:49.000Z</time>
      </trkpt>
      <trkpt lat="47.28166" lon="-2.3909">
        <ele>9.1999998092651</ele>
        <time>2022-01-20T10:51:56.000Z</time>
      </trkpt>
      <trkpt lat="47.28159" lon="-2.39009">
        <ele>9.1999998092651</ele>
        <time>2022-01-20T10:52:05.000Z</time>
      </trkpt>
      <trkpt lat="47.28155" lon="-2.38964">
        <ele>9.1999998092651</ele>
        <time>2022-01-20T10:52:10.000Z</time>
      </trkpt>
      <trkpt lat="47.2815" lon="-2.38946">
        <ele>9.1999998092651</ele>
        <time>2022-01-20T10:52:12.000Z</time>
      </trkpt>
      <trkpt lat="47.28138" lon="-2.3889">
        <ele>9.1999998092651</ele>
        <time>2022-01-20T10:52:18.000Z</time>
      </trkpt>
      <trkpt lat="47.28129" lon="-2.3881">
        <ele>9.1999998092651</ele>
        <time>2022-01-20T10:52:26.000Z</time>
      </trkpt>
      <trkpt lat="47.28124" lon="-2.38755">
        <ele>9.1999998092651</ele>
        <time>2022-01-20T10:52:32.000Z</time>
      </trkpt>
      <trkpt lat="47.28116" lon="-2.38671">
        <ele>9.1999998092651</ele>
        <time>2022-01-20T10:52:41.000Z</time>
      </trkpt>
      <trkpt lat="47.28116" lon="-2.38662">
        <ele>9.1999998092651</ele>
        <time>2022-01-20T10:52:42.000Z</time>
      </trkpt>
      <trkpt lat="47.28109" lon="-2.38597">
        <ele>9.1999998092651</ele>
        <time>2022-01-20T10:52:49.000Z</time>
      </trkpt>
      <trkpt lat="47.28101" lon="-2.38522">
        <ele>9.1999998092651</ele>
        <time>2022-01-20T10:52:57.000Z</time>
      </trkpt>
      <trkpt lat="47.28088" lon="-2.38448">
        <ele>9.1999998092651</ele>
        <time>2022-01-20T10:53:05.000Z</time>
      </trkpt>
      <trkpt lat="47.28073" lon="-2.38361">
        <ele>9.1999998092651</ele>
        <time>2022-01-20T10:53:14.000Z</time>
      </trkpt>
      <trkpt lat="47.28071" lon="-2.38351">
        <ele>9.1999998092651</ele>
        <time>2022-01-20T10:53:15.000Z</time>
      </trkpt>
      <trkpt lat="47.28056" lon="-2.38278">
        <ele>9.1999998092651</ele>
        <time>2022-01-20T10:53:22.000Z</time>
      </trkpt>
      <trkpt lat="47.28044" lon="-2.38208">
        <ele>9.1999998092651</ele>
        <time>2022-01-20T10:53:29.000Z</time>
      </trkpt>
      <trkpt lat="47.28031" lon="-2.38139">
        <ele>9.1999998092651</ele>
        <time>2022-01-20T10:53:36.000Z</time>
      </trkpt>
      <trkpt lat="47.28015" lon="-2.38062">
        <ele>9.1999998092651</ele>
        <time>2022-01-20T10:53:44.000Z</time>
      </trkpt>
      <trkpt lat="47.28001" lon="-2.37985">
        <ele>9.1999998092651</ele>
        <time>2022-01-20T10:53:52.000Z</time>
      </trkpt>
      <trkpt lat="47.27992" lon="-2.37936">
        <ele>9.1999998092651</ele>
        <time>2022-01-20T10:53:58.000Z</time>
      </trkpt>
      <trkpt lat="47.2798" lon="-2.3788">
        <ele>9.1999998092651</ele>
        <time>2022-01-20T10:54:05.000Z</time>
      </trkpt>
      <trkpt lat="47.27971" lon="-2.37821">
        <ele>9.1999998092651</ele>
        <time>2022-01-20T10:54:13.000Z</time>
      </trkpt>
      <trkpt lat="47.27973" lon="-2.37791">
        <ele>9.1999998092651</ele>
        <time>2022-01-20T10:54:18.000Z</time>
      </trkpt>
      <trkpt lat="47.27985" lon="-2.37789">
        <ele>9.1999998092651</ele>
        <time>2022-01-20T10:54:21.000Z</time>
      </trkpt>
      <trkpt lat="47.27999" lon="-2.37775">
        <ele>9.1999998092651</ele>
        <time>2022-01-20T10:54:24.000Z</time>
      </trkpt>
      <trkpt lat="47.2803" lon="-2.37749">
        <ele>9.1999998092651</ele>
        <time>2022-01-20T10:54:30.000Z</time>
      </trkpt>
      <trkpt lat="47.28059" lon="-2.37718">
        <ele>9.1999998092651</ele>
        <time>2022-01-20T10:54:36.000Z</time>
      </trkpt>
      <trkpt lat="47.28094" lon="-2.37682">
        <ele>9.1999998092651</ele>
        <time>2022-01-20T10:54:43.000Z</time>
      </trkpt>
      <trkpt lat="47.28128" lon="-2.37646">
        <ele>9.1999998092651</ele>
        <time>2022-01-20T10:54:50.000Z</time>
      </trkpt>
      <trkpt lat="47.28142" lon="-2.37633">
        <ele>9.1999998092651</ele>
        <time>2022-01-20T10:54:53.000Z</time>
      </trkpt>
      <trkpt lat="47.28153" lon="-2.3763">
        <ele>9.1999998092651</ele>
        <time>2022-01-20T10:54:55.000Z</time>
      </trkpt>
      <trkpt lat="47.28165" lon="-2.37631">
        <ele>9.1999998092651</ele>
        <time>2022-01-20T10:54:57.000Z</time>
      </trkpt>
      <trkpt lat="47.28182" lon="-2.37632">
        <ele>9.1999998092651</ele>
        <time>2022-01-20T10:55:00.000Z</time>
      </trkpt>
      <trkpt lat="47.2823" lon="-2.37636">
        <ele>9.1999998092651</ele>
        <time>2022-01-20T10:55:08.000Z</time>
      </trkpt>
      <trkpt lat="47.2826" lon="-2.37626">
        <ele>9.1999998092651</ele>
        <time>2022-01-20T10:55:13.000Z</time>
      </trkpt>
      <trkpt lat="47.28288" lon="-2.37605">
        <ele>9.1999998092651</ele>
        <time>2022-01-20T10:55:18.000Z</time>
      </trkpt>
      <trkpt lat="47.28307" lon="-2.37585">
        <ele>9.1999998092651</ele>
        <time>2022-01-20T10:55:22.000Z</time>
      </trkpt>
      <trkpt lat="47.28315" lon="-2.37572">
        <ele>9.1999998092651</ele>
        <time>2022-01-20T10:55:24.000Z</time>
      </trkpt>
      <trkpt lat="47.28333" lon="-2.3755">
        <ele>9.1999998092651</ele>
        <time>2022-01-20T10:55:28.000Z</time>
      </trkpt>
      <trkpt lat="47.28342" lon="-2.37542">
        <ele>9.1999998092651</ele>
        <time>2022-01-20T10:55:30.000Z</time>
      </trkpt>
      <trkpt lat="47.28358" lon="-2.37534">
        <ele>9.1999998092651</ele>
        <time>2022-01-20T10:55:33.000Z</time>
      </trkpt>
      <trkpt lat="47.28368" lon="-2.37531">
        <ele>9.1999998092651</ele>
        <time>2022-01-20T10:55:35.000Z</time>
      </trkpt>
      <trkpt lat="47.28388" lon="-2.37528">
        <ele>9.1999998092651</ele>
        <time>2022-01-20T10:55:40.000Z</time>
      </trkpt>
      <trkpt lat="47.28398" lon="-2.37526">
        <ele>9.1999998092651</ele>
        <time>2022-01-20T10:55:42.000Z</time>
      </trkpt>
      <trkpt lat="47.28409" lon="-2.37519">
        <ele>9.1999998092651</ele>
        <time>2022-01-20T10:55:44.000Z</time>
      </trkpt>
      <trkpt lat="47.28429" lon="-2.37494">
        <ele>9.1999998092651</ele>
        <time>2022-01-20T10:55:48.000Z</time>
      </trkpt>
      <trkpt lat="47.28438" lon="-2.37478">
        <ele>9.1999998092651</ele>
        <time>2022-01-20T10:55:50.000Z</time>
      </trkpt>
      <trkpt lat="47.28444" lon="-2.37459">
        <ele>9.1999998092651</ele>
        <time>2022-01-20T10:55:52.000Z</time>
      </trkpt>
      <trkpt lat="47.28458" lon="-2.37408">
        <ele>9.1999998092651</ele>
        <time>2022-01-20T10:55:58.000Z</time>
      </trkpt>
      <trkpt lat="47.28465" lon="-2.37371">
        <ele>9.1999998092651</ele>
        <time>2022-01-20T10:56:03.000Z</time>
      </trkpt>
      <trkpt lat="47.28474" lon="-2.37325">
        <ele>9.1999998092651</ele>
        <time>2022-01-20T10:56:09.000Z</time>
      </trkpt>
      <trkpt lat="47.28478" lon="-2.37283">
        <ele>9.1999998092651</ele>
        <time>2022-01-20T10:56:14.000Z</time>
      </trkpt>
      <trkpt lat="47.28479" lon="-2.37276">
        <ele>9.1999998092651</ele>
        <time>2022-01-20T10:56:15.000Z</time>
      </trkpt>
      <trkpt lat="47.28485" lon="-2.37212">
        <ele>9.1999998092651</ele>
        <time>2022-01-20T10:56:23.000Z</time>
      </trkpt>
      <trkpt lat="47.28487" lon="-2.37173">
        <ele>9.6000003814697</ele>
        <time>2022-01-20T10:56:28.000Z</time>
      </trkpt>
      <trkpt lat="47.28487" lon="-2.37165">
        <ele>10.39999961853</ele>
        <time>2022-01-20T10:56:29.000Z</time>
      </trkpt>
      <trkpt lat="47.28488" lon="-2.37158">
        <ele>10.800000190735</ele>
        <time>2022-01-20T10:56:30.000Z</time>
      </trkpt>
      <trkpt lat="47.28488" lon="-2.3715">
        <ele>11.199999809265</ele>
        <time>2022-01-20T10:56:31.000Z</time>
      </trkpt>
      <trkpt lat="47.28491" lon="-2.37109">
        <ele>11.199999809265</ele>
        <time>2022-01-20T10:56:36.000Z</time>
      </trkpt>
      <trkpt lat="47.28493" lon="-2.37038">
        <ele>11.60000038147</ele>
        <time>2022-01-20T10:56:45.000Z</time>
      </trkpt>
      <trkpt lat="47.28493" lon="-2.37031">
        <ele>12</ele>
        <time>2022-01-20T10:56:46.000Z</time>
      </trkpt>
      <trkpt lat="47.28493" lon="-2.37024">
        <ele>12.60000038147</ele>
        <time>2022-01-20T10:56:47.000Z</time>
      </trkpt>
      <trkpt lat="47.28492" lon="-2.37018">
        <ele>13</ele>
        <time>2022-01-20T10:56:48.000Z</time>
      </trkpt>
      <trkpt lat="47.28492" lon="-2.37012">
        <ele>13.39999961853</ele>
        <time>2022-01-20T10:56:49.000Z</time>
      </trkpt>
      <trkpt lat="47.28491" lon="-2.37">
        <ele>13.39999961853</ele>
        <time>2022-01-20T10:56:51.000Z</time>
      </trkpt>
      <trkpt lat="47.2849" lon="-2.36994">
        <ele>13.800000190735</ele>
        <time>2022-01-20T10:56:52.000Z</time>
      </trkpt>
      <trkpt lat="47.28489" lon="-2.36988">
        <ele>14.199999809265</ele>
        <time>2022-01-20T10:56:53.000Z</time>
      </trkpt>
      <trkpt lat="47.28488" lon="-2.36982">
        <ele>15.199999809265</ele>
        <time>2022-01-20T10:56:54.000Z</time>
      </trkpt>
      <trkpt lat="47.28488" lon="-2.36976">
        <ele>15.60000038147</ele>
        <time>2022-01-20T10:56:55.000Z</time>
      </trkpt>
      <trkpt lat="47.28488" lon="-2.36966">
        <ele>15.60000038147</ele>
        <time>2022-01-20T10:56:57.000Z</time>
      </trkpt>
      <trkpt lat="47.28488" lon="-2.36955">
        <ele>16</ele>
        <time>2022-01-20T10:56:59.000Z</time>
      </trkpt>
      <trkpt lat="47.28488" lon="-2.36949">
        <ele>16.39999961853</ele>
        <time>2022-01-20T10:57:00.000Z</time>
      </trkpt>
      <trkpt lat="47.28487" lon="-2.36944">
        <ele>16.799999237061</ele>
        <time>2022-01-20T10:57:01.000Z</time>
      </trkpt>
      <trkpt lat="47.28486" lon="-2.36939">
        <ele>17.200000762939</ele>
        <time>2022-01-20T10:57:02.000Z</time>
      </trkpt>
      <trkpt lat="47.28486" lon="-2.36933">
        <ele>17.799999237061</ele>
        <time>2022-01-20T10:57:03.000Z</time>
      </trkpt>
      <trkpt lat="47.28485" lon="-2.36929">
        <ele>17.799999237061</ele>
        <time>2022-01-20T10:57:04.000Z</time>
      </trkpt>
      <trkpt lat="47.28483" lon="-2.36919">
        <ele>18.200000762939</ele>
        <time>2022-01-20T10:57:06.000Z</time>
      </trkpt>
      <trkpt lat="47.28482" lon="-2.36913">
        <ele>18.60000038147</ele>
        <time>2022-01-20T10:57:07.000Z</time>
      </trkpt>
      <trkpt lat="47.2848" lon="-2.36907">
        <ele>19</ele>
        <time>2022-01-20T10:57:08.000Z</time>
      </trkpt>
      <trkpt lat="47.28479" lon="-2.36902">
        <ele>19.39999961853</ele>
        <time>2022-01-20T10:57:09.000Z</time>
      </trkpt>
      <trkpt lat="47.28478" lon="-2.36897">
        <ele>19.799999237061</ele>
        <time>2022-01-20T10:57:10.000Z</time>
      </trkpt>
      <trkpt lat="47.28472" lon="-2.36865">
        <ele>20.39999961853</ele>
        <time>2022-01-20T10:57:16.000Z</time>
      </trkpt>
      <trkpt lat="47.28471" lon="-2.3686">
        <ele>20.799999237061</ele>
        <time>2022-01-20T10:57:17.000Z</time>
      </trkpt>
      <trkpt lat="47.28471" lon="-2.36854">
        <ele>21.200000762939</ele>
        <time>2022-01-20T10:57:18.000Z</time>
      </trkpt>
      <trkpt lat="47.28471" lon="-2.36849">
        <ele>22</ele>
        <time>2022-01-20T10:57:19.000Z</time>
      </trkpt>
      <trkpt lat="47.28471" lon="-2.36838">
        <ele>22</ele>
        <time>2022-01-20T10:57:21.000Z</time>
      </trkpt>
      <trkpt lat="47.28468" lon="-2.36818">
        <ele>22</ele>
        <time>2022-01-20T10:57:25.000Z</time>
      </trkpt>
      <trkpt lat="47.2846" lon="-2.36787">
        <ele>22.39999961853</ele>
        <time>2022-01-20T10:57:31.000Z</time>
      </trkpt>
      <trkpt lat="47.2846" lon="-2.36783">
        <ele>22.799999237061</ele>
        <time>2022-01-20T10:57:32.000Z</time>
      </trkpt>
      <trkpt lat="47.28459" lon="-2.36778">
        <ele>23.200000762939</ele>
        <time>2022-01-20T10:57:33.000Z</time>
      </trkpt>
      <trkpt lat="47.28457" lon="-2.36772">
        <ele>23.799999237061</ele>
        <time>2022-01-20T10:57:34.000Z</time>
      </trkpt>
      <trkpt lat="47.28456" lon="-2.36767">
        <ele>24.200000762939</ele>
        <time>2022-01-20T10:57:35.000Z</time>
      </trkpt>
      <trkpt lat="47.28451" lon="-2.3675">
        <ele>24.200000762939</ele>
        <time>2022-01-20T10:57:38.000Z</time>
      </trkpt>
      <trkpt lat="47.28449" lon="-2.36725">
        <ele>24.60000038147</ele>
        <time>2022-01-20T10:57:43.000Z</time>
      </trkpt>
      <trkpt lat="47.28452" lon="-2.36721">
        <ele>25</ele>
        <time>2022-01-20T10:57:44.000Z</time>
      </trkpt>
      <trkpt lat="47.28454" lon="-2.36717">
        <ele>25.39999961853</ele>
        <time>2022-01-20T10:57:45.000Z</time>
      </trkpt>
      <trkpt lat="47.28457" lon="-2.36713">
        <ele>25.799999237061</ele>
        <time>2022-01-20T10:57:46.000Z</time>
      </trkpt>
      <trkpt lat="47.28461" lon="-2.3671">
        <ele>26.200000762939</ele>
        <time>2022-01-20T10:57:47.000Z</time>
      </trkpt>
      <trkpt lat="47.28464" lon="-2.36706">
        <ele>26.200000762939</ele>
        <time>2022-01-20T10:57:48.000Z</time>
      </trkpt>
      <trkpt lat="47.28487" lon="-2.3668">
        <ele>26.200000762939</ele>
        <time>2022-01-20T10:57:55.000Z</time>
      </trkpt>
      <trkpt lat="47.2849" lon="-2.36677">
        <ele>26.200000762939</ele>
        <time>2022-01-20T10:57:56.000Z</time>
      </trkpt>
      <trkpt lat="47.28494" lon="-2.36662">
        <ele>26.200000762939</ele>
        <time>2022-01-20T10:57:59.000Z</time>
      </trkpt>
      <trkpt lat="47.28493" lon="-2.36657">
        <ele>26.200000762939</ele>
        <time>2022-01-20T10:58:00.000Z</time>
      </trkpt>
      <trkpt lat="47.28488" lon="-2.36635">
        <ele>26.200000762939</ele>
        <time>2022-01-20T10:58:04.000Z</time>
      </trkpt>
      <trkpt lat="47.28485" lon="-2.36623">
        <ele>26.200000762939</ele>
        <time>2022-01-20T10:58:06.000Z</time>
      </trkpt>
      <trkpt lat="47.28473" lon="-2.36581">
        <ele>26.200000762939</ele>
        <time>2022-01-20T10:58:13.000Z</time>
      </trkpt>
      <trkpt lat="47.28472" lon="-2.36574">
        <ele>26.60000038147</ele>
        <time>2022-01-20T10:58:14.000Z</time>
      </trkpt>
      <trkpt lat="47.28472" lon="-2.36569">
        <ele>27</ele>
        <time>2022-01-20T10:58:15.000Z</time>
      </trkpt>
      <trkpt lat="47.28474" lon="-2.36563">
        <ele>27.60000038147</ele>
        <time>2022-01-20T10:58:16.000Z</time>
      </trkpt>
      <trkpt lat="47.28477" lon="-2.36557">
        <ele>28</ele>
        <time>2022-01-20T10:58:17.000Z</time>
      </trkpt>
      <trkpt lat="47.2848" lon="-2.36552">
        <ele>28.39999961853</ele>
        <time>2022-01-20T10:58:18.000Z</time>
      </trkpt>
      <trkpt lat="47.28486" lon="-2.36544">
        <ele>28.39999961853</ele>
        <time>2022-01-20T10:58:20.000Z</time>
      </trkpt>
      <trkpt lat="47.2849" lon="-2.3654">
        <ele>28.39999961853</ele>
        <time>2022-01-20T10:58:21.000Z</time>
      </trkpt>
      <trkpt lat="47.28493" lon="-2.36536">
        <ele>28.39999961853</ele>
        <time>2022-01-20T10:58:22.000Z</time>
      </trkpt>
      <trkpt lat="47.28507" lon="-2.36521">
        <ele>28.39999961853</ele>
        <time>2022-01-20T10:58:26.000Z</time>
      </trkpt>
      <trkpt lat="47.28515" lon="-2.36511">
        <ele>28.799999237061</ele>
        <time>2022-01-20T10:58:29.000Z</time>
      </trkpt>
      <trkpt lat="47.28518" lon="-2.36508">
        <ele>29.200000762939</ele>
        <time>2022-01-20T10:58:30.000Z</time>
      </trkpt>
      <trkpt lat="47.2852" lon="-2.36505">
        <ele>29.60000038147</ele>
        <time>2022-01-20T10:58:31.000Z</time>
      </trkpt>
      <trkpt lat="47.28522" lon="-2.36501">
        <ele>30</ele>
        <time>2022-01-20T10:58:32.000Z</time>
      </trkpt>
      <trkpt lat="47.28523" lon="-2.36497">
        <ele>30.39999961853</ele>
        <time>2022-01-20T10:58:33.000Z</time>
      </trkpt>
      <trkpt lat="47.28521" lon="-2.36486">
        <ele>30.39999961853</ele>
        <time>2022-01-20T10:58:35.000Z</time>
      </trkpt>
      <trkpt lat="47.28519" lon="-2.3647">
        <ele>30.39999961853</ele>
        <time>2022-01-20T10:58:39.000Z</time>
      </trkpt>
      <trkpt lat="47.28514" lon="-2.36461">
        <ele>30.799999237061</ele>
        <time>2022-01-20T10:58:41.000Z</time>
      </trkpt>
      <trkpt lat="47.2851" lon="-2.36456">
        <ele>31.200000762939</ele>
        <time>2022-01-20T10:58:42.000Z</time>
      </trkpt>
      <trkpt lat="47.28507" lon="-2.36452">
        <ele>31.799999237061</ele>
        <time>2022-01-20T10:58:43.000Z</time>
      </trkpt>
      <trkpt lat="47.28504" lon="-2.36449">
        <ele>32.200000762939</ele>
        <time>2022-01-20T10:58:44.000Z</time>
      </trkpt>
      <trkpt lat="47.285" lon="-2.36446">
        <ele>32.599998474121</ele>
        <time>2022-01-20T10:58:45.000Z</time>
      </trkpt>
      <trkpt lat="47.28496" lon="-2.36443">
        <ele>32.599998474121</ele>
        <time>2022-01-20T10:58:46.000Z</time>
      </trkpt>
      <trkpt lat="47.28489" lon="-2.36438">
        <ele>32.599998474121</ele>
        <time>2022-01-20T10:58:48.000Z</time>
      </trkpt>
      <trkpt lat="47.28479" lon="-2.36429">
        <ele>32.599998474121</ele>
        <time>2022-01-20T10:58:53.000Z</time>
      </trkpt>
      <trkpt lat="47.28475" lon="-2.36426">
        <ele>32.599998474121</ele>
        <time>2022-01-20T10:58:57.000Z</time>
      </trkpt>
      <trkpt lat="47.28474" lon="-2.36419">
        <ele>32.599998474121</ele>
        <time>2022-01-20T10:59:48.000Z</time>
      </trkpt>
      <trkpt lat="47.28472" lon="-2.364">
        <ele>32.599998474121</ele>
        <time>2022-01-20T10:59:52.000Z</time>
      </trkpt>
      <trkpt lat="47.2847" lon="-2.36369">
        <ele>32.599998474121</ele>
        <time>2022-01-20T10:59:57.000Z</time>
      </trkpt>
      <trkpt lat="47.28467" lon="-2.36318">
        <ele>32.599998474121</ele>
        <time>2022-01-20T11:00:04.000Z</time>
      </trkpt>
      <trkpt lat="47.28462" lon="-2.36284">
        <ele>32.599998474121</ele>
        <time>2022-01-20T11:00:09.000Z</time>
      </trkpt>
      <trkpt lat="47.28459" lon="-2.36247">
        <ele>32.599998474121</ele>
        <time>2022-01-20T11:00:15.000Z</time>
      </trkpt>
      <trkpt lat="47.28455" lon="-2.36208">
        <ele>32.599998474121</ele>
        <time>2022-01-20T11:00:22.000Z</time>
      </trkpt>
      <trkpt lat="47.28454" lon="-2.362">
        <ele>33</ele>
        <time>2022-01-20T11:00:24.000Z</time>
      </trkpt>
      <trkpt lat="47.28451" lon="-2.36197">
        <ele>33.400001525879</ele>
        <time>2022-01-20T11:00:25.000Z</time>
      </trkpt>
      <trkpt lat="47.28449" lon="-2.36194">
        <ele>33.799999237061</ele>
        <time>2022-01-20T11:00:26.000Z</time>
      </trkpt>
      <trkpt lat="47.28449" lon="-2.36191">
        <ele>34.200000762939</ele>
        <time>2022-01-20T11:00:27.000Z</time>
      </trkpt>
      <trkpt lat="47.28449" lon="-2.36186">
        <ele>34.599998474121</ele>
        <time>2022-01-20T11:00:28.000Z</time>
      </trkpt>
      <trkpt lat="47.2845" lon="-2.36181">
        <ele>34.599998474121</ele>
        <time>2022-01-20T11:00:29.000Z</time>
      </trkpt>
      <trkpt lat="47.2845" lon="-2.36172">
        <ele>34.599998474121</ele>
        <time>2022-01-20T11:00:31.000Z</time>
      </trkpt>
      <trkpt lat="47.2845" lon="-2.36167">
        <ele>35.200000762939</ele>
        <time>2022-01-20T11:00:32.000Z</time>
      </trkpt>
      <trkpt lat="47.2845" lon="-2.36163">
        <ele>35.599998474121</ele>
        <time>2022-01-20T11:00:33.000Z</time>
      </trkpt>
      <trkpt lat="47.28449" lon="-2.36159">
        <ele>36</ele>
        <time>2022-01-20T11:00:34.000Z</time>
      </trkpt>
      <trkpt lat="47.28448" lon="-2.36156">
        <ele>36.400001525879</ele>
        <time>2022-01-20T11:00:35.000Z</time>
      </trkpt>
      <trkpt lat="47.28447" lon="-2.36154">
        <ele>36.799999237061</ele>
        <time>2022-01-20T11:00:36.000Z</time>
      </trkpt>
      <trkpt lat="47.28446" lon="-2.36151">
        <ele>36.799999237061</ele>
        <time>2022-01-20T11:00:37.000Z</time>
      </trkpt>
      <trkpt lat="47.28445" lon="-2.3614">
        <ele>37.400001525879</ele>
        <time>2022-01-20T11:00:40.000Z</time>
      </trkpt>
      <trkpt lat="47.28445" lon="-2.36136">
        <ele>37.799999237061</ele>
        <time>2022-01-20T11:00:41.000Z</time>
      </trkpt>
      <trkpt lat="47.28444" lon="-2.36132">
        <ele>38.200000762939</ele>
        <time>2022-01-20T11:00:42.000Z</time>
      </trkpt>
      <trkpt lat="47.28443" lon="-2.36127">
        <ele>38.599998474121</ele>
        <time>2022-01-20T11:00:43.000Z</time>
      </trkpt>
      <trkpt lat="47.28442" lon="-2.36124">
        <ele>39</ele>
        <time>2022-01-20T11:00:44.000Z</time>
      </trkpt>
      <trkpt lat="47.2844" lon="-2.36107">
        <ele>39</ele>
        <time>2022-01-20T11:00:48.000Z</time>
      </trkpt>
      <trkpt lat="47.28439" lon="-2.361">
        <ele>39.599998474121</ele>
        <time>2022-01-20T11:00:50.000Z</time>
      </trkpt>
      <trkpt lat="47.28439" lon="-2.36096">
        <ele>40</ele>
        <time>2022-01-20T11:00:51.000Z</time>
      </trkpt>
      <trkpt lat="47.28438" lon="-2.36093">
        <ele>40.400001525879</ele>
        <time>2022-01-20T11:00:52.000Z</time>
      </trkpt>
      <trkpt lat="47.28437" lon="-2.3609">
        <ele>40.799999237061</ele>
        <time>2022-01-20T11:00:53.000Z</time>
      </trkpt>
      <trkpt lat="47.28436" lon="-2.36089">
        <ele>41.200000762939</ele>
        <time>2022-01-20T11:00:54.000Z</time>
      </trkpt>
      <trkpt lat="47.28428" lon="-2.36091">
        <ele>41.200000762939</ele>
        <time>2022-01-20T11:00:58.000Z</time>
      </trkpt>
      <trkpt lat="47.28427" lon="-2.36092">
        <ele>41.200000762939</ele>
        <time>2022-01-20T11:00:59.000Z</time>
      </trkpt>
      <trkpt lat="47.28419" lon="-2.361">
        <ele>41.200000762939</ele>
        <time>2022-01-20T11:01:04.000Z</time>
      </trkpt>
      <trkpt lat="47.2842" lon="-2.36104">
        <ele>41.200000762939</ele>
        <time>2022-01-20T11:01:06.000Z</time>
      </trkpt>
      <trkpt lat="47.28419" lon="-2.36108">
        <ele>41.200000762939</ele>
        <time>2022-01-20T11:01:08.000Z</time>
      </trkpt>
      <trkpt lat="47.28417" lon="-2.36111">
        <ele>41.200000762939</ele>
        <time>2022-01-20T11:01:09.000Z</time>
      </trkpt>
      <trkpt lat="47.2841" lon="-2.36116">
        <ele>41.200000762939</ele>
        <time>2022-01-20T11:01:12.000Z</time>
      </trkpt>
      <trkpt lat="47.28404" lon="-2.36116">
        <ele>41.200000762939</ele>
        <time>2022-01-20T11:01:14.000Z</time>
      </trkpt>
      <trkpt lat="47.28395" lon="-2.36114">
        <ele>41.200000762939</ele>
        <time>2022-01-20T11:01:19.000Z</time>
      </trkpt>
      <trkpt lat="47.28392" lon="-2.36113">
        <ele>41.200000762939</ele>
        <time>2022-01-20T11:01:21.000Z</time>
      </trkpt>
      <trkpt lat="47.28389" lon="-2.36119">
        <ele>41.200000762939</ele>
        <time>2022-01-20T11:01:24.000Z</time>
      </trkpt>
      <trkpt lat="47.28382" lon="-2.36133">
        <ele>41.200000762939</ele>
        <time>2022-01-20T11:01:28.000Z</time>
      </trkpt>
      <trkpt lat="47.2838" lon="-2.36135">
        <ele>41.200000762939</ele>
        <time>2022-01-20T11:01:29.000Z</time>
      </trkpt>
      <trkpt lat="47.28376" lon="-2.36141">
        <ele>40.799999237061</ele>
        <time>2022-01-20T11:01:32.000Z</time>
      </trkpt>
      <trkpt lat="47.28375" lon="-2.36144">
        <ele>40.400001525879</ele>
        <time>2022-01-20T11:01:33.000Z</time>
      </trkpt>
      <trkpt lat="47.28373" lon="-2.36147">
        <ele>40</ele>
        <time>2022-01-20T11:01:34.000Z</time>
      </trkpt>
      <trkpt lat="47.28371" lon="-2.3615">
        <ele>39.599998474121</ele>
        <time>2022-01-20T11:01:35.000Z</time>
      </trkpt>
      <trkpt lat="47.28369" lon="-2.36154">
        <ele>39</ele>
        <time>2022-01-20T11:01:36.000Z</time>
      </trkpt>
      <trkpt lat="47.28366" lon="-2.36158">
        <ele>38.400001525879</ele>
        <time>2022-01-20T11:01:37.000Z</time>
      </trkpt>
      <trkpt lat="47.28364" lon="-2.36163">
        <ele>37.400001525879</ele>
        <time>2022-01-20T11:01:38.000Z</time>
      </trkpt>
      <trkpt lat="47.28361" lon="-2.36169">
        <ele>36.599998474121</ele>
        <time>2022-01-20T11:01:39.000Z</time>
      </trkpt>
      <trkpt lat="47.28357" lon="-2.36174">
        <ele>35.599998474121</ele>
        <time>2022-01-20T11:01:40.000Z</time>
      </trkpt>
      <trkpt lat="47.28354" lon="-2.36181">
        <ele>34.599998474121</ele>
        <time>2022-01-20T11:01:41.000Z</time>
      </trkpt>
      <trkpt lat="47.2835" lon="-2.36187">
        <ele>33.599998474121</ele>
        <time>2022-01-20T11:01:42.000Z</time>
      </trkpt>
      <trkpt lat="47.28347" lon="-2.36192">
        <ele>32.799999237061</ele>
        <time>2022-01-20T11:01:43.000Z</time>
      </trkpt>
      <trkpt lat="47.28343" lon="-2.36195">
        <ele>32</ele>
        <time>2022-01-20T11:01:44.000Z</time>
      </trkpt>
      <trkpt lat="47.28339" lon="-2.36199">
        <ele>31</ele>
        <time>2022-01-20T11:01:45.000Z</time>
      </trkpt>
      <trkpt lat="47.28334" lon="-2.36203">
        <ele>30.200000762939</ele>
        <time>2022-01-20T11:01:46.000Z</time>
      </trkpt>
      <trkpt lat="47.28329" lon="-2.36207">
        <ele>29.200000762939</ele>
        <time>2022-01-20T11:01:47.000Z</time>
      </trkpt>
      <trkpt lat="47.28315" lon="-2.36217">
        <ele>29.200000762939</ele>
        <time>2022-01-20T11:01:49.000Z</time>
      </trkpt>
      <trkpt lat="47.28309" lon="-2.36221">
        <ele>28.799999237061</ele>
        <time>2022-01-20T11:01:50.000Z</time>
      </trkpt>
      <trkpt lat="47.28305" lon="-2.36225">
        <ele>27.799999237061</ele>
        <time>2022-01-20T11:01:51.000Z</time>
      </trkpt>
      <trkpt lat="47.283" lon="-2.36227">
        <ele>27.39999961853</ele>
        <time>2022-01-20T11:01:52.000Z</time>
      </trkpt>
      <trkpt lat="47.28294" lon="-2.36227">
        <ele>26.799999237061</ele>
        <time>2022-01-20T11:01:53.000Z</time>
      </trkpt>
      <trkpt lat="47.28291" lon="-2.36227">
        <ele>26.39999961853</ele>
        <time>2022-01-20T11:01:54.000Z</time>
      </trkpt>
      <trkpt lat="47.28288" lon="-2.36225">
        <ele>25.799999237061</ele>
        <time>2022-01-20T11:01:55.000Z</time>
      </trkpt>
      <trkpt lat="47.28284" lon="-2.36225">
        <ele>25.39999961853</ele>
        <time>2022-01-20T11:01:56.000Z</time>
      </trkpt>
      <trkpt lat="47.28281" lon="-2.36224">
        <ele>24.799999237061</ele>
        <time>2022-01-20T11:01:57.000Z</time>
      </trkpt>
      <trkpt lat="47.28276" lon="-2.36216">
        <ele>24.799999237061</ele>
        <time>2022-01-20T11:01:59.000Z</time>
      </trkpt>
      <trkpt lat="47.28272" lon="-2.36202">
        <ele>24.799999237061</ele>
        <time>2022-01-20T11:02:02.000Z</time>
      </trkpt>
      <trkpt lat="47.2827" lon="-2.36193">
        <ele>24.799999237061</ele>
        <time>2022-01-20T11:02:04.000Z</time>
      </trkpt>
      <trkpt lat="47.28263" lon="-2.36153">
        <ele>24.799999237061</ele>
        <time>2022-01-20T11:02:11.000Z</time>
      </trkpt>
      <trkpt lat="47.28256" lon="-2.3613">
        <ele>24.799999237061</ele>
        <time>2022-01-20T11:02:15.000Z</time>
      </trkpt>
      <trkpt lat="47.28246" lon="-2.36112">
        <ele>25.39999961853</ele>
        <time>2022-01-20T11:02:19.000Z</time>
      </trkpt>
      <trkpt lat="47.28244" lon="-2.36108">
        <ele>25.799999237061</ele>
        <time>2022-01-20T11:02:20.000Z</time>
      </trkpt>
      <trkpt lat="47.28243" lon="-2.36103">
        <ele>26.200000762939</ele>
        <time>2022-01-20T11:02:21.000Z</time>
      </trkpt>
      <trkpt lat="47.28242" lon="-2.36097">
        <ele>26.60000038147</ele>
        <time>2022-01-20T11:02:22.000Z</time>
      </trkpt>
      <trkpt lat="47.28242" lon="-2.36093">
        <ele>27</ele>
        <time>2022-01-20T11:02:23.000Z</time>
      </trkpt>
      <trkpt lat="47.28244" lon="-2.36083">
        <ele>27</ele>
        <time>2022-01-20T11:02:25.000Z</time>
      </trkpt>
      <trkpt lat="47.28247" lon="-2.36059">
        <ele>27</ele>
        <time>2022-01-20T11:02:29.000Z</time>
      </trkpt>
      <trkpt lat="47.28251" lon="-2.36037">
        <ele>27</ele>
        <time>2022-01-20T11:02:32.000Z</time>
      </trkpt>
      <trkpt lat="47.28254" lon="-2.36025">
        <ele>27</ele>
        <time>2022-01-20T11:02:34.000Z</time>
      </trkpt>
      <trkpt lat="47.28254" lon="-2.3602">
        <ele>26.60000038147</ele>
        <time>2022-01-20T11:02:37.000Z</time>
      </trkpt>
      <trkpt lat="47.28252" lon="-2.36022">
        <ele>26.200000762939</ele>
        <time>2022-01-20T11:02:38.000Z</time>
      </trkpt>
      <trkpt lat="47.28249" lon="-2.36023">
        <ele>25.799999237061</ele>
        <time>2022-01-20T11:02:39.000Z</time>
      </trkpt>
      <trkpt lat="47.28246" lon="-2.36026">
        <ele>24.799999237061</ele>
        <time>2022-01-20T11:02:40.000Z</time>
      </trkpt>
      <trkpt lat="47.28242" lon="-2.3603">
        <ele>24.799999237061</ele>
        <time>2022-01-20T11:02:41.000Z</time>
      </trkpt>
      <trkpt lat="47.28224" lon="-2.3604">
        <ele>24.39999961853</ele>
        <time>2022-01-20T11:02:46.000Z</time>
      </trkpt>
      <trkpt lat="47.28221" lon="-2.36041">
        <ele>24</ele>
        <time>2022-01-20T11:02:47.000Z</time>
      </trkpt>
      <trkpt lat="47.28216" lon="-2.36041">
        <ele>23.60000038147</ele>
        <time>2022-01-20T11:02:48.000Z</time>
      </trkpt>
      <trkpt lat="47.28213" lon="-2.36039">
        <ele>23.200000762939</ele>
        <time>2022-01-20T11:02:49.000Z</time>
      </trkpt>
      <trkpt lat="47.2821" lon="-2.36037">
        <ele>22.799999237061</ele>
        <time>2022-01-20T11:02:50.000Z</time>
      </trkpt>
      <trkpt lat="47.28207" lon="-2.36035">
        <ele>22.799999237061</ele>
        <time>2022-01-20T11:02:51.000Z</time>
      </trkpt>
      <trkpt lat="47.282" lon="-2.36022">
        <ele>22.799999237061</ele>
        <time>2022-01-20T11:02:55.000Z</time>
      </trkpt>
      <trkpt lat="47.28199" lon="-2.36017">
        <ele>22.799999237061</ele>
        <time>2022-01-20T11:02:56.000Z</time>
      </trkpt>
      <trkpt lat="47.28191" lon="-2.35998">
        <ele>22.799999237061</ele>
        <time>2022-01-20T11:03:01.000Z</time>
      </trkpt>
      <trkpt lat="47.28182" lon="-2.35972">
        <ele>22.799999237061</ele>
        <time>2022-01-20T11:03:07.000Z</time>
      </trkpt>
      <trkpt lat="47.2817" lon="-2.35951">
        <ele>23.200000762939</ele>
        <time>2022-01-20T11:03:12.000Z</time>
      </trkpt>
      <trkpt lat="47.28169" lon="-2.35948">
        <ele>23.60000038147</ele>
        <time>2022-01-20T11:03:13.000Z</time>
      </trkpt>
      <trkpt lat="47.28167" lon="-2.35946">
        <ele>24</ele>
        <time>2022-01-20T11:03:14.000Z</time>
      </trkpt>
      <trkpt lat="47.28166" lon="-2.35944">
        <ele>24.39999961853</ele>
        <time>2022-01-20T11:03:15.000Z</time>
      </trkpt>
      <trkpt lat="47.28165" lon="-2.35942">
        <ele>24.799999237061</ele>
        <time>2022-01-20T11:03:16.000Z</time>
      </trkpt>
      <trkpt lat="47.28164" lon="-2.3594">
        <ele>24.799999237061</ele>
        <time>2022-01-20T11:03:17.000Z</time>
      </trkpt>
      <trkpt lat="47.28161" lon="-2.3593">
        <ele>25.39999961853</ele>
        <time>2022-01-20T11:03:20.000Z</time>
      </trkpt>
      <trkpt lat="47.28159" lon="-2.35926">
        <ele>25.799999237061</ele>
        <time>2022-01-20T11:03:21.000Z</time>
      </trkpt>
      <trkpt lat="47.28157" lon="-2.35922">
        <ele>26.200000762939</ele>
        <time>2022-01-20T11:03:22.000Z</time>
      </trkpt>
      <trkpt lat="47.28154" lon="-2.35918">
        <ele>26.60000038147</ele>
        <time>2022-01-20T11:03:23.000Z</time>
      </trkpt>
      <trkpt lat="47.2815" lon="-2.35914">
        <ele>27</ele>
        <time>2022-01-20T11:03:24.000Z</time>
      </trkpt>
      <trkpt lat="47.28138" lon="-2.35896">
        <ele>27</ele>
        <time>2022-01-20T11:03:28.000Z</time>
      </trkpt>
      <trkpt lat="47.28122" lon="-2.35871">
        <ele>27</ele>
        <time>2022-01-20T11:03:33.000Z</time>
      </trkpt>
      <trkpt lat="47.2811" lon="-2.35849">
        <ele>27</ele>
        <time>2022-01-20T11:03:38.000Z</time>
      </trkpt>
      <trkpt lat="47.28094" lon="-2.35824">
        <ele>27</ele>
        <time>2022-01-20T11:03:44.000Z</time>
      </trkpt>
      <trkpt lat="47.28089" lon="-2.35815">
        <ele>27</ele>
        <time>2022-01-20T11:03:47.000Z</time>
      </trkpt>
      <trkpt lat="47.28089" lon="-2.35809">
        <ele>27</ele>
        <time>2022-01-20T11:03:48.000Z</time>
      </trkpt>
      <trkpt lat="47.28092" lon="-2.35787">
        <ele>27</ele>
        <time>2022-01-20T11:03:52.000Z</time>
      </trkpt>
      <trkpt lat="47.28093" lon="-2.35781">
        <ele>27</ele>
        <time>2022-01-20T11:03:53.000Z</time>
      </trkpt>
      <trkpt lat="47.28094" lon="-2.3575">
        <ele>27</ele>
        <time>2022-01-20T11:03:58.000Z</time>
      </trkpt>
      <trkpt lat="47.28095" lon="-2.35744">
        <ele>27.39999961853</ele>
        <time>2022-01-20T11:03:59.000Z</time>
      </trkpt>
      <trkpt lat="47.28097" lon="-2.35738">
        <ele>27.799999237061</ele>
        <time>2022-01-20T11:04:00.000Z</time>
      </trkpt>
      <trkpt lat="47.28096" lon="-2.35731">
        <ele>28.200000762939</ele>
        <time>2022-01-20T11:04:01.000Z</time>
      </trkpt>
      <trkpt lat="47.28097" lon="-2.35725">
        <ele>28.60000038147</ele>
        <time>2022-01-20T11:04:02.000Z</time>
      </trkpt>
      <trkpt lat="47.28096" lon="-2.35719">
        <ele>29</ele>
        <time>2022-01-20T11:04:03.000Z</time>
      </trkpt>
      <trkpt lat="47.28091" lon="-2.35689">
        <ele>29</ele>
        <time>2022-01-20T11:04:08.000Z</time>
      </trkpt>
      <trkpt lat="47.28083" lon="-2.35657">
        <ele>29</ele>
        <time>2022-01-20T11:04:14.000Z</time>
      </trkpt>
      <trkpt lat="47.28078" lon="-2.35638">
        <ele>28.60000038147</ele>
        <time>2022-01-20T11:04:18.000Z</time>
      </trkpt>
      <trkpt lat="47.28077" lon="-2.35634">
        <ele>27.799999237061</ele>
        <time>2022-01-20T11:04:19.000Z</time>
      </trkpt>
      <trkpt lat="47.28076" lon="-2.3563">
        <ele>27.200000762939</ele>
        <time>2022-01-20T11:04:20.000Z</time>
      </trkpt>
      <trkpt lat="47.28076" lon="-2.35626">
        <ele>26.799999237061</ele>
        <time>2022-01-20T11:04:21.000Z</time>
      </trkpt>
      <trkpt lat="47.28075" lon="-2.35621">
        <ele>26.200000762939</ele>
        <time>2022-01-20T11:04:22.000Z</time>
      </trkpt>
      <trkpt lat="47.28076" lon="-2.35617">
        <ele>25.799999237061</ele>
        <time>2022-01-20T11:04:23.000Z</time>
      </trkpt>
      <trkpt lat="47.28077" lon="-2.35613">
        <ele>25.200000762939</ele>
        <time>2022-01-20T11:04:24.000Z</time>
      </trkpt>
      <trkpt lat="47.28079" lon="-2.35611">
        <ele>24.799999237061</ele>
        <time>2022-01-20T11:04:25.000Z</time>
      </trkpt>
      <trkpt lat="47.28083" lon="-2.35612">
        <ele>24.799999237061</ele>
        <time>2022-01-20T11:04:27.000Z</time>
      </trkpt>
      <trkpt lat="47.28088" lon="-2.35617">
        <ele>24.799999237061</ele>
        <time>2022-01-20T11:04:30.000Z</time>
      </trkpt>
      <trkpt lat="47.28089" lon="-2.35622">
        <ele>24.799999237061</ele>
        <time>2022-01-20T11:04:33.000Z</time>
      </trkpt>
      <trkpt lat="47.28089" lon="-2.3562">
        <ele>24.799999237061</ele>
        <time>2022-01-20T11:13:45.000Z</time>
      </trkpt>
      <trkpt lat="47.28088" lon="-2.35616">
        <ele>24.799999237061</ele>
        <time>2022-01-20T11:13:48.000Z</time>
      </trkpt>
      <trkpt lat="47.28083" lon="-2.35608">
        <ele>24.799999237061</ele>
        <time>2022-01-20T11:13:54.000Z</time>
      </trkpt>
      <trkpt lat="47.2807" lon="-2.35596">
        <ele>24.799999237061</ele>
        <time>2022-01-20T11:14:01.000Z</time>
      </trkpt>
      <trkpt lat="47.28059" lon="-2.35581">
        <ele>24.799999237061</ele>
        <time>2022-01-20T11:14:07.000Z</time>
      </trkpt>
      <trkpt lat="47.28053" lon="-2.35579">
        <ele>24.39999961853</ele>
        <time>2022-01-20T11:14:09.000Z</time>
      </trkpt>
      <trkpt lat="47.28048" lon="-2.35578">
        <ele>24</ele>
        <time>2022-01-20T11:14:10.000Z</time>
      </trkpt>
      <trkpt lat="47.28044" lon="-2.35576">
        <ele>23.60000038147</ele>
        <time>2022-01-20T11:14:11.000Z</time>
      </trkpt>
      <trkpt lat="47.2804" lon="-2.35573">
        <ele>22.799999237061</ele>
        <time>2022-01-20T11:14:12.000Z</time>
      </trkpt>
      <trkpt lat="47.28026" lon="-2.35566">
        <ele>22.799999237061</ele>
        <time>2022-01-20T11:14:15.000Z</time>
      </trkpt>
      <trkpt lat="47.28021" lon="-2.35565">
        <ele>22.799999237061</ele>
        <time>2022-01-20T11:14:16.000Z</time>
      </trkpt>
      <trkpt lat="47.28003" lon="-2.3557">
        <ele>22.799999237061</ele>
        <time>2022-01-20T11:14:20.000Z</time>
      </trkpt>
      <trkpt lat="47.27978" lon="-2.35578">
        <ele>22.799999237061</ele>
        <time>2022-01-20T11:14:26.000Z</time>
      </trkpt>
      <trkpt lat="47.27969" lon="-2.3558">
        <ele>22.39999961853</ele>
        <time>2022-01-20T11:14:28.000Z</time>
      </trkpt>
      <trkpt lat="47.27964" lon="-2.35582">
        <ele>21.799999237061</ele>
        <time>2022-01-20T11:14:29.000Z</time>
      </trkpt>
      <trkpt lat="47.27959" lon="-2.35583">
        <ele>21.39999961853</ele>
        <time>2022-01-20T11:14:30.000Z</time>
      </trkpt>
      <trkpt lat="47.27955" lon="-2.35584">
        <ele>21</ele>
        <time>2022-01-20T11:14:31.000Z</time>
      </trkpt>
      <trkpt lat="47.2795" lon="-2.35585">
        <ele>20.60000038147</ele>
        <time>2022-01-20T11:14:32.000Z</time>
      </trkpt>
      <trkpt lat="47.27937" lon="-2.3559">
        <ele>20.60000038147</ele>
        <time>2022-01-20T11:14:35.000Z</time>
      </trkpt>
      <trkpt lat="47.27928" lon="-2.35591">
        <ele>20.60000038147</ele>
        <time>2022-01-20T11:14:37.000Z</time>
      </trkpt>
      <trkpt lat="47.27923" lon="-2.35592">
        <ele>20.60000038147</ele>
        <time>2022-01-20T11:14:38.000Z</time>
      </trkpt>
      <trkpt lat="47.27902" lon="-2.35596">
        <ele>20.200000762939</ele>
        <time>2022-01-20T11:14:42.000Z</time>
      </trkpt>
      <trkpt lat="47.27896" lon="-2.35597">
        <ele>19.799999237061</ele>
        <time>2022-01-20T11:14:43.000Z</time>
      </trkpt>
      <trkpt lat="47.27891" lon="-2.35598">
        <ele>19.39999961853</ele>
        <time>2022-01-20T11:14:44.000Z</time>
      </trkpt>
      <trkpt lat="47.27885" lon="-2.35599">
        <ele>19</ele>
        <time>2022-01-20T11:14:45.000Z</time>
      </trkpt>
      <trkpt lat="47.27879" lon="-2.35601">
        <ele>18.60000038147</ele>
        <time>2022-01-20T11:14:46.000Z</time>
      </trkpt>
      <trkpt lat="47.27848" lon="-2.35609">
        <ele>18.60000038147</ele>
        <time>2022-01-20T11:14:51.000Z</time>
      </trkpt>
      <trkpt lat="47.27815" lon="-2.35617">
        <ele>18.200000762939</ele>
        <time>2022-01-20T11:14:56.000Z</time>
      </trkpt>
      <trkpt lat="47.27808" lon="-2.35619">
        <ele>17.60000038147</ele>
        <time>2022-01-20T11:14:57.000Z</time>
      </trkpt>
      <trkpt lat="47.27801" lon="-2.35621">
        <ele>17.200000762939</ele>
        <time>2022-01-20T11:14:58.000Z</time>
      </trkpt>
      <trkpt lat="47.27794" lon="-2.35623">
        <ele>16.799999237061</ele>
        <time>2022-01-20T11:14:59.000Z</time>
      </trkpt>
      <trkpt lat="47.27788" lon="-2.35627">
        <ele>16.39999961853</ele>
        <time>2022-01-20T11:15:00.000Z</time>
      </trkpt>
      <trkpt lat="47.27769" lon="-2.35642">
        <ele>16.39999961853</ele>
        <time>2022-01-20T11:15:03.000Z</time>
      </trkpt>
      <trkpt lat="47.27753" lon="-2.3566">
        <ele>16.39999961853</ele>
        <time>2022-01-20T11:15:06.000Z</time>
      </trkpt>
      <trkpt lat="47.27744" lon="-2.35674">
        <ele>16.39999961853</ele>
        <time>2022-01-20T11:15:08.000Z</time>
      </trkpt>
      <trkpt lat="47.27722" lon="-2.35707">
        <ele>16</ele>
        <time>2022-01-20T11:15:13.000Z</time>
      </trkpt>
      <trkpt lat="47.27717" lon="-2.35713">
        <ele>15.39999961853</ele>
        <time>2022-01-20T11:15:14.000Z</time>
      </trkpt>
      <trkpt lat="47.27711" lon="-2.35718">
        <ele>15</ele>
        <time>2022-01-20T11:15:15.000Z</time>
      </trkpt>
      <trkpt lat="47.27705" lon="-2.35723">
        <ele>14.60000038147</ele>
        <time>2022-01-20T11:15:16.000Z</time>
      </trkpt>
      <trkpt lat="47.277" lon="-2.35727">
        <ele>14.199999809265</ele>
        <time>2022-01-20T11:15:17.000Z</time>
      </trkpt>
      <trkpt lat="47.27692" lon="-2.35733">
        <ele>14.199999809265</ele>
        <time>2022-01-20T11:15:19.000Z</time>
      </trkpt>
      <trkpt lat="47.27686" lon="-2.35741">
        <ele>13.60000038147</ele>
        <time>2022-01-20T11:15:21.000Z</time>
      </trkpt>
      <trkpt lat="47.27683" lon="-2.35746">
        <ele>13.199999809265</ele>
        <time>2022-01-20T11:15:22.000Z</time>
      </trkpt>
      <trkpt lat="47.2768" lon="-2.3575">
        <ele>12.60000038147</ele>
        <time>2022-01-20T11:15:23.000Z</time>
      </trkpt>
      <trkpt lat="47.27675" lon="-2.3575">
        <ele>12.199999809265</ele>
        <time>2022-01-20T11:15:24.000Z</time>
      </trkpt>
      <trkpt lat="47.27671" lon="-2.35748">
        <ele>11.800000190735</ele>
        <time>2022-01-20T11:15:25.000Z</time>
      </trkpt>
      <trkpt lat="47.27666" lon="-2.35744">
        <ele>11.800000190735</ele>
        <time>2022-01-20T11:15:26.000Z</time>
      </trkpt>
      <trkpt lat="47.27659" lon="-2.35732">
        <ele>11.800000190735</ele>
        <time>2022-01-20T11:15:28.000Z</time>
      </trkpt>
      <trkpt lat="47.27655" lon="-2.35727">
        <ele>11.800000190735</ele>
        <time>2022-01-20T11:15:29.000Z</time>
      </trkpt>
      <trkpt lat="47.2765" lon="-2.35725">
        <ele>11.800000190735</ele>
        <time>2022-01-20T11:15:30.000Z</time>
      </trkpt>
      <trkpt lat="47.27621" lon="-2.35716">
        <ele>11.800000190735</ele>
        <time>2022-01-20T11:15:35.000Z</time>
      </trkpt>
      <trkpt lat="47.27565" lon="-2.35703">
        <ele>11.800000190735</ele>
        <time>2022-01-20T11:15:45.000Z</time>
      </trkpt>
      <trkpt lat="47.27547" lon="-2.35698">
        <ele>11.39999961853</ele>
        <time>2022-01-20T11:15:48.000Z</time>
      </trkpt>
      <trkpt lat="47.27542" lon="-2.35697">
        <ele>11</ele>
        <time>2022-01-20T11:15:49.000Z</time>
      </trkpt>
      <trkpt lat="47.27536" lon="-2.35695">
        <ele>10.39999961853</ele>
        <time>2022-01-20T11:15:50.000Z</time>
      </trkpt>
      <trkpt lat="47.2753" lon="-2.35693">
        <ele>9.6000003814697</ele>
        <time>2022-01-20T11:15:51.000Z</time>
      </trkpt>
      <trkpt lat="47.27524" lon="-2.35692">
        <ele>9.6000003814697</ele>
        <time>2022-01-20T11:15:52.000Z</time>
      </trkpt>
      <trkpt lat="47.27493" lon="-2.35685">
        <ele>9.1999998092651</ele>
        <time>2022-01-20T11:15:57.000Z</time>
      </trkpt>
      <trkpt lat="47.27487" lon="-2.35683">
        <ele>8.8000001907349</ele>
        <time>2022-01-20T11:15:58.000Z</time>
      </trkpt>
      <trkpt lat="47.27481" lon="-2.35682">
        <ele>8.3999996185303</ele>
        <time>2022-01-20T11:15:59.000Z</time>
      </trkpt>
      <trkpt lat="47.27475" lon="-2.35681">
        <ele>8</ele>
        <time>2022-01-20T11:16:00.000Z</time>
      </trkpt>
      <trkpt lat="47.27469" lon="-2.3568">
        <ele>7.5999999046326</ele>
        <time>2022-01-20T11:16:01.000Z</time>
      </trkpt>
      <trkpt lat="47.27457" lon="-2.35677">
        <ele>7.5999999046326</ele>
        <time>2022-01-20T11:16:03.000Z</time>
      </trkpt>
      <trkpt lat="47.27445" lon="-2.35675">
        <ele>7.5999999046326</ele>
        <time>2022-01-20T11:16:05.000Z</time>
      </trkpt>
      <trkpt lat="47.27433" lon="-2.35675">
        <ele>7.5999999046326</ele>
        <time>2022-01-20T11:16:07.000Z</time>
      </trkpt>
      <trkpt lat="47.27427" lon="-2.35673">
        <ele>7.5999999046326</ele>
        <time>2022-01-20T11:16:08.000Z</time>
      </trkpt>
      <trkpt lat="47.27415" lon="-2.35672">
        <ele>7.5999999046326</ele>
        <time>2022-01-20T11:16:10.000Z</time>
      </trkpt>
      <trkpt lat="47.27402" lon="-2.35674">
        <ele>7.5999999046326</ele>
        <time>2022-01-20T11:16:12.000Z</time>
      </trkpt>
      <trkpt lat="47.27372" lon="-2.35692">
        <ele>7.5999999046326</ele>
        <time>2022-01-20T11:16:17.000Z</time>
      </trkpt>
      <trkpt lat="47.27334" lon="-2.35721">
        <ele>7.5999999046326</ele>
        <time>2022-01-20T11:16:24.000Z</time>
      </trkpt>
      <trkpt lat="47.27329" lon="-2.35725">
        <ele>7.5999999046326</ele>
        <time>2022-01-20T11:16:25.000Z</time>
      </trkpt>
      <trkpt lat="47.2732" lon="-2.35739">
        <ele>7.5999999046326</ele>
        <time>2022-01-20T11:16:28.000Z</time>
      </trkpt>
      <trkpt lat="47.27309" lon="-2.35743">
        <ele>7.5999999046326</ele>
        <time>2022-01-20T11:16:31.000Z</time>
      </trkpt>
      <trkpt lat="47.273" lon="-2.35728">
        <ele>7.5999999046326</ele>
        <time>2022-01-20T11:16:34.000Z</time>
      </trkpt>
      <trkpt lat="47.27292" lon="-2.3571">
        <ele>7.5999999046326</ele>
        <time>2022-01-20T11:16:37.000Z</time>
      </trkpt>
      <trkpt lat="47.27287" lon="-2.35697">
        <ele>7.5999999046326</ele>
        <time>2022-01-20T11:16:39.000Z</time>
      </trkpt>
      <trkpt lat="47.27266" lon="-2.35648">
        <ele>7.5999999046326</ele>
        <time>2022-01-20T11:16:47.000Z</time>
      </trkpt>
      <trkpt lat="47.27246" lon="-2.35604">
        <ele>7.5999999046326</ele>
        <time>2022-01-20T11:16:55.000Z</time>
      </trkpt>
      <trkpt lat="47.27226" lon="-2.35558">
        <ele>7.5999999046326</ele>
        <time>2022-01-20T11:17:03.000Z</time>
      </trkpt>
      <trkpt lat="47.27201" lon="-2.35502">
        <ele>8</ele>
        <time>2022-01-20T11:17:12.000Z</time>
      </trkpt>
      <trkpt lat="47.27198" lon="-2.35496">
        <ele>8.3999996185303</ele>
        <time>2022-01-20T11:17:13.000Z</time>
      </trkpt>
      <trkpt lat="47.27195" lon="-2.35489">
        <ele>8.8000001907349</ele>
        <time>2022-01-20T11:17:14.000Z</time>
      </trkpt>
      <trkpt lat="47.27192" lon="-2.35483">
        <ele>9.1999998092651</ele>
        <time>2022-01-20T11:17:15.000Z</time>
      </trkpt>
      <trkpt lat="47.27188" lon="-2.35476">
        <ele>9.6000003814697</ele>
        <time>2022-01-20T11:17:16.000Z</time>
      </trkpt>
      <trkpt lat="47.27172" lon="-2.35445">
        <ele>9.6000003814697</ele>
        <time>2022-01-20T11:17:21.000Z</time>
      </trkpt>
      <trkpt lat="47.27142" lon="-2.35387">
        <ele>9.6000003814697</ele>
        <time>2022-01-20T11:17:30.000Z</time>
      </trkpt>
      <trkpt lat="47.2711" lon="-2.35333">
        <ele>9.6000003814697</ele>
        <time>2022-01-20T11:17:39.000Z</time>
      </trkpt>
      <trkpt lat="47.2708" lon="-2.35285">
        <ele>9.6000003814697</ele>
        <time>2022-01-20T11:17:47.000Z</time>
      </trkpt>
      <trkpt lat="47.27045" lon="-2.35231">
        <ele>9.6000003814697</ele>
        <time>2022-01-20T11:17:56.000Z</time>
      </trkpt>
      <trkpt lat="47.27015" lon="-2.35184">
        <ele>9.6000003814697</ele>
        <time>2022-01-20T11:18:04.000Z</time>
      </trkpt>
      <trkpt lat="47.26983" lon="-2.35135">
        <ele>9.6000003814697</ele>
        <time>2022-01-20T11:18:12.000Z</time>
      </trkpt>
      <trkpt lat="47.26943" lon="-2.35075">
        <ele>9.6000003814697</ele>
        <time>2022-01-20T11:18:22.000Z</time>
      </trkpt>
      <trkpt lat="47.26935" lon="-2.35063">
        <ele>9.6000003814697</ele>
        <time>2022-01-20T11:18:24.000Z</time>
      </trkpt>
      <trkpt lat="47.26904" lon="-2.35017">
        <ele>9.6000003814697</ele>
        <time>2022-01-20T11:18:32.000Z</time>
      </trkpt>
      <trkpt lat="47.26868" lon="-2.34962">
        <ele>9.6000003814697</ele>
        <time>2022-01-20T11:18:41.000Z</time>
      </trkpt>
      <trkpt lat="47.26833" lon="-2.34908">
        <ele>9.6000003814697</ele>
        <time>2022-01-20T11:18:50.000Z</time>
      </trkpt>
      <trkpt lat="47.2681" lon="-2.3487">
        <ele>9.6000003814697</ele>
        <time>2022-01-20T11:18:56.000Z</time>
      </trkpt>
      <trkpt lat="47.26774" lon="-2.34817">
        <ele>9.6000003814697</ele>
        <time>2022-01-20T11:19:05.000Z</time>
      </trkpt>
      <trkpt lat="47.2677" lon="-2.34813">
        <ele>9.6000003814697</ele>
        <time>2022-01-20T11:19:06.000Z</time>
      </trkpt>
      <trkpt lat="47.26761" lon="-2.34802">
        <ele>9.6000003814697</ele>
        <time>2022-01-20T11:19:08.000Z</time>
      </trkpt>
      <trkpt lat="47.26752" lon="-2.3479">
        <ele>9.6000003814697</ele>
        <time>2022-01-20T11:19:10.000Z</time>
      </trkpt>
      <trkpt lat="47.26717" lon="-2.34748">
        <ele>9.6000003814697</ele>
        <time>2022-01-20T11:19:18.000Z</time>
      </trkpt>
      <trkpt lat="47.26687" lon="-2.3471">
        <ele>9.6000003814697</ele>
        <time>2022-01-20T11:19:25.000Z</time>
      </trkpt>
      <trkpt lat="47.26647" lon="-2.3466">
        <ele>9.6000003814697</ele>
        <time>2022-01-20T11:19:34.000Z</time>
      </trkpt>
      <trkpt lat="47.26607" lon="-2.3461">
        <ele>9.6000003814697</ele>
        <time>2022-01-20T11:19:43.000Z</time>
      </trkpt>
      <trkpt lat="47.2658" lon="-2.34579">
        <ele>9.6000003814697</ele>
        <time>2022-01-20T11:19:49.000Z</time>
      </trkpt>
      <trkpt lat="47.26537" lon="-2.34536">
        <ele>9.6000003814697</ele>
        <time>2022-01-20T11:19:58.000Z</time>
      </trkpt>
      <trkpt lat="47.26502" lon="-2.3451">
        <ele>9.6000003814697</ele>
        <time>2022-01-20T11:20:05.000Z</time>
      </trkpt>
      <trkpt lat="47.26458" lon="-2.34479">
        <ele>9.6000003814697</ele>
        <time>2022-01-20T11:20:13.000Z</time>
      </trkpt>
      <trkpt lat="47.2641" lon="-2.34443">
        <ele>9.6000003814697</ele>
        <time>2022-01-20T11:20:22.000Z</time>
      </trkpt>
      <trkpt lat="47.26405" lon="-2.34438">
        <ele>9.6000003814697</ele>
        <time>2022-01-20T11:20:23.000Z</time>
      </trkpt>
      <trkpt lat="47.2637" lon="-2.34408">
        <ele>9.6000003814697</ele>
        <time>2022-01-20T11:20:30.000Z</time>
      </trkpt>
      <trkpt lat="47.26334" lon="-2.34381">
        <ele>9.6000003814697</ele>
        <time>2022-01-20T11:20:37.000Z</time>
      </trkpt>
      <trkpt lat="47.26328" lon="-2.3438">
        <ele>9.6000003814697</ele>
        <time>2022-01-20T11:20:38.000Z</time>
      </trkpt>
      <trkpt lat="47.26323" lon="-2.34376">
        <ele>9.6000003814697</ele>
        <time>2022-01-20T11:20:39.000Z</time>
      </trkpt>
      <trkpt lat="47.26315" lon="-2.34365">
        <ele>9.6000003814697</ele>
        <time>2022-01-20T11:20:41.000Z</time>
      </trkpt>
      <trkpt lat="47.26308" lon="-2.34353">
        <ele>9.6000003814697</ele>
        <time>2022-01-20T11:20:43.000Z</time>
      </trkpt>
      <trkpt lat="47.26293" lon="-2.34339">
        <ele>9.6000003814697</ele>
        <time>2022-01-20T11:20:46.000Z</time>
      </trkpt>
      <trkpt lat="47.26289" lon="-2.34334">
        <ele>9.6000003814697</ele>
        <time>2022-01-20T11:20:47.000Z</time>
      </trkpt>
      <trkpt lat="47.26255" lon="-2.34298">
        <ele>9.6000003814697</ele>
        <time>2022-01-20T11:20:54.000Z</time>
      </trkpt>
      <trkpt lat="47.26228" lon="-2.34269">
        <ele>9.6000003814697</ele>
        <time>2022-01-20T11:21:00.000Z</time>
      </trkpt>
      <trkpt lat="47.26192" lon="-2.3423">
        <ele>9.6000003814697</ele>
        <time>2022-01-20T11:21:08.000Z</time>
      </trkpt>
      <trkpt lat="47.26183" lon="-2.34221">
        <ele>9.6000003814697</ele>
        <time>2022-01-20T11:21:10.000Z</time>
      </trkpt>
      <trkpt lat="47.26161" lon="-2.342">
        <ele>9.6000003814697</ele>
        <time>2022-01-20T11:21:15.000Z</time>
      </trkpt>
      <trkpt lat="47.26141" lon="-2.34186">
        <ele>9.6000003814697</ele>
        <time>2022-01-20T11:21:19.000Z</time>
      </trkpt>
      <trkpt lat="47.26136" lon="-2.34184">
        <ele>9.6000003814697</ele>
        <time>2022-01-20T11:21:20.000Z</time>
      </trkpt>
      <trkpt lat="47.26124" lon="-2.34171">
        <ele>9.6000003814697</ele>
        <time>2022-01-20T11:21:23.000Z</time>
      </trkpt>
      <trkpt lat="47.26105" lon="-2.34156">
        <ele>9.6000003814697</ele>
        <time>2022-01-20T11:21:27.000Z</time>
      </trkpt>
      <trkpt lat="47.261" lon="-2.34154">
        <ele>9.6000003814697</ele>
        <time>2022-01-20T11:21:28.000Z</time>
      </trkpt>
      <trkpt lat="47.26064" lon="-2.34135">
        <ele>9.6000003814697</ele>
        <time>2022-01-20T11:21:35.000Z</time>
      </trkpt>
      <trkpt lat="47.26017" lon="-2.34111">
        <ele>9.6000003814697</ele>
        <time>2022-01-20T11:21:44.000Z</time>
      </trkpt>
      <trkpt lat="47.25977" lon="-2.34091">
        <ele>9.6000003814697</ele>
        <time>2022-01-20T11:21:52.000Z</time>
      </trkpt>
      <trkpt lat="47.25972" lon="-2.34089">
        <ele>9.1999998092651</ele>
        <time>2022-01-20T11:21:53.000Z</time>
      </trkpt>
      <trkpt lat="47.25967" lon="-2.34087">
        <ele>8.8000001907349</ele>
        <time>2022-01-20T11:21:54.000Z</time>
      </trkpt>
      <trkpt lat="47.25962" lon="-2.34085">
        <ele>8.3999996185303</ele>
        <time>2022-01-20T11:21:55.000Z</time>
      </trkpt>
      <trkpt lat="47.25957" lon="-2.34083">
        <ele>8</ele>
        <time>2022-01-20T11:21:56.000Z</time>
      </trkpt>
      <trkpt lat="47.25952" lon="-2.34081">
        <ele>7.5999999046326</ele>
        <time>2022-01-20T11:21:57.000Z</time>
      </trkpt>
      <trkpt lat="47.25937" lon="-2.34076">
        <ele>7.5999999046326</ele>
        <time>2022-01-20T11:22:00.000Z</time>
      </trkpt>
      <trkpt lat="47.25913" lon="-2.34072">
        <ele>7.5999999046326</ele>
        <time>2022-01-20T11:22:05.000Z</time>
      </trkpt>
      <trkpt lat="47.25908" lon="-2.34071">
        <ele>7.5999999046326</ele>
        <time>2022-01-20T11:22:06.000Z</time>
      </trkpt>
      <trkpt lat="47.25898" lon="-2.34057">
        <ele>7.5999999046326</ele>
        <time>2022-01-20T11:22:09.000Z</time>
      </trkpt>
      <trkpt lat="47.25897" lon="-2.34036">
        <ele>7.5999999046326</ele>
        <time>2022-01-20T11:22:12.000Z</time>
      </trkpt>
      <trkpt lat="47.25902" lon="-2.3402">
        <ele>7.5999999046326</ele>
        <time>2022-01-20T11:22:15.000Z</time>
      </trkpt>
      <trkpt lat="47.25904" lon="-2.34013">
        <ele>7.5999999046326</ele>
        <time>2022-01-20T11:22:16.000Z</time>
      </trkpt>
      <trkpt lat="47.2592" lon="-2.33961">
        <ele>7.5999999046326</ele>
        <time>2022-01-20T11:22:24.000Z</time>
      </trkpt>
      <trkpt lat="47.25928" lon="-2.33942">
        <ele>7.5999999046326</ele>
        <time>2022-01-20T11:22:27.000Z</time>
      </trkpt>
      <trkpt lat="47.25937" lon="-2.33928">
        <ele>7.5999999046326</ele>
        <time>2022-01-20T11:22:30.000Z</time>
      </trkpt>
      <trkpt lat="47.2594" lon="-2.33923">
        <ele>7.5999999046326</ele>
        <time>2022-01-20T11:22:31.000Z</time>
      </trkpt>
      <trkpt lat="47.25943" lon="-2.33917">
        <ele>7.5999999046326</ele>
        <time>2022-01-20T11:22:32.000Z</time>
      </trkpt>
      <trkpt lat="47.2595" lon="-2.339">
        <ele>7.5999999046326</ele>
        <time>2022-01-20T11:22:35.000Z</time>
      </trkpt>
      <trkpt lat="47.25963" lon="-2.33887">
        <ele>7.5999999046326</ele>
        <time>2022-01-20T11:22:39.000Z</time>
      </trkpt>
      <trkpt lat="47.25968" lon="-2.33877">
        <ele>7.5999999046326</ele>
        <time>2022-01-20T11:22:41.000Z</time>
      </trkpt>
      <trkpt lat="47.25972" lon="-2.33865">
        <ele>7.5999999046326</ele>
        <time>2022-01-20T11:22:43.000Z</time>
      </trkpt>
      <trkpt lat="47.25989" lon="-2.33821">
        <ele>7.5999999046326</ele>
        <time>2022-01-20T11:22:50.000Z</time>
      </trkpt>
      <trkpt lat="47.26007" lon="-2.3377">
        <ele>7.5999999046326</ele>
        <time>2022-01-20T11:22:58.000Z</time>
      </trkpt>
      <trkpt lat="47.26022" lon="-2.33727">
        <ele>7.5999999046326</ele>
        <time>2022-01-20T11:23:05.000Z</time>
      </trkpt>
      <trkpt lat="47.26037" lon="-2.33704">
        <ele>7.1999998092651</ele>
        <time>2022-01-20T11:23:10.000Z</time>
      </trkpt>
      <trkpt lat="47.2604" lon="-2.33702">
        <ele>6.5999999046326</ele>
        <time>2022-01-20T11:23:11.000Z</time>
      </trkpt>
      <trkpt lat="47.26042" lon="-2.337">
        <ele>6.1999998092651</ele>
        <time>2022-01-20T11:23:12.000Z</time>
      </trkpt>
      <trkpt lat="47.26044" lon="-2.33696">
        <ele>5.8000001907349</ele>
        <time>2022-01-20T11:23:13.000Z</time>
      </trkpt>
      <trkpt lat="47.26046" lon="-2.33691">
        <ele>5.4000000953674</ele>
        <time>2022-01-20T11:23:14.000Z</time>
      </trkpt>
      <trkpt lat="47.26047" lon="-2.33685">
        <ele>5.4000000953674</ele>
        <time>2022-01-20T11:23:15.000Z</time>
      </trkpt>
      <trkpt lat="47.26059" lon="-2.33645">
        <ele>5.4000000953674</ele>
        <time>2022-01-20T11:23:21.000Z</time>
      </trkpt>
      <trkpt lat="47.26076" lon="-2.33595">
        <ele>5.4000000953674</ele>
        <time>2022-01-20T11:23:28.000Z</time>
      </trkpt>
      <trkpt lat="47.26084" lon="-2.33574">
        <ele>5.4000000953674</ele>
        <time>2022-01-20T11:23:31.000Z</time>
      </trkpt>
      <trkpt lat="47.26092" lon="-2.33545">
        <ele>5.4000000953674</ele>
        <time>2022-01-20T11:23:35.000Z</time>
      </trkpt>
      <trkpt lat="47.26108" lon="-2.33502">
        <ele>5.4000000953674</ele>
        <time>2022-01-20T11:23:41.000Z</time>
      </trkpt>
      <trkpt lat="47.26126" lon="-2.33455">
        <ele>5.4000000953674</ele>
        <time>2022-01-20T11:23:49.000Z</time>
      </trkpt>
      <trkpt lat="47.26132" lon="-2.33434">
        <ele>5.4000000953674</ele>
        <time>2022-01-20T11:23:54.000Z</time>
      </trkpt>
      <trkpt lat="47.2613" lon="-2.3343">
        <ele>5.4000000953674</ele>
        <time>2022-01-20T11:23:55.000Z</time>
      </trkpt>
      <trkpt lat="47.26125" lon="-2.33426">
        <ele>5.4000000953674</ele>
        <time>2022-01-20T11:23:57.000Z</time>
      </trkpt>
      <trkpt lat="47.26116" lon="-2.33406">
        <ele>5.4000000953674</ele>
        <time>2022-01-20T11:24:01.000Z</time>
      </trkpt>
      <trkpt lat="47.26101" lon="-2.33385">
        <ele>5.4000000953674</ele>
        <time>2022-01-20T11:24:05.000Z</time>
      </trkpt>
      <trkpt lat="47.26097" lon="-2.3338">
        <ele>5.4000000953674</ele>
        <time>2022-01-20T11:24:06.000Z</time>
      </trkpt>
      <trkpt lat="47.26093" lon="-2.33376">
        <ele>5.4000000953674</ele>
        <time>2022-01-20T11:24:07.000Z</time>
      </trkpt>
      <trkpt lat="47.26081" lon="-2.33366">
        <ele>5.4000000953674</ele>
        <time>2022-01-20T11:24:10.000Z</time>
      </trkpt>
      <trkpt lat="47.26075" lon="-2.33346">
        <ele>5.4000000953674</ele>
        <time>2022-01-20T11:24:13.000Z</time>
      </trkpt>
      <trkpt lat="47.26073" lon="-2.33339">
        <ele>5.8000001907349</ele>
        <time>2022-01-20T11:24:14.000Z</time>
      </trkpt>
      <trkpt lat="47.26071" lon="-2.33333">
        <ele>6.1999998092651</ele>
        <time>2022-01-20T11:24:15.000Z</time>
      </trkpt>
      <trkpt lat="47.26069" lon="-2.33326">
        <ele>6.5999999046326</ele>
        <time>2022-01-20T11:24:16.000Z</time>
      </trkpt>
      <trkpt lat="47.26066" lon="-2.3332">
        <ele>7</ele>
        <time>2022-01-20T11:24:17.000Z</time>
      </trkpt>
      <trkpt lat="47.26064" lon="-2.33313">
        <ele>7.4000000953674</ele>
        <time>2022-01-20T11:24:18.000Z</time>
      </trkpt>
      <trkpt lat="47.26059" lon="-2.333">
        <ele>7.4000000953674</ele>
        <time>2022-01-20T11:24:20.000Z</time>
      </trkpt>
      <trkpt lat="47.26045" lon="-2.33257">
        <ele>7.4000000953674</ele>
        <time>2022-01-20T11:24:26.000Z</time>
      </trkpt>
      <trkpt lat="47.26019" lon="-2.33184">
        <ele>7.4000000953674</ele>
        <time>2022-01-20T11:24:36.000Z</time>
      </trkpt>
      <trkpt lat="47.26016" lon="-2.33176">
        <ele>7.4000000953674</ele>
        <time>2022-01-20T11:24:37.000Z</time>
      </trkpt>
      <trkpt lat="47.25994" lon="-2.33109">
        <ele>7.4000000953674</ele>
        <time>2022-01-20T11:24:46.000Z</time>
      </trkpt>
      <trkpt lat="47.25992" lon="-2.33102">
        <ele>7.4000000953674</ele>
        <time>2022-01-20T11:24:47.000Z</time>
      </trkpt>
      <trkpt lat="47.25986" lon="-2.3308">
        <ele>7.4000000953674</ele>
        <time>2022-01-20T11:24:50.000Z</time>
      </trkpt>
      <trkpt lat="47.25983" lon="-2.33073">
        <ele>7.4000000953674</ele>
        <time>2022-01-20T11:24:51.000Z</time>
      </trkpt>
      <trkpt lat="47.25968" lon="-2.33035">
        <ele>7.4000000953674</ele>
        <time>2022-01-20T11:24:56.000Z</time>
      </trkpt>
      <trkpt lat="47.25966" lon="-2.33027">
        <ele>7.4000000953674</ele>
        <time>2022-01-20T11:24:57.000Z</time>
      </trkpt>
      <trkpt lat="47.25956" lon="-2.32987">
        <ele>7.4000000953674</ele>
        <time>2022-01-20T11:25:02.000Z</time>
      </trkpt>
      <trkpt lat="47.25954" lon="-2.32979">
        <ele>7.4000000953674</ele>
        <time>2022-01-20T11:25:03.000Z</time>
      </trkpt>
      <trkpt lat="47.25947" lon="-2.32957">
        <ele>7.4000000953674</ele>
        <time>2022-01-20T11:25:06.000Z</time>
      </trkpt>
      <trkpt lat="47.25936" lon="-2.3293">
        <ele>7.4000000953674</ele>
        <time>2022-01-20T11:25:10.000Z</time>
      </trkpt>
      <trkpt lat="47.25933" lon="-2.32923">
        <ele>7.4000000953674</ele>
        <time>2022-01-20T11:25:11.000Z</time>
      </trkpt>
      <trkpt lat="47.25917" lon="-2.32889">
        <ele>7.4000000953674</ele>
        <time>2022-01-20T11:25:16.000Z</time>
      </trkpt>
      <trkpt lat="47.259" lon="-2.3284">
        <ele>7.4000000953674</ele>
        <time>2022-01-20T11:25:23.000Z</time>
      </trkpt>
      <trkpt lat="47.25878" lon="-2.32773">
        <ele>7.4000000953674</ele>
        <time>2022-01-20T11:25:32.000Z</time>
      </trkpt>
      <trkpt lat="47.25863" lon="-2.32728">
        <ele>7.4000000953674</ele>
        <time>2022-01-20T11:25:39.000Z</time>
      </trkpt>
      <trkpt lat="47.25863" lon="-2.32716">
        <ele>7.4000000953674</ele>
        <time>2022-01-20T11:25:41.000Z</time>
      </trkpt>
      <trkpt lat="47.25859" lon="-2.32704">
        <ele>7.4000000953674</ele>
        <time>2022-01-20T11:25:43.000Z</time>
      </trkpt>
      <trkpt lat="47.25851" lon="-2.32686">
        <ele>7.4000000953674</ele>
        <time>2022-01-20T11:25:46.000Z</time>
      </trkpt>
      <trkpt lat="47.25849" lon="-2.32678">
        <ele>7.4000000953674</ele>
        <time>2022-01-20T11:25:47.000Z</time>
      </trkpt>
      <trkpt lat="47.25847" lon="-2.3267">
        <ele>7.4000000953674</ele>
        <time>2022-01-20T11:25:48.000Z</time>
      </trkpt>
      <trkpt lat="47.25833" lon="-2.32616">
        <ele>7.4000000953674</ele>
        <time>2022-01-20T11:25:55.000Z</time>
      </trkpt>
      <trkpt lat="47.25822" lon="-2.3257">
        <ele>7.4000000953674</ele>
        <time>2022-01-20T11:26:01.000Z</time>
      </trkpt>
      <trkpt lat="47.25822" lon="-2.32562">
        <ele>7.4000000953674</ele>
        <time>2022-01-20T11:26:02.000Z</time>
      </trkpt>
      <trkpt lat="47.25818" lon="-2.32548">
        <ele>7.4000000953674</ele>
        <time>2022-01-20T11:26:04.000Z</time>
      </trkpt>
      <trkpt lat="47.25811" lon="-2.32527">
        <ele>7.4000000953674</ele>
        <time>2022-01-20T11:26:07.000Z</time>
      </trkpt>
      <trkpt lat="47.258" lon="-2.32475">
        <ele>7.4000000953674</ele>
        <time>2022-01-20T11:26:15.000Z</time>
      </trkpt>
      <trkpt lat="47.25808" lon="-2.32457">
        <ele>7.4000000953674</ele>
        <time>2022-01-20T11:26:19.000Z</time>
      </trkpt>
      <trkpt lat="47.25811" lon="-2.32455">
        <ele>7.4000000953674</ele>
        <time>2022-01-20T11:26:20.000Z</time>
      </trkpt>
      <trkpt lat="47.25819" lon="-2.32457">
        <ele>7.4000000953674</ele>
        <time>2022-01-20T11:26:22.000Z</time>
      </trkpt>
      <trkpt lat="47.25827" lon="-2.32462">
        <ele>7.4000000953674</ele>
        <time>2022-01-20T11:26:24.000Z</time>
      </trkpt>
      <trkpt lat="47.25842" lon="-2.32468">
        <ele>7.4000000953674</ele>
        <time>2022-01-20T11:26:27.000Z</time>
      </trkpt>
      <trkpt lat="47.25865" lon="-2.32472">
        <ele>7.4000000953674</ele>
        <time>2022-01-20T11:26:32.000Z</time>
      </trkpt>
      <trkpt lat="47.2587" lon="-2.32472">
        <ele>7.4000000953674</ele>
        <time>2022-01-20T11:26:33.000Z</time>
      </trkpt>
      <trkpt lat="47.25879" lon="-2.32469">
        <ele>7.4000000953674</ele>
        <time>2022-01-20T11:26:35.000Z</time>
      </trkpt>
      <trkpt lat="47.25893" lon="-2.32464">
        <ele>7.4000000953674</ele>
        <time>2022-01-20T11:26:38.000Z</time>
      </trkpt>
      <trkpt lat="47.25897" lon="-2.32459">
        <ele>7.4000000953674</ele>
        <time>2022-01-20T11:26:39.000Z</time>
      </trkpt>
      <trkpt lat="47.25925" lon="-2.32425">
        <ele>7.4000000953674</ele>
        <time>2022-01-20T11:26:46.000Z</time>
      </trkpt>
      <trkpt lat="47.25932" lon="-2.32415">
        <ele>7</ele>
        <time>2022-01-20T11:26:48.000Z</time>
      </trkpt>
      <trkpt lat="47.25936" lon="-2.3241">
        <ele>6.5999999046326</ele>
        <time>2022-01-20T11:26:49.000Z</time>
      </trkpt>
      <trkpt lat="47.2594" lon="-2.32405">
        <ele>6.1999998092651</ele>
        <time>2022-01-20T11:26:50.000Z</time>
      </trkpt>
      <trkpt lat="47.25944" lon="-2.324">
        <ele>5.8000001907349</ele>
        <time>2022-01-20T11:26:51.000Z</time>
      </trkpt>
      <trkpt lat="47.25948" lon="-2.32395">
        <ele>5.4000000953674</ele>
        <time>2022-01-20T11:26:52.000Z</time>
      </trkpt>
      <trkpt lat="47.25955" lon="-2.32385">
        <ele>5.4000000953674</ele>
        <time>2022-01-20T11:26:54.000Z</time>
      </trkpt>
      <trkpt lat="47.25985" lon="-2.32345">
        <ele>5.4000000953674</ele>
        <time>2022-01-20T11:27:02.000Z</time>
      </trkpt>
      <trkpt lat="47.26015" lon="-2.32306">
        <ele>5.4000000953674</ele>
        <time>2022-01-20T11:27:10.000Z</time>
      </trkpt>
      <trkpt lat="47.26045" lon="-2.32272">
        <ele>5.4000000953674</ele>
        <time>2022-01-20T11:27:18.000Z</time>
      </trkpt>
      <trkpt lat="47.26072" lon="-2.32241">
        <ele>5.4000000953674</ele>
        <time>2022-01-20T11:27:25.000Z</time>
      </trkpt>
      <trkpt lat="47.26096" lon="-2.32206">
        <ele>5.4000000953674</ele>
        <time>2022-01-20T11:27:32.000Z</time>
      </trkpt>
      <trkpt lat="47.26104" lon="-2.32188">
        <ele>5.4000000953674</ele>
        <time>2022-01-20T11:27:35.000Z</time>
      </trkpt>
      <trkpt lat="47.26111" lon="-2.3217">
        <ele>5.4000000953674</ele>
        <time>2022-01-20T11:27:38.000Z</time>
      </trkpt>
      <trkpt lat="47.26129" lon="-2.32125">
        <ele>5.4000000953674</ele>
        <time>2022-01-20T11:27:45.000Z</time>
      </trkpt>
      <trkpt lat="47.26137" lon="-2.32095">
        <ele>5.4000000953674</ele>
        <time>2022-01-20T11:27:50.000Z</time>
      </trkpt>
      <trkpt lat="47.26138" lon="-2.32089">
        <ele>5.4000000953674</ele>
        <time>2022-01-20T11:27:51.000Z</time>
      </trkpt>
      <trkpt lat="47.26143" lon="-2.32077">
        <ele>5.4000000953674</ele>
        <time>2022-01-20T11:27:53.000Z</time>
      </trkpt>
      <trkpt lat="47.2615" lon="-2.32051">
        <ele>5.4000000953674</ele>
        <time>2022-01-20T11:27:57.000Z</time>
      </trkpt>
      <trkpt lat="47.26162" lon="-2.32023">
        <ele>5.4000000953674</ele>
        <time>2022-01-20T11:28:03.000Z</time>
      </trkpt>
      <trkpt lat="47.26175" lon="-2.3202">
        <ele>5.4000000953674</ele>
        <time>2022-01-20T11:28:07.000Z</time>
      </trkpt>
      <trkpt lat="47.26189" lon="-2.32024">
        <ele>5.4000000953674</ele>
        <time>2022-01-20T11:28:13.000Z</time>
      </trkpt>
      <trkpt lat="47.26194" lon="-2.32021">
        <ele>5.4000000953674</ele>
        <time>2022-01-20T11:28:15.000Z</time>
      </trkpt>
      <trkpt lat="47.26196" lon="-2.32016">
        <ele>5.4000000953674</ele>
        <time>2022-01-20T11:28:17.000Z</time>
      </trkpt>
      <trkpt lat="47.26199" lon="-2.32004">
        <ele>5.4000000953674</ele>
        <time>2022-01-20T11:28:21.000Z</time>
      </trkpt>
      <trkpt lat="47.26203" lon="-2.32">
        <ele>5.4000000953674</ele>
        <time>2022-01-20T11:28:23.000Z</time>
      </trkpt>
      <trkpt lat="47.2621" lon="-2.3199">
        <ele>5.4000000953674</ele>
        <time>2022-01-20T11:28:26.000Z</time>
      </trkpt>
      <trkpt lat="47.26233" lon="-2.31968">
        <ele>5.4000000953674</ele>
        <time>2022-01-20T11:28:33.000Z</time>
      </trkpt>
      <trkpt lat="47.26246" lon="-2.31952">
        <ele>5.4000000953674</ele>
        <time>2022-01-20T11:28:38.000Z</time>
      </trkpt>
      <trkpt lat="47.26254" lon="-2.31936">
        <ele>5.4000000953674</ele>
        <time>2022-01-20T11:28:43.000Z</time>
      </trkpt>
      <trkpt lat="47.26267" lon="-2.31918">
        <ele>5.4000000953674</ele>
        <time>2022-01-20T11:28:49.000Z</time>
      </trkpt>
      <trkpt lat="47.26282" lon="-2.319">
        <ele>5.4000000953674</ele>
        <time>2022-01-20T11:28:55.000Z</time>
      </trkpt>
      <trkpt lat="47.26292" lon="-2.31883">
        <ele>5.4000000953674</ele>
        <time>2022-01-20T11:29:00.000Z</time>
      </trkpt>
      <trkpt lat="47.26298" lon="-2.31849">
        <ele>5.4000000953674</ele>
        <time>2022-01-20T11:29:06.000Z</time>
      </trkpt>
      <trkpt lat="47.26301" lon="-2.31816">
        <ele>5.4000000953674</ele>
        <time>2022-01-20T11:29:12.000Z</time>
      </trkpt>
      <trkpt lat="47.26304" lon="-2.31778">
        <ele>5.4000000953674</ele>
        <time>2022-01-20T11:29:18.000Z</time>
      </trkpt>
      <trkpt lat="47.26301" lon="-2.31741">
        <ele>5.4000000953674</ele>
        <time>2022-01-20T11:29:25.000Z</time>
      </trkpt>
      <trkpt lat="47.26303" lon="-2.31722">
        <ele>5.4000000953674</ele>
        <time>2022-01-20T11:29:28.000Z</time>
      </trkpt>
      <trkpt lat="47.26306" lon="-2.31718">
        <ele>5.4000000953674</ele>
        <time>2022-01-20T11:29:29.000Z</time>
      </trkpt>
      <trkpt lat="47.2632" lon="-2.31708">
        <ele>5.4000000953674</ele>
        <time>2022-01-20T11:29:33.000Z</time>
      </trkpt>
      <trkpt lat="47.26331" lon="-2.31697">
        <ele>5.8000001907349</ele>
        <time>2022-01-20T11:29:37.000Z</time>
      </trkpt>
      <trkpt lat="47.26332" lon="-2.31692">
        <ele>6.1999998092651</ele>
        <time>2022-01-20T11:29:38.000Z</time>
      </trkpt>
      <trkpt lat="47.26334" lon="-2.31688">
        <ele>6.5999999046326</ele>
        <time>2022-01-20T11:29:39.000Z</time>
      </trkpt>
      <trkpt lat="47.26336" lon="-2.31687">
        <ele>7</ele>
        <time>2022-01-20T11:29:40.000Z</time>
      </trkpt>
      <trkpt lat="47.26339" lon="-2.31686">
        <ele>7.4000000953674</ele>
        <time>2022-01-20T11:29:41.000Z</time>
      </trkpt>
      <trkpt lat="47.26346" lon="-2.31682">
        <ele>7.4000000953674</ele>
        <time>2022-01-20T11:29:43.000Z</time>
      </trkpt>
      <trkpt lat="47.26355" lon="-2.31677">
        <ele>7.4000000953674</ele>
        <time>2022-01-20T11:29:46.000Z</time>
      </trkpt>
      <trkpt lat="47.26362" lon="-2.31675">
        <ele>7.8000001907349</ele>
        <time>2022-01-20T11:29:48.000Z</time>
      </trkpt>
      <trkpt lat="47.26365" lon="-2.31673">
        <ele>8.1999998092651</ele>
        <time>2022-01-20T11:29:49.000Z</time>
      </trkpt>
      <trkpt lat="47.26369" lon="-2.31672">
        <ele>8.6000003814697</ele>
        <time>2022-01-20T11:29:50.000Z</time>
      </trkpt>
      <trkpt lat="47.26373" lon="-2.31671">
        <ele>9.6000003814697</ele>
        <time>2022-01-20T11:29:51.000Z</time>
      </trkpt>
      <trkpt lat="47.26376" lon="-2.3167">
        <ele>9.6000003814697</ele>
        <time>2022-01-20T11:29:52.000Z</time>
      </trkpt>
      <trkpt lat="47.26396" lon="-2.3166">
        <ele>9.6000003814697</ele>
        <time>2022-01-20T11:29:58.000Z</time>
      </trkpt>
      <trkpt lat="47.26412" lon="-2.31647">
        <ele>9.6000003814697</ele>
        <time>2022-01-20T11:30:04.000Z</time>
      </trkpt>
      <trkpt lat="47.26411" lon="-2.31636">
        <ele>9.6000003814697</ele>
        <time>2022-01-20T11:30:07.000Z</time>
      </trkpt>
      <trkpt lat="47.26412" lon="-2.31616">
        <ele>9.6000003814697</ele>
        <time>2022-01-20T11:30:12.000Z</time>
      </trkpt>
      <trkpt lat="47.26412" lon="-2.31612">
        <ele>9.6000003814697</ele>
        <time>2022-01-20T11:30:13.000Z</time>
      </trkpt>
      <trkpt lat="47.26411" lon="-2.31596">
        <ele>9.6000003814697</ele>
        <time>2022-01-20T11:30:17.000Z</time>
      </trkpt>
      <trkpt lat="47.26411" lon="-2.31568">
        <ele>9.6000003814697</ele>
        <time>2022-01-20T11:30:23.000Z</time>
      </trkpt>
      <trkpt lat="47.26411" lon="-2.31564">
        <ele>10</ele>
        <time>2022-01-20T11:30:24.000Z</time>
      </trkpt>
      <trkpt lat="47.26411" lon="-2.3156">
        <ele>10.39999961853</ele>
        <time>2022-01-20T11:30:25.000Z</time>
      </trkpt>
      <trkpt lat="47.2641" lon="-2.31557">
        <ele>10.800000190735</ele>
        <time>2022-01-20T11:30:26.000Z</time>
      </trkpt>
      <trkpt lat="47.26411" lon="-2.31554">
        <ele>11.199999809265</ele>
        <time>2022-01-20T11:30:27.000Z</time>
      </trkpt>
      <trkpt lat="47.26412" lon="-2.31551">
        <ele>11.60000038147</ele>
        <time>2022-01-20T11:30:28.000Z</time>
      </trkpt>
      <trkpt lat="47.26414" lon="-2.3155">
        <ele>11.60000038147</ele>
        <time>2022-01-20T11:30:29.000Z</time>
      </trkpt>
      <trkpt lat="47.26417" lon="-2.31552">
        <ele>11.60000038147</ele>
        <time>2022-01-20T11:30:32.000Z</time>
      </trkpt>
      <trkpt lat="47.26417" lon="-2.31552">
        <ele>11.60000038147</ele>
        <time>2022-01-20T11:30:33.000Z</time>
      </trkpt>
    </trkseg>
  </trk>
</gpx>